<?xml version="1.0" encoding="UTF-8" standalone="no" ?><gpx xmlns="http://www.topografix.com/GPX/1/1" xmlns:gpxx="http://www.garmin.com/xmlschemas/GpxExtensions/v3" xmlns:wptx1="http://www.garmin.com/xmlschemas/WaypointExtension/v1" xmlns:gpxtpx="http://www.garmin.com/xmlschemas/TrackPointExtension/v1" creator="GuideVTT.com" version="1.1" xmlns:xsi="http://www.w3.org/2001/XMLSchema-instance" xsi:schemaLocation="http://www.topografix.com/GPX/1/1 http://www.topografix.com/GPX/1/1/gpx.xsd http://www.garmin.com/xmlschemas/GpxExtensions/v3 http://www8.garmin.com/xmlschemas/GpxExtensionsv3.xsd http://www.garmin.com/xmlschemas/WaypointExtension/v1 http://www8.garmin.com/xmlschemas/WaypointExtensionv1.xsd http://www.garmin.com/xmlschemas/TrackPointExtension/v1 http://www.garmin.com/xmlschemas/TrackPointExtensionv1.xsd">
<metadata><link href="http://www.garmin.com"><text>Garmin International</text></link><time>2013-06-22T15:13:50Z</time></metadata>
<trk><name>2016-01-10-01-data.gpx</name><extensions><gpxx:TrackExtension><gpxx:DisplayColor>Cyan</gpxx:DisplayColor></gpxx:TrackExtension></extensions><trkseg>
<trkpt lat="48.495814" lon="2.63567"><ele></ele><time>2017-9-17T10:17:47Z</time></trkpt>
<trkpt lat="48.495717" lon="2.635782"><ele></ele><time>2017-9-17T10:17:50Z</time></trkpt>
<trkpt lat="48.495647" lon="2.635885"><ele></ele><time>2017-9-17T10:17:53Z</time></trkpt>
<trkpt lat="48.495568" lon="2.636004"><ele></ele><time>2017-9-17T10:17:56Z</time></trkpt>
<trkpt lat="48.495489" lon="2.636116"><ele></ele><time>2017-9-17T10:17:59Z</time></trkpt>
<trkpt lat="48.49539" lon="2.636227"><ele></ele><time>2017-9-17T10:18:2Z</time></trkpt>
<trkpt lat="48.495321" lon="2.636342"><ele></ele><time>2017-9-17T10:18:5Z</time></trkpt>
<trkpt lat="48.49524" lon="2.636439"><ele></ele><time>2017-9-17T10:18:8Z</time></trkpt>
<trkpt lat="48.495138" lon="2.63657"><ele></ele><time>2017-9-17T10:18:11Z</time></trkpt>
<trkpt lat="48.495067" lon="2.636675"><ele></ele><time>2017-9-17T10:18:14Z</time></trkpt>
<trkpt lat="48.494961" lon="2.636773"><ele></ele><time>2017-9-17T10:18:17Z</time></trkpt>
<trkpt lat="48.494871" lon="2.636888"><ele></ele><time>2017-9-17T10:18:20Z</time></trkpt>
<trkpt lat="48.494801" lon="2.636997"><ele></ele><time>2017-9-17T10:18:23Z</time></trkpt>
<trkpt lat="48.494738" lon="2.637113"><ele></ele><time>2017-9-17T10:18:26Z</time></trkpt>
<trkpt lat="48.494663" lon="2.637209"><ele></ele><time>2017-9-17T10:18:29Z</time></trkpt>
<trkpt lat="48.494594" lon="2.637311"><ele></ele><time>2017-9-17T10:18:32Z</time></trkpt>
<trkpt lat="48.494486" lon="2.637411"><ele></ele><time>2017-9-17T10:18:35Z</time></trkpt>
<trkpt lat="48.494382" lon="2.637498"><ele></ele><time>2017-9-17T10:18:38Z</time></trkpt>
<trkpt lat="48.494317" lon="2.637605"><ele></ele><time>2017-9-17T10:18:41Z</time></trkpt>
<trkpt lat="48.494257" lon="2.637718"><ele></ele><time>2017-9-17T10:18:44Z</time></trkpt>
<trkpt lat="48.494188" lon="2.637808"><ele></ele><time>2017-9-17T10:18:47Z</time></trkpt>
<trkpt lat="48.494117" lon="2.637892"><ele></ele><time>2017-9-17T10:18:50Z</time></trkpt>
<trkpt lat="48.494045" lon="2.637978"><ele></ele><time>2017-9-17T10:18:53Z</time></trkpt>
<trkpt lat="48.493982" lon="2.638077"><ele></ele><time>2017-9-17T10:18:56Z</time></trkpt>
<trkpt lat="48.493916" lon="2.638182"><ele></ele><time>2017-9-17T10:18:59Z</time></trkpt>
<trkpt lat="48.493816" lon="2.638299"><ele></ele><time>2017-9-17T10:19:2Z</time></trkpt>
<trkpt lat="48.493745" lon="2.638418"><ele></ele><time>2017-9-17T10:19:5Z</time></trkpt>
<trkpt lat="48.493648" lon="2.638532"><ele></ele><time>2017-9-17T10:19:8Z</time></trkpt>
<trkpt lat="48.493574" lon="2.638614"><ele></ele><time>2017-9-17T10:19:11Z</time></trkpt>
<trkpt lat="48.49348" lon="2.638735"><ele></ele><time>2017-9-17T10:19:14Z</time></trkpt>
<trkpt lat="48.493404" lon="2.638822"><ele></ele><time>2017-9-17T10:19:17Z</time></trkpt>
<trkpt lat="48.493335" lon="2.638928"><ele></ele><time>2017-9-17T10:19:20Z</time></trkpt>
<trkpt lat="48.49326" lon="2.639022"><ele></ele><time>2017-9-17T10:19:23Z</time></trkpt>
<trkpt lat="48.493199" lon="2.639139"><ele></ele><time>2017-9-17T10:19:26Z</time></trkpt>
<trkpt lat="48.493169" lon="2.63927"><ele></ele><time>2017-9-17T10:19:29Z</time></trkpt>
<trkpt lat="48.493089" lon="2.63938"><ele></ele><time>2017-9-17T10:19:32Z</time></trkpt>
<trkpt lat="48.49302" lon="2.639472"><ele></ele><time>2017-9-17T10:19:35Z</time></trkpt>
<trkpt lat="48.492957" lon="2.639584"><ele></ele><time>2017-9-17T10:19:38Z</time></trkpt>
<trkpt lat="48.492838" lon="2.639629"><ele></ele><time>2017-9-17T10:19:41Z</time></trkpt>
<trkpt lat="48.492754" lon="2.639689"><ele></ele><time>2017-9-17T10:19:44Z</time></trkpt>
<trkpt lat="48.49265" lon="2.639692"><ele></ele><time>2017-9-17T10:19:47Z</time></trkpt>
<trkpt lat="48.492591" lon="2.639844"><ele></ele><time>2017-9-17T10:19:50Z</time></trkpt>
<trkpt lat="48.492522" lon="2.640026"><ele></ele><time>2017-9-17T10:19:53Z</time></trkpt>
<trkpt lat="48.492406" lon="2.640071"><ele></ele><time>2017-9-17T10:19:56Z</time></trkpt>
<trkpt lat="48.492335" lon="2.640163"><ele></ele><time>2017-9-17T10:19:59Z</time></trkpt>
<trkpt lat="48.49224" lon="2.640281"><ele></ele><time>2017-9-17T10:20:2Z</time></trkpt>
<trkpt lat="48.49213" lon="2.640358"><ele></ele><time>2017-9-17T10:20:5Z</time></trkpt>
<trkpt lat="48.492071" lon="2.640467"><ele></ele><time>2017-9-17T10:20:8Z</time></trkpt>
<trkpt lat="48.491996" lon="2.640545"><ele></ele><time>2017-9-17T10:20:11Z</time></trkpt>
<trkpt lat="48.491876" lon="2.640648"><ele></ele><time>2017-9-17T10:20:14Z</time></trkpt>
<trkpt lat="48.491755" lon="2.640744"><ele></ele><time>2017-9-17T10:20:17Z</time></trkpt>
<trkpt lat="48.491674" lon="2.64083"><ele></ele><time>2017-9-17T10:20:20Z</time></trkpt>
<trkpt lat="48.4916" lon="2.640943"><ele></ele><time>2017-9-17T10:20:23Z</time></trkpt>
<trkpt lat="48.49155" lon="2.641111"><ele></ele><time>2017-9-17T10:20:26Z</time></trkpt>
<trkpt lat="48.491533" lon="2.641264"><ele></ele><time>2017-9-17T10:20:29Z</time></trkpt>
<trkpt lat="48.491477" lon="2.641395"><ele></ele><time>2017-9-17T10:20:32Z</time></trkpt>
<trkpt lat="48.491409" lon="2.641498"><ele></ele><time>2017-9-17T10:20:35Z</time></trkpt>
<trkpt lat="48.491291" lon="2.641591"><ele></ele><time>2017-9-17T10:20:38Z</time></trkpt>
<trkpt lat="48.491223" lon="2.641773"><ele></ele><time>2017-9-17T10:20:41Z</time></trkpt>
<trkpt lat="48.491098" lon="2.641816"><ele></ele><time>2017-9-17T10:20:44Z</time></trkpt>
<trkpt lat="48.491" lon="2.641924"><ele></ele><time>2017-9-17T10:20:47Z</time></trkpt>
<trkpt lat="48.490919" lon="2.642009"><ele></ele><time>2017-9-17T10:20:50Z</time></trkpt>
<trkpt lat="48.490838" lon="2.642168"><ele></ele><time>2017-9-17T10:20:53Z</time></trkpt>
<trkpt lat="48.490738" lon="2.642301"><ele></ele><time>2017-9-17T10:20:56Z</time></trkpt>
<trkpt lat="48.490627" lon="2.642449"><ele></ele><time>2017-9-17T10:20:59Z</time></trkpt>
<trkpt lat="48.490568" lon="2.642578"><ele></ele><time>2017-9-17T10:21:2Z</time></trkpt>
<trkpt lat="48.490463" lon="2.64266"><ele></ele><time>2017-9-17T10:21:5Z</time></trkpt>
<trkpt lat="48.490388" lon="2.64277"><ele></ele><time>2017-9-17T10:21:8Z</time></trkpt>
<trkpt lat="48.490293" lon="2.642847"><ele></ele><time>2017-9-17T10:21:11Z</time></trkpt>
<trkpt lat="48.490188" lon="2.642904"><ele></ele><time>2017-9-17T10:21:14Z</time></trkpt>
<trkpt lat="48.490108" lon="2.643021"><ele></ele><time>2017-9-17T10:21:17Z</time></trkpt>
<trkpt lat="48.490019" lon="2.643069"><ele></ele><time>2017-9-17T10:21:20Z</time></trkpt>
<trkpt lat="48.489957" lon="2.643191"><ele></ele><time>2017-9-17T10:21:23Z</time></trkpt>
<trkpt lat="48.489837" lon="2.643279"><ele></ele><time>2017-9-17T10:21:26Z</time></trkpt>
<trkpt lat="48.489787" lon="2.643393"><ele></ele><time>2017-9-17T10:21:29Z</time></trkpt>
<trkpt lat="48.489715" lon="2.643531"><ele></ele><time>2017-9-17T10:21:32Z</time></trkpt>
<trkpt lat="48.489654" lon="2.643649"><ele></ele><time>2017-9-17T10:21:35Z</time></trkpt>
<trkpt lat="48.489595" lon="2.64382"><ele></ele><time>2017-9-17T10:21:38Z</time></trkpt>
<trkpt lat="48.489573" lon="2.643962"><ele></ele><time>2017-9-17T10:21:41Z</time></trkpt>
<trkpt lat="48.489531" lon="2.644119"><ele></ele><time>2017-9-17T10:21:44Z</time></trkpt>
<trkpt lat="48.489481" lon="2.644312"><ele></ele><time>2017-9-17T10:21:47Z</time></trkpt>
<trkpt lat="48.48943" lon="2.644463"><ele></ele><time>2017-9-17T10:21:50Z</time></trkpt>
<trkpt lat="48.489393" lon="2.644597"><ele></ele><time>2017-9-17T10:21:53Z</time></trkpt>
<trkpt lat="48.489343" lon="2.644722"><ele></ele><time>2017-9-17T10:21:56Z</time></trkpt>
<trkpt lat="48.489308" lon="2.644871"><ele></ele><time>2017-9-17T10:21:59Z</time></trkpt>
<trkpt lat="48.48926" lon="2.645033"><ele></ele><time>2017-9-17T10:22:2Z</time></trkpt>
<trkpt lat="48.489245" lon="2.645188"><ele></ele><time>2017-9-17T10:22:5Z</time></trkpt>
<trkpt lat="48.48918" lon="2.645351"><ele></ele><time>2017-9-17T10:22:8Z</time></trkpt>
<trkpt lat="48.489162" lon="2.645551"><ele></ele><time>2017-9-17T10:22:11Z</time></trkpt>
<trkpt lat="48.489109" lon="2.645702"><ele></ele><time>2017-9-17T10:22:14Z</time></trkpt>
<trkpt lat="48.48909" lon="2.645901"><ele></ele><time>2017-9-17T10:22:17Z</time></trkpt>
<trkpt lat="48.489057" lon="2.646114"><ele></ele><time>2017-9-17T10:22:20Z</time></trkpt>
<trkpt lat="48.488976" lon="2.646277"><ele></ele><time>2017-9-17T10:22:23Z</time></trkpt>
<trkpt lat="48.488946" lon="2.646454"><ele></ele><time>2017-9-17T10:22:26Z</time></trkpt>
<trkpt lat="48.488876" lon="2.646624"><ele></ele><time>2017-9-17T10:22:29Z</time></trkpt>
<trkpt lat="48.488804" lon="2.646749"><ele></ele><time>2017-9-17T10:22:32Z</time></trkpt>
<trkpt lat="48.488725" lon="2.646881"><ele></ele><time>2017-9-17T10:22:35Z</time></trkpt>
<trkpt lat="48.488675" lon="2.647036"><ele></ele><time>2017-9-17T10:22:38Z</time></trkpt>
<trkpt lat="48.488606" lon="2.64717"><ele></ele><time>2017-9-17T10:22:41Z</time></trkpt>
<trkpt lat="48.488549" lon="2.64733"><ele></ele><time>2017-9-17T10:22:44Z</time></trkpt>
<trkpt lat="48.488488" lon="2.647474"><ele></ele><time>2017-9-17T10:22:47Z</time></trkpt>
<trkpt lat="48.488416" lon="2.647586"><ele></ele><time>2017-9-17T10:22:50Z</time></trkpt>
<trkpt lat="48.488345" lon="2.647732"><ele></ele><time>2017-9-17T10:22:53Z</time></trkpt>
<trkpt lat="48.488281" lon="2.647868"><ele></ele><time>2017-9-17T10:22:56Z</time></trkpt>
<trkpt lat="48.488191" lon="2.64799"><ele></ele><time>2017-9-17T10:22:59Z</time></trkpt>
<trkpt lat="48.488121" lon="2.648143"><ele></ele><time>2017-9-17T10:23:2Z</time></trkpt>
<trkpt lat="48.488047" lon="2.648263"><ele></ele><time>2017-9-17T10:23:5Z</time></trkpt>
<trkpt lat="48.487999" lon="2.648402"><ele></ele><time>2017-9-17T10:23:8Z</time></trkpt>
<trkpt lat="48.487914" lon="2.648509"><ele></ele><time>2017-9-17T10:23:11Z</time></trkpt>
<trkpt lat="48.487857" lon="2.648652"><ele></ele><time>2017-9-17T10:23:14Z</time></trkpt>
<trkpt lat="48.487785" lon="2.648792"><ele></ele><time>2017-9-17T10:23:17Z</time></trkpt>
<trkpt lat="48.487716" lon="2.648942"><ele></ele><time>2017-9-17T10:23:20Z</time></trkpt>
<trkpt lat="48.487656" lon="2.649093"><ele></ele><time>2017-9-17T10:23:23Z</time></trkpt>
<trkpt lat="48.487588" lon="2.649243"><ele></ele><time>2017-9-17T10:23:26Z</time></trkpt>
<trkpt lat="48.487523" lon="2.649363"><ele></ele><time>2017-9-17T10:23:29Z</time></trkpt>
<trkpt lat="48.487463" lon="2.649537"><ele></ele><time>2017-9-17T10:23:32Z</time></trkpt>
<trkpt lat="48.487365" lon="2.649641"><ele></ele><time>2017-9-17T10:23:35Z</time></trkpt>
<trkpt lat="48.487285" lon="2.649814"><ele></ele><time>2017-9-17T10:23:38Z</time></trkpt>
<trkpt lat="48.487208" lon="2.649961"><ele></ele><time>2017-9-17T10:23:41Z</time></trkpt>
<trkpt lat="48.487143" lon="2.650077"><ele></ele><time>2017-9-17T10:23:44Z</time></trkpt>
<trkpt lat="48.487065" lon="2.650212"><ele></ele><time>2017-9-17T10:23:47Z</time></trkpt>
<trkpt lat="48.487007" lon="2.650328"><ele></ele><time>2017-9-17T10:23:50Z</time></trkpt>
<trkpt lat="48.486929" lon="2.650495"><ele></ele><time>2017-9-17T10:23:53Z</time></trkpt>
<trkpt lat="48.48687" lon="2.650612"><ele></ele><time>2017-9-17T10:23:56Z</time></trkpt>
<trkpt lat="48.486808" lon="2.650746"><ele></ele><time>2017-9-17T10:23:59Z</time></trkpt>
<trkpt lat="48.486742" lon="2.650843"><ele></ele><time>2017-9-17T10:24:2Z</time></trkpt>
<trkpt lat="48.486641" lon="2.650993"><ele></ele><time>2017-9-17T10:24:5Z</time></trkpt>
<trkpt lat="48.486583" lon="2.651166"><ele></ele><time>2017-9-17T10:24:8Z</time></trkpt>
<trkpt lat="48.486543" lon="2.651312"><ele></ele><time>2017-9-17T10:24:11Z</time></trkpt>
<trkpt lat="48.486483" lon="2.651456"><ele></ele><time>2017-9-17T10:24:14Z</time></trkpt>
<trkpt lat="48.486426" lon="2.651604"><ele></ele><time>2017-9-17T10:24:17Z</time></trkpt>
<trkpt lat="48.486384" lon="2.651727"><ele></ele><time>2017-9-17T10:24:20Z</time></trkpt>
<trkpt lat="48.486299" lon="2.651898"><ele></ele><time>2017-9-17T10:24:23Z</time></trkpt>
<trkpt lat="48.486223" lon="2.652079"><ele></ele><time>2017-9-17T10:24:26Z</time></trkpt>
<trkpt lat="48.486175" lon="2.65224"><ele></ele><time>2017-9-17T10:24:29Z</time></trkpt>
<trkpt lat="48.486117" lon="2.652374"><ele></ele><time>2017-9-17T10:24:32Z</time></trkpt>
<trkpt lat="48.486061" lon="2.652557"><ele></ele><time>2017-9-17T10:24:35Z</time></trkpt>
<trkpt lat="48.485983" lon="2.652624"><ele></ele><time>2017-9-17T10:24:38Z</time></trkpt>
<trkpt lat="48.485873" lon="2.652733"><ele></ele><time>2017-9-17T10:24:41Z</time></trkpt>
<trkpt lat="48.485824" lon="2.652891"><ele></ele><time>2017-9-17T10:24:44Z</time></trkpt>
<trkpt lat="48.485763" lon="2.653047"><ele></ele><time>2017-9-17T10:24:47Z</time></trkpt>
<trkpt lat="48.485691" lon="2.653176"><ele></ele><time>2017-9-17T10:24:50Z</time></trkpt>
<trkpt lat="48.485591" lon="2.653245"><ele></ele><time>2017-9-17T10:24:53Z</time></trkpt>
<trkpt lat="48.485505" lon="2.653327"><ele></ele><time>2017-9-17T10:24:56Z</time></trkpt>
<trkpt lat="48.485452" lon="2.653462"><ele></ele><time>2017-9-17T10:24:59Z</time></trkpt>
<trkpt lat="48.485411" lon="2.653658"><ele></ele><time>2017-9-17T10:25:2Z</time></trkpt>
<trkpt lat="48.485396" lon="2.653853"><ele></ele><time>2017-9-17T10:25:5Z</time></trkpt>
<trkpt lat="48.485377" lon="2.654015"><ele></ele><time>2017-9-17T10:25:8Z</time></trkpt>
<trkpt lat="48.485352" lon="2.654213"><ele></ele><time>2017-9-17T10:25:11Z</time></trkpt>
<trkpt lat="48.485342" lon="2.654396"><ele></ele><time>2017-9-17T10:25:14Z</time></trkpt>
<trkpt lat="48.485315" lon="2.654626"><ele></ele><time>2017-9-17T10:25:17Z</time></trkpt>
<trkpt lat="48.485299" lon="2.65476"><ele></ele><time>2017-9-17T10:25:20Z</time></trkpt>
<trkpt lat="48.485301" lon="2.654916"><ele></ele><time>2017-9-17T10:25:23Z</time></trkpt>
<trkpt lat="48.485261" lon="2.655088"><ele></ele><time>2017-9-17T10:25:26Z</time></trkpt>
<trkpt lat="48.48526" lon="2.655273"><ele></ele><time>2017-9-17T10:25:29Z</time></trkpt>
<trkpt lat="48.485253" lon="2.655474"><ele></ele><time>2017-9-17T10:25:32Z</time></trkpt>
<trkpt lat="48.485267" lon="2.655677"><ele></ele><time>2017-9-17T10:25:35Z</time></trkpt>
<trkpt lat="48.485258" lon="2.655846"><ele></ele><time>2017-9-17T10:25:38Z</time></trkpt>
<trkpt lat="48.485197" lon="2.655979"><ele></ele><time>2017-9-17T10:25:41Z</time></trkpt>
<trkpt lat="48.485139" lon="2.656152"><ele></ele><time>2017-9-17T10:25:44Z</time></trkpt>
<trkpt lat="48.485134" lon="2.656308"><ele></ele><time>2017-9-17T10:25:47Z</time></trkpt>
<trkpt lat="48.485069" lon="2.656493"><ele></ele><time>2017-9-17T10:25:50Z</time></trkpt>
<trkpt lat="48.485039" lon="2.656643"><ele></ele><time>2017-9-17T10:25:53Z</time></trkpt>
<trkpt lat="48.485018" lon="2.656859"><ele></ele><time>2017-9-17T10:25:56Z</time></trkpt>
<trkpt lat="48.484978" lon="2.657018"><ele></ele><time>2017-9-17T10:25:59Z</time></trkpt>
<trkpt lat="48.484969" lon="2.657157"><ele></ele><time>2017-9-17T10:26:2Z</time></trkpt>
<trkpt lat="48.484949" lon="2.657344"><ele></ele><time>2017-9-17T10:26:5Z</time></trkpt>
<trkpt lat="48.484899" lon="2.657519"><ele></ele><time>2017-9-17T10:26:8Z</time></trkpt>
<trkpt lat="48.484872" lon="2.657709"><ele></ele><time>2017-9-17T10:26:11Z</time></trkpt>
<trkpt lat="48.484818" lon="2.657858"><ele></ele><time>2017-9-17T10:26:14Z</time></trkpt>
<trkpt lat="48.484793" lon="2.658038"><ele></ele><time>2017-9-17T10:26:17Z</time></trkpt>
<trkpt lat="48.484776" lon="2.658206"><ele></ele><time>2017-9-17T10:26:20Z</time></trkpt>
<trkpt lat="48.484778" lon="2.658379"><ele></ele><time>2017-9-17T10:26:23Z</time></trkpt>
<trkpt lat="48.484766" lon="2.658603"><ele></ele><time>2017-9-17T10:26:26Z</time></trkpt>
<trkpt lat="48.484725" lon="2.658786"><ele></ele><time>2017-9-17T10:26:29Z</time></trkpt>
<trkpt lat="48.484692" lon="2.658948"><ele></ele><time>2017-9-17T10:26:32Z</time></trkpt>
<trkpt lat="48.484687" lon="2.65909"><ele></ele><time>2017-9-17T10:26:35Z</time></trkpt>
<trkpt lat="48.484679" lon="2.659287"><ele></ele><time>2017-9-17T10:26:38Z</time></trkpt>
<trkpt lat="48.484631" lon="2.659436"><ele></ele><time>2017-9-17T10:26:41Z</time></trkpt>
<trkpt lat="48.484592" lon="2.659629"><ele></ele><time>2017-9-17T10:26:44Z</time></trkpt>
<trkpt lat="48.48457" lon="2.659826"><ele></ele><time>2017-9-17T10:26:47Z</time></trkpt>
<trkpt lat="48.484539" lon="2.660005"><ele></ele><time>2017-9-17T10:26:50Z</time></trkpt>
<trkpt lat="48.484522" lon="2.660198"><ele></ele><time>2017-9-17T10:26:53Z</time></trkpt>
<trkpt lat="48.484461" lon="2.660371"><ele></ele><time>2017-9-17T10:26:56Z</time></trkpt>
<trkpt lat="48.484447" lon="2.660611"><ele></ele><time>2017-9-17T10:26:59Z</time></trkpt>
<trkpt lat="48.484397" lon="2.660728"><ele></ele><time>2017-9-17T10:27:2Z</time></trkpt>
<trkpt lat="48.484358" lon="2.660853"><ele></ele><time>2017-9-17T10:27:5Z</time></trkpt>
<trkpt lat="48.48431" lon="2.661006"><ele></ele><time>2017-9-17T10:27:8Z</time></trkpt>
<trkpt lat="48.484262" lon="2.661174"><ele></ele><time>2017-9-17T10:27:11Z</time></trkpt>
<trkpt lat="48.484244" lon="2.661336"><ele></ele><time>2017-9-17T10:27:14Z</time></trkpt>
<trkpt lat="48.484215" lon="2.661482"><ele></ele><time>2017-9-17T10:27:17Z</time></trkpt>
<trkpt lat="48.48418" lon="2.661643"><ele></ele><time>2017-9-17T10:27:20Z</time></trkpt>
<trkpt lat="48.484132" lon="2.661813"><ele></ele><time>2017-9-17T10:27:23Z</time></trkpt>
<trkpt lat="48.484092" lon="2.66195"><ele></ele><time>2017-9-17T10:27:26Z</time></trkpt>
<trkpt lat="48.484059" lon="2.662097"><ele></ele><time>2017-9-17T10:27:29Z</time></trkpt>
<trkpt lat="48.484032" lon="2.662248"><ele></ele><time>2017-9-17T10:27:32Z</time></trkpt>
<trkpt lat="48.483981" lon="2.662376"><ele></ele><time>2017-9-17T10:27:35Z</time></trkpt>
<trkpt lat="48.483945" lon="2.662513"><ele></ele><time>2017-9-17T10:27:38Z</time></trkpt>
<trkpt lat="48.483897" lon="2.662638"><ele></ele><time>2017-9-17T10:27:41Z</time></trkpt>
<trkpt lat="48.483881" lon="2.662802"><ele></ele><time>2017-9-17T10:27:44Z</time></trkpt>
<trkpt lat="48.483864" lon="2.662944"><ele></ele><time>2017-9-17T10:27:47Z</time></trkpt>
<trkpt lat="48.483855" lon="2.663147"><ele></ele><time>2017-9-17T10:27:50Z</time></trkpt>
<trkpt lat="48.48386" lon="2.663347"><ele></ele><time>2017-9-17T10:27:53Z</time></trkpt>
<trkpt lat="48.48381" lon="2.663534"><ele></ele><time>2017-9-17T10:27:56Z</time></trkpt>
<trkpt lat="48.483783" lon="2.663666"><ele></ele><time>2017-9-17T10:27:59Z</time></trkpt>
<trkpt lat="48.483762" lon="2.663885"><ele></ele><time>2017-9-17T10:28:2Z</time></trkpt>
<trkpt lat="48.483679" lon="2.664006"><ele></ele><time>2017-9-17T10:28:5Z</time></trkpt>
<trkpt lat="48.483629" lon="2.664145"><ele></ele><time>2017-9-17T10:28:8Z</time></trkpt>
<trkpt lat="48.483572" lon="2.664313"><ele></ele><time>2017-9-17T10:28:11Z</time></trkpt>
<trkpt lat="48.483509" lon="2.664437"><ele></ele><time>2017-9-17T10:28:14Z</time></trkpt>
<trkpt lat="48.483466" lon="2.66457"><ele></ele><time>2017-9-17T10:28:17Z</time></trkpt>
<trkpt lat="48.483446" lon="2.664733"><ele></ele><time>2017-9-17T10:28:20Z</time></trkpt>
<trkpt lat="48.483427" lon="2.664876"><ele></ele><time>2017-9-17T10:28:23Z</time></trkpt>
<trkpt lat="48.483367" lon="2.665008"><ele></ele><time>2017-9-17T10:28:26Z</time></trkpt>
<trkpt lat="48.483285" lon="2.665075"><ele></ele><time>2017-9-17T10:28:29Z</time></trkpt>
<trkpt lat="48.483186" lon="2.665032"><ele></ele><time>2017-9-17T10:28:32Z</time></trkpt>
<trkpt lat="48.483064" lon="2.665051"><ele></ele><time>2017-9-17T10:28:35Z</time></trkpt>
<trkpt lat="48.48297" lon="2.665029"><ele></ele><time>2017-9-17T10:28:38Z</time></trkpt>
<trkpt lat="48.482862" lon="2.665039"><ele></ele><time>2017-9-17T10:28:41Z</time></trkpt>
<trkpt lat="48.482795" lon="2.664908"><ele></ele><time>2017-9-17T10:28:44Z</time></trkpt>
<trkpt lat="48.482774" lon="2.664754"><ele></ele><time>2017-9-17T10:28:47Z</time></trkpt>
<trkpt lat="48.482738" lon="2.664606"><ele></ele><time>2017-9-17T10:28:50Z</time></trkpt>
<trkpt lat="48.482693" lon="2.664426"><ele></ele><time>2017-9-17T10:28:53Z</time></trkpt>
<trkpt lat="48.482641" lon="2.664301"><ele></ele><time>2017-9-17T10:28:56Z</time></trkpt>
<trkpt lat="48.482574" lon="2.66413"><ele></ele><time>2017-9-17T10:28:59Z</time></trkpt>
<trkpt lat="48.482571" lon="2.663981"><ele></ele><time>2017-9-17T10:29:2Z</time></trkpt>
<trkpt lat="48.482526" lon="2.663806"><ele></ele><time>2017-9-17T10:29:5Z</time></trkpt>
<trkpt lat="48.482472" lon="2.663592"><ele></ele><time>2017-9-17T10:29:8Z</time></trkpt>
<trkpt lat="48.482391" lon="2.663449"><ele></ele><time>2017-9-17T10:29:11Z</time></trkpt>
<trkpt lat="48.482392" lon="2.663286"><ele></ele><time>2017-9-17T10:29:14Z</time></trkpt>
<trkpt lat="48.482335" lon="2.662977"><ele></ele><time>2017-9-17T10:29:17Z</time></trkpt>
<trkpt lat="48.482283" lon="2.662793"><ele></ele><time>2017-9-17T10:29:20Z</time></trkpt>
<trkpt lat="48.482264" lon="2.662621"><ele></ele><time>2017-9-17T10:29:23Z</time></trkpt>
<trkpt lat="48.482208" lon="2.662383"><ele></ele><time>2017-9-17T10:29:26Z</time></trkpt>
<trkpt lat="48.482142" lon="2.662199"><ele></ele><time>2017-9-17T10:29:29Z</time></trkpt>
<trkpt lat="48.482064" lon="2.662042"><ele></ele><time>2017-9-17T10:29:32Z</time></trkpt>
<trkpt lat="48.482015" lon="2.661873"><ele></ele><time>2017-9-17T10:29:35Z</time></trkpt>
<trkpt lat="48.481971" lon="2.661676"><ele></ele><time>2017-9-17T10:29:38Z</time></trkpt>
<trkpt lat="48.481876" lon="2.661496"><ele></ele><time>2017-9-17T10:29:41Z</time></trkpt>
<trkpt lat="48.481831" lon="2.661371"><ele></ele><time>2017-9-17T10:29:44Z</time></trkpt>
<trkpt lat="48.481791" lon="2.661239"><ele></ele><time>2017-9-17T10:29:47Z</time></trkpt>
<trkpt lat="48.481703" lon="2.661025"><ele></ele><time>2017-9-17T10:29:50Z</time></trkpt>
<trkpt lat="48.481683" lon="2.660885"><ele></ele><time>2017-9-17T10:29:53Z</time></trkpt>
<trkpt lat="48.481649" lon="2.660756"><ele></ele><time>2017-9-17T10:29:56Z</time></trkpt>
<trkpt lat="48.481601" lon="2.660605"><ele></ele><time>2017-9-17T10:29:59Z</time></trkpt>
<trkpt lat="48.481561" lon="2.660476"><ele></ele><time>2017-9-17T10:30:2Z</time></trkpt>
<trkpt lat="48.481499" lon="2.66033"><ele></ele><time>2017-9-17T10:30:5Z</time></trkpt>
<trkpt lat="48.48145" lon="2.660142"><ele></ele><time>2017-9-17T10:30:8Z</time></trkpt>
<trkpt lat="48.481409" lon="2.659934"><ele></ele><time>2017-9-17T10:30:11Z</time></trkpt>
<trkpt lat="48.481332" lon="2.659698"><ele></ele><time>2017-9-17T10:30:14Z</time></trkpt>
<trkpt lat="48.481256" lon="2.659495"><ele></ele><time>2017-9-17T10:30:17Z</time></trkpt>
<trkpt lat="48.481239" lon="2.659267"><ele></ele><time>2017-9-17T10:30:20Z</time></trkpt>
<trkpt lat="48.481178" lon="2.659118"><ele></ele><time>2017-9-17T10:30:23Z</time></trkpt>
<trkpt lat="48.48111" lon="2.658914"><ele></ele><time>2017-9-17T10:30:26Z</time></trkpt>
<trkpt lat="48.481044" lon="2.658785"><ele></ele><time>2017-9-17T10:30:29Z</time></trkpt>
<trkpt lat="48.480975" lon="2.658565"><ele></ele><time>2017-9-17T10:30:32Z</time></trkpt>
<trkpt lat="48.480919" lon="2.658416"><ele></ele><time>2017-9-17T10:30:35Z</time></trkpt>
<trkpt lat="48.480876" lon="2.658271"><ele></ele><time>2017-9-17T10:30:38Z</time></trkpt>
<trkpt lat="48.480836" lon="2.658148"><ele></ele><time>2017-9-17T10:30:41Z</time></trkpt>
<trkpt lat="48.480785" lon="2.657994"><ele></ele><time>2017-9-17T10:30:44Z</time></trkpt>
<trkpt lat="48.480721" lon="2.657881"><ele></ele><time>2017-9-17T10:30:47Z</time></trkpt>
<trkpt lat="48.48068" lon="2.657656"><ele></ele><time>2017-9-17T10:30:50Z</time></trkpt>
<trkpt lat="48.480595" lon="2.657441"><ele></ele><time>2017-9-17T10:30:53Z</time></trkpt>
<trkpt lat="48.48053" lon="2.657291"><ele></ele><time>2017-9-17T10:30:56Z</time></trkpt>
<trkpt lat="48.480457" lon="2.657075"><ele></ele><time>2017-9-17T10:30:59Z</time></trkpt>
<trkpt lat="48.480371" lon="2.656887"><ele></ele><time>2017-9-17T10:31:2Z</time></trkpt>
<trkpt lat="48.480297" lon="2.656689"><ele></ele><time>2017-9-17T10:31:5Z</time></trkpt>
<trkpt lat="48.480255" lon="2.656456"><ele></ele><time>2017-9-17T10:31:8Z</time></trkpt>
<trkpt lat="48.480194" lon="2.656281"><ele></ele><time>2017-9-17T10:31:11Z</time></trkpt>
<trkpt lat="48.480137" lon="2.656069"><ele></ele><time>2017-9-17T10:31:14Z</time></trkpt>
<trkpt lat="48.48005" lon="2.655939"><ele></ele><time>2017-9-17T10:31:17Z</time></trkpt>
<trkpt lat="48.47999" lon="2.655754"><ele></ele><time>2017-9-17T10:31:20Z</time></trkpt>
<trkpt lat="48.479977" lon="2.655594"><ele></ele><time>2017-9-17T10:31:23Z</time></trkpt>
<trkpt lat="48.479895" lon="2.655424"><ele></ele><time>2017-9-17T10:31:26Z</time></trkpt>
<trkpt lat="48.479855" lon="2.655302"><ele></ele><time>2017-9-17T10:31:29Z</time></trkpt>
<trkpt lat="48.479803" lon="2.655167"><ele></ele><time>2017-9-17T10:31:32Z</time></trkpt>
<trkpt lat="48.479764" lon="2.655028"><ele></ele><time>2017-9-17T10:31:35Z</time></trkpt>
<trkpt lat="48.479702" lon="2.654855"><ele></ele><time>2017-9-17T10:31:38Z</time></trkpt>
<trkpt lat="48.479665" lon="2.654712"><ele></ele><time>2017-9-17T10:31:41Z</time></trkpt>
<trkpt lat="48.47961" lon="2.654586"><ele></ele><time>2017-9-17T10:31:44Z</time></trkpt>
<trkpt lat="48.479567" lon="2.654404"><ele></ele><time>2017-9-17T10:31:47Z</time></trkpt>
<trkpt lat="48.479522" lon="2.654167"><ele></ele><time>2017-9-17T10:31:50Z</time></trkpt>
<trkpt lat="48.479501" lon="2.654005"><ele></ele><time>2017-9-17T10:31:53Z</time></trkpt>
<trkpt lat="48.47945" lon="2.653881"><ele></ele><time>2017-9-17T10:31:56Z</time></trkpt>
<trkpt lat="48.479354" lon="2.653857"><ele></ele><time>2017-9-17T10:31:59Z</time></trkpt>
<trkpt lat="48.479302" lon="2.653716"><ele></ele><time>2017-9-17T10:32:2Z</time></trkpt>
<trkpt lat="48.479258" lon="2.653529"><ele></ele><time>2017-9-17T10:32:5Z</time></trkpt>
<trkpt lat="48.479209" lon="2.653398"><ele></ele><time>2017-9-17T10:32:8Z</time></trkpt>
<trkpt lat="48.479208" lon="2.653215"><ele></ele><time>2017-9-17T10:32:11Z</time></trkpt>
<trkpt lat="48.479172" lon="2.653034"><ele></ele><time>2017-9-17T10:32:14Z</time></trkpt>
<trkpt lat="48.479122" lon="2.652859"><ele></ele><time>2017-9-17T10:32:17Z</time></trkpt>
<trkpt lat="48.479061" lon="2.652719"><ele></ele><time>2017-9-17T10:32:20Z</time></trkpt>
<trkpt lat="48.478973" lon="2.652585"><ele></ele><time>2017-9-17T10:32:23Z</time></trkpt>
<trkpt lat="48.478877" lon="2.652462"><ele></ele><time>2017-9-17T10:32:26Z</time></trkpt>
<trkpt lat="48.478803" lon="2.652358"><ele></ele><time>2017-9-17T10:32:29Z</time></trkpt>
<trkpt lat="48.478717" lon="2.652276"><ele></ele><time>2017-9-17T10:32:32Z</time></trkpt>
<trkpt lat="48.478619" lon="2.652316"><ele></ele><time>2017-9-17T10:32:35Z</time></trkpt>
<trkpt lat="48.478525" lon="2.652438"><ele></ele><time>2017-9-17T10:32:38Z</time></trkpt>
<trkpt lat="48.47841" lon="2.652521"><ele></ele><time>2017-9-17T10:32:41Z</time></trkpt>
<trkpt lat="48.478332" lon="2.652624"><ele></ele><time>2017-9-17T10:32:44Z</time></trkpt>
<trkpt lat="48.47823" lon="2.652755"><ele></ele><time>2017-9-17T10:32:47Z</time></trkpt>
<trkpt lat="48.478143" lon="2.65283"><ele></ele><time>2017-9-17T10:32:50Z</time></trkpt>
<trkpt lat="48.47803" lon="2.65297"><ele></ele><time>2017-9-17T10:32:53Z</time></trkpt>
<trkpt lat="48.477944" lon="2.653069"><ele></ele><time>2017-9-17T10:32:56Z</time></trkpt>
<trkpt lat="48.477838" lon="2.653156"><ele></ele><time>2017-9-17T10:32:59Z</time></trkpt>
<trkpt lat="48.477759" lon="2.653241"><ele></ele><time>2017-9-17T10:33:2Z</time></trkpt>
<trkpt lat="48.477686" lon="2.653398"><ele></ele><time>2017-9-17T10:33:5Z</time></trkpt>
<trkpt lat="48.477574" lon="2.653429"><ele></ele><time>2017-9-17T10:33:8Z</time></trkpt>
<trkpt lat="48.477448" lon="2.653491"><ele></ele><time>2017-9-17T10:33:11Z</time></trkpt>
<trkpt lat="48.477319" lon="2.653576"><ele></ele><time>2017-9-17T10:33:14Z</time></trkpt>
<trkpt lat="48.477216" lon="2.653682"><ele></ele><time>2017-9-17T10:33:17Z</time></trkpt>
<trkpt lat="48.477086" lon="2.653747"><ele></ele><time>2017-9-17T10:33:20Z</time></trkpt>
<trkpt lat="48.476996" lon="2.653854"><ele></ele><time>2017-9-17T10:33:23Z</time></trkpt>
<trkpt lat="48.476881" lon="2.653933"><ele></ele><time>2017-9-17T10:33:26Z</time></trkpt>
<trkpt lat="48.476755" lon="2.654007"><ele></ele><time>2017-9-17T10:33:29Z</time></trkpt>
<trkpt lat="48.476633" lon="2.654061"><ele></ele><time>2017-9-17T10:33:32Z</time></trkpt>
<trkpt lat="48.47653" lon="2.654187"><ele></ele><time>2017-9-17T10:33:35Z</time></trkpt>
<trkpt lat="48.476436" lon="2.654272"><ele></ele><time>2017-9-17T10:33:38Z</time></trkpt>
<trkpt lat="48.476343" lon="2.654316"><ele></ele><time>2017-9-17T10:33:41Z</time></trkpt>
<trkpt lat="48.476228" lon="2.654406"><ele></ele><time>2017-9-17T10:33:44Z</time></trkpt>
<trkpt lat="48.476108" lon="2.654383"><ele></ele><time>2017-9-17T10:33:47Z</time></trkpt>
<trkpt lat="48.476032" lon="2.654467"><ele></ele><time>2017-9-17T10:33:50Z</time></trkpt>
<trkpt lat="48.475931" lon="2.654602"><ele></ele><time>2017-9-17T10:33:53Z</time></trkpt>
<trkpt lat="48.475859" lon="2.654695"><ele></ele><time>2017-9-17T10:33:56Z</time></trkpt>
<trkpt lat="48.475765" lon="2.654777"><ele></ele><time>2017-9-17T10:33:59Z</time></trkpt>
<trkpt lat="48.475682" lon="2.654921"><ele></ele><time>2017-9-17T10:34:2Z</time></trkpt>
<trkpt lat="48.475601" lon="2.655013"><ele></ele><time>2017-9-17T10:34:5Z</time></trkpt>
<trkpt lat="48.475498" lon="2.655129"><ele></ele><time>2017-9-17T10:34:8Z</time></trkpt>
<trkpt lat="48.475424" lon="2.655223"><ele></ele><time>2017-9-17T10:34:11Z</time></trkpt>
<trkpt lat="48.475319" lon="2.65531"><ele></ele><time>2017-9-17T10:34:14Z</time></trkpt>
<trkpt lat="48.475209" lon="2.655381"><ele></ele><time>2017-9-17T10:34:17Z</time></trkpt>
<trkpt lat="48.475113" lon="2.655461"><ele></ele><time>2017-9-17T10:34:20Z</time></trkpt>
<trkpt lat="48.475028" lon="2.655542"><ele></ele><time>2017-9-17T10:34:23Z</time></trkpt>
<trkpt lat="48.474951" lon="2.65562"><ele></ele><time>2017-9-17T10:34:26Z</time></trkpt>
<trkpt lat="48.474865" lon="2.655675"><ele></ele><time>2017-9-17T10:34:29Z</time></trkpt>
<trkpt lat="48.474788" lon="2.655794"><ele></ele><time>2017-9-17T10:34:32Z</time></trkpt>
<trkpt lat="48.474699" lon="2.655904"><ele></ele><time>2017-9-17T10:34:35Z</time></trkpt>
<trkpt lat="48.474611" lon="2.655952"><ele></ele><time>2017-9-17T10:34:38Z</time></trkpt>
<trkpt lat="48.474526" lon="2.656012"><ele></ele><time>2017-9-17T10:34:41Z</time></trkpt>
<trkpt lat="48.474407" lon="2.656097"><ele></ele><time>2017-9-17T10:34:44Z</time></trkpt>
<trkpt lat="48.474331" lon="2.656172"><ele></ele><time>2017-9-17T10:34:47Z</time></trkpt>
<trkpt lat="48.474257" lon="2.656251"><ele></ele><time>2017-9-17T10:34:50Z</time></trkpt>
<trkpt lat="48.474168" lon="2.656314"><ele></ele><time>2017-9-17T10:34:53Z</time></trkpt>
<trkpt lat="48.474051" lon="2.65638"><ele></ele><time>2017-9-17T10:34:56Z</time></trkpt>
<trkpt lat="48.473962" lon="2.65643"><ele></ele><time>2017-9-17T10:34:59Z</time></trkpt>
<trkpt lat="48.473881" lon="2.656527"><ele></ele><time>2017-9-17T10:35:2Z</time></trkpt>
<trkpt lat="48.473797" lon="2.656609"><ele></ele><time>2017-9-17T10:35:5Z</time></trkpt>
<trkpt lat="48.473711" lon="2.656687"><ele></ele><time>2017-9-17T10:35:8Z</time></trkpt>
<trkpt lat="48.473626" lon="2.656768"><ele></ele><time>2017-9-17T10:35:11Z</time></trkpt>
<trkpt lat="48.473534" lon="2.656808"><ele></ele><time>2017-9-17T10:35:14Z</time></trkpt>
<trkpt lat="48.473444" lon="2.656861"><ele></ele><time>2017-9-17T10:35:17Z</time></trkpt>
<trkpt lat="48.473332" lon="2.656985"><ele></ele><time>2017-9-17T10:35:20Z</time></trkpt>
<trkpt lat="48.473217" lon="2.657073"><ele></ele><time>2017-9-17T10:35:23Z</time></trkpt>
<trkpt lat="48.47309" lon="2.657153"><ele></ele><time>2017-9-17T10:35:26Z</time></trkpt>
<trkpt lat="48.472966" lon="2.657236"><ele></ele><time>2017-9-17T10:35:29Z</time></trkpt>
<trkpt lat="48.47287" lon="2.657307"><ele></ele><time>2017-9-17T10:35:32Z</time></trkpt>
<trkpt lat="48.472758" lon="2.657392"><ele></ele><time>2017-9-17T10:35:35Z</time></trkpt>
<trkpt lat="48.472673" lon="2.657466"><ele></ele><time>2017-9-17T10:35:38Z</time></trkpt>
<trkpt lat="48.472581" lon="2.657584"><ele></ele><time>2017-9-17T10:35:41Z</time></trkpt>
<trkpt lat="48.472494" lon="2.657669"><ele></ele><time>2017-9-17T10:35:44Z</time></trkpt>
<trkpt lat="48.472401" lon="2.657748"><ele></ele><time>2017-9-17T10:35:47Z</time></trkpt>
<trkpt lat="48.472285" lon="2.657813"><ele></ele><time>2017-9-17T10:35:50Z</time></trkpt>
<trkpt lat="48.472195" lon="2.65792"><ele></ele><time>2017-9-17T10:35:53Z</time></trkpt>
<trkpt lat="48.472107" lon="2.658001"><ele></ele><time>2017-9-17T10:35:56Z</time></trkpt>
<trkpt lat="48.471988" lon="2.658085"><ele></ele><time>2017-9-17T10:35:59Z</time></trkpt>
<trkpt lat="48.471859" lon="2.658205"><ele></ele><time>2017-9-17T10:36:2Z</time></trkpt>
<trkpt lat="48.471764" lon="2.658288"><ele></ele><time>2017-9-17T10:36:5Z</time></trkpt>
<trkpt lat="48.471641" lon="2.658349"><ele></ele><time>2017-9-17T10:36:8Z</time></trkpt>
<trkpt lat="48.471554" lon="2.658425"><ele></ele><time>2017-9-17T10:36:11Z</time></trkpt>
<trkpt lat="48.471467" lon="2.658464"><ele></ele><time>2017-9-17T10:36:14Z</time></trkpt>
<trkpt lat="48.471377" lon="2.658529"><ele></ele><time>2017-9-17T10:36:17Z</time></trkpt>
<trkpt lat="48.471284" lon="2.658617"><ele></ele><time>2017-9-17T10:36:20Z</time></trkpt>
<trkpt lat="48.471191" lon="2.658712"><ele></ele><time>2017-9-17T10:36:23Z</time></trkpt>
<trkpt lat="48.47106" lon="2.658771"><ele></ele><time>2017-9-17T10:36:26Z</time></trkpt>
<trkpt lat="48.47097" lon="2.658803"><ele></ele><time>2017-9-17T10:36:29Z</time></trkpt>
<trkpt lat="48.47086" lon="2.658823"><ele></ele><time>2017-9-17T10:36:32Z</time></trkpt>
<trkpt lat="48.470753" lon="2.658793"><ele></ele><time>2017-9-17T10:36:35Z</time></trkpt>
<trkpt lat="48.470656" lon="2.658805"><ele></ele><time>2017-9-17T10:36:38Z</time></trkpt>
<trkpt lat="48.470551" lon="2.658835"><ele></ele><time>2017-9-17T10:36:41Z</time></trkpt>
<trkpt lat="48.470413" lon="2.65887"><ele></ele><time>2017-9-17T10:36:44Z</time></trkpt>
<trkpt lat="48.470308" lon="2.658835"><ele></ele><time>2017-9-17T10:36:47Z</time></trkpt>
<trkpt lat="48.470196" lon="2.65883"><ele></ele><time>2017-9-17T10:36:50Z</time></trkpt>
<trkpt lat="48.47009" lon="2.658803"><ele></ele><time>2017-9-17T10:36:53Z</time></trkpt>
<trkpt lat="48.469981" lon="2.658799"><ele></ele><time>2017-9-17T10:36:56Z</time></trkpt>
<trkpt lat="48.469875" lon="2.658784"><ele></ele><time>2017-9-17T10:36:59Z</time></trkpt>
<trkpt lat="48.469746" lon="2.658715"><ele></ele><time>2017-9-17T10:37:2Z</time></trkpt>
<trkpt lat="48.469627" lon="2.658682"><ele></ele><time>2017-9-17T10:37:5Z</time></trkpt>
<trkpt lat="48.469497" lon="2.658661"><ele></ele><time>2017-9-17T10:37:8Z</time></trkpt>
<trkpt lat="48.469348" lon="2.658689"><ele></ele><time>2017-9-17T10:37:11Z</time></trkpt>
<trkpt lat="48.469231" lon="2.658685"><ele></ele><time>2017-9-17T10:37:14Z</time></trkpt>
<trkpt lat="48.469092" lon="2.658652"><ele></ele><time>2017-9-17T10:37:17Z</time></trkpt>
<trkpt lat="48.468998" lon="2.658623"><ele></ele><time>2017-9-17T10:37:20Z</time></trkpt>
<trkpt lat="48.468878" lon="2.658619"><ele></ele><time>2017-9-17T10:37:23Z</time></trkpt>
<trkpt lat="48.468777" lon="2.658615"><ele></ele><time>2017-9-17T10:37:26Z</time></trkpt>
<trkpt lat="48.46865" lon="2.658586"><ele></ele><time>2017-9-17T10:37:29Z</time></trkpt>
<trkpt lat="48.468544" lon="2.658543"><ele></ele><time>2017-9-17T10:37:32Z</time></trkpt>
<trkpt lat="48.468414" lon="2.658539"><ele></ele><time>2017-9-17T10:37:35Z</time></trkpt>
<trkpt lat="48.468281" lon="2.658555"><ele></ele><time>2017-9-17T10:37:38Z</time></trkpt>
<trkpt lat="48.468144" lon="2.65859"><ele></ele><time>2017-9-17T10:37:41Z</time></trkpt>
<trkpt lat="48.468036" lon="2.658552"><ele></ele><time>2017-9-17T10:37:44Z</time></trkpt>
<trkpt lat="48.467895" lon="2.658536"><ele></ele><time>2017-9-17T10:37:47Z</time></trkpt>
<trkpt lat="48.467797" lon="2.658514"><ele></ele><time>2017-9-17T10:37:50Z</time></trkpt>
<trkpt lat="48.467698" lon="2.658489"><ele></ele><time>2017-9-17T10:37:53Z</time></trkpt>
<trkpt lat="48.467569" lon="2.658457"><ele></ele><time>2017-9-17T10:37:56Z</time></trkpt>
<trkpt lat="48.467449" lon="2.658417"><ele></ele><time>2017-9-17T10:37:59Z</time></trkpt>
<trkpt lat="48.467323" lon="2.658428"><ele></ele><time>2017-9-17T10:38:2Z</time></trkpt>
<trkpt lat="48.467212" lon="2.658473"><ele></ele><time>2017-9-17T10:38:5Z</time></trkpt>
<trkpt lat="48.467116" lon="2.658464"><ele></ele><time>2017-9-17T10:38:8Z</time></trkpt>
<trkpt lat="48.467007" lon="2.658437"><ele></ele><time>2017-9-17T10:38:11Z</time></trkpt>
<trkpt lat="48.466906" lon="2.658419"><ele></ele><time>2017-9-17T10:38:14Z</time></trkpt>
<trkpt lat="48.466792" lon="2.658437"><ele></ele><time>2017-9-17T10:38:17Z</time></trkpt>
<trkpt lat="48.466651" lon="2.658454"><ele></ele><time>2017-9-17T10:38:20Z</time></trkpt>
<trkpt lat="48.46656" lon="2.658406"><ele></ele><time>2017-9-17T10:38:23Z</time></trkpt>
<trkpt lat="48.466455" lon="2.658438"><ele></ele><time>2017-9-17T10:38:26Z</time></trkpt>
<trkpt lat="48.466363" lon="2.658396"><ele></ele><time>2017-9-17T10:38:29Z</time></trkpt>
<trkpt lat="48.466238" lon="2.658376"><ele></ele><time>2017-9-17T10:38:32Z</time></trkpt>
<trkpt lat="48.466135" lon="2.658354"><ele></ele><time>2017-9-17T10:38:35Z</time></trkpt>
<trkpt lat="48.466021" lon="2.658413"><ele></ele><time>2017-9-17T10:38:38Z</time></trkpt>
<trkpt lat="48.465906" lon="2.658478"><ele></ele><time>2017-9-17T10:38:41Z</time></trkpt>
<trkpt lat="48.465806" lon="2.658495"><ele></ele><time>2017-9-17T10:38:44Z</time></trkpt>
<trkpt lat="48.465717" lon="2.658474"><ele></ele><time>2017-9-17T10:38:47Z</time></trkpt>
<trkpt lat="48.465618" lon="2.658453"><ele></ele><time>2017-9-17T10:38:50Z</time></trkpt>
<trkpt lat="48.465486" lon="2.658381"><ele></ele><time>2017-9-17T10:38:53Z</time></trkpt>
<trkpt lat="48.465384" lon="2.658343"><ele></ele><time>2017-9-17T10:38:56Z</time></trkpt>
<trkpt lat="48.465266" lon="2.658396"><ele></ele><time>2017-9-17T10:38:59Z</time></trkpt>
<trkpt lat="48.46513" lon="2.658397"><ele></ele><time>2017-9-17T10:39:2Z</time></trkpt>
<trkpt lat="48.465012" lon="2.658416"><ele></ele><time>2017-9-17T10:39:5Z</time></trkpt>
<trkpt lat="48.464924" lon="2.658459"><ele></ele><time>2017-9-17T10:39:8Z</time></trkpt>
<trkpt lat="48.464821" lon="2.658493"><ele></ele><time>2017-9-17T10:39:11Z</time></trkpt>
<trkpt lat="48.464699" lon="2.658469"><ele></ele><time>2017-9-17T10:39:14Z</time></trkpt>
<trkpt lat="48.464565" lon="2.658462"><ele></ele><time>2017-9-17T10:39:17Z</time></trkpt>
<trkpt lat="48.464456" lon="2.658526"><ele></ele><time>2017-9-17T10:39:20Z</time></trkpt>
<trkpt lat="48.464356" lon="2.658535"><ele></ele><time>2017-9-17T10:39:23Z</time></trkpt>
<trkpt lat="48.464249" lon="2.658653"><ele></ele><time>2017-9-17T10:39:26Z</time></trkpt>
<trkpt lat="48.464135" lon="2.658751"><ele></ele><time>2017-9-17T10:39:29Z</time></trkpt>
<trkpt lat="48.464032" lon="2.65886"><ele></ele><time>2017-9-17T10:39:32Z</time></trkpt>
<trkpt lat="48.463964" lon="2.658953"><ele></ele><time>2017-9-17T10:39:35Z</time></trkpt>
<trkpt lat="48.463884" lon="2.659036"><ele></ele><time>2017-9-17T10:39:38Z</time></trkpt>
<trkpt lat="48.463785" lon="2.65911"><ele></ele><time>2017-9-17T10:39:41Z</time></trkpt>
<trkpt lat="48.463682" lon="2.659159"><ele></ele><time>2017-9-17T10:39:44Z</time></trkpt>
<trkpt lat="48.463591" lon="2.65921"><ele></ele><time>2017-9-17T10:39:47Z</time></trkpt>
<trkpt lat="48.463506" lon="2.659299"><ele></ele><time>2017-9-17T10:39:50Z</time></trkpt>
<trkpt lat="48.463411" lon="2.659431"><ele></ele><time>2017-9-17T10:39:53Z</time></trkpt>
<trkpt lat="48.463313" lon="2.659513"><ele></ele><time>2017-9-17T10:39:56Z</time></trkpt>
<trkpt lat="48.463217" lon="2.659585"><ele></ele><time>2017-9-17T10:39:59Z</time></trkpt>
<trkpt lat="48.463115" lon="2.659673"><ele></ele><time>2017-9-17T10:40:2Z</time></trkpt>
<trkpt lat="48.463027" lon="2.65974"><ele></ele><time>2017-9-17T10:40:5Z</time></trkpt>
<trkpt lat="48.462943" lon="2.659846"><ele></ele><time>2017-9-17T10:40:8Z</time></trkpt>
<trkpt lat="48.462839" lon="2.659893"><ele></ele><time>2017-9-17T10:40:11Z</time></trkpt>
<trkpt lat="48.462746" lon="2.659934"><ele></ele><time>2017-9-17T10:40:14Z</time></trkpt>
<trkpt lat="48.462653" lon="2.660001"><ele></ele><time>2017-9-17T10:40:17Z</time></trkpt>
<trkpt lat="48.46256" lon="2.660105"><ele></ele><time>2017-9-17T10:40:20Z</time></trkpt>
<trkpt lat="48.462478" lon="2.660194"><ele></ele><time>2017-9-17T10:40:23Z</time></trkpt>
<trkpt lat="48.462378" lon="2.660238"><ele></ele><time>2017-9-17T10:40:26Z</time></trkpt>
<trkpt lat="48.462316" lon="2.660348"><ele></ele><time>2017-9-17T10:40:29Z</time></trkpt>
<trkpt lat="48.462219" lon="2.660387"><ele></ele><time>2017-9-17T10:40:32Z</time></trkpt>
<trkpt lat="48.462115" lon="2.660424"><ele></ele><time>2017-9-17T10:40:35Z</time></trkpt>
<trkpt lat="48.461995" lon="2.660428"><ele></ele><time>2017-9-17T10:40:38Z</time></trkpt>
<trkpt lat="48.461905" lon="2.66048"><ele></ele><time>2017-9-17T10:40:41Z</time></trkpt>
<trkpt lat="48.461811" lon="2.66048"><ele></ele><time>2017-9-17T10:40:44Z</time></trkpt>
<trkpt lat="48.461712" lon="2.66048"><ele></ele><time>2017-9-17T10:40:47Z</time></trkpt>
<trkpt lat="48.461618" lon="2.660497"><ele></ele><time>2017-9-17T10:40:50Z</time></trkpt>
<trkpt lat="48.461522" lon="2.66051"><ele></ele><time>2017-9-17T10:40:53Z</time></trkpt>
<trkpt lat="48.461408" lon="2.660419"><ele></ele><time>2017-9-17T10:40:56Z</time></trkpt>
<trkpt lat="48.461301" lon="2.660369"><ele></ele><time>2017-9-17T10:40:59Z</time></trkpt>
<trkpt lat="48.461214" lon="2.660441"><ele></ele><time>2017-9-17T10:41:2Z</time></trkpt>
<trkpt lat="48.461128" lon="2.660487"><ele></ele><time>2017-9-17T10:41:5Z</time></trkpt>
<trkpt lat="48.461016" lon="2.660522"><ele></ele><time>2017-9-17T10:41:8Z</time></trkpt>
<trkpt lat="48.460914" lon="2.660571"><ele></ele><time>2017-9-17T10:41:11Z</time></trkpt>
<trkpt lat="48.460811" lon="2.660657"><ele></ele><time>2017-9-17T10:41:14Z</time></trkpt>
<trkpt lat="48.460727" lon="2.660727"><ele></ele><time>2017-9-17T10:41:17Z</time></trkpt>
<trkpt lat="48.460646" lon="2.6608"><ele></ele><time>2017-9-17T10:41:20Z</time></trkpt>
<trkpt lat="48.460569" lon="2.660923"><ele></ele><time>2017-9-17T10:41:23Z</time></trkpt>
<trkpt lat="48.460489" lon="2.661047"><ele></ele><time>2017-9-17T10:41:26Z</time></trkpt>
<trkpt lat="48.460409" lon="2.661116"><ele></ele><time>2017-9-17T10:41:29Z</time></trkpt>
<trkpt lat="48.460309" lon="2.661201"><ele></ele><time>2017-9-17T10:41:32Z</time></trkpt>
<trkpt lat="48.460194" lon="2.661226"><ele></ele><time>2017-9-17T10:41:35Z</time></trkpt>
<trkpt lat="48.460092" lon="2.661314"><ele></ele><time>2017-9-17T10:41:38Z</time></trkpt>
<trkpt lat="48.459992" lon="2.661392"><ele></ele><time>2017-9-17T10:41:41Z</time></trkpt>
<trkpt lat="48.459878" lon="2.661374"><ele></ele><time>2017-9-17T10:41:44Z</time></trkpt>
<trkpt lat="48.459786" lon="2.661324"><ele></ele><time>2017-9-17T10:41:47Z</time></trkpt>
<trkpt lat="48.459696" lon="2.661309"><ele></ele><time>2017-9-17T10:41:50Z</time></trkpt>
<trkpt lat="48.459592" lon="2.661265"><ele></ele><time>2017-9-17T10:41:53Z</time></trkpt>
<trkpt lat="48.459481" lon="2.661223"><ele></ele><time>2017-9-17T10:41:56Z</time></trkpt>
<trkpt lat="48.459373" lon="2.661209"><ele></ele><time>2017-9-17T10:41:59Z</time></trkpt>
<trkpt lat="48.459284" lon="2.661131"><ele></ele><time>2017-9-17T10:42:2Z</time></trkpt>
<trkpt lat="48.459184" lon="2.661081"><ele></ele><time>2017-9-17T10:42:5Z</time></trkpt>
<trkpt lat="48.459082" lon="2.661059"><ele></ele><time>2017-9-17T10:42:8Z</time></trkpt>
<trkpt lat="48.459005" lon="2.660988"><ele></ele><time>2017-9-17T10:42:11Z</time></trkpt>
<trkpt lat="48.4589" lon="2.660903"><ele></ele><time>2017-9-17T10:42:14Z</time></trkpt>
<trkpt lat="48.458817" lon="2.660832"><ele></ele><time>2017-9-17T10:42:17Z</time></trkpt>
<trkpt lat="48.458714" lon="2.660756"><ele></ele><time>2017-9-17T10:42:20Z</time></trkpt>
<trkpt lat="48.458654" lon="2.660624"><ele></ele><time>2017-9-17T10:42:23Z</time></trkpt>
<trkpt lat="48.458605" lon="2.66051"><ele></ele><time>2017-9-17T10:42:26Z</time></trkpt>
<trkpt lat="48.458546" lon="2.660384"><ele></ele><time>2017-9-17T10:42:29Z</time></trkpt>
<trkpt lat="48.458528" lon="2.660239"><ele></ele><time>2017-9-17T10:42:32Z</time></trkpt>
<trkpt lat="48.458495" lon="2.66009"><ele></ele><time>2017-9-17T10:42:35Z</time></trkpt>
<trkpt lat="48.458509" lon="2.659953"><ele></ele><time>2017-9-17T10:42:38Z</time></trkpt>
<trkpt lat="48.458493" lon="2.659794"><ele></ele><time>2017-9-17T10:42:41Z</time></trkpt>
<trkpt lat="48.458525" lon="2.65962"><ele></ele><time>2017-9-17T10:42:44Z</time></trkpt>
<trkpt lat="48.458557" lon="2.659487"><ele></ele><time>2017-9-17T10:42:47Z</time></trkpt>
<trkpt lat="48.45853" lon="2.659337"><ele></ele><time>2017-9-17T10:42:50Z</time></trkpt>
<trkpt lat="48.458496" lon="2.659209"><ele></ele><time>2017-9-17T10:42:53Z</time></trkpt>
<trkpt lat="48.458427" lon="2.659099"><ele></ele><time>2017-9-17T10:42:56Z</time></trkpt>
<trkpt lat="48.458344" lon="2.65901"><ele></ele><time>2017-9-17T10:42:59Z</time></trkpt>
<trkpt lat="48.458287" lon="2.658892"><ele></ele><time>2017-9-17T10:43:2Z</time></trkpt>
<trkpt lat="48.458216" lon="2.658767"><ele></ele><time>2017-9-17T10:43:5Z</time></trkpt>
<trkpt lat="48.458134" lon="2.658686"><ele></ele><time>2017-9-17T10:43:8Z</time></trkpt>
<trkpt lat="48.458098" lon="2.65855"><ele></ele><time>2017-9-17T10:43:11Z</time></trkpt>
<trkpt lat="48.458072" lon="2.658398"><ele></ele><time>2017-9-17T10:43:14Z</time></trkpt>
<trkpt lat="48.458012" lon="2.658286"><ele></ele><time>2017-9-17T10:43:17Z</time></trkpt>
<trkpt lat="48.457949" lon="2.658186"><ele></ele><time>2017-9-17T10:43:20Z</time></trkpt>
<trkpt lat="48.457871" lon="2.658091"><ele></ele><time>2017-9-17T10:43:23Z</time></trkpt>
<trkpt lat="48.457774" lon="2.658057"><ele></ele><time>2017-9-17T10:43:26Z</time></trkpt>
<trkpt lat="48.457678" lon="2.658054"><ele></ele><time>2017-9-17T10:43:29Z</time></trkpt>
<trkpt lat="48.457591" lon="2.657996"><ele></ele><time>2017-9-17T10:43:32Z</time></trkpt>
<trkpt lat="48.457552" lon="2.657854"><ele></ele><time>2017-9-17T10:43:35Z</time></trkpt>
<trkpt lat="48.457486" lon="2.657647"><ele></ele><time>2017-9-17T10:43:38Z</time></trkpt>
<trkpt lat="48.457407" lon="2.657536"><ele></ele><time>2017-9-17T10:43:41Z</time></trkpt>
<trkpt lat="48.457519" lon="2.657482"><ele></ele><time>2017-9-17T10:43:44Z</time></trkpt>
<trkpt lat="48.457612" lon="2.657499"><ele></ele><time>2017-9-17T10:43:47Z</time></trkpt>
<trkpt lat="48.457705" lon="2.657518"><ele></ele><time>2017-9-17T10:43:50Z</time></trkpt>
<trkpt lat="48.457788" lon="2.657428"><ele></ele><time>2017-9-17T10:43:53Z</time></trkpt>
<trkpt lat="48.45787" lon="2.657364"><ele></ele><time>2017-9-17T10:43:56Z</time></trkpt>
<trkpt lat="48.457962" lon="2.657353"><ele></ele><time>2017-9-17T10:43:59Z</time></trkpt>
<trkpt lat="48.458073" lon="2.657355"><ele></ele><time>2017-9-17T10:44:2Z</time></trkpt>
<trkpt lat="48.458171" lon="2.657355"><ele></ele><time>2017-9-17T10:44:5Z</time></trkpt>
<trkpt lat="48.458273" lon="2.657329"><ele></ele><time>2017-9-17T10:44:8Z</time></trkpt>
<trkpt lat="48.458358" lon="2.657277"><ele></ele><time>2017-9-17T10:44:11Z</time></trkpt>
<trkpt lat="48.458453" lon="2.657168"><ele></ele><time>2017-9-17T10:44:14Z</time></trkpt>
<trkpt lat="48.458513" lon="2.657048"><ele></ele><time>2017-9-17T10:44:17Z</time></trkpt>
<trkpt lat="48.45858" lon="2.656951"><ele></ele><time>2017-9-17T10:44:20Z</time></trkpt>
<trkpt lat="48.458652" lon="2.656833"><ele></ele><time>2017-9-17T10:44:23Z</time></trkpt>
<trkpt lat="48.458716" lon="2.656713"><ele></ele><time>2017-9-17T10:44:26Z</time></trkpt>
<trkpt lat="48.458776" lon="2.656558"><ele></ele><time>2017-9-17T10:44:29Z</time></trkpt>
<trkpt lat="48.458843" lon="2.656435"><ele></ele><time>2017-9-17T10:44:32Z</time></trkpt>
<trkpt lat="48.458913" lon="2.656318"><ele></ele><time>2017-9-17T10:44:35Z</time></trkpt>
<trkpt lat="48.458998" lon="2.656214"><ele></ele><time>2017-9-17T10:44:38Z</time></trkpt>
<trkpt lat="48.459103" lon="2.656084"><ele></ele><time>2017-9-17T10:44:41Z</time></trkpt>
<trkpt lat="48.459197" lon="2.655959"><ele></ele><time>2017-9-17T10:44:44Z</time></trkpt>
<trkpt lat="48.45925" lon="2.655809"><ele></ele><time>2017-9-17T10:44:47Z</time></trkpt>
<trkpt lat="48.459329" lon="2.655661"><ele></ele><time>2017-9-17T10:44:50Z</time></trkpt>
<trkpt lat="48.459364" lon="2.65552"><ele></ele><time>2017-9-17T10:44:53Z</time></trkpt>
<trkpt lat="48.459421" lon="2.655339"><ele></ele><time>2017-9-17T10:44:56Z</time></trkpt>
<trkpt lat="48.459456" lon="2.655159"><ele></ele><time>2017-9-17T10:44:59Z</time></trkpt>
<trkpt lat="48.459529" lon="2.655002"><ele></ele><time>2017-9-17T10:45:2Z</time></trkpt>
<trkpt lat="48.45957" lon="2.65486"><ele></ele><time>2017-9-17T10:45:5Z</time></trkpt>
<trkpt lat="48.459581" lon="2.654666"><ele></ele><time>2017-9-17T10:45:8Z</time></trkpt>
<trkpt lat="48.459636" lon="2.654495"><ele></ele><time>2017-9-17T10:45:11Z</time></trkpt>
<trkpt lat="48.459644" lon="2.654331"><ele></ele><time>2017-9-17T10:45:14Z</time></trkpt>
<trkpt lat="48.459673" lon="2.654197"><ele></ele><time>2017-9-17T10:45:17Z</time></trkpt>
<trkpt lat="48.459776" lon="2.654149"><ele></ele><time>2017-9-17T10:45:20Z</time></trkpt>
<trkpt lat="48.459789" lon="2.653992"><ele></ele><time>2017-9-17T10:45:23Z</time></trkpt>
<trkpt lat="48.459667" lon="2.653917"><ele></ele><time>2017-9-17T10:45:26Z</time></trkpt>
<trkpt lat="48.459551" lon="2.653795"><ele></ele><time>2017-9-17T10:45:29Z</time></trkpt>
<trkpt lat="48.459433" lon="2.653663"><ele></ele><time>2017-9-17T10:45:32Z</time></trkpt>
<trkpt lat="48.459317" lon="2.65364"><ele></ele><time>2017-9-17T10:45:35Z</time></trkpt>
<trkpt lat="48.459206" lon="2.653589"><ele></ele><time>2017-9-17T10:45:38Z</time></trkpt>
<trkpt lat="48.459077" lon="2.653567"><ele></ele><time>2017-9-17T10:45:41Z</time></trkpt>
<trkpt lat="48.458938" lon="2.653544"><ele></ele><time>2017-9-17T10:45:44Z</time></trkpt>
<trkpt lat="48.458789" lon="2.65351"><ele></ele><time>2017-9-17T10:45:47Z</time></trkpt>
<trkpt lat="48.458663" lon="2.653504"><ele></ele><time>2017-9-17T10:45:50Z</time></trkpt>
<trkpt lat="48.458573" lon="2.653516"><ele></ele><time>2017-9-17T10:45:53Z</time></trkpt>
<trkpt lat="48.458467" lon="2.653494"><ele></ele><time>2017-9-17T10:45:56Z</time></trkpt>
<trkpt lat="48.458354" lon="2.653511"><ele></ele><time>2017-9-17T10:45:59Z</time></trkpt>
<trkpt lat="48.458243" lon="2.653475"><ele></ele><time>2017-9-17T10:46:2Z</time></trkpt>
<trkpt lat="48.458141" lon="2.653428"><ele></ele><time>2017-9-17T10:46:5Z</time></trkpt>
<trkpt lat="48.45803" lon="2.653371"><ele></ele><time>2017-9-17T10:46:8Z</time></trkpt>
<trkpt lat="48.457944" lon="2.653267"><ele></ele><time>2017-9-17T10:46:11Z</time></trkpt>
<trkpt lat="48.457868" lon="2.653159"><ele></ele><time>2017-9-17T10:46:14Z</time></trkpt>
<trkpt lat="48.457801" lon="2.653057"><ele></ele><time>2017-9-17T10:46:17Z</time></trkpt>
<trkpt lat="48.457744" lon="2.652939"><ele></ele><time>2017-9-17T10:46:20Z</time></trkpt>
<trkpt lat="48.457696" lon="2.652797"><ele></ele><time>2017-9-17T10:46:23Z</time></trkpt>
<trkpt lat="48.457689" lon="2.652659"><ele></ele><time>2017-9-17T10:46:26Z</time></trkpt>
<trkpt lat="48.457675" lon="2.652506"><ele></ele><time>2017-9-17T10:46:29Z</time></trkpt>
<trkpt lat="48.457734" lon="2.652314"><ele></ele><time>2017-9-17T10:46:32Z</time></trkpt>
<trkpt lat="48.457793" lon="2.652135"><ele></ele><time>2017-9-17T10:46:35Z</time></trkpt>
<trkpt lat="48.457866" lon="2.652008"><ele></ele><time>2017-9-17T10:46:38Z</time></trkpt>
<trkpt lat="48.457947" lon="2.651856"><ele></ele><time>2017-9-17T10:46:41Z</time></trkpt>
<trkpt lat="48.458027" lon="2.651734"><ele></ele><time>2017-9-17T10:46:44Z</time></trkpt>
<trkpt lat="48.458124" lon="2.651622"><ele></ele><time>2017-9-17T10:46:47Z</time></trkpt>
<trkpt lat="48.458255" lon="2.651578"><ele></ele><time>2017-9-17T10:46:50Z</time></trkpt>
<trkpt lat="48.458356" lon="2.651512"><ele></ele><time>2017-9-17T10:46:53Z</time></trkpt>
<trkpt lat="48.458471" lon="2.651414"><ele></ele><time>2017-9-17T10:46:56Z</time></trkpt>
<trkpt lat="48.458581" lon="2.651341"><ele></ele><time>2017-9-17T10:46:59Z</time></trkpt>
<trkpt lat="48.458665" lon="2.651205"><ele></ele><time>2017-9-17T10:47:2Z</time></trkpt>
<trkpt lat="48.458717" lon="2.651024"><ele></ele><time>2017-9-17T10:47:5Z</time></trkpt>
<trkpt lat="48.458762" lon="2.650886"><ele></ele><time>2017-9-17T10:47:8Z</time></trkpt>
<trkpt lat="48.458686" lon="2.650689"><ele></ele><time>2017-9-17T10:47:11Z</time></trkpt>
<trkpt lat="48.458645" lon="2.650554"><ele></ele><time>2017-9-17T10:47:14Z</time></trkpt>
<trkpt lat="48.458568" lon="2.650382"><ele></ele><time>2017-9-17T10:47:17Z</time></trkpt>
<trkpt lat="48.458505" lon="2.650221"><ele></ele><time>2017-9-17T10:47:20Z</time></trkpt>
<trkpt lat="48.458428" lon="2.650088"><ele></ele><time>2017-9-17T10:47:23Z</time></trkpt>
<trkpt lat="48.458367" lon="2.649976"><ele></ele><time>2017-9-17T10:47:26Z</time></trkpt>
<trkpt lat="48.458293" lon="2.649803"><ele></ele><time>2017-9-17T10:47:29Z</time></trkpt>
<trkpt lat="48.458238" lon="2.649691"><ele></ele><time>2017-9-17T10:47:32Z</time></trkpt>
<trkpt lat="48.458165" lon="2.649551"><ele></ele><time>2017-9-17T10:47:35Z</time></trkpt>
<trkpt lat="48.458121" lon="2.649398"><ele></ele><time>2017-9-17T10:47:38Z</time></trkpt>
<trkpt lat="48.458088" lon="2.649218"><ele></ele><time>2017-9-17T10:47:41Z</time></trkpt>
<trkpt lat="48.458088" lon="2.649004"><ele></ele><time>2017-9-17T10:47:44Z</time></trkpt>
<trkpt lat="48.458068" lon="2.648847"><ele></ele><time>2017-9-17T10:47:47Z</time></trkpt>
<trkpt lat="48.458069" lon="2.648699"><ele></ele><time>2017-9-17T10:47:50Z</time></trkpt>
<trkpt lat="48.458083" lon="2.648556"><ele></ele><time>2017-9-17T10:47:53Z</time></trkpt>
<trkpt lat="48.458202" lon="2.648477"><ele></ele><time>2017-9-17T10:47:56Z</time></trkpt>
<trkpt lat="48.458307" lon="2.648396"><ele></ele><time>2017-9-17T10:47:59Z</time></trkpt>
<trkpt lat="48.458428" lon="2.64834"><ele></ele><time>2017-9-17T10:48:2Z</time></trkpt>
<trkpt lat="48.458538" lon="2.648276"><ele></ele><time>2017-9-17T10:48:5Z</time></trkpt>
<trkpt lat="48.458618" lon="2.648211"><ele></ele><time>2017-9-17T10:48:8Z</time></trkpt>
<trkpt lat="48.458707" lon="2.648133"><ele></ele><time>2017-9-17T10:48:11Z</time></trkpt>
<trkpt lat="48.458797" lon="2.648071"><ele></ele><time>2017-9-17T10:48:14Z</time></trkpt>
<trkpt lat="48.458943" lon="2.648033"><ele></ele><time>2017-9-17T10:48:17Z</time></trkpt>
<trkpt lat="48.459108" lon="2.647978"><ele></ele><time>2017-9-17T10:48:20Z</time></trkpt>
<trkpt lat="48.45922" lon="2.647864"><ele></ele><time>2017-9-17T10:48:23Z</time></trkpt>
<trkpt lat="48.459358" lon="2.647765"><ele></ele><time>2017-9-17T10:48:26Z</time></trkpt>
<trkpt lat="48.459396" lon="2.647626"><ele></ele><time>2017-9-17T10:48:29Z</time></trkpt>
<trkpt lat="48.459447" lon="2.647493"><ele></ele><time>2017-9-17T10:48:32Z</time></trkpt>
<trkpt lat="48.459469" lon="2.647345"><ele></ele><time>2017-9-17T10:48:35Z</time></trkpt>
<trkpt lat="48.459497" lon="2.647206"><ele></ele><time>2017-9-17T10:48:38Z</time></trkpt>
<trkpt lat="48.459514" lon="2.647037"><ele></ele><time>2017-9-17T10:48:41Z</time></trkpt>
<trkpt lat="48.459495" lon="2.646885"><ele></ele><time>2017-9-17T10:48:44Z</time></trkpt>
<trkpt lat="48.459478" lon="2.646738"><ele></ele><time>2017-9-17T10:48:47Z</time></trkpt>
<trkpt lat="48.45948" lon="2.646565"><ele></ele><time>2017-9-17T10:48:50Z</time></trkpt>
<trkpt lat="48.459451" lon="2.646394"><ele></ele><time>2017-9-17T10:48:53Z</time></trkpt>
<trkpt lat="48.459428" lon="2.646248"><ele></ele><time>2017-9-17T10:48:56Z</time></trkpt>
<trkpt lat="48.459414" lon="2.646112"><ele></ele><time>2017-9-17T10:48:59Z</time></trkpt>
<trkpt lat="48.459383" lon="2.645982"><ele></ele><time>2017-9-17T10:49:2Z</time></trkpt>
<trkpt lat="48.459331" lon="2.64586"><ele></ele><time>2017-9-17T10:49:5Z</time></trkpt>
<trkpt lat="48.459268" lon="2.645741"><ele></ele><time>2017-9-17T10:49:8Z</time></trkpt>
<trkpt lat="48.459209" lon="2.645629"><ele></ele><time>2017-9-17T10:49:11Z</time></trkpt>
<trkpt lat="48.459153" lon="2.645515"><ele></ele><time>2017-9-17T10:49:14Z</time></trkpt>
<trkpt lat="48.459116" lon="2.645358"><ele></ele><time>2017-9-17T10:49:17Z</time></trkpt>
<trkpt lat="48.459073" lon="2.645156"><ele></ele><time>2017-9-17T10:49:20Z</time></trkpt>
<trkpt lat="48.459023" lon="2.644978"><ele></ele><time>2017-9-17T10:49:23Z</time></trkpt>
<trkpt lat="48.458985" lon="2.644807"><ele></ele><time>2017-9-17T10:49:26Z</time></trkpt>
<trkpt lat="48.458995" lon="2.644654"><ele></ele><time>2017-9-17T10:49:29Z</time></trkpt>
<trkpt lat="48.459002" lon="2.644461"><ele></ele><time>2017-9-17T10:49:32Z</time></trkpt>
<trkpt lat="48.458996" lon="2.644256"><ele></ele><time>2017-9-17T10:49:35Z</time></trkpt>
<trkpt lat="48.459041" lon="2.64411"><ele></ele><time>2017-9-17T10:49:38Z</time></trkpt>
<trkpt lat="48.459083" lon="2.643918"><ele></ele><time>2017-9-17T10:49:41Z</time></trkpt>
<trkpt lat="48.45909" lon="2.64376"><ele></ele><time>2017-9-17T10:49:44Z</time></trkpt>
<trkpt lat="48.459117" lon="2.643594"><ele></ele><time>2017-9-17T10:49:47Z</time></trkpt>
<trkpt lat="48.459157" lon="2.643457"><ele></ele><time>2017-9-17T10:49:50Z</time></trkpt>
<trkpt lat="48.45921" lon="2.643264"><ele></ele><time>2017-9-17T10:49:53Z</time></trkpt>
<trkpt lat="48.459259" lon="2.643103"><ele></ele><time>2017-9-17T10:49:56Z</time></trkpt>
<trkpt lat="48.459315" lon="2.642951"><ele></ele><time>2017-9-17T10:49:59Z</time></trkpt>
<trkpt lat="48.459321" lon="2.642798"><ele></ele><time>2017-9-17T10:50:2Z</time></trkpt>
<trkpt lat="48.459358" lon="2.642652"><ele></ele><time>2017-9-17T10:50:5Z</time></trkpt>
<trkpt lat="48.459372" lon="2.642505"><ele></ele><time>2017-9-17T10:50:8Z</time></trkpt>
<trkpt lat="48.459357" lon="2.642348"><ele></ele><time>2017-9-17T10:50:11Z</time></trkpt>
<trkpt lat="48.459371" lon="2.642153"><ele></ele><time>2017-9-17T10:50:14Z</time></trkpt>
<trkpt lat="48.459355" lon="2.641989"><ele></ele><time>2017-9-17T10:50:17Z</time></trkpt>
<trkpt lat="48.45939" lon="2.641801"><ele></ele><time>2017-9-17T10:50:20Z</time></trkpt>
<trkpt lat="48.459448" lon="2.641641"><ele></ele><time>2017-9-17T10:50:23Z</time></trkpt>
<trkpt lat="48.459475" lon="2.641478"><ele></ele><time>2017-9-17T10:50:26Z</time></trkpt>
<trkpt lat="48.459409" lon="2.641377"><ele></ele><time>2017-9-17T10:50:29Z</time></trkpt>
<trkpt lat="48.459301" lon="2.641328"><ele></ele><time>2017-9-17T10:50:32Z</time></trkpt>
<trkpt lat="48.459192" lon="2.641279"><ele></ele><time>2017-9-17T10:50:35Z</time></trkpt>
<trkpt lat="48.459079" lon="2.641251"><ele></ele><time>2017-9-17T10:50:38Z</time></trkpt>
<trkpt lat="48.458977" lon="2.641214"><ele></ele><time>2017-9-17T10:50:41Z</time></trkpt>
<trkpt lat="48.458879" lon="2.641194"><ele></ele><time>2017-9-17T10:50:44Z</time></trkpt>
<trkpt lat="48.458769" lon="2.641172"><ele></ele><time>2017-9-17T10:50:47Z</time></trkpt>
<trkpt lat="48.458659" lon="2.641153"><ele></ele><time>2017-9-17T10:50:50Z</time></trkpt>
<trkpt lat="48.45855" lon="2.641156"><ele></ele><time>2017-9-17T10:50:53Z</time></trkpt>
<trkpt lat="48.458447" lon="2.641182"><ele></ele><time>2017-9-17T10:50:56Z</time></trkpt>
<trkpt lat="48.458353" lon="2.641176"><ele></ele><time>2017-9-17T10:50:59Z</time></trkpt>
<trkpt lat="48.458257" lon="2.641174"><ele></ele><time>2017-9-17T10:51:2Z</time></trkpt>
<trkpt lat="48.458167" lon="2.641142"><ele></ele><time>2017-9-17T10:51:5Z</time></trkpt>
<trkpt lat="48.45805" lon="2.641071"><ele></ele><time>2017-9-17T10:51:8Z</time></trkpt>
<trkpt lat="48.457961" lon="2.640971"><ele></ele><time>2017-9-17T10:51:11Z</time></trkpt>
<trkpt lat="48.457913" lon="2.640837"><ele></ele><time>2017-9-17T10:51:14Z</time></trkpt>
<trkpt lat="48.457851" lon="2.640711"><ele></ele><time>2017-9-17T10:51:17Z</time></trkpt>
<trkpt lat="48.457804" lon="2.640593"><ele></ele><time>2017-9-17T10:51:20Z</time></trkpt>
<trkpt lat="48.457738" lon="2.64049"><ele></ele><time>2017-9-17T10:51:23Z</time></trkpt>
<trkpt lat="48.45768" lon="2.640385"><ele></ele><time>2017-9-17T10:51:26Z</time></trkpt>
<trkpt lat="48.457636" lon="2.640266"><ele></ele><time>2017-9-17T10:51:29Z</time></trkpt>
<trkpt lat="48.457605" lon="2.640112"><ele></ele><time>2017-9-17T10:51:32Z</time></trkpt>
<trkpt lat="48.457565" lon="2.639926"><ele></ele><time>2017-9-17T10:51:35Z</time></trkpt>
<trkpt lat="48.457571" lon="2.63976"><ele></ele><time>2017-9-17T10:51:38Z</time></trkpt>
<trkpt lat="48.457535" lon="2.639552"><ele></ele><time>2017-9-17T10:51:41Z</time></trkpt>
<trkpt lat="48.457578" lon="2.63941"><ele></ele><time>2017-9-17T10:51:44Z</time></trkpt>
<trkpt lat="48.457601" lon="2.639254"><ele></ele><time>2017-9-17T10:51:47Z</time></trkpt>
<trkpt lat="48.457611" lon="2.639042"><ele></ele><time>2017-9-17T10:51:50Z</time></trkpt>
<trkpt lat="48.457638" lon="2.638891"><ele></ele><time>2017-9-17T10:51:53Z</time></trkpt>
<trkpt lat="48.457649" lon="2.638736"><ele></ele><time>2017-9-17T10:51:56Z</time></trkpt>
<trkpt lat="48.45766" lon="2.638581"><ele></ele><time>2017-9-17T10:51:59Z</time></trkpt>
<trkpt lat="48.457615" lon="2.63839"><ele></ele><time>2017-9-17T10:52:2Z</time></trkpt>
<trkpt lat="48.45753" lon="2.638302"><ele></ele><time>2017-9-17T10:52:5Z</time></trkpt>
<trkpt lat="48.457425" lon="2.638361"><ele></ele><time>2017-9-17T10:52:8Z</time></trkpt>
<trkpt lat="48.457329" lon="2.638394"><ele></ele><time>2017-9-17T10:52:11Z</time></trkpt>
<trkpt lat="48.457285" lon="2.638557"><ele></ele><time>2017-9-17T10:52:14Z</time></trkpt>
<trkpt lat="48.457246" lon="2.638734"><ele></ele><time>2017-9-17T10:52:17Z</time></trkpt>
<trkpt lat="48.457223" lon="2.638894"><ele></ele><time>2017-9-17T10:52:20Z</time></trkpt>
<trkpt lat="48.457124" lon="2.63904"><ele></ele><time>2017-9-17T10:52:23Z</time></trkpt>
<trkpt lat="48.457043" lon="2.639146"><ele></ele><time>2017-9-17T10:52:26Z</time></trkpt>
<trkpt lat="48.456923" lon="2.639215"><ele></ele><time>2017-9-17T10:52:29Z</time></trkpt>
<trkpt lat="48.456793" lon="2.639272"><ele></ele><time>2017-9-17T10:52:32Z</time></trkpt>
<trkpt lat="48.456653" lon="2.639299"><ele></ele><time>2017-9-17T10:52:35Z</time></trkpt>
<trkpt lat="48.456522" lon="2.639316"><ele></ele><time>2017-9-17T10:52:38Z</time></trkpt>
<trkpt lat="48.456432" lon="2.639292"><ele></ele><time>2017-9-17T10:52:41Z</time></trkpt>
<trkpt lat="48.456347" lon="2.639238"><ele></ele><time>2017-9-17T10:52:44Z</time></trkpt>
<trkpt lat="48.456275" lon="2.63907"><ele></ele><time>2017-9-17T10:52:47Z</time></trkpt>
<trkpt lat="48.456227" lon="2.638945"><ele></ele><time>2017-9-17T10:52:50Z</time></trkpt>
<trkpt lat="48.456161" lon="2.638804"><ele></ele><time>2017-9-17T10:52:53Z</time></trkpt>
<trkpt lat="48.456001" lon="2.638694"><ele></ele><time>2017-9-17T10:52:56Z</time></trkpt>
<trkpt lat="48.455893" lon="2.638761"><ele></ele><time>2017-9-17T10:52:59Z</time></trkpt>
<trkpt lat="48.455796" lon="2.638809"><ele></ele><time>2017-9-17T10:53:2Z</time></trkpt>
<trkpt lat="48.455667" lon="2.638792"><ele></ele><time>2017-9-17T10:53:5Z</time></trkpt>
<trkpt lat="48.455567" lon="2.638715"><ele></ele><time>2017-9-17T10:53:8Z</time></trkpt>
<trkpt lat="48.455502" lon="2.638621"><ele></ele><time>2017-9-17T10:53:11Z</time></trkpt>
<trkpt lat="48.455368" lon="2.638529"><ele></ele><time>2017-9-17T10:53:14Z</time></trkpt>
<trkpt lat="48.455266" lon="2.6385"><ele></ele><time>2017-9-17T10:53:17Z</time></trkpt>
<trkpt lat="48.455166" lon="2.638519"><ele></ele><time>2017-9-17T10:53:20Z</time></trkpt>
<trkpt lat="48.455063" lon="2.638535"><ele></ele><time>2017-9-17T10:53:23Z</time></trkpt>
<trkpt lat="48.454936" lon="2.63847"><ele></ele><time>2017-9-17T10:53:26Z</time></trkpt>
<trkpt lat="48.45482" lon="2.63838"><ele></ele><time>2017-9-17T10:53:29Z</time></trkpt>
<trkpt lat="48.45476" lon="2.638247"><ele></ele><time>2017-9-17T10:53:32Z</time></trkpt>
<trkpt lat="48.454686" lon="2.638145"><ele></ele><time>2017-9-17T10:53:35Z</time></trkpt>
<trkpt lat="48.454627" lon="2.638036"><ele></ele><time>2017-9-17T10:53:38Z</time></trkpt>
<trkpt lat="48.454558" lon="2.637941"><ele></ele><time>2017-9-17T10:53:41Z</time></trkpt>
<trkpt lat="48.454491" lon="2.637819"><ele></ele><time>2017-9-17T10:53:44Z</time></trkpt>
<trkpt lat="48.454406" lon="2.637681"><ele></ele><time>2017-9-17T10:53:47Z</time></trkpt>
<trkpt lat="48.454371" lon="2.637545"><ele></ele><time>2017-9-17T10:53:50Z</time></trkpt>
<trkpt lat="48.454376" lon="2.637365"><ele></ele><time>2017-9-17T10:53:53Z</time></trkpt>
<trkpt lat="48.454369" lon="2.637218"><ele></ele><time>2017-9-17T10:53:56Z</time></trkpt>
<trkpt lat="48.454324" lon="2.637043"><ele></ele><time>2017-9-17T10:53:59Z</time></trkpt>
<trkpt lat="48.454308" lon="2.636902"><ele></ele><time>2017-9-17T10:54:2Z</time></trkpt>
<trkpt lat="48.454268" lon="2.636775"><ele></ele><time>2017-9-17T10:54:5Z</time></trkpt>
<trkpt lat="48.454197" lon="2.636614"><ele></ele><time>2017-9-17T10:54:8Z</time></trkpt>
<trkpt lat="48.454104" lon="2.636497"><ele></ele><time>2017-9-17T10:54:11Z</time></trkpt>
<trkpt lat="48.45399" lon="2.636387"><ele></ele><time>2017-9-17T10:54:14Z</time></trkpt>
<trkpt lat="48.453874" lon="2.636318"><ele></ele><time>2017-9-17T10:54:17Z</time></trkpt>
<trkpt lat="48.453784" lon="2.636318"><ele></ele><time>2017-9-17T10:54:20Z</time></trkpt>
<trkpt lat="48.453693" lon="2.636366"><ele></ele><time>2017-9-17T10:54:23Z</time></trkpt>
<trkpt lat="48.453574" lon="2.63641"><ele></ele><time>2017-9-17T10:54:26Z</time></trkpt>
<trkpt lat="48.453468" lon="2.636471"><ele></ele><time>2017-9-17T10:54:29Z</time></trkpt>
<trkpt lat="48.453373" lon="2.636502"><ele></ele><time>2017-9-17T10:54:32Z</time></trkpt>
<trkpt lat="48.453276" lon="2.636558"><ele></ele><time>2017-9-17T10:54:35Z</time></trkpt>
<trkpt lat="48.453172" lon="2.636591"><ele></ele><time>2017-9-17T10:54:38Z</time></trkpt>
<trkpt lat="48.453068" lon="2.636623"><ele></ele><time>2017-9-17T10:54:41Z</time></trkpt>
<trkpt lat="48.45296" lon="2.636568"><ele></ele><time>2017-9-17T10:54:44Z</time></trkpt>
<trkpt lat="48.452869" lon="2.636464"><ele></ele><time>2017-9-17T10:54:47Z</time></trkpt>
<trkpt lat="48.452793" lon="2.63634"><ele></ele><time>2017-9-17T10:54:50Z</time></trkpt>
<trkpt lat="48.452725" lon="2.63623"><ele></ele><time>2017-9-17T10:54:53Z</time></trkpt>
<trkpt lat="48.452634" lon="2.636109"><ele></ele><time>2017-9-17T10:54:56Z</time></trkpt>
<trkpt lat="48.452498" lon="2.636087"><ele></ele><time>2017-9-17T10:54:59Z</time></trkpt>
<trkpt lat="48.452369" lon="2.636101"><ele></ele><time>2017-9-17T10:55:2Z</time></trkpt>
<trkpt lat="48.452239" lon="2.63611"><ele></ele><time>2017-9-17T10:55:5Z</time></trkpt>
<trkpt lat="48.452148" lon="2.636095"><ele></ele><time>2017-9-17T10:55:8Z</time></trkpt>
<trkpt lat="48.45205" lon="2.635959"><ele></ele><time>2017-9-17T10:55:11Z</time></trkpt>
<trkpt lat="48.451998" lon="2.635828"><ele></ele><time>2017-9-17T10:55:14Z</time></trkpt>
<trkpt lat="48.451972" lon="2.635688"><ele></ele><time>2017-9-17T10:55:17Z</time></trkpt>
<trkpt lat="48.451991" lon="2.635548"><ele></ele><time>2017-9-17T10:55:20Z</time></trkpt>
<trkpt lat="48.451985" lon="2.635401"><ele></ele><time>2017-9-17T10:55:23Z</time></trkpt>
<trkpt lat="48.451985" lon="2.635241"><ele></ele><time>2017-9-17T10:55:26Z</time></trkpt>
<trkpt lat="48.451985" lon="2.6351"><ele></ele><time>2017-9-17T10:55:29Z</time></trkpt>
<trkpt lat="48.452" lon="2.634949"><ele></ele><time>2017-9-17T10:55:32Z</time></trkpt>
<trkpt lat="48.452023" lon="2.634809"><ele></ele><time>2017-9-17T10:55:35Z</time></trkpt>
<trkpt lat="48.452027" lon="2.63464"><ele></ele><time>2017-9-17T10:55:38Z</time></trkpt>
<trkpt lat="48.452022" lon="2.6345"><ele></ele><time>2017-9-17T10:55:41Z</time></trkpt>
<trkpt lat="48.452015" lon="2.634359"><ele></ele><time>2017-9-17T10:55:44Z</time></trkpt>
<trkpt lat="48.452002" lon="2.634169"><ele></ele><time>2017-9-17T10:55:47Z</time></trkpt>
<trkpt lat="48.451976" lon="2.633995"><ele></ele><time>2017-9-17T10:55:50Z</time></trkpt>
<trkpt lat="48.452038" lon="2.633871"><ele></ele><time>2017-9-17T10:55:53Z</time></trkpt>
<trkpt lat="48.452069" lon="2.633724"><ele></ele><time>2017-9-17T10:55:56Z</time></trkpt>
<trkpt lat="48.452057" lon="2.633924"><ele></ele><time>2017-9-17T10:55:59Z</time></trkpt>
<trkpt lat="48.45205" lon="2.634073"><ele></ele><time>2017-9-17T10:56:2Z</time></trkpt>
<trkpt lat="48.452035" lon="2.634262"><ele></ele><time>2017-9-17T10:56:5Z</time></trkpt>
<trkpt lat="48.452008" lon="2.634451"><ele></ele><time>2017-9-17T10:56:8Z</time></trkpt>
<trkpt lat="48.451993" lon="2.634622"><ele></ele><time>2017-9-17T10:56:11Z</time></trkpt>
<trkpt lat="48.451976" lon="2.634788"><ele></ele><time>2017-9-17T10:56:14Z</time></trkpt>
<trkpt lat="48.451937" lon="2.634959"><ele></ele><time>2017-9-17T10:56:17Z</time></trkpt>
<trkpt lat="48.45192" lon="2.635111"><ele></ele><time>2017-9-17T10:56:20Z</time></trkpt>
<trkpt lat="48.451918" lon="2.635299"><ele></ele><time>2017-9-17T10:56:23Z</time></trkpt>
<trkpt lat="48.451929" lon="2.635436"><ele></ele><time>2017-9-17T10:56:26Z</time></trkpt>
<trkpt lat="48.451919" lon="2.635575"><ele></ele><time>2017-9-17T10:56:29Z</time></trkpt>
<trkpt lat="48.451954" lon="2.635756"><ele></ele><time>2017-9-17T10:56:32Z</time></trkpt>
<trkpt lat="48.452004" lon="2.635884"><ele></ele><time>2017-9-17T10:56:35Z</time></trkpt>
<trkpt lat="48.452107" lon="2.636028"><ele></ele><time>2017-9-17T10:56:38Z</time></trkpt>
<trkpt lat="48.452202" lon="2.636054"><ele></ele><time>2017-9-17T10:56:41Z</time></trkpt>
<trkpt lat="48.452297" lon="2.63603"><ele></ele><time>2017-9-17T10:56:44Z</time></trkpt>
<trkpt lat="48.452419" lon="2.636007"><ele></ele><time>2017-9-17T10:56:47Z</time></trkpt>
<trkpt lat="48.452536" lon="2.636029"><ele></ele><time>2017-9-17T10:56:50Z</time></trkpt>
<trkpt lat="48.452634" lon="2.636103"><ele></ele><time>2017-9-17T10:56:53Z</time></trkpt>
<trkpt lat="48.452707" lon="2.636241"><ele></ele><time>2017-9-17T10:56:56Z</time></trkpt>
<trkpt lat="48.452771" lon="2.63635"><ele></ele><time>2017-9-17T10:56:59Z</time></trkpt>
<trkpt lat="48.452864" lon="2.636491"><ele></ele><time>2017-9-17T10:57:2Z</time></trkpt>
<trkpt lat="48.452933" lon="2.636595"><ele></ele><time>2017-9-17T10:57:5Z</time></trkpt>
<trkpt lat="48.453018" lon="2.63665"><ele></ele><time>2017-9-17T10:57:8Z</time></trkpt>
<trkpt lat="48.453138" lon="2.636651"><ele></ele><time>2017-9-17T10:57:11Z</time></trkpt>
<trkpt lat="48.45324" lon="2.636609"><ele></ele><time>2017-9-17T10:57:14Z</time></trkpt>
<trkpt lat="48.453325" lon="2.636556"><ele></ele><time>2017-9-17T10:57:17Z</time></trkpt>
<trkpt lat="48.45346" lon="2.636525"><ele></ele><time>2017-9-17T10:57:20Z</time></trkpt>
<trkpt lat="48.453559" lon="2.636487"><ele></ele><time>2017-9-17T10:57:23Z</time></trkpt>
<trkpt lat="48.453655" lon="2.636436"><ele></ele><time>2017-9-17T10:57:26Z</time></trkpt>
<trkpt lat="48.453734" lon="2.636359"><ele></ele><time>2017-9-17T10:57:29Z</time></trkpt>
<trkpt lat="48.453886" lon="2.636341"><ele></ele><time>2017-9-17T10:57:32Z</time></trkpt>
<trkpt lat="48.453978" lon="2.636391"><ele></ele><time>2017-9-17T10:57:35Z</time></trkpt>
<trkpt lat="48.454092" lon="2.636528"><ele></ele><time>2017-9-17T10:57:38Z</time></trkpt>
<trkpt lat="48.454146" lon="2.636648"><ele></ele><time>2017-9-17T10:57:41Z</time></trkpt>
<trkpt lat="48.454197" lon="2.636789"><ele></ele><time>2017-9-17T10:57:44Z</time></trkpt>
<trkpt lat="48.45424" lon="2.636985"><ele></ele><time>2017-9-17T10:57:47Z</time></trkpt>
<trkpt lat="48.454263" lon="2.637129"><ele></ele><time>2017-9-17T10:57:50Z</time></trkpt>
<trkpt lat="48.454288" lon="2.637272"><ele></ele><time>2017-9-17T10:57:53Z</time></trkpt>
<trkpt lat="48.454328" lon="2.637438"><ele></ele><time>2017-9-17T10:57:56Z</time></trkpt>
<trkpt lat="48.454365" lon="2.637572"><ele></ele><time>2017-9-17T10:57:59Z</time></trkpt>
<trkpt lat="48.454418" lon="2.637715"><ele></ele><time>2017-9-17T10:58:2Z</time></trkpt>
<trkpt lat="48.454489" lon="2.637882"><ele></ele><time>2017-9-17T10:58:5Z</time></trkpt>
<trkpt lat="48.454597" lon="2.638063"><ele></ele><time>2017-9-17T10:58:8Z</time></trkpt>
<trkpt lat="48.454686" lon="2.638197"><ele></ele><time>2017-9-17T10:58:11Z</time></trkpt>
<trkpt lat="48.45475" lon="2.638301"><ele></ele><time>2017-9-17T10:58:14Z</time></trkpt>
<trkpt lat="48.454831" lon="2.638433"><ele></ele><time>2017-9-17T10:58:17Z</time></trkpt>
<trkpt lat="48.454945" lon="2.638496"><ele></ele><time>2017-9-17T10:58:20Z</time></trkpt>
<trkpt lat="48.455085" lon="2.63849"><ele></ele><time>2017-9-17T10:58:23Z</time></trkpt>
<trkpt lat="48.455192" lon="2.638499"><ele></ele><time>2017-9-17T10:58:26Z</time></trkpt>
<trkpt lat="48.455298" lon="2.638506"><ele></ele><time>2017-9-17T10:58:29Z</time></trkpt>
<trkpt lat="48.455388" lon="2.638536"><ele></ele><time>2017-9-17T10:58:32Z</time></trkpt>
<trkpt lat="48.455531" lon="2.638653"><ele></ele><time>2017-9-17T10:58:35Z</time></trkpt>
<trkpt lat="48.455608" lon="2.638733"><ele></ele><time>2017-9-17T10:58:38Z</time></trkpt>
<trkpt lat="48.455726" lon="2.638803"><ele></ele><time>2017-9-17T10:58:41Z</time></trkpt>
<trkpt lat="48.45582" lon="2.638795"><ele></ele><time>2017-9-17T10:58:44Z</time></trkpt>
<trkpt lat="48.455916" lon="2.638768"><ele></ele><time>2017-9-17T10:58:47Z</time></trkpt>
<trkpt lat="48.456018" lon="2.638705"><ele></ele><time>2017-9-17T10:58:50Z</time></trkpt>
<trkpt lat="48.456116" lon="2.638764"><ele></ele><time>2017-9-17T10:58:53Z</time></trkpt>
<trkpt lat="48.4562" lon="2.638875"><ele></ele><time>2017-9-17T10:58:56Z</time></trkpt>
<trkpt lat="48.456256" lon="2.638986"><ele></ele><time>2017-9-17T10:58:59Z</time></trkpt>
<trkpt lat="48.456322" lon="2.639134"><ele></ele><time>2017-9-17T10:59:2Z</time></trkpt>
<trkpt lat="48.456404" lon="2.639242"><ele></ele><time>2017-9-17T10:59:5Z</time></trkpt>
<trkpt lat="48.456498" lon="2.63927"><ele></ele><time>2017-9-17T10:59:8Z</time></trkpt>
<trkpt lat="48.456597" lon="2.63929"><ele></ele><time>2017-9-17T10:59:11Z</time></trkpt>
<trkpt lat="48.456689" lon="2.639279"><ele></ele><time>2017-9-17T10:59:14Z</time></trkpt>
<trkpt lat="48.456783" lon="2.63926"><ele></ele><time>2017-9-17T10:59:17Z</time></trkpt>
<trkpt lat="48.456877" lon="2.639236"><ele></ele><time>2017-9-17T10:59:20Z</time></trkpt>
<trkpt lat="48.456974" lon="2.639214"><ele></ele><time>2017-9-17T10:59:23Z</time></trkpt>
<trkpt lat="48.457059" lon="2.639056"><ele></ele><time>2017-9-17T10:59:26Z</time></trkpt>
<trkpt lat="48.457116" lon="2.638902"><ele></ele><time>2017-9-17T10:59:29Z</time></trkpt>
<trkpt lat="48.4572" lon="2.63875"><ele></ele><time>2017-9-17T10:59:32Z</time></trkpt>
<trkpt lat="48.457304" lon="2.638567"><ele></ele><time>2017-9-17T10:59:35Z</time></trkpt>
<trkpt lat="48.457374" lon="2.638397"><ele></ele><time>2017-9-17T10:59:38Z</time></trkpt>
<trkpt lat="48.457457" lon="2.638326"><ele></ele><time>2017-9-17T10:59:41Z</time></trkpt>
<trkpt lat="48.45758" lon="2.638348"><ele></ele><time>2017-9-17T10:59:44Z</time></trkpt>
<trkpt lat="48.457674" lon="2.63844"><ele></ele><time>2017-9-17T10:59:47Z</time></trkpt>
<trkpt lat="48.457653" lon="2.638586"><ele></ele><time>2017-9-17T10:59:50Z</time></trkpt>
<trkpt lat="48.457653" lon="2.638727"><ele></ele><time>2017-9-17T10:59:53Z</time></trkpt>
<trkpt lat="48.457638" lon="2.63887"><ele></ele><time>2017-9-17T10:59:56Z</time></trkpt>
<trkpt lat="48.457611" lon="2.639008"><ele></ele><time>2017-9-17T10:59:59Z</time></trkpt>
<trkpt lat="48.457616" lon="2.639202"><ele></ele><time>2017-9-17T11:0:2Z</time></trkpt>
<trkpt lat="48.457606" lon="2.639343"><ele></ele><time>2017-9-17T11:0:5Z</time></trkpt>
<trkpt lat="48.457601" lon="2.639482"><ele></ele><time>2017-9-17T11:0:8Z</time></trkpt>
<trkpt lat="48.457584" lon="2.639635"><ele></ele><time>2017-9-17T11:0:11Z</time></trkpt>
<trkpt lat="48.457592" lon="2.639818"><ele></ele><time>2017-9-17T11:0:14Z</time></trkpt>
<trkpt lat="48.457627" lon="2.639993"><ele></ele><time>2017-9-17T11:0:17Z</time></trkpt>
<trkpt lat="48.45763" lon="2.640139"><ele></ele><time>2017-9-17T11:0:20Z</time></trkpt>
<trkpt lat="48.457658" lon="2.640268"><ele></ele><time>2017-9-17T11:0:23Z</time></trkpt>
<trkpt lat="48.457689" lon="2.640405"><ele></ele><time>2017-9-17T11:0:26Z</time></trkpt>
<trkpt lat="48.457743" lon="2.640549"><ele></ele><time>2017-9-17T11:0:29Z</time></trkpt>
<trkpt lat="48.457799" lon="2.640693"><ele></ele><time>2017-9-17T11:0:32Z</time></trkpt>
<trkpt lat="48.457866" lon="2.640848"><ele></ele><time>2017-9-17T11:0:35Z</time></trkpt>
<trkpt lat="48.457935" lon="2.64099"><ele></ele><time>2017-9-17T11:0:38Z</time></trkpt>
<trkpt lat="48.45803" lon="2.641089"><ele></ele><time>2017-9-17T11:0:41Z</time></trkpt>
<trkpt lat="48.458172" lon="2.641167"><ele></ele><time>2017-9-17T11:0:44Z</time></trkpt>
<trkpt lat="48.458275" lon="2.641185"><ele></ele><time>2017-9-17T11:0:47Z</time></trkpt>
<trkpt lat="48.458376" lon="2.641164"><ele></ele><time>2017-9-17T11:0:50Z</time></trkpt>
<trkpt lat="48.458482" lon="2.64117"><ele></ele><time>2017-9-17T11:0:53Z</time></trkpt>
<trkpt lat="48.458607" lon="2.641155"><ele></ele><time>2017-9-17T11:0:56Z</time></trkpt>
<trkpt lat="48.458744" lon="2.641155"><ele></ele><time>2017-9-17T11:0:59Z</time></trkpt>
<trkpt lat="48.458885" lon="2.641172"><ele></ele><time>2017-9-17T11:1:2Z</time></trkpt>
<trkpt lat="48.459033" lon="2.641201"><ele></ele><time>2017-9-17T11:1:5Z</time></trkpt>
<trkpt lat="48.459181" lon="2.641224"><ele></ele><time>2017-9-17T11:1:8Z</time></trkpt>
<trkpt lat="48.459319" lon="2.641273"><ele></ele><time>2017-9-17T11:1:11Z</time></trkpt>
<trkpt lat="48.45943" lon="2.641391"><ele></ele><time>2017-9-17T11:1:14Z</time></trkpt>
<trkpt lat="48.459498" lon="2.641513"><ele></ele><time>2017-9-17T11:1:17Z</time></trkpt>
<trkpt lat="48.459474" lon="2.641651"><ele></ele><time>2017-9-17T11:1:20Z</time></trkpt>
<trkpt lat="48.459452" lon="2.641793"><ele></ele><time>2017-9-17T11:1:23Z</time></trkpt>
<trkpt lat="48.459403" lon="2.641913"><ele></ele><time>2017-9-17T11:1:26Z</time></trkpt>
<trkpt lat="48.459393" lon="2.642053"><ele></ele><time>2017-9-17T11:1:29Z</time></trkpt>
<trkpt lat="48.459403" lon="2.642199"><ele></ele><time>2017-9-17T11:1:32Z</time></trkpt>
<trkpt lat="48.45941" lon="2.642392"><ele></ele><time>2017-9-17T11:1:35Z</time></trkpt>
<trkpt lat="48.459395" lon="2.642559"><ele></ele><time>2017-9-17T11:1:38Z</time></trkpt>
<trkpt lat="48.45938" lon="2.642699"><ele></ele><time>2017-9-17T11:1:41Z</time></trkpt>
<trkpt lat="48.459314" lon="2.642799"><ele></ele><time>2017-9-17T11:1:44Z</time></trkpt>
<trkpt lat="48.459257" lon="2.642942"><ele></ele><time>2017-9-17T11:1:47Z</time></trkpt>
<trkpt lat="48.459209" lon="2.643086"><ele></ele><time>2017-9-17T11:1:50Z</time></trkpt>
<trkpt lat="48.459153" lon="2.643262"><ele></ele><time>2017-9-17T11:1:53Z</time></trkpt>
<trkpt lat="48.45915" lon="2.643427"><ele></ele><time>2017-9-17T11:1:56Z</time></trkpt>
<trkpt lat="48.459103" lon="2.643596"><ele></ele><time>2017-9-17T11:1:59Z</time></trkpt>
<trkpt lat="48.459066" lon="2.643772"><ele></ele><time>2017-9-17T11:2:2Z</time></trkpt>
<trkpt lat="48.45905" lon="2.643977"><ele></ele><time>2017-9-17T11:2:5Z</time></trkpt>
<trkpt lat="48.45904" lon="2.644142"><ele></ele><time>2017-9-17T11:2:8Z</time></trkpt>
<trkpt lat="48.459035" lon="2.644278"><ele></ele><time>2017-9-17T11:2:11Z</time></trkpt>
<trkpt lat="48.459037" lon="2.644423"><ele></ele><time>2017-9-17T11:2:14Z</time></trkpt>
<trkpt lat="48.459024" lon="2.644632"><ele></ele><time>2017-9-17T11:2:17Z</time></trkpt>
<trkpt lat="48.459027" lon="2.644831"><ele></ele><time>2017-9-17T11:2:20Z</time></trkpt>
<trkpt lat="48.459053" lon="2.644972"><ele></ele><time>2017-9-17T11:2:23Z</time></trkpt>
<trkpt lat="48.459091" lon="2.645165"><ele></ele><time>2017-9-17T11:2:26Z</time></trkpt>
<trkpt lat="48.459132" lon="2.645294"><ele></ele><time>2017-9-17T11:2:29Z</time></trkpt>
<trkpt lat="48.459188" lon="2.64544"><ele></ele><time>2017-9-17T11:2:32Z</time></trkpt>
<trkpt lat="48.459239" lon="2.645577"><ele></ele><time>2017-9-17T11:2:35Z</time></trkpt>
<trkpt lat="48.459292" lon="2.645715"><ele></ele><time>2017-9-17T11:2:38Z</time></trkpt>
<trkpt lat="48.459347" lon="2.645841"><ele></ele><time>2017-9-17T11:2:41Z</time></trkpt>
<trkpt lat="48.459402" lon="2.646026"><ele></ele><time>2017-9-17T11:2:44Z</time></trkpt>
<trkpt lat="48.459424" lon="2.646177"><ele></ele><time>2017-9-17T11:2:47Z</time></trkpt>
<trkpt lat="48.459446" lon="2.646311"><ele></ele><time>2017-9-17T11:2:50Z</time></trkpt>
<trkpt lat="48.459435" lon="2.646523"><ele></ele><time>2017-9-17T11:2:53Z</time></trkpt>
<trkpt lat="48.45946" lon="2.646693"><ele></ele><time>2017-9-17T11:2:56Z</time></trkpt>
<trkpt lat="48.459483" lon="2.646902"><ele></ele><time>2017-9-17T11:2:59Z</time></trkpt>
<trkpt lat="48.459493" lon="2.647058"><ele></ele><time>2017-9-17T11:3:2Z</time></trkpt>
<trkpt lat="48.459481" lon="2.647208"><ele></ele><time>2017-9-17T11:3:5Z</time></trkpt>
<trkpt lat="48.459491" lon="2.647364"><ele></ele><time>2017-9-17T11:3:8Z</time></trkpt>
<trkpt lat="48.459464" lon="2.647632"><ele></ele><time>2017-9-17T11:3:11Z</time></trkpt>
<trkpt lat="48.459398" lon="2.64774"><ele></ele><time>2017-9-17T11:3:14Z</time></trkpt>
<trkpt lat="48.459357" lon="2.647863"><ele></ele><time>2017-9-17T11:3:17Z</time></trkpt>
<trkpt lat="48.459243" lon="2.647982"><ele></ele><time>2017-9-17T11:3:20Z</time></trkpt>
<trkpt lat="48.459122" lon="2.648033"><ele></ele><time>2017-9-17T11:3:23Z</time></trkpt>
<trkpt lat="48.459005" lon="2.648107"><ele></ele><time>2017-9-17T11:3:26Z</time></trkpt>
<trkpt lat="48.458896" lon="2.648174"><ele></ele><time>2017-9-17T11:3:29Z</time></trkpt>
<trkpt lat="48.458807" lon="2.64822"><ele></ele><time>2017-9-17T11:3:32Z</time></trkpt>
<trkpt lat="48.458723" lon="2.64827"><ele></ele><time>2017-9-17T11:3:35Z</time></trkpt>
<trkpt lat="48.458638" lon="2.648322"><ele></ele><time>2017-9-17T11:3:38Z</time></trkpt>
<trkpt lat="48.458532" lon="2.648369"><ele></ele><time>2017-9-17T11:3:41Z</time></trkpt>
<trkpt lat="48.458402" lon="2.648449"><ele></ele><time>2017-9-17T11:3:44Z</time></trkpt>
<trkpt lat="48.458298" lon="2.648566"><ele></ele><time>2017-9-17T11:3:47Z</time></trkpt>
<trkpt lat="48.458214" lon="2.648661"><ele></ele><time>2017-9-17T11:3:50Z</time></trkpt>
<trkpt lat="48.458132" lon="2.648761"><ele></ele><time>2017-9-17T11:3:53Z</time></trkpt>
<trkpt lat="48.458099" lon="2.648919"><ele></ele><time>2017-9-17T11:3:56Z</time></trkpt>
<trkpt lat="48.458057" lon="2.649076"><ele></ele><time>2017-9-17T11:3:59Z</time></trkpt>
<trkpt lat="48.458051" lon="2.649237"><ele></ele><time>2017-9-17T11:4:2Z</time></trkpt>
<trkpt lat="48.458104" lon="2.649384"><ele></ele><time>2017-9-17T11:4:5Z</time></trkpt>
<trkpt lat="48.458174" lon="2.649532"><ele></ele><time>2017-9-17T11:4:8Z</time></trkpt>
<trkpt lat="48.458246" lon="2.649667"><ele></ele><time>2017-9-17T11:4:11Z</time></trkpt>
<trkpt lat="48.458289" lon="2.64979"><ele></ele><time>2017-9-17T11:4:14Z</time></trkpt>
<trkpt lat="48.458357" lon="2.649961"><ele></ele><time>2017-9-17T11:4:17Z</time></trkpt>
<trkpt lat="48.458427" lon="2.650085"><ele></ele><time>2017-9-17T11:4:20Z</time></trkpt>
<trkpt lat="48.458471" lon="2.65021"><ele></ele><time>2017-9-17T11:4:23Z</time></trkpt>
<trkpt lat="48.458538" lon="2.650357"><ele></ele><time>2017-9-17T11:4:26Z</time></trkpt>
<trkpt lat="48.458588" lon="2.650528"><ele></ele><time>2017-9-17T11:4:29Z</time></trkpt>
<trkpt lat="48.458614" lon="2.650712"><ele></ele><time>2017-9-17T11:4:32Z</time></trkpt>
<trkpt lat="48.458628" lon="2.650864"><ele></ele><time>2017-9-17T11:4:35Z</time></trkpt>
<trkpt lat="48.458644" lon="2.651021"><ele></ele><time>2017-9-17T11:4:38Z</time></trkpt>
<trkpt lat="48.458614" lon="2.651161"><ele></ele><time>2017-9-17T11:4:41Z</time></trkpt>
<trkpt lat="48.458546" lon="2.651289"><ele></ele><time>2017-9-17T11:4:44Z</time></trkpt>
<trkpt lat="48.458436" lon="2.651401"><ele></ele><time>2017-9-17T11:4:47Z</time></trkpt>
<trkpt lat="48.45833" lon="2.651432"><ele></ele><time>2017-9-17T11:4:50Z</time></trkpt>
<trkpt lat="48.458242" lon="2.651512"><ele></ele><time>2017-9-17T11:4:53Z</time></trkpt>
<trkpt lat="48.458132" lon="2.651584"><ele></ele><time>2017-9-17T11:4:56Z</time></trkpt>
<trkpt lat="48.458039" lon="2.65164"><ele></ele><time>2017-9-17T11:4:59Z</time></trkpt>
<trkpt lat="48.457944" lon="2.651707"><ele></ele><time>2017-9-17T11:5:2Z</time></trkpt>
<trkpt lat="48.457873" lon="2.651802"><ele></ele><time>2017-9-17T11:5:5Z</time></trkpt>
<trkpt lat="48.457798" lon="2.651919"><ele></ele><time>2017-9-17T11:5:8Z</time></trkpt>
<trkpt lat="48.457724" lon="2.652043"><ele></ele><time>2017-9-17T11:5:11Z</time></trkpt>
<trkpt lat="48.457722" lon="2.652182"><ele></ele><time>2017-9-17T11:5:14Z</time></trkpt>
<trkpt lat="48.457695" lon="2.652334"><ele></ele><time>2017-9-17T11:5:17Z</time></trkpt>
<trkpt lat="48.457663" lon="2.652479"><ele></ele><time>2017-9-17T11:5:20Z</time></trkpt>
<trkpt lat="48.457631" lon="2.652619"><ele></ele><time>2017-9-17T11:5:23Z</time></trkpt>
<trkpt lat="48.457637" lon="2.652784"><ele></ele><time>2017-9-17T11:5:26Z</time></trkpt>
<trkpt lat="48.457728" lon="2.652914"><ele></ele><time>2017-9-17T11:5:29Z</time></trkpt>
<trkpt lat="48.457824" lon="2.653069"><ele></ele><time>2017-9-17T11:5:32Z</time></trkpt>
<trkpt lat="48.457896" lon="2.653192"><ele></ele><time>2017-9-17T11:5:35Z</time></trkpt>
<trkpt lat="48.458026" lon="2.65329"><ele></ele><time>2017-9-17T11:5:38Z</time></trkpt>
<trkpt lat="48.458108" lon="2.653364"><ele></ele><time>2017-9-17T11:5:41Z</time></trkpt>
<trkpt lat="48.458207" lon="2.653412"><ele></ele><time>2017-9-17T11:5:44Z</time></trkpt>
<trkpt lat="48.458334" lon="2.65345"><ele></ele><time>2017-9-17T11:5:47Z</time></trkpt>
<trkpt lat="48.458434" lon="2.65343"><ele></ele><time>2017-9-17T11:5:50Z</time></trkpt>
<trkpt lat="48.458537" lon="2.653398"><ele></ele><time>2017-9-17T11:5:53Z</time></trkpt>
<trkpt lat="48.458629" lon="2.653426"><ele></ele><time>2017-9-17T11:5:56Z</time></trkpt>
<trkpt lat="48.458736" lon="2.653407"><ele></ele><time>2017-9-17T11:5:59Z</time></trkpt>
<trkpt lat="48.45885" lon="2.653407"><ele></ele><time>2017-9-17T11:6:2Z</time></trkpt>
<trkpt lat="48.458978" lon="2.653388"><ele></ele><time>2017-9-17T11:6:5Z</time></trkpt>
<trkpt lat="48.459073" lon="2.653413"><ele></ele><time>2017-9-17T11:6:8Z</time></trkpt>
<trkpt lat="48.459203" lon="2.653449"><ele></ele><time>2017-9-17T11:6:11Z</time></trkpt>
<trkpt lat="48.459309" lon="2.65351"><ele></ele><time>2017-9-17T11:6:14Z</time></trkpt>
<trkpt lat="48.459386" lon="2.653583"><ele></ele><time>2017-9-17T11:6:17Z</time></trkpt>
<trkpt lat="48.459471" lon="2.653669"><ele></ele><time>2017-9-17T11:6:20Z</time></trkpt>
<trkpt lat="48.459548" lon="2.653759"><ele></ele><time>2017-9-17T11:6:23Z</time></trkpt>
<trkpt lat="48.459627" lon="2.653861"><ele></ele><time>2017-9-17T11:6:26Z</time></trkpt>
<trkpt lat="48.459636" lon="2.654048"><ele></ele><time>2017-9-17T11:6:29Z</time></trkpt>
<trkpt lat="48.459661" lon="2.654186"><ele></ele><time>2017-9-17T11:6:32Z</time></trkpt>
<trkpt lat="48.459667" lon="2.654347"><ele></ele><time>2017-9-17T11:6:35Z</time></trkpt>
<trkpt lat="48.459591" lon="2.654504"><ele></ele><time>2017-9-17T11:6:38Z</time></trkpt>
<trkpt lat="48.459563" lon="2.654682"><ele></ele><time>2017-9-17T11:6:41Z</time></trkpt>
<trkpt lat="48.459499" lon="2.654797"><ele></ele><time>2017-9-17T11:6:44Z</time></trkpt>
<trkpt lat="48.45949" lon="2.654971"><ele></ele><time>2017-9-17T11:6:47Z</time></trkpt>
<trkpt lat="48.459438" lon="2.655086"><ele></ele><time>2017-9-17T11:6:50Z</time></trkpt>
<trkpt lat="48.459407" lon="2.655221"><ele></ele><time>2017-9-17T11:6:53Z</time></trkpt>
<trkpt lat="48.459369" lon="2.655401"><ele></ele><time>2017-9-17T11:6:56Z</time></trkpt>
<trkpt lat="48.45929" lon="2.65551"><ele></ele><time>2017-9-17T11:6:59Z</time></trkpt>
<trkpt lat="48.459225" lon="2.655661"><ele></ele><time>2017-9-17T11:7:2Z</time></trkpt>
<trkpt lat="48.459175" lon="2.65582"><ele></ele><time>2017-9-17T11:7:5Z</time></trkpt>
<trkpt lat="48.459118" lon="2.655935"><ele></ele><time>2017-9-17T11:7:8Z</time></trkpt>
<trkpt lat="48.459051" lon="2.656054"><ele></ele><time>2017-9-17T11:7:11Z</time></trkpt>
<trkpt lat="48.458994" lon="2.65617"><ele></ele><time>2017-9-17T11:7:14Z</time></trkpt>
<trkpt lat="48.458925" lon="2.656271"><ele></ele><time>2017-9-17T11:7:17Z</time></trkpt>
<trkpt lat="48.458855" lon="2.656415"><ele></ele><time>2017-9-17T11:7:20Z</time></trkpt>
<trkpt lat="48.45876" lon="2.656585"><ele></ele><time>2017-9-17T11:7:23Z</time></trkpt>
<trkpt lat="48.458705" lon="2.65671"><ele></ele><time>2017-9-17T11:7:26Z</time></trkpt>
<trkpt lat="48.458603" lon="2.656947"><ele></ele><time>2017-9-17T11:7:29Z</time></trkpt>
<trkpt lat="48.458533" lon="2.657091"><ele></ele><time>2017-9-17T11:7:32Z</time></trkpt>
<trkpt lat="48.458474" lon="2.657198"><ele></ele><time>2017-9-17T11:7:35Z</time></trkpt>
<trkpt lat="48.458393" lon="2.657286"><ele></ele><time>2017-9-17T11:7:38Z</time></trkpt>
<trkpt lat="48.458289" lon="2.657338"><ele></ele><time>2017-9-17T11:7:41Z</time></trkpt>
<trkpt lat="48.458148" lon="2.657383"><ele></ele><time>2017-9-17T11:7:44Z</time></trkpt>
<trkpt lat="48.458048" lon="2.657421"><ele></ele><time>2017-9-17T11:7:47Z</time></trkpt>
<trkpt lat="48.45793" lon="2.657437"><ele></ele><time>2017-9-17T11:7:50Z</time></trkpt>
<trkpt lat="48.457838" lon="2.657457"><ele></ele><time>2017-9-17T11:7:53Z</time></trkpt>
<trkpt lat="48.457747" lon="2.657512"><ele></ele><time>2017-9-17T11:7:56Z</time></trkpt>
<trkpt lat="48.45765" lon="2.657564"><ele></ele><time>2017-9-17T11:7:59Z</time></trkpt>
<trkpt lat="48.457518" lon="2.657616"><ele></ele><time>2017-9-17T11:8:2Z</time></trkpt>
<trkpt lat="48.457401" lon="2.657653"><ele></ele><time>2017-9-17T11:8:5Z</time></trkpt>
<trkpt lat="48.4573" lon="2.657688"><ele></ele><time>2017-9-17T11:8:8Z</time></trkpt>
<trkpt lat="48.457186" lon="2.657729"><ele></ele><time>2017-9-17T11:8:11Z</time></trkpt>
<trkpt lat="48.457092" lon="2.657791"><ele></ele><time>2017-9-17T11:8:14Z</time></trkpt>
<trkpt lat="48.456986" lon="2.657837"><ele></ele><time>2017-9-17T11:8:17Z</time></trkpt>
<trkpt lat="48.456885" lon="2.657938"><ele></ele><time>2017-9-17T11:8:20Z</time></trkpt>
<trkpt lat="48.4568" lon="2.658076"><ele></ele><time>2017-9-17T11:8:23Z</time></trkpt>
<trkpt lat="48.456735" lon="2.658186"><ele></ele><time>2017-9-17T11:8:26Z</time></trkpt>
<trkpt lat="48.456671" lon="2.658318"><ele></ele><time>2017-9-17T11:8:29Z</time></trkpt>
<trkpt lat="48.456615" lon="2.658457"><ele></ele><time>2017-9-17T11:8:32Z</time></trkpt>
<trkpt lat="48.45654" lon="2.65858"><ele></ele><time>2017-9-17T11:8:35Z</time></trkpt>
<trkpt lat="48.456513" lon="2.658788"><ele></ele><time>2017-9-17T11:8:38Z</time></trkpt>
<trkpt lat="48.45647" lon="2.658975"><ele></ele><time>2017-9-17T11:8:41Z</time></trkpt>
<trkpt lat="48.456439" lon="2.659122"><ele></ele><time>2017-9-17T11:8:44Z</time></trkpt>
<trkpt lat="48.456356" lon="2.659226"><ele></ele><time>2017-9-17T11:8:47Z</time></trkpt>
<trkpt lat="48.45634" lon="2.659395"><ele></ele><time>2017-9-17T11:8:50Z</time></trkpt>
<trkpt lat="48.456291" lon="2.659521"><ele></ele><time>2017-9-17T11:8:53Z</time></trkpt>
<trkpt lat="48.456298" lon="2.659662"><ele></ele><time>2017-9-17T11:8:56Z</time></trkpt>
<trkpt lat="48.456249" lon="2.659851"><ele></ele><time>2017-9-17T11:8:59Z</time></trkpt>
<trkpt lat="48.456222" lon="2.660034"><ele></ele><time>2017-9-17T11:9:2Z</time></trkpt>
<trkpt lat="48.456169" lon="2.660159"><ele></ele><time>2017-9-17T11:9:5Z</time></trkpt>
<trkpt lat="48.456128" lon="2.660302"><ele></ele><time>2017-9-17T11:9:8Z</time></trkpt>
<trkpt lat="48.456009" lon="2.660363"><ele></ele><time>2017-9-17T11:9:11Z</time></trkpt>
<trkpt lat="48.455928" lon="2.660425"><ele></ele><time>2017-9-17T11:9:14Z</time></trkpt>
<trkpt lat="48.45583" lon="2.66049"><ele></ele><time>2017-9-17T11:9:17Z</time></trkpt>
<trkpt lat="48.455728" lon="2.660547"><ele></ele><time>2017-9-17T11:9:20Z</time></trkpt>
<trkpt lat="48.455637" lon="2.660624"><ele></ele><time>2017-9-17T11:9:23Z</time></trkpt>
<trkpt lat="48.455551" lon="2.660704"><ele></ele><time>2017-9-17T11:9:26Z</time></trkpt>
<trkpt lat="48.455453" lon="2.660761"><ele></ele><time>2017-9-17T11:9:29Z</time></trkpt>
<trkpt lat="48.455368" lon="2.660817"><ele></ele><time>2017-9-17T11:9:32Z</time></trkpt>
<trkpt lat="48.455285" lon="2.660877"><ele></ele><time>2017-9-17T11:9:35Z</time></trkpt>
<trkpt lat="48.455185" lon="2.660962"><ele></ele><time>2017-9-17T11:9:38Z</time></trkpt>
<trkpt lat="48.455104" lon="2.661022"><ele></ele><time>2017-9-17T11:9:41Z</time></trkpt>
<trkpt lat="48.455001" lon="2.661104"><ele></ele><time>2017-9-17T11:9:44Z</time></trkpt>
<trkpt lat="48.454896" lon="2.661182"><ele></ele><time>2017-9-17T11:9:47Z</time></trkpt>
<trkpt lat="48.454786" lon="2.661255"><ele></ele><time>2017-9-17T11:9:50Z</time></trkpt>
<trkpt lat="48.4547" lon="2.661308"><ele></ele><time>2017-9-17T11:9:53Z</time></trkpt>
<trkpt lat="48.454614" lon="2.661393"><ele></ele><time>2017-9-17T11:9:56Z</time></trkpt>
<trkpt lat="48.454525" lon="2.66145"><ele></ele><time>2017-9-17T11:9:59Z</time></trkpt>
<trkpt lat="48.454413" lon="2.661499"><ele></ele><time>2017-9-17T11:10:2Z</time></trkpt>
<trkpt lat="48.454318" lon="2.661574"><ele></ele><time>2017-9-17T11:10:5Z</time></trkpt>
<trkpt lat="48.454213" lon="2.661654"><ele></ele><time>2017-9-17T11:10:8Z</time></trkpt>
<trkpt lat="48.454112" lon="2.661737"><ele></ele><time>2017-9-17T11:10:11Z</time></trkpt>
<trkpt lat="48.454003" lon="2.661816"><ele></ele><time>2017-9-17T11:10:14Z</time></trkpt>
<trkpt lat="48.453897" lon="2.66189"><ele></ele><time>2017-9-17T11:10:17Z</time></trkpt>
<trkpt lat="48.453789" lon="2.661961"><ele></ele><time>2017-9-17T11:10:20Z</time></trkpt>
<trkpt lat="48.453707" lon="2.66205"><ele></ele><time>2017-9-17T11:10:23Z</time></trkpt>
<trkpt lat="48.453652" lon="2.662209"><ele></ele><time>2017-9-17T11:10:26Z</time></trkpt>
<trkpt lat="48.453647" lon="2.662353"><ele></ele><time>2017-9-17T11:10:29Z</time></trkpt>
<trkpt lat="48.453769" lon="2.662396"><ele></ele><time>2017-9-17T11:10:32Z</time></trkpt>
<trkpt lat="48.453851" lon="2.662513"><ele></ele><time>2017-9-17T11:10:35Z</time></trkpt>
<trkpt lat="48.453944" lon="2.662657"><ele></ele><time>2017-9-17T11:10:38Z</time></trkpt>
<trkpt lat="48.454012" lon="2.66284"><ele></ele><time>2017-9-17T11:10:41Z</time></trkpt>
<trkpt lat="48.454062" lon="2.663014"><ele></ele><time>2017-9-17T11:10:44Z</time></trkpt>
<trkpt lat="48.454096" lon="2.663194"><ele></ele><time>2017-9-17T11:10:47Z</time></trkpt>
<trkpt lat="48.454118" lon="2.663376"><ele></ele><time>2017-9-17T11:10:50Z</time></trkpt>
<trkpt lat="48.454124" lon="2.663599"><ele></ele><time>2017-9-17T11:10:53Z</time></trkpt>
<trkpt lat="48.45416" lon="2.663726"><ele></ele><time>2017-9-17T11:10:56Z</time></trkpt>
<trkpt lat="48.454231" lon="2.663871"><ele></ele><time>2017-9-17T11:10:59Z</time></trkpt>
<trkpt lat="48.454314" lon="2.664073"><ele></ele><time>2017-9-17T11:11:2Z</time></trkpt>
<trkpt lat="48.454343" lon="2.664203"><ele></ele><time>2017-9-17T11:11:5Z</time></trkpt>
<trkpt lat="48.454426" lon="2.664409"><ele></ele><time>2017-9-17T11:11:8Z</time></trkpt>
<trkpt lat="48.454491" lon="2.664507"><ele></ele><time>2017-9-17T11:11:11Z</time></trkpt>
<trkpt lat="48.45455" lon="2.664619"><ele></ele><time>2017-9-17T11:11:14Z</time></trkpt>
<trkpt lat="48.454636" lon="2.664804"><ele></ele><time>2017-9-17T11:11:17Z</time></trkpt>
<trkpt lat="48.454748" lon="2.664957"><ele></ele><time>2017-9-17T11:11:20Z</time></trkpt>
<trkpt lat="48.454866" lon="2.665159"><ele></ele><time>2017-9-17T11:11:23Z</time></trkpt>
<trkpt lat="48.454894" lon="2.665373"><ele></ele><time>2017-9-17T11:11:26Z</time></trkpt>
<trkpt lat="48.454932" lon="2.665537"><ele></ele><time>2017-9-17T11:11:29Z</time></trkpt>
<trkpt lat="48.455007" lon="2.665768"><ele></ele><time>2017-9-17T11:11:32Z</time></trkpt>
<trkpt lat="48.455057" lon="2.666021"><ele></ele><time>2017-9-17T11:11:35Z</time></trkpt>
<trkpt lat="48.45508" lon="2.666244"><ele></ele><time>2017-9-17T11:11:38Z</time></trkpt>
<trkpt lat="48.455161" lon="2.666385"><ele></ele><time>2017-9-17T11:11:41Z</time></trkpt>
<trkpt lat="48.455247" lon="2.666427"><ele></ele><time>2017-9-17T11:11:44Z</time></trkpt>
<trkpt lat="48.455349" lon="2.666521"><ele></ele><time>2017-9-17T11:11:47Z</time></trkpt>
<trkpt lat="48.455444" lon="2.666591"><ele></ele><time>2017-9-17T11:11:50Z</time></trkpt>
<trkpt lat="48.455573" lon="2.666667"><ele></ele><time>2017-9-17T11:11:53Z</time></trkpt>
<trkpt lat="48.455675" lon="2.666748"><ele></ele><time>2017-9-17T11:11:56Z</time></trkpt>
<trkpt lat="48.455796" lon="2.666885"><ele></ele><time>2017-9-17T11:11:59Z</time></trkpt>
<trkpt lat="48.455919" lon="2.667023"><ele></ele><time>2017-9-17T11:12:2Z</time></trkpt>
<trkpt lat="48.455943" lon="2.6672"><ele></ele><time>2017-9-17T11:12:5Z</time></trkpt>
<trkpt lat="48.456017" lon="2.667362"><ele></ele><time>2017-9-17T11:12:8Z</time></trkpt>
<trkpt lat="48.45609" lon="2.66745"><ele></ele><time>2017-9-17T11:12:11Z</time></trkpt>
<trkpt lat="48.456151" lon="2.667608"><ele></ele><time>2017-9-17T11:12:14Z</time></trkpt>
<trkpt lat="48.456237" lon="2.66777"><ele></ele><time>2017-9-17T11:12:17Z</time></trkpt>
<trkpt lat="48.456291" lon="2.667908"><ele></ele><time>2017-9-17T11:12:20Z</time></trkpt>
<trkpt lat="48.456342" lon="2.668052"><ele></ele><time>2017-9-17T11:12:23Z</time></trkpt>
<trkpt lat="48.456403" lon="2.668219"><ele></ele><time>2017-9-17T11:12:26Z</time></trkpt>
<trkpt lat="48.456454" lon="2.668385"><ele></ele><time>2017-9-17T11:12:29Z</time></trkpt>
<trkpt lat="48.4565" lon="2.668549"><ele></ele><time>2017-9-17T11:12:32Z</time></trkpt>
<trkpt lat="48.456576" lon="2.668731"><ele></ele><time>2017-9-17T11:12:35Z</time></trkpt>
<trkpt lat="48.456614" lon="2.668892"><ele></ele><time>2017-9-17T11:12:38Z</time></trkpt>
<trkpt lat="48.456691" lon="2.669105"><ele></ele><time>2017-9-17T11:12:41Z</time></trkpt>
<trkpt lat="48.456751" lon="2.669261"><ele></ele><time>2017-9-17T11:12:44Z</time></trkpt>
<trkpt lat="48.456826" lon="2.669413"><ele></ele><time>2017-9-17T11:12:47Z</time></trkpt>
<trkpt lat="48.456886" lon="2.669517"><ele></ele><time>2017-9-17T11:12:50Z</time></trkpt>
<trkpt lat="48.456982" lon="2.66968"><ele></ele><time>2017-9-17T11:12:53Z</time></trkpt>
<trkpt lat="48.457103" lon="2.669682"><ele></ele><time>2017-9-17T11:12:56Z</time></trkpt>
<trkpt lat="48.457202" lon="2.669687"><ele></ele><time>2017-9-17T11:12:59Z</time></trkpt>
<trkpt lat="48.45729" lon="2.669743"><ele></ele><time>2017-9-17T11:13:2Z</time></trkpt>
<trkpt lat="48.457242" lon="2.66988"><ele></ele><time>2017-9-17T11:13:5Z</time></trkpt>
<trkpt lat="48.457215" lon="2.670018"><ele></ele><time>2017-9-17T11:13:8Z</time></trkpt>
<trkpt lat="48.457234" lon="2.67019"><ele></ele><time>2017-9-17T11:13:11Z</time></trkpt>
<trkpt lat="48.457189" lon="2.670351"><ele></ele><time>2017-9-17T11:13:14Z</time></trkpt>
<trkpt lat="48.457143" lon="2.670492"><ele></ele><time>2017-9-17T11:13:17Z</time></trkpt>
<trkpt lat="48.457102" lon="2.670621"><ele></ele><time>2017-9-17T11:13:20Z</time></trkpt>
<trkpt lat="48.45701" lon="2.670833"><ele></ele><time>2017-9-17T11:13:23Z</time></trkpt>
<trkpt lat="48.45694" lon="2.670978"><ele></ele><time>2017-9-17T11:13:26Z</time></trkpt>
<trkpt lat="48.456864" lon="2.671119"><ele></ele><time>2017-9-17T11:13:29Z</time></trkpt>
<trkpt lat="48.456773" lon="2.671271"><ele></ele><time>2017-9-17T11:13:32Z</time></trkpt>
<trkpt lat="48.456727" lon="2.671464"><ele></ele><time>2017-9-17T11:13:35Z</time></trkpt>
<trkpt lat="48.456676" lon="2.671586"><ele></ele><time>2017-9-17T11:13:38Z</time></trkpt>
<trkpt lat="48.456647" lon="2.671741"><ele></ele><time>2017-9-17T11:13:41Z</time></trkpt>
<trkpt lat="48.45661" lon="2.67188"><ele></ele><time>2017-9-17T11:13:44Z</time></trkpt>
<trkpt lat="48.456558" lon="2.672073"><ele></ele><time>2017-9-17T11:13:47Z</time></trkpt>
<trkpt lat="48.456491" lon="2.672175"><ele></ele><time>2017-9-17T11:13:50Z</time></trkpt>
<trkpt lat="48.456438" lon="2.6723"><ele></ele><time>2017-9-17T11:13:53Z</time></trkpt>
<trkpt lat="48.456394" lon="2.672438"><ele></ele><time>2017-9-17T11:13:56Z</time></trkpt>
<trkpt lat="48.456352" lon="2.672589"><ele></ele><time>2017-9-17T11:13:59Z</time></trkpt>
<trkpt lat="48.456311" lon="2.672776"><ele></ele><time>2017-9-17T11:14:2Z</time></trkpt>
<trkpt lat="48.456261" lon="2.672923"><ele></ele><time>2017-9-17T11:14:5Z</time></trkpt>
<trkpt lat="48.456231" lon="2.673075"><ele></ele><time>2017-9-17T11:14:8Z</time></trkpt>
<trkpt lat="48.456238" lon="2.673214"><ele></ele><time>2017-9-17T11:14:11Z</time></trkpt>
<trkpt lat="48.456193" lon="2.673338"><ele></ele><time>2017-9-17T11:14:14Z</time></trkpt>
<trkpt lat="48.456121" lon="2.673481"><ele></ele><time>2017-9-17T11:14:17Z</time></trkpt>
<trkpt lat="48.456072" lon="2.673619"><ele></ele><time>2017-9-17T11:14:20Z</time></trkpt>
<trkpt lat="48.455998" lon="2.673796"><ele></ele><time>2017-9-17T11:14:23Z</time></trkpt>
<trkpt lat="48.455924" lon="2.673916"><ele></ele><time>2017-9-17T11:14:26Z</time></trkpt>
<trkpt lat="48.455897" lon="2.674104"><ele></ele><time>2017-9-17T11:14:29Z</time></trkpt>
<trkpt lat="48.455842" lon="2.674248"><ele></ele><time>2017-9-17T11:14:32Z</time></trkpt>
<trkpt lat="48.455759" lon="2.674365"><ele></ele><time>2017-9-17T11:14:35Z</time></trkpt>
<trkpt lat="48.455736" lon="2.674508"><ele></ele><time>2017-9-17T11:14:38Z</time></trkpt>
<trkpt lat="48.45569" lon="2.674631"><ele></ele><time>2017-9-17T11:14:41Z</time></trkpt>
<trkpt lat="48.455663" lon="2.67481"><ele></ele><time>2017-9-17T11:14:44Z</time></trkpt>
<trkpt lat="48.455636" lon="2.674968"><ele></ele><time>2017-9-17T11:14:47Z</time></trkpt>
<trkpt lat="48.455563" lon="2.675104"><ele></ele><time>2017-9-17T11:14:50Z</time></trkpt>
<trkpt lat="48.455519" lon="2.675262"><ele></ele><time>2017-9-17T11:14:53Z</time></trkpt>
<trkpt lat="48.455491" lon="2.675404"><ele></ele><time>2017-9-17T11:14:56Z</time></trkpt>
<trkpt lat="48.455436" lon="2.675529"><ele></ele><time>2017-9-17T11:14:59Z</time></trkpt>
<trkpt lat="48.455405" lon="2.675711"><ele></ele><time>2017-9-17T11:15:2Z</time></trkpt>
<trkpt lat="48.455368" lon="2.675859"><ele></ele><time>2017-9-17T11:15:5Z</time></trkpt>
<trkpt lat="48.45534" lon="2.676016"><ele></ele><time>2017-9-17T11:15:8Z</time></trkpt>
<trkpt lat="48.455272" lon="2.676121"><ele></ele><time>2017-9-17T11:15:11Z</time></trkpt>
<trkpt lat="48.455238" lon="2.676275"><ele></ele><time>2017-9-17T11:15:14Z</time></trkpt>
<trkpt lat="48.455175" lon="2.676387"><ele></ele><time>2017-9-17T11:15:17Z</time></trkpt>
<trkpt lat="48.45511" lon="2.676499"><ele></ele><time>2017-9-17T11:15:20Z</time></trkpt>
<trkpt lat="48.455056" lon="2.676681"><ele></ele><time>2017-9-17T11:15:23Z</time></trkpt>
<trkpt lat="48.455012" lon="2.676817"><ele></ele><time>2017-9-17T11:15:26Z</time></trkpt>
<trkpt lat="48.454964" lon="2.676945"><ele></ele><time>2017-9-17T11:15:29Z</time></trkpt>
<trkpt lat="48.454941" lon="2.677079"><ele></ele><time>2017-9-17T11:15:32Z</time></trkpt>
<trkpt lat="48.454881" lon="2.677229"><ele></ele><time>2017-9-17T11:15:35Z</time></trkpt>
<trkpt lat="48.454844" lon="2.677362"><ele></ele><time>2017-9-17T11:15:38Z</time></trkpt>
<trkpt lat="48.454783" lon="2.677472"><ele></ele><time>2017-9-17T11:15:41Z</time></trkpt>
<trkpt lat="48.454738" lon="2.677613"><ele></ele><time>2017-9-17T11:15:44Z</time></trkpt>
<trkpt lat="48.454695" lon="2.677735"><ele></ele><time>2017-9-17T11:15:47Z</time></trkpt>
<trkpt lat="48.454662" lon="2.677886"><ele></ele><time>2017-9-17T11:15:50Z</time></trkpt>
<trkpt lat="48.45458" lon="2.678077"><ele></ele><time>2017-9-17T11:15:53Z</time></trkpt>
<trkpt lat="48.454539" lon="2.678219"><ele></ele><time>2017-9-17T11:15:56Z</time></trkpt>
<trkpt lat="48.454492" lon="2.678359"><ele></ele><time>2017-9-17T11:15:59Z</time></trkpt>
<trkpt lat="48.454441" lon="2.678522"><ele></ele><time>2017-9-17T11:16:2Z</time></trkpt>
<trkpt lat="48.454405" lon="2.678648"><ele></ele><time>2017-9-17T11:16:5Z</time></trkpt>
<trkpt lat="48.454362" lon="2.678802"><ele></ele><time>2017-9-17T11:16:8Z</time></trkpt>
<trkpt lat="48.454314" lon="2.678946"><ele></ele><time>2017-9-17T11:16:11Z</time></trkpt>
<trkpt lat="48.454288" lon="2.6791"><ele></ele><time>2017-9-17T11:16:14Z</time></trkpt>
<trkpt lat="48.45421" lon="2.67927"><ele></ele><time>2017-9-17T11:16:17Z</time></trkpt>
<trkpt lat="48.454139" lon="2.679452"><ele></ele><time>2017-9-17T11:16:20Z</time></trkpt>
<trkpt lat="48.45408" lon="2.679562"><ele></ele><time>2017-9-17T11:16:23Z</time></trkpt>
<trkpt lat="48.45399" lon="2.679707"><ele></ele><time>2017-9-17T11:16:26Z</time></trkpt>
<trkpt lat="48.453924" lon="2.679847"><ele></ele><time>2017-9-17T11:16:29Z</time></trkpt>
<trkpt lat="48.453844" lon="2.679935"><ele></ele><time>2017-9-17T11:16:32Z</time></trkpt>
<trkpt lat="48.453738" lon="2.679878"><ele></ele><time>2017-9-17T11:16:35Z</time></trkpt>
<trkpt lat="48.453674" lon="2.67978"><ele></ele><time>2017-9-17T11:16:38Z</time></trkpt>
<trkpt lat="48.453616" lon="2.679675"><ele></ele><time>2017-9-17T11:16:41Z</time></trkpt>
<trkpt lat="48.453542" lon="2.67953"><ele></ele><time>2017-9-17T11:16:44Z</time></trkpt>
<trkpt lat="48.453481" lon="2.679429"><ele></ele><time>2017-9-17T11:16:47Z</time></trkpt>
<trkpt lat="48.453433" lon="2.679293"><ele></ele><time>2017-9-17T11:16:50Z</time></trkpt>
<trkpt lat="48.453411" lon="2.679122"><ele></ele><time>2017-9-17T11:16:53Z</time></trkpt>
<trkpt lat="48.453356" lon="2.678957"><ele></ele><time>2017-9-17T11:16:56Z</time></trkpt>
<trkpt lat="48.453292" lon="2.678816"><ele></ele><time>2017-9-17T11:16:59Z</time></trkpt>
<trkpt lat="48.453239" lon="2.678685"><ele></ele><time>2017-9-17T11:17:2Z</time></trkpt>
<trkpt lat="48.453182" lon="2.678541"><ele></ele><time>2017-9-17T11:17:5Z</time></trkpt>
<trkpt lat="48.453132" lon="2.678411"><ele></ele><time>2017-9-17T11:17:8Z</time></trkpt>
<trkpt lat="48.453066" lon="2.678292"><ele></ele><time>2017-9-17T11:17:11Z</time></trkpt>
<trkpt lat="48.453015" lon="2.67815"><ele></ele><time>2017-9-17T11:17:14Z</time></trkpt>
<trkpt lat="48.452941" lon="2.678011"><ele></ele><time>2017-9-17T11:17:17Z</time></trkpt>
<trkpt lat="48.452889" lon="2.677859"><ele></ele><time>2017-9-17T11:17:20Z</time></trkpt>
<trkpt lat="48.452845" lon="2.677733"><ele></ele><time>2017-9-17T11:17:23Z</time></trkpt>
<trkpt lat="48.452792" lon="2.677622"><ele></ele><time>2017-9-17T11:17:26Z</time></trkpt>
<trkpt lat="48.452712" lon="2.677501"><ele></ele><time>2017-9-17T11:17:29Z</time></trkpt>
<trkpt lat="48.452654" lon="2.677362"><ele></ele><time>2017-9-17T11:17:32Z</time></trkpt>
<trkpt lat="48.452602" lon="2.677242"><ele></ele><time>2017-9-17T11:17:35Z</time></trkpt>
<trkpt lat="48.452542" lon="2.677105"><ele></ele><time>2017-9-17T11:17:38Z</time></trkpt>
<trkpt lat="48.452496" lon="2.676966"><ele></ele><time>2017-9-17T11:17:41Z</time></trkpt>
<trkpt lat="48.452455" lon="2.676824"><ele></ele><time>2017-9-17T11:17:44Z</time></trkpt>
<trkpt lat="48.452404" lon="2.676687"><ele></ele><time>2017-9-17T11:17:47Z</time></trkpt>
<trkpt lat="48.452355" lon="2.676561"><ele></ele><time>2017-9-17T11:17:50Z</time></trkpt>
<trkpt lat="48.452311" lon="2.676432"><ele></ele><time>2017-9-17T11:17:53Z</time></trkpt>
<trkpt lat="48.452262" lon="2.67629"><ele></ele><time>2017-9-17T11:17:56Z</time></trkpt>
<trkpt lat="48.452228" lon="2.676148"><ele></ele><time>2017-9-17T11:17:59Z</time></trkpt>
<trkpt lat="48.452184" lon="2.676026"><ele></ele><time>2017-9-17T11:18:2Z</time></trkpt>
<trkpt lat="48.452139" lon="2.675905"><ele></ele><time>2017-9-17T11:18:5Z</time></trkpt>
<trkpt lat="48.452098" lon="2.675776"><ele></ele><time>2017-9-17T11:18:8Z</time></trkpt>
<trkpt lat="48.452042" lon="2.675642"><ele></ele><time>2017-9-17T11:18:11Z</time></trkpt>
<trkpt lat="48.45199" lon="2.675514"><ele></ele><time>2017-9-17T11:18:14Z</time></trkpt>
<trkpt lat="48.451919" lon="2.675387"><ele></ele><time>2017-9-17T11:18:17Z</time></trkpt>
<trkpt lat="48.45187" lon="2.675248"><ele></ele><time>2017-9-17T11:18:20Z</time></trkpt>
<trkpt lat="48.451823" lon="2.675117"><ele></ele><time>2017-9-17T11:18:23Z</time></trkpt>
<trkpt lat="48.451752" lon="2.675028"><ele></ele><time>2017-9-17T11:18:26Z</time></trkpt>
<trkpt lat="48.451674" lon="2.67494"><ele></ele><time>2017-9-17T11:18:29Z</time></trkpt>
<trkpt lat="48.451588" lon="2.674888"><ele></ele><time>2017-9-17T11:18:32Z</time></trkpt>
<trkpt lat="48.451502" lon="2.674825"><ele></ele><time>2017-9-17T11:18:35Z</time></trkpt>
<trkpt lat="48.451431" lon="2.67474"><ele></ele><time>2017-9-17T11:18:38Z</time></trkpt>
<trkpt lat="48.451326" lon="2.674679"><ele></ele><time>2017-9-17T11:18:41Z</time></trkpt>
<trkpt lat="48.451252" lon="2.674587"><ele></ele><time>2017-9-17T11:18:44Z</time></trkpt>
<trkpt lat="48.451168" lon="2.67452"><ele></ele><time>2017-9-17T11:18:47Z</time></trkpt>
<trkpt lat="48.451087" lon="2.674456"><ele></ele><time>2017-9-17T11:18:50Z</time></trkpt>
<trkpt lat="48.450992" lon="2.674411"><ele></ele><time>2017-9-17T11:18:53Z</time></trkpt>
<trkpt lat="48.450908" lon="2.674344"><ele></ele><time>2017-9-17T11:18:56Z</time></trkpt>
<trkpt lat="48.450829" lon="2.674265"><ele></ele><time>2017-9-17T11:18:59Z</time></trkpt>
<trkpt lat="48.450734" lon="2.674211"><ele></ele><time>2017-9-17T11:19:2Z</time></trkpt>
<trkpt lat="48.450656" lon="2.67414"><ele></ele><time>2017-9-17T11:19:5Z</time></trkpt>
<trkpt lat="48.450577" lon="2.674074"><ele></ele><time>2017-9-17T11:19:8Z</time></trkpt>
<trkpt lat="48.450491" lon="2.673999"><ele></ele><time>2017-9-17T11:19:11Z</time></trkpt>
<trkpt lat="48.450392" lon="2.673994"><ele></ele><time>2017-9-17T11:19:14Z</time></trkpt>
<trkpt lat="48.450326" lon="2.674089"><ele></ele><time>2017-9-17T11:19:17Z</time></trkpt>
<trkpt lat="48.45027" lon="2.67421"><ele></ele><time>2017-9-17T11:19:20Z</time></trkpt>
<trkpt lat="48.450225" lon="2.674359"><ele></ele><time>2017-9-17T11:19:23Z</time></trkpt>
<trkpt lat="48.450183" lon="2.674488"><ele></ele><time>2017-9-17T11:19:26Z</time></trkpt>
<trkpt lat="48.450139" lon="2.674614"><ele></ele><time>2017-9-17T11:19:29Z</time></trkpt>
<trkpt lat="48.450093" lon="2.674741"><ele></ele><time>2017-9-17T11:19:32Z</time></trkpt>
<trkpt lat="48.450048" lon="2.674896"><ele></ele><time>2017-9-17T11:19:35Z</time></trkpt>
<trkpt lat="48.450019" lon="2.67507"><ele></ele><time>2017-9-17T11:19:38Z</time></trkpt>
<trkpt lat="48.449975" lon="2.675199"><ele></ele><time>2017-9-17T11:19:41Z</time></trkpt>
<trkpt lat="48.449942" lon="2.675352"><ele></ele><time>2017-9-17T11:19:44Z</time></trkpt>
<trkpt lat="48.449878" lon="2.675516"><ele></ele><time>2017-9-17T11:19:47Z</time></trkpt>
<trkpt lat="48.449817" lon="2.675621"><ele></ele><time>2017-9-17T11:19:50Z</time></trkpt>
<trkpt lat="48.449721" lon="2.675676"><ele></ele><time>2017-9-17T11:19:53Z</time></trkpt>
<trkpt lat="48.449626" lon="2.675704"><ele></ele><time>2017-9-17T11:19:56Z</time></trkpt>
<trkpt lat="48.449534" lon="2.675726"><ele></ele><time>2017-9-17T11:19:59Z</time></trkpt>
<trkpt lat="48.449442" lon="2.675726"><ele></ele><time>2017-9-17T11:20:2Z</time></trkpt>
<trkpt lat="48.449349" lon="2.675705"><ele></ele><time>2017-9-17T11:20:5Z</time></trkpt>
<trkpt lat="48.449227" lon="2.675672"><ele></ele><time>2017-9-17T11:20:8Z</time></trkpt>
<trkpt lat="48.449117" lon="2.675623"><ele></ele><time>2017-9-17T11:20:11Z</time></trkpt>
<trkpt lat="48.449024" lon="2.675555"><ele></ele><time>2017-9-17T11:20:14Z</time></trkpt>
<trkpt lat="48.448925" lon="2.675514"><ele></ele><time>2017-9-17T11:20:17Z</time></trkpt>
<trkpt lat="48.448797" lon="2.675456"><ele></ele><time>2017-9-17T11:20:20Z</time></trkpt>
<trkpt lat="48.448683" lon="2.675422"><ele></ele><time>2017-9-17T11:20:23Z</time></trkpt>
<trkpt lat="48.448583" lon="2.675381"><ele></ele><time>2017-9-17T11:20:26Z</time></trkpt>
<trkpt lat="48.448496" lon="2.675342"><ele></ele><time>2017-9-17T11:20:29Z</time></trkpt>
<trkpt lat="48.4484" lon="2.675303"><ele></ele><time>2017-9-17T11:20:32Z</time></trkpt>
<trkpt lat="48.448304" lon="2.675254"><ele></ele><time>2017-9-17T11:20:35Z</time></trkpt>
<trkpt lat="48.448194" lon="2.6752"><ele></ele><time>2017-9-17T11:20:38Z</time></trkpt>
<trkpt lat="48.448088" lon="2.675174"><ele></ele><time>2017-9-17T11:20:41Z</time></trkpt>
<trkpt lat="48.447985" lon="2.675126"><ele></ele><time>2017-9-17T11:20:44Z</time></trkpt>
<trkpt lat="48.447864" lon="2.675094"><ele></ele><time>2017-9-17T11:20:47Z</time></trkpt>
<trkpt lat="48.447752" lon="2.675044"><ele></ele><time>2017-9-17T11:20:50Z</time></trkpt>
<trkpt lat="48.447651" lon="2.67501"><ele></ele><time>2017-9-17T11:20:53Z</time></trkpt>
<trkpt lat="48.44752" lon="2.674987"><ele></ele><time>2017-9-17T11:20:56Z</time></trkpt>
<trkpt lat="48.447411" lon="2.67493"><ele></ele><time>2017-9-17T11:20:59Z</time></trkpt>
<trkpt lat="48.447295" lon="2.674883"><ele></ele><time>2017-9-17T11:21:2Z</time></trkpt>
<trkpt lat="48.447203" lon="2.67482"><ele></ele><time>2017-9-17T11:21:5Z</time></trkpt>
<trkpt lat="48.447098" lon="2.674759"><ele></ele><time>2017-9-17T11:21:8Z</time></trkpt>
<trkpt lat="48.446992" lon="2.67468"><ele></ele><time>2017-9-17T11:21:11Z</time></trkpt>
<trkpt lat="48.446893" lon="2.674557"><ele></ele><time>2017-9-17T11:21:14Z</time></trkpt>
<trkpt lat="48.446802" lon="2.674426"><ele></ele><time>2017-9-17T11:21:17Z</time></trkpt>
<trkpt lat="48.446758" lon="2.674307"><ele></ele><time>2017-9-17T11:21:20Z</time></trkpt>
<trkpt lat="48.446685" lon="2.674222"><ele></ele><time>2017-9-17T11:21:23Z</time></trkpt>
<trkpt lat="48.446593" lon="2.674162"><ele></ele><time>2017-9-17T11:21:26Z</time></trkpt>
<trkpt lat="48.446503" lon="2.674132"><ele></ele><time>2017-9-17T11:21:29Z</time></trkpt>
<trkpt lat="48.446431" lon="2.67405"><ele></ele><time>2017-9-17T11:21:32Z</time></trkpt>
<trkpt lat="48.446351" lon="2.673948"><ele></ele><time>2017-9-17T11:21:35Z</time></trkpt>
<trkpt lat="48.446258" lon="2.673874"><ele></ele><time>2017-9-17T11:21:38Z</time></trkpt>
<trkpt lat="48.446158" lon="2.673875"><ele></ele><time>2017-9-17T11:21:41Z</time></trkpt>
<trkpt lat="48.446065" lon="2.673892"><ele></ele><time>2017-9-17T11:21:44Z</time></trkpt>
<trkpt lat="48.445975" lon="2.673958"><ele></ele><time>2017-9-17T11:21:47Z</time></trkpt>
<trkpt lat="48.445895" lon="2.674042"><ele></ele><time>2017-9-17T11:21:50Z</time></trkpt>
<trkpt lat="48.445802" lon="2.674133"><ele></ele><time>2017-9-17T11:21:53Z</time></trkpt>
<trkpt lat="48.445722" lon="2.674247"><ele></ele><time>2017-9-17T11:21:56Z</time></trkpt>
<trkpt lat="48.445635" lon="2.674346"><ele></ele><time>2017-9-17T11:21:59Z</time></trkpt>
<trkpt lat="48.44554" lon="2.674423"><ele></ele><time>2017-9-17T11:22:2Z</time></trkpt>
<trkpt lat="48.445435" lon="2.674502"><ele></ele><time>2017-9-17T11:22:5Z</time></trkpt>
<trkpt lat="48.445347" lon="2.674611"><ele></ele><time>2017-9-17T11:22:8Z</time></trkpt>
<trkpt lat="48.445271" lon="2.674708"><ele></ele><time>2017-9-17T11:22:11Z</time></trkpt>
<trkpt lat="48.445197" lon="2.674791"><ele></ele><time>2017-9-17T11:22:14Z</time></trkpt>
<trkpt lat="48.445104" lon="2.674877"><ele></ele><time>2017-9-17T11:22:17Z</time></trkpt>
<trkpt lat="48.445044" lon="2.674982"><ele></ele><time>2017-9-17T11:22:20Z</time></trkpt>
<trkpt lat="48.444957" lon="2.675069"><ele></ele><time>2017-9-17T11:22:23Z</time></trkpt>
<trkpt lat="48.444861" lon="2.675172"><ele></ele><time>2017-9-17T11:22:26Z</time></trkpt>
<trkpt lat="48.444769" lon="2.67527"><ele></ele><time>2017-9-17T11:22:29Z</time></trkpt>
<trkpt lat="48.444671" lon="2.675372"><ele></ele><time>2017-9-17T11:22:32Z</time></trkpt>
<trkpt lat="48.444586" lon="2.675469"><ele></ele><time>2017-9-17T11:22:35Z</time></trkpt>
<trkpt lat="48.44449" lon="2.675566"><ele></ele><time>2017-9-17T11:22:38Z</time></trkpt>
<trkpt lat="48.444398" lon="2.675654"><ele></ele><time>2017-9-17T11:22:41Z</time></trkpt>
<trkpt lat="48.444295" lon="2.675763"><ele></ele><time>2017-9-17T11:22:44Z</time></trkpt>
<trkpt lat="48.444202" lon="2.675856"><ele></ele><time>2017-9-17T11:22:47Z</time></trkpt>
<trkpt lat="48.444105" lon="2.675948"><ele></ele><time>2017-9-17T11:22:50Z</time></trkpt>
<trkpt lat="48.444017" lon="2.676047"><ele></ele><time>2017-9-17T11:22:53Z</time></trkpt>
<trkpt lat="48.443913" lon="2.676148"><ele></ele><time>2017-9-17T11:22:56Z</time></trkpt>
<trkpt lat="48.443826" lon="2.676251"><ele></ele><time>2017-9-17T11:22:59Z</time></trkpt>
<trkpt lat="48.443727" lon="2.676354"><ele></ele><time>2017-9-17T11:23:2Z</time></trkpt>
<trkpt lat="48.443637" lon="2.676431"><ele></ele><time>2017-9-17T11:23:5Z</time></trkpt>
<trkpt lat="48.443576" lon="2.676543"><ele></ele><time>2017-9-17T11:23:8Z</time></trkpt>
<trkpt lat="48.443505" lon="2.676667"><ele></ele><time>2017-9-17T11:23:11Z</time></trkpt>
<trkpt lat="48.443446" lon="2.676795"><ele></ele><time>2017-9-17T11:23:14Z</time></trkpt>
<trkpt lat="48.443395" lon="2.676916"><ele></ele><time>2017-9-17T11:23:17Z</time></trkpt>
<trkpt lat="48.443347" lon="2.677078"><ele></ele><time>2017-9-17T11:23:20Z</time></trkpt>
<trkpt lat="48.443297" lon="2.677246"><ele></ele><time>2017-9-17T11:23:23Z</time></trkpt>
<trkpt lat="48.443282" lon="2.677425"><ele></ele><time>2017-9-17T11:23:26Z</time></trkpt>
<trkpt lat="48.443239" lon="2.677581"><ele></ele><time>2017-9-17T11:23:29Z</time></trkpt>
<trkpt lat="48.443228" lon="2.677718"><ele></ele><time>2017-9-17T11:23:32Z</time></trkpt>
<trkpt lat="48.443201" lon="2.677869"><ele></ele><time>2017-9-17T11:23:35Z</time></trkpt>
<trkpt lat="48.443189" lon="2.678047"><ele></ele><time>2017-9-17T11:23:38Z</time></trkpt>
<trkpt lat="48.443226" lon="2.678242"><ele></ele><time>2017-9-17T11:23:41Z</time></trkpt>
<trkpt lat="48.443235" lon="2.678407"><ele></ele><time>2017-9-17T11:23:44Z</time></trkpt>
<trkpt lat="48.44327" lon="2.678581"><ele></ele><time>2017-9-17T11:23:47Z</time></trkpt>
<trkpt lat="48.443276" lon="2.678719"><ele></ele><time>2017-9-17T11:23:50Z</time></trkpt>
<trkpt lat="48.443244" lon="2.678923"><ele></ele><time>2017-9-17T11:23:53Z</time></trkpt>
<trkpt lat="48.443178" lon="2.679137"><ele></ele><time>2017-9-17T11:23:56Z</time></trkpt>
<trkpt lat="48.443105" lon="2.679281"><ele></ele><time>2017-9-17T11:23:59Z</time></trkpt>
<trkpt lat="48.443024" lon="2.679414"><ele></ele><time>2017-9-17T11:24:2Z</time></trkpt>
<trkpt lat="48.442952" lon="2.679555"><ele></ele><time>2017-9-17T11:24:5Z</time></trkpt>
<trkpt lat="48.442887" lon="2.679711"><ele></ele><time>2017-9-17T11:24:8Z</time></trkpt>
<trkpt lat="48.442815" lon="2.679852"><ele></ele><time>2017-9-17T11:24:11Z</time></trkpt>
<trkpt lat="48.442749" lon="2.679978"><ele></ele><time>2017-9-17T11:24:14Z</time></trkpt>
<trkpt lat="48.442647" lon="2.679944"><ele></ele><time>2017-9-17T11:24:17Z</time></trkpt>
<trkpt lat="48.442574" lon="2.679846"><ele></ele><time>2017-9-17T11:24:20Z</time></trkpt>
<trkpt lat="48.442547" lon="2.679691"><ele></ele><time>2017-9-17T11:24:23Z</time></trkpt>
<trkpt lat="48.442595" lon="2.679528"><ele></ele><time>2017-9-17T11:24:26Z</time></trkpt>
<trkpt lat="48.442603" lon="2.679382"><ele></ele><time>2017-9-17T11:24:29Z</time></trkpt>
<trkpt lat="48.442673" lon="2.679295"><ele></ele><time>2017-9-17T11:24:32Z</time></trkpt>
<trkpt lat="48.442668" lon="2.67914"><ele></ele><time>2017-9-17T11:24:35Z</time></trkpt>
<trkpt lat="48.442688" lon="2.678984"><ele></ele><time>2017-9-17T11:24:38Z</time></trkpt>
<trkpt lat="48.442727" lon="2.678857"><ele></ele><time>2017-9-17T11:24:41Z</time></trkpt>
<trkpt lat="48.442736" lon="2.678719"><ele></ele><time>2017-9-17T11:24:44Z</time></trkpt>
<trkpt lat="48.442743" lon="2.678552"><ele></ele><time>2017-9-17T11:24:47Z</time></trkpt>
<trkpt lat="48.442811" lon="2.678407"><ele></ele><time>2017-9-17T11:24:50Z</time></trkpt>
<trkpt lat="48.442722" lon="2.678365"><ele></ele><time>2017-9-17T11:24:53Z</time></trkpt>
<trkpt lat="48.442614" lon="2.678354"><ele></ele><time>2017-9-17T11:24:56Z</time></trkpt>
<trkpt lat="48.442501" lon="2.678379"><ele></ele><time>2017-9-17T11:24:59Z</time></trkpt>
<trkpt lat="48.4424" lon="2.678377"><ele></ele><time>2017-9-17T11:25:2Z</time></trkpt>
<trkpt lat="48.442291" lon="2.678393"><ele></ele><time>2017-9-17T11:25:5Z</time></trkpt>
<trkpt lat="48.44221" lon="2.678459"><ele></ele><time>2017-9-17T11:25:8Z</time></trkpt>
<trkpt lat="48.442113" lon="2.678402"><ele></ele><time>2017-9-17T11:25:11Z</time></trkpt>
<trkpt lat="48.442012" lon="2.678376"><ele></ele><time>2017-9-17T11:25:14Z</time></trkpt>
<trkpt lat="48.441928" lon="2.678327"><ele></ele><time>2017-9-17T11:25:17Z</time></trkpt>
<trkpt lat="48.441835" lon="2.678295"><ele></ele><time>2017-9-17T11:25:20Z</time></trkpt>
<trkpt lat="48.441746" lon="2.678214"><ele></ele><time>2017-9-17T11:25:23Z</time></trkpt>
<trkpt lat="48.441659" lon="2.678144"><ele></ele><time>2017-9-17T11:25:26Z</time></trkpt>
<trkpt lat="48.441652" lon="2.678008"><ele></ele><time>2017-9-17T11:25:29Z</time></trkpt>
<trkpt lat="48.441594" lon="2.67789"><ele></ele><time>2017-9-17T11:25:32Z</time></trkpt>
<trkpt lat="48.441501" lon="2.677892"><ele></ele><time>2017-9-17T11:25:35Z</time></trkpt>
<trkpt lat="48.441485" lon="2.677758"><ele></ele><time>2017-9-17T11:25:38Z</time></trkpt>
<trkpt lat="48.44142" lon="2.677535"><ele></ele><time>2017-9-17T11:25:41Z</time></trkpt>
<trkpt lat="48.441382" lon="2.67738"><ele></ele><time>2017-9-17T11:25:44Z</time></trkpt>
<trkpt lat="48.44131" lon="2.677252"><ele></ele><time>2017-9-17T11:25:47Z</time></trkpt>
<trkpt lat="48.441245" lon="2.677136"><ele></ele><time>2017-9-17T11:25:50Z</time></trkpt>
<trkpt lat="48.441147" lon="2.677041"><ele></ele><time>2017-9-17T11:25:53Z</time></trkpt>
<trkpt lat="48.441055" lon="2.676962"><ele></ele><time>2017-9-17T11:25:56Z</time></trkpt>
<trkpt lat="48.440952" lon="2.676926"><ele></ele><time>2017-9-17T11:25:59Z</time></trkpt>
<trkpt lat="48.440831" lon="2.67697"><ele></ele><time>2017-9-17T11:26:2Z</time></trkpt>
<trkpt lat="48.440743" lon="2.676893"><ele></ele><time>2017-9-17T11:26:5Z</time></trkpt>
<trkpt lat="48.440626" lon="2.676867"><ele></ele><time>2017-9-17T11:26:8Z</time></trkpt>
<trkpt lat="48.440548" lon="2.676758"><ele></ele><time>2017-9-17T11:26:11Z</time></trkpt>
<trkpt lat="48.440444" lon="2.676729"><ele></ele><time>2017-9-17T11:26:14Z</time></trkpt>
<trkpt lat="48.440339" lon="2.676708"><ele></ele><time>2017-9-17T11:26:17Z</time></trkpt>
<trkpt lat="48.440218" lon="2.676722"><ele></ele><time>2017-9-17T11:26:20Z</time></trkpt>
<trkpt lat="48.44012" lon="2.676702"><ele></ele><time>2017-9-17T11:26:23Z</time></trkpt>
<trkpt lat="48.440022" lon="2.676683"><ele></ele><time>2017-9-17T11:26:26Z</time></trkpt>
<trkpt lat="48.439918" lon="2.676651"><ele></ele><time>2017-9-17T11:26:29Z</time></trkpt>
<trkpt lat="48.439827" lon="2.676624"><ele></ele><time>2017-9-17T11:26:32Z</time></trkpt>
<trkpt lat="48.43973" lon="2.676625"><ele></ele><time>2017-9-17T11:26:35Z</time></trkpt>
<trkpt lat="48.439641" lon="2.676553"><ele></ele><time>2017-9-17T11:26:38Z</time></trkpt>
<trkpt lat="48.43953" lon="2.676507"><ele></ele><time>2017-9-17T11:26:41Z</time></trkpt>
<trkpt lat="48.439435" lon="2.676493"><ele></ele><time>2017-9-17T11:26:44Z</time></trkpt>
<trkpt lat="48.439331" lon="2.676481"><ele></ele><time>2017-9-17T11:26:47Z</time></trkpt>
<trkpt lat="48.439247" lon="2.676427"><ele></ele><time>2017-9-17T11:26:50Z</time></trkpt>
<trkpt lat="48.439233" lon="2.676283"><ele></ele><time>2017-9-17T11:26:53Z</time></trkpt>
<trkpt lat="48.439162" lon="2.676168"><ele></ele><time>2017-9-17T11:26:56Z</time></trkpt>
<trkpt lat="48.439145" lon="2.67602"><ele></ele><time>2017-9-17T11:26:59Z</time></trkpt>
<trkpt lat="48.43911" lon="2.675852"><ele></ele><time>2017-9-17T11:27:2Z</time></trkpt>
<trkpt lat="48.439068" lon="2.675716"><ele></ele><time>2017-9-17T11:27:5Z</time></trkpt>
<trkpt lat="48.439043" lon="2.675569"><ele></ele><time>2017-9-17T11:27:8Z</time></trkpt>
<trkpt lat="48.439005" lon="2.675411"><ele></ele><time>2017-9-17T11:27:11Z</time></trkpt>
<trkpt lat="48.438983" lon="2.675253"><ele></ele><time>2017-9-17T11:27:14Z</time></trkpt>
<trkpt lat="48.438963" lon="2.675105"><ele></ele><time>2017-9-17T11:27:17Z</time></trkpt>
<trkpt lat="48.43892" lon="2.674943"><ele></ele><time>2017-9-17T11:27:20Z</time></trkpt>
<trkpt lat="48.438887" lon="2.67481"><ele></ele><time>2017-9-17T11:27:23Z</time></trkpt>
<trkpt lat="48.438865" lon="2.674668"><ele></ele><time>2017-9-17T11:27:26Z</time></trkpt>
<trkpt lat="48.438822" lon="2.674531"><ele></ele><time>2017-9-17T11:27:29Z</time></trkpt>
<trkpt lat="48.438787" lon="2.674389"><ele></ele><time>2017-9-17T11:27:32Z</time></trkpt>
<trkpt lat="48.438766" lon="2.674245"><ele></ele><time>2017-9-17T11:27:35Z</time></trkpt>
<trkpt lat="48.438731" lon="2.674109"><ele></ele><time>2017-9-17T11:27:38Z</time></trkpt>
<trkpt lat="48.438699" lon="2.673935"><ele></ele><time>2017-9-17T11:27:41Z</time></trkpt>
<trkpt lat="48.438684" lon="2.673792"><ele></ele><time>2017-9-17T11:27:44Z</time></trkpt>
<trkpt lat="48.438654" lon="2.673662"><ele></ele><time>2017-9-17T11:27:47Z</time></trkpt>
<trkpt lat="48.438612" lon="2.673514"><ele></ele><time>2017-9-17T11:27:50Z</time></trkpt>
<trkpt lat="48.438571" lon="2.673363"><ele></ele><time>2017-9-17T11:27:53Z</time></trkpt>
<trkpt lat="48.438549" lon="2.673207"><ele></ele><time>2017-9-17T11:27:56Z</time></trkpt>
<trkpt lat="48.438507" lon="2.673049"><ele></ele><time>2017-9-17T11:27:59Z</time></trkpt>
<trkpt lat="48.438464" lon="2.672878"><ele></ele><time>2017-9-17T11:28:2Z</time></trkpt>
<trkpt lat="48.438425" lon="2.672717"><ele></ele><time>2017-9-17T11:28:5Z</time></trkpt>
<trkpt lat="48.438422" lon="2.672571"><ele></ele><time>2017-9-17T11:28:8Z</time></trkpt>
<trkpt lat="48.438379" lon="2.672428"><ele></ele><time>2017-9-17T11:28:11Z</time></trkpt>
<trkpt lat="48.438348" lon="2.67226"><ele></ele><time>2017-9-17T11:28:14Z</time></trkpt>
<trkpt lat="48.438293" lon="2.672135"><ele></ele><time>2017-9-17T11:28:17Z</time></trkpt>
<trkpt lat="48.438254" lon="2.671961"><ele></ele><time>2017-9-17T11:28:20Z</time></trkpt>
<trkpt lat="48.438222" lon="2.671817"><ele></ele><time>2017-9-17T11:28:23Z</time></trkpt>
<trkpt lat="48.438188" lon="2.671648"><ele></ele><time>2017-9-17T11:28:26Z</time></trkpt>
<trkpt lat="48.438158" lon="2.6715"><ele></ele><time>2017-9-17T11:28:29Z</time></trkpt>
<trkpt lat="48.438107" lon="2.671372"><ele></ele><time>2017-9-17T11:28:32Z</time></trkpt>
<trkpt lat="48.43805" lon="2.67125"><ele></ele><time>2017-9-17T11:28:35Z</time></trkpt>
<trkpt lat="48.438017" lon="2.671117"><ele></ele><time>2017-9-17T11:28:38Z</time></trkpt>
<trkpt lat="48.438001" lon="2.670973"><ele></ele><time>2017-9-17T11:28:41Z</time></trkpt>
<trkpt lat="48.437898" lon="2.671014"><ele></ele><time>2017-9-17T11:28:44Z</time></trkpt>
<trkpt lat="48.437805" lon="2.670996"><ele></ele><time>2017-9-17T11:28:47Z</time></trkpt>
<trkpt lat="48.437707" lon="2.670953"><ele></ele><time>2017-9-17T11:28:50Z</time></trkpt>
<trkpt lat="48.437582" lon="2.670941"><ele></ele><time>2017-9-17T11:28:53Z</time></trkpt>
<trkpt lat="48.437484" lon="2.670947"><ele></ele><time>2017-9-17T11:28:56Z</time></trkpt>
<trkpt lat="48.437353" lon="2.670945"><ele></ele><time>2017-9-17T11:28:59Z</time></trkpt>
<trkpt lat="48.437224" lon="2.670949"><ele></ele><time>2017-9-17T11:29:2Z</time></trkpt>
<trkpt lat="48.437109" lon="2.670937"><ele></ele><time>2017-9-17T11:29:5Z</time></trkpt>
<trkpt lat="48.436994" lon="2.670956"><ele></ele><time>2017-9-17T11:29:8Z</time></trkpt>
<trkpt lat="48.43688" lon="2.670958"><ele></ele><time>2017-9-17T11:29:11Z</time></trkpt>
<trkpt lat="48.436765" lon="2.670937"><ele></ele><time>2017-9-17T11:29:14Z</time></trkpt>
<trkpt lat="48.436649" lon="2.670921"><ele></ele><time>2017-9-17T11:29:17Z</time></trkpt>
<trkpt lat="48.436542" lon="2.670889"><ele></ele><time>2017-9-17T11:29:20Z</time></trkpt>
<trkpt lat="48.436401" lon="2.670886"><ele></ele><time>2017-9-17T11:29:23Z</time></trkpt>
<trkpt lat="48.436298" lon="2.670897"><ele></ele><time>2017-9-17T11:29:26Z</time></trkpt>
<trkpt lat="48.436169" lon="2.67088"><ele></ele><time>2017-9-17T11:29:29Z</time></trkpt>
<trkpt lat="48.436051" lon="2.670866"><ele></ele><time>2017-9-17T11:29:32Z</time></trkpt>
<trkpt lat="48.435915" lon="2.670866"><ele></ele><time>2017-9-17T11:29:35Z</time></trkpt>
<trkpt lat="48.435811" lon="2.670872"><ele></ele><time>2017-9-17T11:29:38Z</time></trkpt>
<trkpt lat="48.435721" lon="2.670881"><ele></ele><time>2017-9-17T11:29:41Z</time></trkpt>
<trkpt lat="48.435628" lon="2.670886"><ele></ele><time>2017-9-17T11:29:44Z</time></trkpt>
<trkpt lat="48.435519" lon="2.670933"><ele></ele><time>2017-9-17T11:29:47Z</time></trkpt>
<trkpt lat="48.435404" lon="2.670978"><ele></ele><time>2017-9-17T11:29:50Z</time></trkpt>
<trkpt lat="48.435309" lon="2.67099"><ele></ele><time>2017-9-17T11:29:53Z</time></trkpt>
<trkpt lat="48.435214" lon="2.670992"><ele></ele><time>2017-9-17T11:29:56Z</time></trkpt>
<trkpt lat="48.435119" lon="2.671028"><ele></ele><time>2017-9-17T11:29:59Z</time></trkpt>
<trkpt lat="48.435021" lon="2.671076"><ele></ele><time>2017-9-17T11:30:2Z</time></trkpt>
<trkpt lat="48.434929" lon="2.671134"><ele></ele><time>2017-9-17T11:30:5Z</time></trkpt>
<trkpt lat="48.434815" lon="2.671161"><ele></ele><time>2017-9-17T11:30:8Z</time></trkpt>
<trkpt lat="48.434707" lon="2.671209"><ele></ele><time>2017-9-17T11:30:11Z</time></trkpt>
<trkpt lat="48.434627" lon="2.671275"><ele></ele><time>2017-9-17T11:30:14Z</time></trkpt>
<trkpt lat="48.434535" lon="2.671297"><ele></ele><time>2017-9-17T11:30:17Z</time></trkpt>
<trkpt lat="48.434446" lon="2.67133"><ele></ele><time>2017-9-17T11:30:20Z</time></trkpt>
<trkpt lat="48.434336" lon="2.671373"><ele></ele><time>2017-9-17T11:30:23Z</time></trkpt>
<trkpt lat="48.434234" lon="2.671413"><ele></ele><time>2017-9-17T11:30:26Z</time></trkpt>
<trkpt lat="48.434129" lon="2.671439"><ele></ele><time>2017-9-17T11:30:29Z</time></trkpt>
<trkpt lat="48.434012" lon="2.671483"><ele></ele><time>2017-9-17T11:30:32Z</time></trkpt>
<trkpt lat="48.433867" lon="2.671526"><ele></ele><time>2017-9-17T11:30:35Z</time></trkpt>
<trkpt lat="48.433759" lon="2.671534"><ele></ele><time>2017-9-17T11:30:38Z</time></trkpt>
<trkpt lat="48.433653" lon="2.671553"><ele></ele><time>2017-9-17T11:30:41Z</time></trkpt>
<trkpt lat="48.433546" lon="2.671608"><ele></ele><time>2017-9-17T11:30:44Z</time></trkpt>
<trkpt lat="48.433442" lon="2.671612"><ele></ele><time>2017-9-17T11:30:47Z</time></trkpt>
<trkpt lat="48.433336" lon="2.671546"><ele></ele><time>2017-9-17T11:30:50Z</time></trkpt>
<trkpt lat="48.433239" lon="2.671466"><ele></ele><time>2017-9-17T11:30:53Z</time></trkpt>
<trkpt lat="48.433132" lon="2.671394"><ele></ele><time>2017-9-17T11:30:56Z</time></trkpt>
<trkpt lat="48.43301" lon="2.671307"><ele></ele><time>2017-9-17T11:30:59Z</time></trkpt>
<trkpt lat="48.432914" lon="2.671242"><ele></ele><time>2017-9-17T11:31:2Z</time></trkpt>
<trkpt lat="48.43281" lon="2.671182"><ele></ele><time>2017-9-17T11:31:5Z</time></trkpt>
<trkpt lat="48.432706" lon="2.671091"><ele></ele><time>2017-9-17T11:31:8Z</time></trkpt>
<trkpt lat="48.432591" lon="2.671033"><ele></ele><time>2017-9-17T11:31:11Z</time></trkpt>
<trkpt lat="48.432476" lon="2.670976"><ele></ele><time>2017-9-17T11:31:14Z</time></trkpt>
<trkpt lat="48.432352" lon="2.670924"><ele></ele><time>2017-9-17T11:31:17Z</time></trkpt>
<trkpt lat="48.432249" lon="2.670878"><ele></ele><time>2017-9-17T11:31:20Z</time></trkpt>
<trkpt lat="48.432161" lon="2.670835"><ele></ele><time>2017-9-17T11:31:23Z</time></trkpt>
<trkpt lat="48.432045" lon="2.670779"><ele></ele><time>2017-9-17T11:31:26Z</time></trkpt>
<trkpt lat="48.431933" lon="2.670716"><ele></ele><time>2017-9-17T11:31:29Z</time></trkpt>
<trkpt lat="48.431847" lon="2.670673"><ele></ele><time>2017-9-17T11:31:32Z</time></trkpt>
<trkpt lat="48.431759" lon="2.670645"><ele></ele><time>2017-9-17T11:31:35Z</time></trkpt>
<trkpt lat="48.431629" lon="2.670607"><ele></ele><time>2017-9-17T11:31:38Z</time></trkpt>
<trkpt lat="48.431512" lon="2.67056"><ele></ele><time>2017-9-17T11:31:41Z</time></trkpt>
<trkpt lat="48.431411" lon="2.670523"><ele></ele><time>2017-9-17T11:31:44Z</time></trkpt>
<trkpt lat="48.431303" lon="2.670477"><ele></ele><time>2017-9-17T11:31:47Z</time></trkpt>
<trkpt lat="48.431187" lon="2.670439"><ele></ele><time>2017-9-17T11:31:50Z</time></trkpt>
<trkpt lat="48.431069" lon="2.670407"><ele></ele><time>2017-9-17T11:31:53Z</time></trkpt>
<trkpt lat="48.430964" lon="2.670463"><ele></ele><time>2017-9-17T11:31:56Z</time></trkpt>
<trkpt lat="48.430912" lon="2.670636"><ele></ele><time>2017-9-17T11:31:59Z</time></trkpt>
<trkpt lat="48.430846" lon="2.670789"><ele></ele><time>2017-9-17T11:32:2Z</time></trkpt>
<trkpt lat="48.430785" lon="2.670981"><ele></ele><time>2017-9-17T11:32:5Z</time></trkpt>
<trkpt lat="48.430741" lon="2.671106"><ele></ele><time>2017-9-17T11:32:8Z</time></trkpt>
<trkpt lat="48.430678" lon="2.671236"><ele></ele><time>2017-9-17T11:32:11Z</time></trkpt>
<trkpt lat="48.43062" lon="2.671356"><ele></ele><time>2017-9-17T11:32:14Z</time></trkpt>
<trkpt lat="48.430554" lon="2.67152"><ele></ele><time>2017-9-17T11:32:17Z</time></trkpt>
<trkpt lat="48.430489" lon="2.671684"><ele></ele><time>2017-9-17T11:32:20Z</time></trkpt>
<trkpt lat="48.430439" lon="2.671805"><ele></ele><time>2017-9-17T11:32:23Z</time></trkpt>
<trkpt lat="48.430385" lon="2.671951"><ele></ele><time>2017-9-17T11:32:26Z</time></trkpt>
<trkpt lat="48.430342" lon="2.672075"><ele></ele><time>2017-9-17T11:32:29Z</time></trkpt>
<trkpt lat="48.430355" lon="2.672219"><ele></ele><time>2017-9-17T11:32:32Z</time></trkpt>
<trkpt lat="48.430427" lon="2.672337"><ele></ele><time>2017-9-17T11:32:35Z</time></trkpt>
<trkpt lat="48.43051" lon="2.672481"><ele></ele><time>2017-9-17T11:32:38Z</time></trkpt>
<trkpt lat="48.43056" lon="2.672598"><ele></ele><time>2017-9-17T11:32:41Z</time></trkpt>
<trkpt lat="48.43063" lon="2.672733"><ele></ele><time>2017-9-17T11:32:44Z</time></trkpt>
<trkpt lat="48.430705" lon="2.672821"><ele></ele><time>2017-9-17T11:32:47Z</time></trkpt>
<trkpt lat="48.430789" lon="2.672887"><ele></ele><time>2017-9-17T11:32:50Z</time></trkpt>
<trkpt lat="48.430868" lon="2.672989"><ele></ele><time>2017-9-17T11:32:53Z</time></trkpt>
<trkpt lat="48.430943" lon="2.6731"><ele></ele><time>2017-9-17T11:32:56Z</time></trkpt>
<trkpt lat="48.431019" lon="2.673213"><ele></ele><time>2017-9-17T11:32:59Z</time></trkpt>
<trkpt lat="48.431068" lon="2.673347"><ele></ele><time>2017-9-17T11:33:2Z</time></trkpt>
<trkpt lat="48.431127" lon="2.673468"><ele></ele><time>2017-9-17T11:33:5Z</time></trkpt>
<trkpt lat="48.431194" lon="2.673586"><ele></ele><time>2017-9-17T11:33:8Z</time></trkpt>
<trkpt lat="48.431258" lon="2.673691"><ele></ele><time>2017-9-17T11:33:11Z</time></trkpt>
<trkpt lat="48.431339" lon="2.673789"><ele></ele><time>2017-9-17T11:33:14Z</time></trkpt>
<trkpt lat="48.43142" lon="2.673904"><ele></ele><time>2017-9-17T11:33:17Z</time></trkpt>
<trkpt lat="48.43147" lon="2.674033"><ele></ele><time>2017-9-17T11:33:20Z</time></trkpt>
<trkpt lat="48.43152" lon="2.674237"><ele></ele><time>2017-9-17T11:33:23Z</time></trkpt>
<trkpt lat="48.431567" lon="2.67437"><ele></ele><time>2017-9-17T11:33:26Z</time></trkpt>
<trkpt lat="48.431608" lon="2.674495"><ele></ele><time>2017-9-17T11:33:29Z</time></trkpt>
<trkpt lat="48.431668" lon="2.674629"><ele></ele><time>2017-9-17T11:33:32Z</time></trkpt>
<trkpt lat="48.431749" lon="2.674765"><ele></ele><time>2017-9-17T11:33:35Z</time></trkpt>
<trkpt lat="48.431797" lon="2.674914"><ele></ele><time>2017-9-17T11:33:38Z</time></trkpt>
<trkpt lat="48.431837" lon="2.675113"><ele></ele><time>2017-9-17T11:33:41Z</time></trkpt>
<trkpt lat="48.431858" lon="2.675264"><ele></ele><time>2017-9-17T11:33:44Z</time></trkpt>
<trkpt lat="48.431915" lon="2.675442"><ele></ele><time>2017-9-17T11:33:47Z</time></trkpt>
<trkpt lat="48.43196" lon="2.675562"><ele></ele><time>2017-9-17T11:33:50Z</time></trkpt>
<trkpt lat="48.431961" lon="2.675728"><ele></ele><time>2017-9-17T11:33:53Z</time></trkpt>
<trkpt lat="48.432003" lon="2.675881"><ele></ele><time>2017-9-17T11:33:56Z</time></trkpt>
<trkpt lat="48.432002" lon="2.676023"><ele></ele><time>2017-9-17T11:33:59Z</time></trkpt>
<trkpt lat="48.431979" lon="2.676201"><ele></ele><time>2017-9-17T11:34:2Z</time></trkpt>
<trkpt lat="48.431931" lon="2.676341"><ele></ele><time>2017-9-17T11:34:5Z</time></trkpt>
<trkpt lat="48.431918" lon="2.676506"><ele></ele><time>2017-9-17T11:34:8Z</time></trkpt>
<trkpt lat="48.431912" lon="2.676735"><ele></ele><time>2017-9-17T11:34:11Z</time></trkpt>
<trkpt lat="48.431899" lon="2.676892"><ele></ele><time>2017-9-17T11:34:14Z</time></trkpt>
<trkpt lat="48.431912" lon="2.677029"><ele></ele><time>2017-9-17T11:34:17Z</time></trkpt>
<trkpt lat="48.431888" lon="2.677161"><ele></ele><time>2017-9-17T11:34:20Z</time></trkpt>
<trkpt lat="48.431902" lon="2.677311"><ele></ele><time>2017-9-17T11:34:23Z</time></trkpt>
<trkpt lat="48.431904" lon="2.677508"><ele></ele><time>2017-9-17T11:34:26Z</time></trkpt>
<trkpt lat="48.43189" lon="2.677679"><ele></ele><time>2017-9-17T11:34:29Z</time></trkpt>
<trkpt lat="48.431868" lon="2.677848"><ele></ele><time>2017-9-17T11:34:32Z</time></trkpt>
<trkpt lat="48.431866" lon="2.678"><ele></ele><time>2017-9-17T11:34:35Z</time></trkpt>
<trkpt lat="48.431823" lon="2.678147"><ele></ele><time>2017-9-17T11:34:38Z</time></trkpt>
<trkpt lat="48.431813" lon="2.678312"><ele></ele><time>2017-9-17T11:34:41Z</time></trkpt>
<trkpt lat="48.431781" lon="2.678476"><ele></ele><time>2017-9-17T11:34:44Z</time></trkpt>
<trkpt lat="48.431738" lon="2.67861"><ele></ele><time>2017-9-17T11:34:47Z</time></trkpt>
<trkpt lat="48.431687" lon="2.67873"><ele></ele><time>2017-9-17T11:34:50Z</time></trkpt>
<trkpt lat="48.431649" lon="2.678853"><ele></ele><time>2017-9-17T11:34:53Z</time></trkpt>
<trkpt lat="48.431564" lon="2.67901"><ele></ele><time>2017-9-17T11:34:56Z</time></trkpt>
<trkpt lat="48.43149" lon="2.67916"><ele></ele><time>2017-9-17T11:34:59Z</time></trkpt>
<trkpt lat="48.431433" lon="2.679279"><ele></ele><time>2017-9-17T11:35:2Z</time></trkpt>
<trkpt lat="48.431445" lon="2.679419"><ele></ele><time>2017-9-17T11:35:5Z</time></trkpt>
<trkpt lat="48.431537" lon="2.679512"><ele></ele><time>2017-9-17T11:35:8Z</time></trkpt>
<trkpt lat="48.431625" lon="2.679606"><ele></ele><time>2017-9-17T11:35:11Z</time></trkpt>
<trkpt lat="48.43174" lon="2.679692"><ele></ele><time>2017-9-17T11:35:14Z</time></trkpt>
<trkpt lat="48.431837" lon="2.679791"><ele></ele><time>2017-9-17T11:35:17Z</time></trkpt>
<trkpt lat="48.431923" lon="2.679944"><ele></ele><time>2017-9-17T11:35:20Z</time></trkpt>
<trkpt lat="48.432051" lon="2.680036"><ele></ele><time>2017-9-17T11:35:23Z</time></trkpt>
<trkpt lat="48.432116" lon="2.680143"><ele></ele><time>2017-9-17T11:35:26Z</time></trkpt>
<trkpt lat="48.432184" lon="2.680277"><ele></ele><time>2017-9-17T11:35:29Z</time></trkpt>
<trkpt lat="48.43223" lon="2.68044"><ele></ele><time>2017-9-17T11:35:32Z</time></trkpt>
<trkpt lat="48.4323" lon="2.680596"><ele></ele><time>2017-9-17T11:35:35Z</time></trkpt>
<trkpt lat="48.432363" lon="2.680737"><ele></ele><time>2017-9-17T11:35:38Z</time></trkpt>
<trkpt lat="48.432429" lon="2.680839"><ele></ele><time>2017-9-17T11:35:41Z</time></trkpt>
<trkpt lat="48.432479" lon="2.680952"><ele></ele><time>2017-9-17T11:35:44Z</time></trkpt>
<trkpt lat="48.432531" lon="2.681111"><ele></ele><time>2017-9-17T11:35:47Z</time></trkpt>
<trkpt lat="48.432592" lon="2.681233"><ele></ele><time>2017-9-17T11:35:50Z</time></trkpt>
<trkpt lat="48.432616" lon="2.681383"><ele></ele><time>2017-9-17T11:35:53Z</time></trkpt>
<trkpt lat="48.432633" lon="2.681518"><ele></ele><time>2017-9-17T11:35:56Z</time></trkpt>
<trkpt lat="48.43265" lon="2.681708"><ele></ele><time>2017-9-17T11:35:59Z</time></trkpt>
<trkpt lat="48.432622" lon="2.681901"><ele></ele><time>2017-9-17T11:36:2Z</time></trkpt>
<trkpt lat="48.432599" lon="2.682086"><ele></ele><time>2017-9-17T11:36:5Z</time></trkpt>
<trkpt lat="48.432563" lon="2.682243"><ele></ele><time>2017-9-17T11:36:8Z</time></trkpt>
<trkpt lat="48.432529" lon="2.682394"><ele></ele><time>2017-9-17T11:36:11Z</time></trkpt>
<trkpt lat="48.43248" lon="2.682562"><ele></ele><time>2017-9-17T11:36:14Z</time></trkpt>
<trkpt lat="48.432432" lon="2.682684"><ele></ele><time>2017-9-17T11:36:17Z</time></trkpt>
<trkpt lat="48.432417" lon="2.682854"><ele></ele><time>2017-9-17T11:36:20Z</time></trkpt>
<trkpt lat="48.432393" lon="2.683004"><ele></ele><time>2017-9-17T11:36:23Z</time></trkpt>
<trkpt lat="48.43237" lon="2.683182"><ele></ele><time>2017-9-17T11:36:26Z</time></trkpt>
<trkpt lat="48.432348" lon="2.683338"><ele></ele><time>2017-9-17T11:36:29Z</time></trkpt>
<trkpt lat="48.432317" lon="2.683489"><ele></ele><time>2017-9-17T11:36:32Z</time></trkpt>
<trkpt lat="48.432289" lon="2.683632"><ele></ele><time>2017-9-17T11:36:35Z</time></trkpt>
<trkpt lat="48.432211" lon="2.683726"><ele></ele><time>2017-9-17T11:36:38Z</time></trkpt>
<trkpt lat="48.432133" lon="2.68381"><ele></ele><time>2017-9-17T11:36:41Z</time></trkpt>
<trkpt lat="48.432071" lon="2.683921"><ele></ele><time>2017-9-17T11:36:44Z</time></trkpt>
<trkpt lat="48.431998" lon="2.684018"><ele></ele><time>2017-9-17T11:36:47Z</time></trkpt>
<trkpt lat="48.431931" lon="2.684116"><ele></ele><time>2017-9-17T11:36:50Z</time></trkpt>
<trkpt lat="48.431868" lon="2.684217"><ele></ele><time>2017-9-17T11:36:53Z</time></trkpt>
<trkpt lat="48.431807" lon="2.68435"><ele></ele><time>2017-9-17T11:36:56Z</time></trkpt>
<trkpt lat="48.431745" lon="2.68449"><ele></ele><time>2017-9-17T11:36:59Z</time></trkpt>
<trkpt lat="48.431716" lon="2.684639"><ele></ele><time>2017-9-17T11:37:2Z</time></trkpt>
<trkpt lat="48.431646" lon="2.684806"><ele></ele><time>2017-9-17T11:37:5Z</time></trkpt>
<trkpt lat="48.431592" lon="2.684978"><ele></ele><time>2017-9-17T11:37:8Z</time></trkpt>
<trkpt lat="48.431572" lon="2.685147"><ele></ele><time>2017-9-17T11:37:11Z</time></trkpt>
<trkpt lat="48.431528" lon="2.685329"><ele></ele><time>2017-9-17T11:37:14Z</time></trkpt>
<trkpt lat="48.431476" lon="2.68546"><ele></ele><time>2017-9-17T11:37:17Z</time></trkpt>
<trkpt lat="48.431406" lon="2.685552"><ele></ele><time>2017-9-17T11:37:20Z</time></trkpt>
<trkpt lat="48.431355" lon="2.685705"><ele></ele><time>2017-9-17T11:37:23Z</time></trkpt>
<trkpt lat="48.431308" lon="2.685825"><ele></ele><time>2017-9-17T11:37:26Z</time></trkpt>
<trkpt lat="48.431218" lon="2.685883"><ele></ele><time>2017-9-17T11:37:29Z</time></trkpt>
<trkpt lat="48.431147" lon="2.685994"><ele></ele><time>2017-9-17T11:37:32Z</time></trkpt>
<trkpt lat="48.431091" lon="2.686163"><ele></ele><time>2017-9-17T11:37:35Z</time></trkpt>
<trkpt lat="48.431047" lon="2.686312"><ele></ele><time>2017-9-17T11:37:38Z</time></trkpt>
<trkpt lat="48.430995" lon="2.686473"><ele></ele><time>2017-9-17T11:37:41Z</time></trkpt>
<trkpt lat="48.430935" lon="2.686598"><ele></ele><time>2017-9-17T11:37:44Z</time></trkpt>
<trkpt lat="48.430934" lon="2.686747"><ele></ele><time>2017-9-17T11:37:47Z</time></trkpt>
<trkpt lat="48.430929" lon="2.686933"><ele></ele><time>2017-9-17T11:37:50Z</time></trkpt>
<trkpt lat="48.430886" lon="2.687088"><ele></ele><time>2017-9-17T11:37:53Z</time></trkpt>
<trkpt lat="48.430841" lon="2.687235"><ele></ele><time>2017-9-17T11:37:56Z</time></trkpt>
<trkpt lat="48.430837" lon="2.687395"><ele></ele><time>2017-9-17T11:37:59Z</time></trkpt>
<trkpt lat="48.430812" lon="2.687567"><ele></ele><time>2017-9-17T11:38:2Z</time></trkpt>
<trkpt lat="48.430835" lon="2.687745"><ele></ele><time>2017-9-17T11:38:5Z</time></trkpt>
<trkpt lat="48.430871" lon="2.687886"><ele></ele><time>2017-9-17T11:38:8Z</time></trkpt>
<trkpt lat="48.430958" lon="2.688009"><ele></ele><time>2017-9-17T11:38:11Z</time></trkpt>
<trkpt lat="48.431037" lon="2.688113"><ele></ele><time>2017-9-17T11:38:14Z</time></trkpt>
<trkpt lat="48.431092" lon="2.688223"><ele></ele><time>2017-9-17T11:38:17Z</time></trkpt>
<trkpt lat="48.431162" lon="2.688347"><ele></ele><time>2017-9-17T11:38:20Z</time></trkpt>
<trkpt lat="48.431219" lon="2.688472"><ele></ele><time>2017-9-17T11:38:23Z</time></trkpt>
<trkpt lat="48.431203" lon="2.688628"><ele></ele><time>2017-9-17T11:38:26Z</time></trkpt>
<trkpt lat="48.431196" lon="2.68877"><ele></ele><time>2017-9-17T11:38:29Z</time></trkpt>
<trkpt lat="48.431175" lon="2.688947"><ele></ele><time>2017-9-17T11:38:32Z</time></trkpt>
<trkpt lat="48.431163" lon="2.689115"><ele></ele><time>2017-9-17T11:38:35Z</time></trkpt>
<trkpt lat="48.431199" lon="2.689241"><ele></ele><time>2017-9-17T11:38:38Z</time></trkpt>
<trkpt lat="48.431224" lon="2.689385"><ele></ele><time>2017-9-17T11:38:41Z</time></trkpt>
<trkpt lat="48.431244" lon="2.689524"><ele></ele><time>2017-9-17T11:38:44Z</time></trkpt>
<trkpt lat="48.431255" lon="2.689673"><ele></ele><time>2017-9-17T11:38:47Z</time></trkpt>
<trkpt lat="48.431261" lon="2.689836"><ele></ele><time>2017-9-17T11:38:50Z</time></trkpt>
<trkpt lat="48.431263" lon="2.689974"><ele></ele><time>2017-9-17T11:38:53Z</time></trkpt>
<trkpt lat="48.431278" lon="2.690124"><ele></ele><time>2017-9-17T11:38:56Z</time></trkpt>
<trkpt lat="48.431324" lon="2.690247"><ele></ele><time>2017-9-17T11:38:59Z</time></trkpt>
<trkpt lat="48.431375" lon="2.690396"><ele></ele><time>2017-9-17T11:39:2Z</time></trkpt>
<trkpt lat="48.431416" lon="2.690531"><ele></ele><time>2017-9-17T11:39:5Z</time></trkpt>
<trkpt lat="48.431454" lon="2.690688"><ele></ele><time>2017-9-17T11:39:8Z</time></trkpt>
<trkpt lat="48.431479" lon="2.690836"><ele></ele><time>2017-9-17T11:39:11Z</time></trkpt>
<trkpt lat="48.43156" lon="2.690932"><ele></ele><time>2017-9-17T11:39:14Z</time></trkpt>
<trkpt lat="48.43164" lon="2.691067"><ele></ele><time>2017-9-17T11:39:17Z</time></trkpt>
<trkpt lat="48.431671" lon="2.691211"><ele></ele><time>2017-9-17T11:39:20Z</time></trkpt>
<trkpt lat="48.431736" lon="2.69134"><ele></ele><time>2017-9-17T11:39:23Z</time></trkpt>
<trkpt lat="48.431799" lon="2.691464"><ele></ele><time>2017-9-17T11:39:26Z</time></trkpt>
<trkpt lat="48.431828" lon="2.691623"><ele></ele><time>2017-9-17T11:39:29Z</time></trkpt>
<trkpt lat="48.4319" lon="2.691735"><ele></ele><time>2017-9-17T11:39:32Z</time></trkpt>
<trkpt lat="48.431994" lon="2.691877"><ele></ele><time>2017-9-17T11:39:35Z</time></trkpt>
<trkpt lat="48.432068" lon="2.692008"><ele></ele><time>2017-9-17T11:39:38Z</time></trkpt>
<trkpt lat="48.432153" lon="2.692134"><ele></ele><time>2017-9-17T11:39:41Z</time></trkpt>
<trkpt lat="48.432235" lon="2.692266"><ele></ele><time>2017-9-17T11:39:44Z</time></trkpt>
<trkpt lat="48.432333" lon="2.692407"><ele></ele><time>2017-9-17T11:39:47Z</time></trkpt>
<trkpt lat="48.432401" lon="2.692559"><ele></ele><time>2017-9-17T11:39:50Z</time></trkpt>
<trkpt lat="48.432465" lon="2.692706"><ele></ele><time>2017-9-17T11:39:53Z</time></trkpt>
<trkpt lat="48.432508" lon="2.692839"><ele></ele><time>2017-9-17T11:39:56Z</time></trkpt>
<trkpt lat="48.432593" lon="2.692972"><ele></ele><time>2017-9-17T11:39:59Z</time></trkpt>
<trkpt lat="48.432675" lon="2.693099"><ele></ele><time>2017-9-17T11:40:2Z</time></trkpt>
<trkpt lat="48.432793" lon="2.693269"><ele></ele><time>2017-9-17T11:40:5Z</time></trkpt>
<trkpt lat="48.43289" lon="2.69342"><ele></ele><time>2017-9-17T11:40:8Z</time></trkpt>
<trkpt lat="48.432956" lon="2.693529"><ele></ele><time>2017-9-17T11:40:11Z</time></trkpt>
<trkpt lat="48.433031" lon="2.693658"><ele></ele><time>2017-9-17T11:40:14Z</time></trkpt>
<trkpt lat="48.433093" lon="2.693855"><ele></ele><time>2017-9-17T11:40:17Z</time></trkpt>
<trkpt lat="48.433173" lon="2.693998"><ele></ele><time>2017-9-17T11:40:20Z</time></trkpt>
<trkpt lat="48.433239" lon="2.694111"><ele></ele><time>2017-9-17T11:40:23Z</time></trkpt>
<trkpt lat="48.433309" lon="2.694229"><ele></ele><time>2017-9-17T11:40:26Z</time></trkpt>
<trkpt lat="48.433398" lon="2.694329"><ele></ele><time>2017-9-17T11:40:29Z</time></trkpt>
<trkpt lat="48.433467" lon="2.694474"><ele></ele><time>2017-9-17T11:40:32Z</time></trkpt>
<trkpt lat="48.433546" lon="2.694605"><ele></ele><time>2017-9-17T11:40:35Z</time></trkpt>
<trkpt lat="48.433605" lon="2.694727"><ele></ele><time>2017-9-17T11:40:38Z</time></trkpt>
<trkpt lat="48.433685" lon="2.694868"><ele></ele><time>2017-9-17T11:40:41Z</time></trkpt>
<trkpt lat="48.433757" lon="2.694973"><ele></ele><time>2017-9-17T11:40:44Z</time></trkpt>
<trkpt lat="48.433836" lon="2.695096"><ele></ele><time>2017-9-17T11:40:47Z</time></trkpt>
<trkpt lat="48.433884" lon="2.695211"><ele></ele><time>2017-9-17T11:40:50Z</time></trkpt>
<trkpt lat="48.433946" lon="2.695323"><ele></ele><time>2017-9-17T11:40:53Z</time></trkpt>
<trkpt lat="48.434013" lon="2.695426"><ele></ele><time>2017-9-17T11:40:56Z</time></trkpt>
<trkpt lat="48.434098" lon="2.695574"><ele></ele><time>2017-9-17T11:40:59Z</time></trkpt>
<trkpt lat="48.434163" lon="2.695695"><ele></ele><time>2017-9-17T11:41:2Z</time></trkpt>
<trkpt lat="48.434258" lon="2.695876"><ele></ele><time>2017-9-17T11:41:5Z</time></trkpt>
<trkpt lat="48.434343" lon="2.696025"><ele></ele><time>2017-9-17T11:41:8Z</time></trkpt>
<trkpt lat="48.434397" lon="2.696155"><ele></ele><time>2017-9-17T11:41:11Z</time></trkpt>
<trkpt lat="48.434457" lon="2.696304"><ele></ele><time>2017-9-17T11:41:14Z</time></trkpt>
<trkpt lat="48.434538" lon="2.696416"><ele></ele><time>2017-9-17T11:41:17Z</time></trkpt>
<trkpt lat="48.434645" lon="2.696465"><ele></ele><time>2017-9-17T11:41:20Z</time></trkpt>
<trkpt lat="48.43474" lon="2.6965"><ele></ele><time>2017-9-17T11:41:23Z</time></trkpt>
<trkpt lat="48.434845" lon="2.696534"><ele></ele><time>2017-9-17T11:41:26Z</time></trkpt>
<trkpt lat="48.434955" lon="2.696587"><ele></ele><time>2017-9-17T11:41:29Z</time></trkpt>
<trkpt lat="48.435065" lon="2.696644"><ele></ele><time>2017-9-17T11:41:32Z</time></trkpt>
<trkpt lat="48.435174" lon="2.696685"><ele></ele><time>2017-9-17T11:41:35Z</time></trkpt>
<trkpt lat="48.435285" lon="2.696742"><ele></ele><time>2017-9-17T11:41:38Z</time></trkpt>
<trkpt lat="48.435405" lon="2.696786"><ele></ele><time>2017-9-17T11:41:41Z</time></trkpt>
<trkpt lat="48.435525" lon="2.696838"><ele></ele><time>2017-9-17T11:41:44Z</time></trkpt>
<trkpt lat="48.435619" lon="2.696885"><ele></ele><time>2017-9-17T11:41:47Z</time></trkpt>
<trkpt lat="48.435747" lon="2.696942"><ele></ele><time>2017-9-17T11:41:50Z</time></trkpt>
<trkpt lat="48.435857" lon="2.696998"><ele></ele><time>2017-9-17T11:41:53Z</time></trkpt>
<trkpt lat="48.435979" lon="2.697045"><ele></ele><time>2017-9-17T11:41:56Z</time></trkpt>
<trkpt lat="48.436071" lon="2.69708"><ele></ele><time>2017-9-17T11:41:59Z</time></trkpt>
<trkpt lat="48.436175" lon="2.69714"><ele></ele><time>2017-9-17T11:42:2Z</time></trkpt>
<trkpt lat="48.43626" lon="2.697196"><ele></ele><time>2017-9-17T11:42:5Z</time></trkpt>
<trkpt lat="48.436348" lon="2.697259"><ele></ele><time>2017-9-17T11:42:8Z</time></trkpt>
<trkpt lat="48.436442" lon="2.697271"><ele></ele><time>2017-9-17T11:42:11Z</time></trkpt>
<trkpt lat="48.436541" lon="2.697326"><ele></ele><time>2017-9-17T11:42:14Z</time></trkpt>
<trkpt lat="48.436637" lon="2.697357"><ele></ele><time>2017-9-17T11:42:17Z</time></trkpt>
<trkpt lat="48.436724" lon="2.697397"><ele></ele><time>2017-9-17T11:42:20Z</time></trkpt>
<trkpt lat="48.436819" lon="2.697464"><ele></ele><time>2017-9-17T11:42:23Z</time></trkpt>
<trkpt lat="48.436909" lon="2.697476"><ele></ele><time>2017-9-17T11:42:26Z</time></trkpt>
<trkpt lat="48.436996" lon="2.697519"><ele></ele><time>2017-9-17T11:42:29Z</time></trkpt>
<trkpt lat="48.437097" lon="2.697555"><ele></ele><time>2017-9-17T11:42:32Z</time></trkpt>
<trkpt lat="48.437189" lon="2.697598"><ele></ele><time>2017-9-17T11:42:35Z</time></trkpt>
<trkpt lat="48.437274" lon="2.697648"><ele></ele><time>2017-9-17T11:42:38Z</time></trkpt>
<trkpt lat="48.437375" lon="2.697669"><ele></ele><time>2017-9-17T11:42:41Z</time></trkpt>
<trkpt lat="48.437463" lon="2.697727"><ele></ele><time>2017-9-17T11:42:44Z</time></trkpt>
<trkpt lat="48.437542" lon="2.697794"><ele></ele><time>2017-9-17T11:42:47Z</time></trkpt>
<trkpt lat="48.437616" lon="2.697879"><ele></ele><time>2017-9-17T11:42:50Z</time></trkpt>
<trkpt lat="48.437698" lon="2.697949"><ele></ele><time>2017-9-17T11:42:53Z</time></trkpt>
<trkpt lat="48.437811" lon="2.698022"><ele></ele><time>2017-9-17T11:42:56Z</time></trkpt>
<trkpt lat="48.437878" lon="2.698127"><ele></ele><time>2017-9-17T11:42:59Z</time></trkpt>
<trkpt lat="48.43797" lon="2.698195"><ele></ele><time>2017-9-17T11:43:2Z</time></trkpt>
<trkpt lat="48.438075" lon="2.698212"><ele></ele><time>2017-9-17T11:43:5Z</time></trkpt>
<trkpt lat="48.438169" lon="2.698222"><ele></ele><time>2017-9-17T11:43:8Z</time></trkpt>
<trkpt lat="48.438255" lon="2.698146"><ele></ele><time>2017-9-17T11:43:11Z</time></trkpt>
<trkpt lat="48.43834" lon="2.698039"><ele></ele><time>2017-9-17T11:43:14Z</time></trkpt>
<trkpt lat="48.438419" lon="2.697969"><ele></ele><time>2017-9-17T11:43:17Z</time></trkpt>
<trkpt lat="48.438493" lon="2.697858"><ele></ele><time>2017-9-17T11:43:20Z</time></trkpt>
<trkpt lat="48.438575" lon="2.697739"><ele></ele><time>2017-9-17T11:43:23Z</time></trkpt>
<trkpt lat="48.438658" lon="2.697656"><ele></ele><time>2017-9-17T11:43:26Z</time></trkpt>
<trkpt lat="48.438755" lon="2.697633"><ele></ele><time>2017-9-17T11:43:29Z</time></trkpt>
<trkpt lat="48.438849" lon="2.697702"><ele></ele><time>2017-9-17T11:43:32Z</time></trkpt>
<trkpt lat="48.438992" lon="2.697717"><ele></ele><time>2017-9-17T11:43:35Z</time></trkpt>
<trkpt lat="48.439089" lon="2.697709"><ele></ele><time>2017-9-17T11:43:38Z</time></trkpt>
<trkpt lat="48.439191" lon="2.697695"><ele></ele><time>2017-9-17T11:43:41Z</time></trkpt>
<trkpt lat="48.439298" lon="2.697689"><ele></ele><time>2017-9-17T11:43:44Z</time></trkpt>
<trkpt lat="48.439412" lon="2.697697"><ele></ele><time>2017-9-17T11:43:47Z</time></trkpt>
<trkpt lat="48.439505" lon="2.697708"><ele></ele><time>2017-9-17T11:43:50Z</time></trkpt>
<trkpt lat="48.439646" lon="2.697721"><ele></ele><time>2017-9-17T11:43:53Z</time></trkpt>
<trkpt lat="48.439791" lon="2.697739"><ele></ele><time>2017-9-17T11:43:56Z</time></trkpt>
<trkpt lat="48.439927" lon="2.697774"><ele></ele><time>2017-9-17T11:43:59Z</time></trkpt>
<trkpt lat="48.440069" lon="2.6978"><ele></ele><time>2017-9-17T11:44:2Z</time></trkpt>
<trkpt lat="48.440166" lon="2.697824"><ele></ele><time>2017-9-17T11:44:5Z</time></trkpt>
<trkpt lat="48.440275" lon="2.697932"><ele></ele><time>2017-9-17T11:44:8Z</time></trkpt>
<trkpt lat="48.440337" lon="2.698052"><ele></ele><time>2017-9-17T11:44:11Z</time></trkpt>
<trkpt lat="48.440366" lon="2.698232"><ele></ele><time>2017-9-17T11:44:14Z</time></trkpt>
<trkpt lat="48.440361" lon="2.698399"><ele></ele><time>2017-9-17T11:44:17Z</time></trkpt>
<trkpt lat="48.440347" lon="2.698559"><ele></ele><time>2017-9-17T11:44:20Z</time></trkpt>
<trkpt lat="48.440363" lon="2.69871"><ele></ele><time>2017-9-17T11:44:23Z</time></trkpt>
<trkpt lat="48.440334" lon="2.698861"><ele></ele><time>2017-9-17T11:44:26Z</time></trkpt>
<trkpt lat="48.440317" lon="2.699019"><ele></ele><time>2017-9-17T11:44:29Z</time></trkpt>
<trkpt lat="48.440266" lon="2.699185"><ele></ele><time>2017-9-17T11:44:32Z</time></trkpt>
<trkpt lat="48.440249" lon="2.699352"><ele></ele><time>2017-9-17T11:44:35Z</time></trkpt>
<trkpt lat="48.440225" lon="2.699516"><ele></ele><time>2017-9-17T11:44:38Z</time></trkpt>
<trkpt lat="48.44022" lon="2.699672"><ele></ele><time>2017-9-17T11:44:41Z</time></trkpt>
<trkpt lat="48.440181" lon="2.69982"><ele></ele><time>2017-9-17T11:44:44Z</time></trkpt>
<trkpt lat="48.440163" lon="2.699972"><ele></ele><time>2017-9-17T11:44:47Z</time></trkpt>
<trkpt lat="48.440137" lon="2.700143"><ele></ele><time>2017-9-17T11:44:50Z</time></trkpt>
<trkpt lat="48.440122" lon="2.700283"><ele></ele><time>2017-9-17T11:44:53Z</time></trkpt>
<trkpt lat="48.440084" lon="2.700443"><ele></ele><time>2017-9-17T11:44:56Z</time></trkpt>
<trkpt lat="48.440068" lon="2.700582"><ele></ele><time>2017-9-17T11:44:59Z</time></trkpt>
<trkpt lat="48.440079" lon="2.700725"><ele></ele><time>2017-9-17T11:45:2Z</time></trkpt>
<trkpt lat="48.440041" lon="2.700869"><ele></ele><time>2017-9-17T11:45:5Z</time></trkpt>
<trkpt lat="48.440043" lon="2.701025"><ele></ele><time>2017-9-17T11:45:8Z</time></trkpt>
<trkpt lat="48.440034" lon="2.701191"><ele></ele><time>2017-9-17T11:45:11Z</time></trkpt>
<trkpt lat="48.440015" lon="2.701325"><ele></ele><time>2017-9-17T11:45:14Z</time></trkpt>
<trkpt lat="48.43999" lon="2.7015"><ele></ele><time>2017-9-17T11:45:17Z</time></trkpt>
<trkpt lat="48.439963" lon="2.70163"><ele></ele><time>2017-9-17T11:45:20Z</time></trkpt>
<trkpt lat="48.439947" lon="2.701804"><ele></ele><time>2017-9-17T11:45:23Z</time></trkpt>
<trkpt lat="48.439921" lon="2.70194"><ele></ele><time>2017-9-17T11:45:26Z</time></trkpt>
<trkpt lat="48.439882" lon="2.702063"><ele></ele><time>2017-9-17T11:45:29Z</time></trkpt>
<trkpt lat="48.439873" lon="2.702208"><ele></ele><time>2017-9-17T11:45:32Z</time></trkpt>
<trkpt lat="48.439894" lon="2.702375"><ele></ele><time>2017-9-17T11:45:35Z</time></trkpt>
<trkpt lat="48.439882" lon="2.702537"><ele></ele><time>2017-9-17T11:45:38Z</time></trkpt>
<trkpt lat="48.439847" lon="2.702681"><ele></ele><time>2017-9-17T11:45:41Z</time></trkpt>
<trkpt lat="48.439815" lon="2.702811"><ele></ele><time>2017-9-17T11:45:44Z</time></trkpt>
<trkpt lat="48.439768" lon="2.702929"><ele></ele><time>2017-9-17T11:45:47Z</time></trkpt>
<trkpt lat="48.439682" lon="2.703039"><ele></ele><time>2017-9-17T11:45:50Z</time></trkpt>
<trkpt lat="48.43958" lon="2.703128"><ele></ele><time>2017-9-17T11:45:53Z</time></trkpt>
<trkpt lat="48.439492" lon="2.703208"><ele></ele><time>2017-9-17T11:45:56Z</time></trkpt>
<trkpt lat="48.439388" lon="2.703259"><ele></ele><time>2017-9-17T11:45:59Z</time></trkpt>
<trkpt lat="48.439311" lon="2.703332"><ele></ele><time>2017-9-17T11:46:2Z</time></trkpt>
<trkpt lat="48.439262" lon="2.703476"><ele></ele><time>2017-9-17T11:46:5Z</time></trkpt>
<trkpt lat="48.439244" lon="2.703648"><ele></ele><time>2017-9-17T11:46:8Z</time></trkpt>
<trkpt lat="48.439231" lon="2.703802"><ele></ele><time>2017-9-17T11:46:11Z</time></trkpt>
<trkpt lat="48.43922" lon="2.703953"><ele></ele><time>2017-9-17T11:46:14Z</time></trkpt>
<trkpt lat="48.439228" lon="2.704101"><ele></ele><time>2017-9-17T11:46:17Z</time></trkpt>
<trkpt lat="48.439243" lon="2.704248"><ele></ele><time>2017-9-17T11:46:20Z</time></trkpt>
<trkpt lat="48.43925" lon="2.704417"><ele></ele><time>2017-9-17T11:46:23Z</time></trkpt>
<trkpt lat="48.4393" lon="2.704588"><ele></ele><time>2017-9-17T11:46:26Z</time></trkpt>
<trkpt lat="48.439316" lon="2.704752"><ele></ele><time>2017-9-17T11:46:29Z</time></trkpt>
<trkpt lat="48.439308" lon="2.704931"><ele></ele><time>2017-9-17T11:46:32Z</time></trkpt>
<trkpt lat="48.439305" lon="2.705077"><ele></ele><time>2017-9-17T11:46:35Z</time></trkpt>
<trkpt lat="48.439276" lon="2.705223"><ele></ele><time>2017-9-17T11:46:38Z</time></trkpt>
<trkpt lat="48.439237" lon="2.70537"><ele></ele><time>2017-9-17T11:46:41Z</time></trkpt>
<trkpt lat="48.439196" lon="2.705523"><ele></ele><time>2017-9-17T11:46:44Z</time></trkpt>
<trkpt lat="48.439159" lon="2.705694"><ele></ele><time>2017-9-17T11:46:47Z</time></trkpt>
<trkpt lat="48.439123" lon="2.705838"><ele></ele><time>2017-9-17T11:46:50Z</time></trkpt>
<trkpt lat="48.439115" lon="2.70598"><ele></ele><time>2017-9-17T11:46:53Z</time></trkpt>
<trkpt lat="48.439106" lon="2.706122"><ele></ele><time>2017-9-17T11:46:56Z</time></trkpt>
<trkpt lat="48.439082" lon="2.706276"><ele></ele><time>2017-9-17T11:46:59Z</time></trkpt>
<trkpt lat="48.439087" lon="2.706418"><ele></ele><time>2017-9-17T11:47:2Z</time></trkpt>
<trkpt lat="48.439073" lon="2.706581"><ele></ele><time>2017-9-17T11:47:5Z</time></trkpt>
<trkpt lat="48.439045" lon="2.706737"><ele></ele><time>2017-9-17T11:47:8Z</time></trkpt>
<trkpt lat="48.43901" lon="2.706888"><ele></ele><time>2017-9-17T11:47:11Z</time></trkpt>
<trkpt lat="48.438956" lon="2.707021"><ele></ele><time>2017-9-17T11:47:14Z</time></trkpt>
<trkpt lat="48.438903" lon="2.707162"><ele></ele><time>2017-9-17T11:47:17Z</time></trkpt>
<trkpt lat="48.438891" lon="2.707319"><ele></ele><time>2017-9-17T11:47:20Z</time></trkpt>
<trkpt lat="48.438851" lon="2.707445"><ele></ele><time>2017-9-17T11:47:23Z</time></trkpt>
<trkpt lat="48.438826" lon="2.707626"><ele></ele><time>2017-9-17T11:47:26Z</time></trkpt>
<trkpt lat="48.438818" lon="2.707762"><ele></ele><time>2017-9-17T11:47:29Z</time></trkpt>
<trkpt lat="48.438791" lon="2.70794"><ele></ele><time>2017-9-17T11:47:32Z</time></trkpt>
<trkpt lat="48.438773" lon="2.708094"><ele></ele><time>2017-9-17T11:47:35Z</time></trkpt>
<trkpt lat="48.438736" lon="2.708249"><ele></ele><time>2017-9-17T11:47:38Z</time></trkpt>
<trkpt lat="48.438689" lon="2.708423"><ele></ele><time>2017-9-17T11:47:41Z</time></trkpt>
<trkpt lat="48.438642" lon="2.708586"><ele></ele><time>2017-9-17T11:47:44Z</time></trkpt>
<trkpt lat="48.438613" lon="2.708738"><ele></ele><time>2017-9-17T11:47:47Z</time></trkpt>
<trkpt lat="48.438575" lon="2.708902"><ele></ele><time>2017-9-17T11:47:50Z</time></trkpt>
<trkpt lat="48.438536" lon="2.709074"><ele></ele><time>2017-9-17T11:47:53Z</time></trkpt>
<trkpt lat="48.438506" lon="2.709263"><ele></ele><time>2017-9-17T11:47:56Z</time></trkpt>
<trkpt lat="48.438471" lon="2.709436"><ele></ele><time>2017-9-17T11:47:59Z</time></trkpt>
<trkpt lat="48.438445" lon="2.709619"><ele></ele><time>2017-9-17T11:48:2Z</time></trkpt>
<trkpt lat="48.4384" lon="2.709757"><ele></ele><time>2017-9-17T11:48:5Z</time></trkpt>
<trkpt lat="48.43835" lon="2.709919"><ele></ele><time>2017-9-17T11:48:8Z</time></trkpt>
<trkpt lat="48.438311" lon="2.710094"><ele></ele><time>2017-9-17T11:48:11Z</time></trkpt>
<trkpt lat="48.43829" lon="2.710262"><ele></ele><time>2017-9-17T11:48:14Z</time></trkpt>
<trkpt lat="48.438275" lon="2.710411"><ele></ele><time>2017-9-17T11:48:17Z</time></trkpt>
<trkpt lat="48.438235" lon="2.710576"><ele></ele><time>2017-9-17T11:48:20Z</time></trkpt>
<trkpt lat="48.438215" lon="2.710788"><ele></ele><time>2017-9-17T11:48:23Z</time></trkpt>
<trkpt lat="48.438184" lon="2.711004"><ele></ele><time>2017-9-17T11:48:26Z</time></trkpt>
<trkpt lat="48.438165" lon="2.711243"><ele></ele><time>2017-9-17T11:48:29Z</time></trkpt>
<trkpt lat="48.438114" lon="2.711398"><ele></ele><time>2017-9-17T11:48:32Z</time></trkpt>
<trkpt lat="48.438067" lon="2.711596"><ele></ele><time>2017-9-17T11:48:35Z</time></trkpt>
<trkpt lat="48.438036" lon="2.711822"><ele></ele><time>2017-9-17T11:48:38Z</time></trkpt>
<trkpt lat="48.437991" lon="2.712043"><ele></ele><time>2017-9-17T11:48:41Z</time></trkpt>
<trkpt lat="48.437968" lon="2.712214"><ele></ele><time>2017-9-17T11:48:44Z</time></trkpt>
<trkpt lat="48.43794" lon="2.712438"><ele></ele><time>2017-9-17T11:48:47Z</time></trkpt>
<trkpt lat="48.437938" lon="2.712583"><ele></ele><time>2017-9-17T11:48:50Z</time></trkpt>
<trkpt lat="48.437916" lon="2.712787"><ele></ele><time>2017-9-17T11:48:53Z</time></trkpt>
<trkpt lat="48.437879" lon="2.712929"><ele></ele><time>2017-9-17T11:48:56Z</time></trkpt>
<trkpt lat="48.437859" lon="2.713093"><ele></ele><time>2017-9-17T11:48:59Z</time></trkpt>
<trkpt lat="48.437821" lon="2.71328"><ele></ele><time>2017-9-17T11:49:2Z</time></trkpt>
<trkpt lat="48.437781" lon="2.713484"><ele></ele><time>2017-9-17T11:49:5Z</time></trkpt>
<trkpt lat="48.437786" lon="2.713655"><ele></ele><time>2017-9-17T11:49:8Z</time></trkpt>
<trkpt lat="48.437775" lon="2.713843"><ele></ele><time>2017-9-17T11:49:11Z</time></trkpt>
<trkpt lat="48.437772" lon="2.713999"><ele></ele><time>2017-9-17T11:49:14Z</time></trkpt>
<trkpt lat="48.437732" lon="2.71419"><ele></ele><time>2017-9-17T11:49:17Z</time></trkpt>
<trkpt lat="48.437717" lon="2.714357"><ele></ele><time>2017-9-17T11:49:20Z</time></trkpt>
<trkpt lat="48.437695" lon="2.714543"><ele></ele><time>2017-9-17T11:49:23Z</time></trkpt>
<trkpt lat="48.437681" lon="2.714689"><ele></ele><time>2017-9-17T11:49:26Z</time></trkpt>
<trkpt lat="48.437672" lon="2.714842"><ele></ele><time>2017-9-17T11:49:29Z</time></trkpt>
<trkpt lat="48.437663" lon="2.714979"><ele></ele><time>2017-9-17T11:49:32Z</time></trkpt>
<trkpt lat="48.437629" lon="2.715124"><ele></ele><time>2017-9-17T11:49:35Z</time></trkpt>
<trkpt lat="48.43761" lon="2.715295"><ele></ele><time>2017-9-17T11:49:38Z</time></trkpt>
<trkpt lat="48.437618" lon="2.715476"><ele></ele><time>2017-9-17T11:49:41Z</time></trkpt>
<trkpt lat="48.437577" lon="2.715618"><ele></ele><time>2017-9-17T11:49:44Z</time></trkpt>
<trkpt lat="48.437554" lon="2.715763"><ele></ele><time>2017-9-17T11:49:47Z</time></trkpt>
<trkpt lat="48.437537" lon="2.715937"><ele></ele><time>2017-9-17T11:49:50Z</time></trkpt>
<trkpt lat="48.437489" lon="2.716144"><ele></ele><time>2017-9-17T11:49:53Z</time></trkpt>
<trkpt lat="48.437457" lon="2.716319"><ele></ele><time>2017-9-17T11:49:56Z</time></trkpt>
<trkpt lat="48.437448" lon="2.716467"><ele></ele><time>2017-9-17T11:49:59Z</time></trkpt>
<trkpt lat="48.437428" lon="2.716601"><ele></ele><time>2017-9-17T11:50:2Z</time></trkpt>
<trkpt lat="48.437413" lon="2.716794"><ele></ele><time>2017-9-17T11:50:5Z</time></trkpt>
<trkpt lat="48.437401" lon="2.716933"><ele></ele><time>2017-9-17T11:50:8Z</time></trkpt>
<trkpt lat="48.437381" lon="2.71709"><ele></ele><time>2017-9-17T11:50:11Z</time></trkpt>
<trkpt lat="48.437355" lon="2.717265"><ele></ele><time>2017-9-17T11:50:14Z</time></trkpt>
<trkpt lat="48.437316" lon="2.717451"><ele></ele><time>2017-9-17T11:50:17Z</time></trkpt>
<trkpt lat="48.437281" lon="2.71758"><ele></ele><time>2017-9-17T11:50:20Z</time></trkpt>
<trkpt lat="48.437272" lon="2.717743"><ele></ele><time>2017-9-17T11:50:23Z</time></trkpt>
<trkpt lat="48.437268" lon="2.717912"><ele></ele><time>2017-9-17T11:50:26Z</time></trkpt>
<trkpt lat="48.437251" lon="2.718073"><ele></ele><time>2017-9-17T11:50:29Z</time></trkpt>
<trkpt lat="48.437232" lon="2.718232"><ele></ele><time>2017-9-17T11:50:32Z</time></trkpt>
<trkpt lat="48.437205" lon="2.718392"><ele></ele><time>2017-9-17T11:50:35Z</time></trkpt>
<trkpt lat="48.437197" lon="2.718531"><ele></ele><time>2017-9-17T11:50:38Z</time></trkpt>
<trkpt lat="48.437168" lon="2.718673"><ele></ele><time>2017-9-17T11:50:41Z</time></trkpt>
<trkpt lat="48.437072" lon="2.718722"><ele></ele><time>2017-9-17T11:50:44Z</time></trkpt>
<trkpt lat="48.436965" lon="2.71868"><ele></ele><time>2017-9-17T11:50:47Z</time></trkpt>
<trkpt lat="48.436882" lon="2.718624"><ele></ele><time>2017-9-17T11:50:50Z</time></trkpt>
<trkpt lat="48.436786" lon="2.718566"><ele></ele><time>2017-9-17T11:50:53Z</time></trkpt>
<trkpt lat="48.436679" lon="2.718521"><ele></ele><time>2017-9-17T11:50:56Z</time></trkpt>
<trkpt lat="48.436597" lon="2.718464"><ele></ele><time>2017-9-17T11:50:59Z</time></trkpt>
<trkpt lat="48.436499" lon="2.718434"><ele></ele><time>2017-9-17T11:51:2Z</time></trkpt>
<trkpt lat="48.43639" lon="2.718384"><ele></ele><time>2017-9-17T11:51:5Z</time></trkpt>
<trkpt lat="48.436267" lon="2.718345"><ele></ele><time>2017-9-17T11:51:8Z</time></trkpt>
<trkpt lat="48.436176" lon="2.718267"><ele></ele><time>2017-9-17T11:51:11Z</time></trkpt>
<trkpt lat="48.436081" lon="2.718213"><ele></ele><time>2017-9-17T11:51:14Z</time></trkpt>
<trkpt lat="48.435981" lon="2.718179"><ele></ele><time>2017-9-17T11:51:17Z</time></trkpt>
<trkpt lat="48.435892" lon="2.718144"><ele></ele><time>2017-9-17T11:51:20Z</time></trkpt>
<trkpt lat="48.435797" lon="2.718076"><ele></ele><time>2017-9-17T11:51:23Z</time></trkpt>
<trkpt lat="48.43569" lon="2.718021"><ele></ele><time>2017-9-17T11:51:26Z</time></trkpt>
<trkpt lat="48.435605" lon="2.717971"><ele></ele><time>2017-9-17T11:51:29Z</time></trkpt>
<trkpt lat="48.435512" lon="2.717938"><ele></ele><time>2017-9-17T11:51:32Z</time></trkpt>
<trkpt lat="48.435415" lon="2.717906"><ele></ele><time>2017-9-17T11:51:35Z</time></trkpt>
<trkpt lat="48.435306" lon="2.717882"><ele></ele><time>2017-9-17T11:51:38Z</time></trkpt>
<trkpt lat="48.4352" lon="2.71784"><ele></ele><time>2017-9-17T11:51:41Z</time></trkpt>
<trkpt lat="48.435098" lon="2.717838"><ele></ele><time>2017-9-17T11:51:44Z</time></trkpt>
<trkpt lat="48.435023" lon="2.717744"><ele></ele><time>2017-9-17T11:51:47Z</time></trkpt>
<trkpt lat="48.434925" lon="2.717682"><ele></ele><time>2017-9-17T11:51:50Z</time></trkpt>
<trkpt lat="48.434844" lon="2.717599"><ele></ele><time>2017-9-17T11:51:53Z</time></trkpt>
<trkpt lat="48.434759" lon="2.717557"><ele></ele><time>2017-9-17T11:51:56Z</time></trkpt>
<trkpt lat="48.434669" lon="2.717535"><ele></ele><time>2017-9-17T11:51:59Z</time></trkpt>
<trkpt lat="48.434574" lon="2.717545"><ele></ele><time>2017-9-17T11:52:2Z</time></trkpt>
<trkpt lat="48.434488" lon="2.717502"><ele></ele><time>2017-9-17T11:52:5Z</time></trkpt>
<trkpt lat="48.434382" lon="2.717464"><ele></ele><time>2017-9-17T11:52:8Z</time></trkpt>
<trkpt lat="48.434286" lon="2.717367"><ele></ele><time>2017-9-17T11:52:11Z</time></trkpt>
<trkpt lat="48.43414" lon="2.717318"><ele></ele><time>2017-9-17T11:52:14Z</time></trkpt>
<trkpt lat="48.434048" lon="2.717315"><ele></ele><time>2017-9-17T11:52:17Z</time></trkpt>
<trkpt lat="48.433934" lon="2.71726"><ele></ele><time>2017-9-17T11:52:20Z</time></trkpt>
<trkpt lat="48.433839" lon="2.717136"><ele></ele><time>2017-9-17T11:52:23Z</time></trkpt>
<trkpt lat="48.433794" lon="2.716991"><ele></ele><time>2017-9-17T11:52:26Z</time></trkpt>
<trkpt lat="48.433815" lon="2.716856"><ele></ele><time>2017-9-17T11:52:29Z</time></trkpt>
<trkpt lat="48.433882" lon="2.716722"><ele></ele><time>2017-9-17T11:52:32Z</time></trkpt>
<trkpt lat="48.433895" lon="2.716566"><ele></ele><time>2017-9-17T11:52:35Z</time></trkpt>
<trkpt lat="48.433897" lon="2.716426"><ele></ele><time>2017-9-17T11:52:38Z</time></trkpt>
<trkpt lat="48.433933" lon="2.716292"><ele></ele><time>2017-9-17T11:52:41Z</time></trkpt>
<trkpt lat="48.433946" lon="2.716139"><ele></ele><time>2017-9-17T11:52:44Z</time></trkpt>
<trkpt lat="48.433966" lon="2.715996"><ele></ele><time>2017-9-17T11:52:47Z</time></trkpt>
<trkpt lat="48.434009" lon="2.715867"><ele></ele><time>2017-9-17T11:52:50Z</time></trkpt>
<trkpt lat="48.434055" lon="2.715733"><ele></ele><time>2017-9-17T11:52:53Z</time></trkpt>
<trkpt lat="48.434014" lon="2.715589"><ele></ele><time>2017-9-17T11:52:56Z</time></trkpt>
<trkpt lat="48.434057" lon="2.715415"><ele></ele><time>2017-9-17T11:52:59Z</time></trkpt>
<trkpt lat="48.434063" lon="2.71527"><ele></ele><time>2017-9-17T11:53:2Z</time></trkpt>
<trkpt lat="48.434099" lon="2.715115"><ele></ele><time>2017-9-17T11:53:5Z</time></trkpt>
<trkpt lat="48.434104" lon="2.714947"><ele></ele><time>2017-9-17T11:53:8Z</time></trkpt>
<trkpt lat="48.434122" lon="2.714767"><ele></ele><time>2017-9-17T11:53:11Z</time></trkpt>
<trkpt lat="48.434113" lon="2.714602"><ele></ele><time>2017-9-17T11:53:14Z</time></trkpt>
<trkpt lat="48.434133" lon="2.714446"><ele></ele><time>2017-9-17T11:53:17Z</time></trkpt>
<trkpt lat="48.434146" lon="2.714311"><ele></ele><time>2017-9-17T11:53:20Z</time></trkpt>
<trkpt lat="48.434211" lon="2.714152"><ele></ele><time>2017-9-17T11:53:23Z</time></trkpt>
<trkpt lat="48.434219" lon="2.714006"><ele></ele><time>2017-9-17T11:53:26Z</time></trkpt>
<trkpt lat="48.434256" lon="2.713843"><ele></ele><time>2017-9-17T11:53:29Z</time></trkpt>
<trkpt lat="48.434274" lon="2.713693"><ele></ele><time>2017-9-17T11:53:32Z</time></trkpt>
<trkpt lat="48.43429" lon="2.713537"><ele></ele><time>2017-9-17T11:53:35Z</time></trkpt>
<trkpt lat="48.434324" lon="2.713405"><ele></ele><time>2017-9-17T11:53:38Z</time></trkpt>
<trkpt lat="48.434393" lon="2.713246"><ele></ele><time>2017-9-17T11:53:41Z</time></trkpt>
<trkpt lat="48.434394" lon="2.713091"><ele></ele><time>2017-9-17T11:53:44Z</time></trkpt>
<trkpt lat="48.434336" lon="2.712967"><ele></ele><time>2017-9-17T11:53:47Z</time></trkpt>
<trkpt lat="48.434336" lon="2.712783"><ele></ele><time>2017-9-17T11:53:50Z</time></trkpt>
<trkpt lat="48.434354" lon="2.712634"><ele></ele><time>2017-9-17T11:53:53Z</time></trkpt>
<trkpt lat="48.43438" lon="2.712448"><ele></ele><time>2017-9-17T11:53:56Z</time></trkpt>
<trkpt lat="48.434409" lon="2.712317"><ele></ele><time>2017-9-17T11:53:59Z</time></trkpt>
<trkpt lat="48.434423" lon="2.712122"><ele></ele><time>2017-9-17T11:54:2Z</time></trkpt>
<trkpt lat="48.434395" lon="2.711956"><ele></ele><time>2017-9-17T11:54:5Z</time></trkpt>
<trkpt lat="48.434391" lon="2.711812"><ele></ele><time>2017-9-17T11:54:8Z</time></trkpt>
<trkpt lat="48.434375" lon="2.711623"><ele></ele><time>2017-9-17T11:54:11Z</time></trkpt>
<trkpt lat="48.434417" lon="2.711492"><ele></ele><time>2017-9-17T11:54:14Z</time></trkpt>
<trkpt lat="48.434422" lon="2.711321"><ele></ele><time>2017-9-17T11:54:17Z</time></trkpt>
<trkpt lat="48.434494" lon="2.711169"><ele></ele><time>2017-9-17T11:54:20Z</time></trkpt>
<trkpt lat="48.434523" lon="2.711006"><ele></ele><time>2017-9-17T11:54:23Z</time></trkpt>
<trkpt lat="48.434536" lon="2.710871"><ele></ele><time>2017-9-17T11:54:26Z</time></trkpt>
<trkpt lat="48.434537" lon="2.710709"><ele></ele><time>2017-9-17T11:54:29Z</time></trkpt>
<trkpt lat="48.434648" lon="2.710568"><ele></ele><time>2017-9-17T11:54:32Z</time></trkpt>
<trkpt lat="48.43473" lon="2.710461"><ele></ele><time>2017-9-17T11:54:35Z</time></trkpt>
<trkpt lat="48.434846" lon="2.710495"><ele></ele><time>2017-9-17T11:54:38Z</time></trkpt>
<trkpt lat="48.434941" lon="2.710544"><ele></ele><time>2017-9-17T11:54:41Z</time></trkpt>
<trkpt lat="48.435001" lon="2.710671"><ele></ele><time>2017-9-17T11:54:44Z</time></trkpt>
<trkpt lat="48.435083" lon="2.710744"><ele></ele><time>2017-9-17T11:54:47Z</time></trkpt>
<trkpt lat="48.435177" lon="2.710806"><ele></ele><time>2017-9-17T11:54:50Z</time></trkpt>
<trkpt lat="48.435274" lon="2.710805"><ele></ele><time>2017-9-17T11:54:53Z</time></trkpt>
<trkpt lat="48.435364" lon="2.71077"><ele></ele><time>2017-9-17T11:54:56Z</time></trkpt>
<trkpt lat="48.435456" lon="2.710714"><ele></ele><time>2017-9-17T11:54:59Z</time></trkpt>
<trkpt lat="48.435552" lon="2.710682"><ele></ele><time>2017-9-17T11:55:2Z</time></trkpt>
<trkpt lat="48.435643" lon="2.71065"><ele></ele><time>2017-9-17T11:55:5Z</time></trkpt>
<trkpt lat="48.435727" lon="2.71057"><ele></ele><time>2017-9-17T11:55:8Z</time></trkpt>
<trkpt lat="48.435821" lon="2.710507"><ele></ele><time>2017-9-17T11:55:11Z</time></trkpt>
<trkpt lat="48.435904" lon="2.710418"><ele></ele><time>2017-9-17T11:55:14Z</time></trkpt>
<trkpt lat="48.435947" lon="2.710289"><ele></ele><time>2017-9-17T11:55:17Z</time></trkpt>
<trkpt lat="48.436009" lon="2.710161"><ele></ele><time>2017-9-17T11:55:20Z</time></trkpt>
<trkpt lat="48.436081" lon="2.710069"><ele></ele><time>2017-9-17T11:55:23Z</time></trkpt>
<trkpt lat="48.436155" lon="2.709979"><ele></ele><time>2017-9-17T11:55:26Z</time></trkpt>
<trkpt lat="48.436228" lon="2.70988"><ele></ele><time>2017-9-17T11:55:29Z</time></trkpt>
<trkpt lat="48.436281" lon="2.709741"><ele></ele><time>2017-9-17T11:55:32Z</time></trkpt>
<trkpt lat="48.436351" lon="2.709611"><ele></ele><time>2017-9-17T11:55:35Z</time></trkpt>
<trkpt lat="48.436411" lon="2.709465"><ele></ele><time>2017-9-17T11:55:38Z</time></trkpt>
<trkpt lat="48.436492" lon="2.709364"><ele></ele><time>2017-9-17T11:55:41Z</time></trkpt>
<trkpt lat="48.436558" lon="2.709268"><ele></ele><time>2017-9-17T11:55:44Z</time></trkpt>
<trkpt lat="48.436614" lon="2.70916"><ele></ele><time>2017-9-17T11:55:47Z</time></trkpt>
<trkpt lat="48.436661" lon="2.70902"><ele></ele><time>2017-9-17T11:55:50Z</time></trkpt>
<trkpt lat="48.43673" lon="2.708906"><ele></ele><time>2017-9-17T11:55:53Z</time></trkpt>
<trkpt lat="48.436793" lon="2.708765"><ele></ele><time>2017-9-17T11:55:56Z</time></trkpt>
<trkpt lat="48.436882" lon="2.70866"><ele></ele><time>2017-9-17T11:55:59Z</time></trkpt>
<trkpt lat="48.436909" lon="2.708505"><ele></ele><time>2017-9-17T11:56:2Z</time></trkpt>
<trkpt lat="48.43699" lon="2.708411"><ele></ele><time>2017-9-17T11:56:5Z</time></trkpt>
<trkpt lat="48.437141" lon="2.708325"><ele></ele><time>2017-9-17T11:56:8Z</time></trkpt>
<trkpt lat="48.437245" lon="2.708297"><ele></ele><time>2017-9-17T11:56:11Z</time></trkpt>
<trkpt lat="48.437356" lon="2.708308"><ele></ele><time>2017-9-17T11:56:14Z</time></trkpt>
<trkpt lat="48.43746" lon="2.708353"><ele></ele><time>2017-9-17T11:56:17Z</time></trkpt>
<trkpt lat="48.437565" lon="2.708365"><ele></ele><time>2017-9-17T11:56:20Z</time></trkpt>
<trkpt lat="48.437659" lon="2.708301"><ele></ele><time>2017-9-17T11:56:23Z</time></trkpt>
<trkpt lat="48.437749" lon="2.708242"><ele></ele><time>2017-9-17T11:56:26Z</time></trkpt>
<trkpt lat="48.437806" lon="2.70811"><ele></ele><time>2017-9-17T11:56:29Z</time></trkpt>
<trkpt lat="48.437799" lon="2.707974"><ele></ele><time>2017-9-17T11:56:32Z</time></trkpt>
<trkpt lat="48.437728" lon="2.707882"><ele></ele><time>2017-9-17T11:56:35Z</time></trkpt>
<trkpt lat="48.437685" lon="2.707729"><ele></ele><time>2017-9-17T11:56:38Z</time></trkpt>
<trkpt lat="48.437618" lon="2.707617"><ele></ele><time>2017-9-17T11:56:41Z</time></trkpt>
<trkpt lat="48.437519" lon="2.707543"><ele></ele><time>2017-9-17T11:56:44Z</time></trkpt>
<trkpt lat="48.437421" lon="2.707466"><ele></ele><time>2017-9-17T11:56:47Z</time></trkpt>
<trkpt lat="48.437324" lon="2.707432"><ele></ele><time>2017-9-17T11:56:50Z</time></trkpt>
<trkpt lat="48.437195" lon="2.70739"><ele></ele><time>2017-9-17T11:56:53Z</time></trkpt>
<trkpt lat="48.437108" lon="2.707332"><ele></ele><time>2017-9-17T11:56:56Z</time></trkpt>
<trkpt lat="48.436997" lon="2.707261"><ele></ele><time>2017-9-17T11:56:59Z</time></trkpt>
<trkpt lat="48.436914" lon="2.7072"><ele></ele><time>2017-9-17T11:57:2Z</time></trkpt>
<trkpt lat="48.436934" lon="2.707063"><ele></ele><time>2017-9-17T11:57:5Z</time></trkpt>
<trkpt lat="48.436982" lon="2.706889"><ele></ele><time>2017-9-17T11:57:8Z</time></trkpt>
<trkpt lat="48.437009" lon="2.70672"><ele></ele><time>2017-9-17T11:57:11Z</time></trkpt>
<trkpt lat="48.437022" lon="2.70653"><ele></ele><time>2017-9-17T11:57:14Z</time></trkpt>
<trkpt lat="48.437089" lon="2.706324"><ele></ele><time>2017-9-17T11:57:17Z</time></trkpt>
<trkpt lat="48.437155" lon="2.706162"><ele></ele><time>2017-9-17T11:57:20Z</time></trkpt>
<trkpt lat="48.437213" lon="2.706024"><ele></ele><time>2017-9-17T11:57:23Z</time></trkpt>
<trkpt lat="48.437258" lon="2.705891"><ele></ele><time>2017-9-17T11:57:26Z</time></trkpt>
<trkpt lat="48.437338" lon="2.705815"><ele></ele><time>2017-9-17T11:57:29Z</time></trkpt>
<trkpt lat="48.437436" lon="2.705806"><ele></ele><time>2017-9-17T11:57:32Z</time></trkpt>
<trkpt lat="48.437545" lon="2.705848"><ele></ele><time>2017-9-17T11:57:35Z</time></trkpt>
<trkpt lat="48.437656" lon="2.705908"><ele></ele><time>2017-9-17T11:57:38Z</time></trkpt>
<trkpt lat="48.437745" lon="2.705884"><ele></ele><time>2017-9-17T11:57:41Z</time></trkpt>
<trkpt lat="48.437665" lon="2.705771"><ele></ele><time>2017-9-17T11:57:44Z</time></trkpt>
<trkpt lat="48.437564" lon="2.705641"><ele></ele><time>2017-9-17T11:57:47Z</time></trkpt>
<trkpt lat="48.4375" lon="2.705515"><ele></ele><time>2017-9-17T11:57:50Z</time></trkpt>
<trkpt lat="48.437417" lon="2.705369"><ele></ele><time>2017-9-17T11:57:53Z</time></trkpt>
<trkpt lat="48.437405" lon="2.705204"><ele></ele><time>2017-9-17T11:57:56Z</time></trkpt>
<trkpt lat="48.437337" lon="2.705035"><ele></ele><time>2017-9-17T11:57:59Z</time></trkpt>
<trkpt lat="48.43725" lon="2.704905"><ele></ele><time>2017-9-17T11:58:2Z</time></trkpt>
<trkpt lat="48.437196" lon="2.704754"><ele></ele><time>2017-9-17T11:58:5Z</time></trkpt>
<trkpt lat="48.43715" lon="2.704587"><ele></ele><time>2017-9-17T11:58:8Z</time></trkpt>
<trkpt lat="48.437086" lon="2.704481"><ele></ele><time>2017-9-17T11:58:11Z</time></trkpt>
<trkpt lat="48.437028" lon="2.704354"><ele></ele><time>2017-9-17T11:58:14Z</time></trkpt>
<trkpt lat="48.436949" lon="2.704251"><ele></ele><time>2017-9-17T11:58:17Z</time></trkpt>
<trkpt lat="48.43687" lon="2.704119"><ele></ele><time>2017-9-17T11:58:20Z</time></trkpt>
<trkpt lat="48.436865" lon="2.703977"><ele></ele><time>2017-9-17T11:58:23Z</time></trkpt>
<trkpt lat="48.436902" lon="2.703851"><ele></ele><time>2017-9-17T11:58:26Z</time></trkpt>
<trkpt lat="48.436929" lon="2.703712"><ele></ele><time>2017-9-17T11:58:29Z</time></trkpt>
<trkpt lat="48.436997" lon="2.703556"><ele></ele><time>2017-9-17T11:58:32Z</time></trkpt>
<trkpt lat="48.437066" lon="2.703418"><ele></ele><time>2017-9-17T11:58:35Z</time></trkpt>
<trkpt lat="48.437108" lon="2.703282"><ele></ele><time>2017-9-17T11:58:38Z</time></trkpt>
<trkpt lat="48.437105" lon="2.703093"><ele></ele><time>2017-9-17T11:58:41Z</time></trkpt>
<trkpt lat="48.437087" lon="2.702939"><ele></ele><time>2017-9-17T11:58:44Z</time></trkpt>
<trkpt lat="48.437027" lon="2.702799"><ele></ele><time>2017-9-17T11:58:47Z</time></trkpt>
<trkpt lat="48.436956" lon="2.702696"><ele></ele><time>2017-9-17T11:58:50Z</time></trkpt>
<trkpt lat="48.436839" lon="2.702711"><ele></ele><time>2017-9-17T11:58:53Z</time></trkpt>
<trkpt lat="48.436763" lon="2.702808"><ele></ele><time>2017-9-17T11:58:56Z</time></trkpt>
<trkpt lat="48.436736" lon="2.702953"><ele></ele><time>2017-9-17T11:58:59Z</time></trkpt>
<trkpt lat="48.436712" lon="2.703102"><ele></ele><time>2017-9-17T11:59:2Z</time></trkpt>
<trkpt lat="48.436724" lon="2.703239"><ele></ele><time>2017-9-17T11:59:5Z</time></trkpt>
<trkpt lat="48.436684" lon="2.7034"><ele></ele><time>2017-9-17T11:59:8Z</time></trkpt>
<trkpt lat="48.436672" lon="2.703576"><ele></ele><time>2017-9-17T11:59:11Z</time></trkpt>
<trkpt lat="48.43663" lon="2.703717"><ele></ele><time>2017-9-17T11:59:14Z</time></trkpt>
<trkpt lat="48.436558" lon="2.703813"><ele></ele><time>2017-9-17T11:59:17Z</time></trkpt>
<trkpt lat="48.436457" lon="2.703915"><ele></ele><time>2017-9-17T11:59:20Z</time></trkpt>
<trkpt lat="48.436378" lon="2.704023"><ele></ele><time>2017-9-17T11:59:23Z</time></trkpt>
<trkpt lat="48.436301" lon="2.70412"><ele></ele><time>2017-9-17T11:59:26Z</time></trkpt>
<trkpt lat="48.436213" lon="2.704202"><ele></ele><time>2017-9-17T11:59:29Z</time></trkpt>
<trkpt lat="48.436148" lon="2.704327"><ele></ele><time>2017-9-17T11:59:32Z</time></trkpt>
<trkpt lat="48.43609" lon="2.704451"><ele></ele><time>2017-9-17T11:59:35Z</time></trkpt>
<trkpt lat="48.436102" lon="2.704646"><ele></ele><time>2017-9-17T11:59:38Z</time></trkpt>
<trkpt lat="48.436072" lon="2.704796"><ele></ele><time>2017-9-17T11:59:41Z</time></trkpt>
<trkpt lat="48.436005" lon="2.704935"><ele></ele><time>2017-9-17T11:59:44Z</time></trkpt>
<trkpt lat="48.435944" lon="2.705108"><ele></ele><time>2017-9-17T11:59:47Z</time></trkpt>
<trkpt lat="48.435841" lon="2.705272"><ele></ele><time>2017-9-17T11:59:50Z</time></trkpt>
<trkpt lat="48.435763" lon="2.705408"><ele></ele><time>2017-9-17T11:59:53Z</time></trkpt>
<trkpt lat="48.435669" lon="2.705554"><ele></ele><time>2017-9-17T11:59:56Z</time></trkpt>
<trkpt lat="48.435523" lon="2.705658"><ele></ele><time>2017-9-17T11:59:59Z</time></trkpt>
<trkpt lat="48.435409" lon="2.705622"><ele></ele><time>2017-9-17T12:0:2Z</time></trkpt>
<trkpt lat="48.435328" lon="2.705475"><ele></ele><time>2017-9-17T12:0:5Z</time></trkpt>
<trkpt lat="48.435181" lon="2.705247"><ele></ele><time>2017-9-17T12:0:8Z</time></trkpt>
<trkpt lat="48.435107" lon="2.705156"><ele></ele><time>2017-9-17T12:0:11Z</time></trkpt>
<trkpt lat="48.435077" lon="2.705013"><ele></ele><time>2017-9-17T12:0:14Z</time></trkpt>
<trkpt lat="48.435072" lon="2.704876"><ele></ele><time>2017-9-17T12:0:17Z</time></trkpt>
<trkpt lat="48.43503" lon="2.704731"><ele></ele><time>2017-9-17T12:0:20Z</time></trkpt>
<trkpt lat="48.434985" lon="2.704595"><ele></ele><time>2017-9-17T12:0:23Z</time></trkpt>
<trkpt lat="48.434893" lon="2.704545"><ele></ele><time>2017-9-17T12:0:26Z</time></trkpt>
<trkpt lat="48.434809" lon="2.704454"><ele></ele><time>2017-9-17T12:0:29Z</time></trkpt>
<trkpt lat="48.434736" lon="2.704357"><ele></ele><time>2017-9-17T12:0:32Z</time></trkpt>
<trkpt lat="48.434629" lon="2.704266"><ele></ele><time>2017-9-17T12:0:35Z</time></trkpt>
<trkpt lat="48.434557" lon="2.704171"><ele></ele><time>2017-9-17T12:0:38Z</time></trkpt>
<trkpt lat="48.434473" lon="2.704092"><ele></ele><time>2017-9-17T12:0:41Z</time></trkpt>
<trkpt lat="48.434355" lon="2.704067"><ele></ele><time>2017-9-17T12:0:44Z</time></trkpt>
<trkpt lat="48.434237" lon="2.704074"><ele></ele><time>2017-9-17T12:0:47Z</time></trkpt>
<trkpt lat="48.434125" lon="2.704061"><ele></ele><time>2017-9-17T12:0:50Z</time></trkpt>
<trkpt lat="48.434009" lon="2.704054"><ele></ele><time>2017-9-17T12:0:53Z</time></trkpt>
<trkpt lat="48.433894" lon="2.70405"><ele></ele><time>2017-9-17T12:0:56Z</time></trkpt>
<trkpt lat="48.433797" lon="2.704023"><ele></ele><time>2017-9-17T12:0:59Z</time></trkpt>
<trkpt lat="48.433695" lon="2.704009"><ele></ele><time>2017-9-17T12:1:2Z</time></trkpt>
<trkpt lat="48.433562" lon="2.704032"><ele></ele><time>2017-9-17T12:1:5Z</time></trkpt>
<trkpt lat="48.433464" lon="2.703999"><ele></ele><time>2017-9-17T12:1:8Z</time></trkpt>
<trkpt lat="48.433352" lon="2.70401"><ele></ele><time>2017-9-17T12:1:11Z</time></trkpt>
<trkpt lat="48.433248" lon="2.703958"><ele></ele><time>2017-9-17T12:1:14Z</time></trkpt>
<trkpt lat="48.433156" lon="2.703909"><ele></ele><time>2017-9-17T12:1:17Z</time></trkpt>
<trkpt lat="48.433042" lon="2.703873"><ele></ele><time>2017-9-17T12:1:20Z</time></trkpt>
<trkpt lat="48.432937" lon="2.703921"><ele></ele><time>2017-9-17T12:1:23Z</time></trkpt>
<trkpt lat="48.432794" lon="2.70388"><ele></ele><time>2017-9-17T12:1:26Z</time></trkpt>
<trkpt lat="48.432674" lon="2.703898"><ele></ele><time>2017-9-17T12:1:29Z</time></trkpt>
<trkpt lat="48.432549" lon="2.703856"><ele></ele><time>2017-9-17T12:1:32Z</time></trkpt>
<trkpt lat="48.432427" lon="2.703848"><ele></ele><time>2017-9-17T12:1:35Z</time></trkpt>
<trkpt lat="48.432314" lon="2.703894"><ele></ele><time>2017-9-17T12:1:38Z</time></trkpt>
<trkpt lat="48.43222" lon="2.703948"><ele></ele><time>2017-9-17T12:1:41Z</time></trkpt>
<trkpt lat="48.432091" lon="2.703928"><ele></ele><time>2017-9-17T12:1:44Z</time></trkpt>
<trkpt lat="48.431989" lon="2.703931"><ele></ele><time>2017-9-17T12:1:47Z</time></trkpt>
<trkpt lat="48.431893" lon="2.703935"><ele></ele><time>2017-9-17T12:1:50Z</time></trkpt>
<trkpt lat="48.431791" lon="2.704004"><ele></ele><time>2017-9-17T12:1:53Z</time></trkpt>
<trkpt lat="48.431695" lon="2.70396"><ele></ele><time>2017-9-17T12:1:56Z</time></trkpt>
<trkpt lat="48.431597" lon="2.704006"><ele></ele><time>2017-9-17T12:1:59Z</time></trkpt>
<trkpt lat="48.431518" lon="2.704075"><ele></ele><time>2017-9-17T12:2:2Z</time></trkpt>
<trkpt lat="48.431398" lon="2.704075"><ele></ele><time>2017-9-17T12:2:5Z</time></trkpt>
<trkpt lat="48.431295" lon="2.704106"><ele></ele><time>2017-9-17T12:2:8Z</time></trkpt>
<trkpt lat="48.431183" lon="2.704139"><ele></ele><time>2017-9-17T12:2:11Z</time></trkpt>
<trkpt lat="48.431068" lon="2.704167"><ele></ele><time>2017-9-17T12:2:14Z</time></trkpt>
<trkpt lat="48.430972" lon="2.704177"><ele></ele><time>2017-9-17T12:2:17Z</time></trkpt>
<trkpt lat="48.430872" lon="2.704184"><ele></ele><time>2017-9-17T12:2:20Z</time></trkpt>
<trkpt lat="48.430766" lon="2.704225"><ele></ele><time>2017-9-17T12:2:23Z</time></trkpt>
<trkpt lat="48.430661" lon="2.704217"><ele></ele><time>2017-9-17T12:2:26Z</time></trkpt>
<trkpt lat="48.43057" lon="2.704185"><ele></ele><time>2017-9-17T12:2:29Z</time></trkpt>
<trkpt lat="48.430455" lon="2.704231"><ele></ele><time>2017-9-17T12:2:32Z</time></trkpt>
<trkpt lat="48.430353" lon="2.704244"><ele></ele><time>2017-9-17T12:2:35Z</time></trkpt>
<trkpt lat="48.430232" lon="2.704212"><ele></ele><time>2017-9-17T12:2:38Z</time></trkpt>
<trkpt lat="48.430093" lon="2.70422"><ele></ele><time>2017-9-17T12:2:41Z</time></trkpt>
<trkpt lat="48.429994" lon="2.704228"><ele></ele><time>2017-9-17T12:2:44Z</time></trkpt>
<trkpt lat="48.429874" lon="2.704175"><ele></ele><time>2017-9-17T12:2:47Z</time></trkpt>
<trkpt lat="48.429779" lon="2.704221"><ele></ele><time>2017-9-17T12:2:50Z</time></trkpt>
<trkpt lat="48.429674" lon="2.70421"><ele></ele><time>2017-9-17T12:2:53Z</time></trkpt>
<trkpt lat="48.429544" lon="2.704197"><ele></ele><time>2017-9-17T12:2:56Z</time></trkpt>
<trkpt lat="48.429444" lon="2.704223"><ele></ele><time>2017-9-17T12:2:59Z</time></trkpt>
<trkpt lat="48.429332" lon="2.704233"><ele></ele><time>2017-9-17T12:3:2Z</time></trkpt>
<trkpt lat="48.429229" lon="2.704276"><ele></ele><time>2017-9-17T12:3:5Z</time></trkpt>
<trkpt lat="48.429137" lon="2.704233"><ele></ele><time>2017-9-17T12:3:8Z</time></trkpt>
<trkpt lat="48.429009" lon="2.704243"><ele></ele><time>2017-9-17T12:3:11Z</time></trkpt>
<trkpt lat="48.428919" lon="2.704238"><ele></ele><time>2017-9-17T12:3:14Z</time></trkpt>
<trkpt lat="48.428819" lon="2.704246"><ele></ele><time>2017-9-17T12:3:17Z</time></trkpt>
<trkpt lat="48.428706" lon="2.704289"><ele></ele><time>2017-9-17T12:3:20Z</time></trkpt>
<trkpt lat="48.428599" lon="2.704284"><ele></ele><time>2017-9-17T12:3:23Z</time></trkpt>
<trkpt lat="48.42848" lon="2.704375"><ele></ele><time>2017-9-17T12:3:26Z</time></trkpt>
<trkpt lat="48.428372" lon="2.704445"><ele></ele><time>2017-9-17T12:3:29Z</time></trkpt>
<trkpt lat="48.428245" lon="2.704481"><ele></ele><time>2017-9-17T12:3:32Z</time></trkpt>
<trkpt lat="48.428148" lon="2.704479"><ele></ele><time>2017-9-17T12:3:35Z</time></trkpt>
<trkpt lat="48.428032" lon="2.704496"><ele></ele><time>2017-9-17T12:3:38Z</time></trkpt>
<trkpt lat="48.427944" lon="2.70458"><ele></ele><time>2017-9-17T12:3:41Z</time></trkpt>
<trkpt lat="48.427885" lon="2.704701"><ele></ele><time>2017-9-17T12:3:44Z</time></trkpt>
<trkpt lat="48.427872" lon="2.704845"><ele></ele><time>2017-9-17T12:3:47Z</time></trkpt>
<trkpt lat="48.427804" lon="2.704972"><ele></ele><time>2017-9-17T12:3:50Z</time></trkpt>
<trkpt lat="48.427725" lon="2.705096"><ele></ele><time>2017-9-17T12:3:53Z</time></trkpt>
<trkpt lat="48.427684" lon="2.705231"><ele></ele><time>2017-9-17T12:3:56Z</time></trkpt>
<trkpt lat="48.427654" lon="2.705372"><ele></ele><time>2017-9-17T12:3:59Z</time></trkpt>
<trkpt lat="48.427585" lon="2.705486"><ele></ele><time>2017-9-17T12:4:2Z</time></trkpt>
<trkpt lat="48.427514" lon="2.70561"><ele></ele><time>2017-9-17T12:4:5Z</time></trkpt>
<trkpt lat="48.427506" lon="2.705758"><ele></ele><time>2017-9-17T12:4:8Z</time></trkpt>
<trkpt lat="48.427527" lon="2.705901"><ele></ele><time>2017-9-17T12:4:11Z</time></trkpt>
<trkpt lat="48.42748" lon="2.706038"><ele></ele><time>2017-9-17T12:4:14Z</time></trkpt>
<trkpt lat="48.427441" lon="2.706175"><ele></ele><time>2017-9-17T12:4:17Z</time></trkpt>
<trkpt lat="48.42737" lon="2.706298"><ele></ele><time>2017-9-17T12:4:20Z</time></trkpt>
<trkpt lat="48.427268" lon="2.706373"><ele></ele><time>2017-9-17T12:4:23Z</time></trkpt>
<trkpt lat="48.427172" lon="2.706383"><ele></ele><time>2017-9-17T12:4:26Z</time></trkpt>
<trkpt lat="48.427081" lon="2.706375"><ele></ele><time>2017-9-17T12:4:29Z</time></trkpt>
<trkpt lat="48.427044" lon="2.706242"><ele></ele><time>2017-9-17T12:4:32Z</time></trkpt>
<trkpt lat="48.426943" lon="2.706217"><ele></ele><time>2017-9-17T12:4:35Z</time></trkpt>
<trkpt lat="48.426822" lon="2.706181"><ele></ele><time>2017-9-17T12:4:38Z</time></trkpt>
<trkpt lat="48.42671" lon="2.706128"><ele></ele><time>2017-9-17T12:4:41Z</time></trkpt>
<trkpt lat="48.426622" lon="2.706055"><ele></ele><time>2017-9-17T12:4:44Z</time></trkpt>
<trkpt lat="48.426538" lon="2.706159"><ele></ele><time>2017-9-17T12:4:47Z</time></trkpt>
<trkpt lat="48.426569" lon="2.706287"><ele></ele><time>2017-9-17T12:4:50Z</time></trkpt>
<trkpt lat="48.426495" lon="2.706372"><ele></ele><time>2017-9-17T12:4:53Z</time></trkpt>
<trkpt lat="48.426396" lon="2.706439"><ele></ele><time>2017-9-17T12:4:56Z</time></trkpt>
<trkpt lat="48.426288" lon="2.706466"><ele></ele><time>2017-9-17T12:4:59Z</time></trkpt>
<trkpt lat="48.426218" lon="2.706563"><ele></ele><time>2017-9-17T12:5:2Z</time></trkpt>
<trkpt lat="48.426125" lon="2.706629"><ele></ele><time>2017-9-17T12:5:5Z</time></trkpt>
<trkpt lat="48.426056" lon="2.706726"><ele></ele><time>2017-9-17T12:5:8Z</time></trkpt>
<trkpt lat="48.426011" lon="2.706885"><ele></ele><time>2017-9-17T12:5:11Z</time></trkpt>
<trkpt lat="48.425968" lon="2.70701"><ele></ele><time>2017-9-17T12:5:14Z</time></trkpt>
<trkpt lat="48.425983" lon="2.707169"><ele></ele><time>2017-9-17T12:5:17Z</time></trkpt>
<trkpt lat="48.42595" lon="2.707331"><ele></ele><time>2017-9-17T12:5:20Z</time></trkpt>
<trkpt lat="48.425892" lon="2.707437"><ele></ele><time>2017-9-17T12:5:23Z</time></trkpt>
<trkpt lat="48.425805" lon="2.707503"><ele></ele><time>2017-9-17T12:5:26Z</time></trkpt>
<trkpt lat="48.425808" lon="2.70766"><ele></ele><time>2017-9-17T12:5:29Z</time></trkpt>
<trkpt lat="48.425784" lon="2.707824"><ele></ele><time>2017-9-17T12:5:32Z</time></trkpt>
<trkpt lat="48.425756" lon="2.707957"><ele></ele><time>2017-9-17T12:5:35Z</time></trkpt>
<trkpt lat="48.425723" lon="2.708098"><ele></ele><time>2017-9-17T12:5:38Z</time></trkpt>
<trkpt lat="48.425676" lon="2.708254"><ele></ele><time>2017-9-17T12:5:41Z</time></trkpt>
<trkpt lat="48.425637" lon="2.708408"><ele></ele><time>2017-9-17T12:5:44Z</time></trkpt>
<trkpt lat="48.425582" lon="2.708526"><ele></ele><time>2017-9-17T12:5:47Z</time></trkpt>
<trkpt lat="48.425531" lon="2.708638"><ele></ele><time>2017-9-17T12:5:50Z</time></trkpt>
<trkpt lat="48.42549" lon="2.70876"><ele></ele><time>2017-9-17T12:5:53Z</time></trkpt>
<trkpt lat="48.425407" lon="2.708841"><ele></ele><time>2017-9-17T12:5:56Z</time></trkpt>
<trkpt lat="48.425332" lon="2.708929"><ele></ele><time>2017-9-17T12:5:59Z</time></trkpt>
<trkpt lat="48.425245" lon="2.708995"><ele></ele><time>2017-9-17T12:6:2Z</time></trkpt>
<trkpt lat="48.425156" lon="2.708971"><ele></ele><time>2017-9-17T12:6:5Z</time></trkpt>
<trkpt lat="48.425065" lon="2.708909"><ele></ele><time>2017-9-17T12:6:8Z</time></trkpt>
<trkpt lat="48.424986" lon="2.708842"><ele></ele><time>2017-9-17T12:6:11Z</time></trkpt>
<trkpt lat="48.424878" lon="2.708745"><ele></ele><time>2017-9-17T12:6:14Z</time></trkpt>
<trkpt lat="48.424782" lon="2.708651"><ele></ele><time>2017-9-17T12:6:17Z</time></trkpt>
<trkpt lat="48.424673" lon="2.708556"><ele></ele><time>2017-9-17T12:6:20Z</time></trkpt>
<trkpt lat="48.424578" lon="2.708451"><ele></ele><time>2017-9-17T12:6:23Z</time></trkpt>
<trkpt lat="48.424478" lon="2.708344"><ele></ele><time>2017-9-17T12:6:26Z</time></trkpt>
<trkpt lat="48.424393" lon="2.708271"><ele></ele><time>2017-9-17T12:6:29Z</time></trkpt>
<trkpt lat="48.424312" lon="2.708182"><ele></ele><time>2017-9-17T12:6:32Z</time></trkpt>
<trkpt lat="48.424193" lon="2.708074"><ele></ele><time>2017-9-17T12:6:35Z</time></trkpt>
<trkpt lat="48.424104" lon="2.70797"><ele></ele><time>2017-9-17T12:6:38Z</time></trkpt>
<trkpt lat="48.424015" lon="2.707831"><ele></ele><time>2017-9-17T12:6:41Z</time></trkpt>
<trkpt lat="48.423946" lon="2.707744"><ele></ele><time>2017-9-17T12:6:44Z</time></trkpt>
<trkpt lat="48.423859" lon="2.7076"><ele></ele><time>2017-9-17T12:6:47Z</time></trkpt>
<trkpt lat="48.423785" lon="2.70748"><ele></ele><time>2017-9-17T12:6:50Z</time></trkpt>
<trkpt lat="48.423719" lon="2.707372"><ele></ele><time>2017-9-17T12:6:53Z</time></trkpt>
<trkpt lat="48.42375" lon="2.707185"><ele></ele><time>2017-9-17T12:6:56Z</time></trkpt>
<trkpt lat="48.423774" lon="2.707031"><ele></ele><time>2017-9-17T12:6:59Z</time></trkpt>
<trkpt lat="48.423727" lon="2.706881"><ele></ele><time>2017-9-17T12:7:2Z</time></trkpt>
<trkpt lat="48.423721" lon="2.706712"><ele></ele><time>2017-9-17T12:7:5Z</time></trkpt>
<trkpt lat="48.423791" lon="2.706579"><ele></ele><time>2017-9-17T12:7:8Z</time></trkpt>
<trkpt lat="48.423832" lon="2.706398"><ele></ele><time>2017-9-17T12:7:11Z</time></trkpt>
<trkpt lat="48.423905" lon="2.706247"><ele></ele><time>2017-9-17T12:7:14Z</time></trkpt>
<trkpt lat="48.423914" lon="2.7061"><ele></ele><time>2017-9-17T12:7:17Z</time></trkpt>
<trkpt lat="48.423893" lon="2.705921"><ele></ele><time>2017-9-17T12:7:20Z</time></trkpt>
<trkpt lat="48.423953" lon="2.705739"><ele></ele><time>2017-9-17T12:7:23Z</time></trkpt>
<trkpt lat="48.423895" lon="2.705631"><ele></ele><time>2017-9-17T12:7:26Z</time></trkpt>
<trkpt lat="48.423842" lon="2.705518"><ele></ele><time>2017-9-17T12:7:29Z</time></trkpt>
<trkpt lat="48.423777" lon="2.705397"><ele></ele><time>2017-9-17T12:7:32Z</time></trkpt>
<trkpt lat="48.423731" lon="2.705265"><ele></ele><time>2017-9-17T12:7:35Z</time></trkpt>
<trkpt lat="48.423648" lon="2.7051"><ele></ele><time>2017-9-17T12:7:38Z</time></trkpt>
<trkpt lat="48.423595" lon="2.704986"><ele></ele><time>2017-9-17T12:7:41Z</time></trkpt>
<trkpt lat="48.423551" lon="2.70481"><ele></ele><time>2017-9-17T12:7:44Z</time></trkpt>
<trkpt lat="48.42355" lon="2.704651"><ele></ele><time>2017-9-17T12:7:47Z</time></trkpt>
<trkpt lat="48.423541" lon="2.704482"><ele></ele><time>2017-9-17T12:7:50Z</time></trkpt>
<trkpt lat="48.423556" lon="2.70431"><ele></ele><time>2017-9-17T12:7:53Z</time></trkpt>
<trkpt lat="48.423603" lon="2.704109"><ele></ele><time>2017-9-17T12:7:56Z</time></trkpt>
<trkpt lat="48.423649" lon="2.703919"><ele></ele><time>2017-9-17T12:7:59Z</time></trkpt>
<trkpt lat="48.423669" lon="2.703742"><ele></ele><time>2017-9-17T12:8:2Z</time></trkpt>
<trkpt lat="48.42373" lon="2.70358"><ele></ele><time>2017-9-17T12:8:5Z</time></trkpt>
<trkpt lat="48.423768" lon="2.703404"><ele></ele><time>2017-9-17T12:8:8Z</time></trkpt>
<trkpt lat="48.423797" lon="2.703198"><ele></ele><time>2017-9-17T12:8:11Z</time></trkpt>
<trkpt lat="48.423856" lon="2.703012"><ele></ele><time>2017-9-17T12:8:14Z</time></trkpt>
<trkpt lat="48.423874" lon="2.702842"><ele></ele><time>2017-9-17T12:8:17Z</time></trkpt>
<trkpt lat="48.4239" lon="2.702683"><ele></ele><time>2017-9-17T12:8:20Z</time></trkpt>
<trkpt lat="48.423913" lon="2.702511"><ele></ele><time>2017-9-17T12:8:23Z</time></trkpt>
<trkpt lat="48.423937" lon="2.702354"><ele></ele><time>2017-9-17T12:8:26Z</time></trkpt>
<trkpt lat="48.42398" lon="2.702198"><ele></ele><time>2017-9-17T12:8:29Z</time></trkpt>
<trkpt lat="48.424003" lon="2.702061"><ele></ele><time>2017-9-17T12:8:32Z</time></trkpt>
<trkpt lat="48.424013" lon="2.701903"><ele></ele><time>2017-9-17T12:8:35Z</time></trkpt>
<trkpt lat="48.424017" lon="2.701742"><ele></ele><time>2017-9-17T12:8:38Z</time></trkpt>
<trkpt lat="48.424031" lon="2.701602"><ele></ele><time>2017-9-17T12:8:41Z</time></trkpt>
<trkpt lat="48.424074" lon="2.701447"><ele></ele><time>2017-9-17T12:8:44Z</time></trkpt>
<trkpt lat="48.42411" lon="2.701288"><ele></ele><time>2017-9-17T12:8:47Z</time></trkpt>
<trkpt lat="48.424124" lon="2.701116"><ele></ele><time>2017-9-17T12:8:50Z</time></trkpt>
<trkpt lat="48.424153" lon="2.700953"><ele></ele><time>2017-9-17T12:8:53Z</time></trkpt>
<trkpt lat="48.424159" lon="2.700795"><ele></ele><time>2017-9-17T12:8:56Z</time></trkpt>
<trkpt lat="48.424125" lon="2.700621"><ele></ele><time>2017-9-17T12:8:59Z</time></trkpt>
<trkpt lat="48.424077" lon="2.700467"><ele></ele><time>2017-9-17T12:9:2Z</time></trkpt>
<trkpt lat="48.424013" lon="2.700331"><ele></ele><time>2017-9-17T12:9:5Z</time></trkpt>
<trkpt lat="48.423907" lon="2.700187"><ele></ele><time>2017-9-17T12:9:8Z</time></trkpt>
<trkpt lat="48.423871" lon="2.700028"><ele></ele><time>2017-9-17T12:9:11Z</time></trkpt>
<trkpt lat="48.423783" lon="2.699931"><ele></ele><time>2017-9-17T12:9:14Z</time></trkpt>
<trkpt lat="48.423716" lon="2.699807"><ele></ele><time>2017-9-17T12:9:17Z</time></trkpt>
<trkpt lat="48.423654" lon="2.699688"><ele></ele><time>2017-9-17T12:9:20Z</time></trkpt>
<trkpt lat="48.423574" lon="2.699565"><ele></ele><time>2017-9-17T12:9:23Z</time></trkpt>
<trkpt lat="48.42351" lon="2.69945"><ele></ele><time>2017-9-17T12:9:26Z</time></trkpt>
<trkpt lat="48.423414" lon="2.699333"><ele></ele><time>2017-9-17T12:9:29Z</time></trkpt>
<trkpt lat="48.423329" lon="2.699182"><ele></ele><time>2017-9-17T12:9:32Z</time></trkpt>
<trkpt lat="48.423272" lon="2.699026"><ele></ele><time>2017-9-17T12:9:35Z</time></trkpt>
<trkpt lat="48.423175" lon="2.698925"><ele></ele><time>2017-9-17T12:9:38Z</time></trkpt>
<trkpt lat="48.423092" lon="2.698783"><ele></ele><time>2017-9-17T12:9:41Z</time></trkpt>
<trkpt lat="48.42307" lon="2.698629"><ele></ele><time>2017-9-17T12:9:44Z</time></trkpt>
<trkpt lat="48.423172" lon="2.698671"><ele></ele><time>2017-9-17T12:9:47Z</time></trkpt>
<trkpt lat="48.423266" lon="2.698693"><ele></ele><time>2017-9-17T12:9:50Z</time></trkpt>
<trkpt lat="48.423359" lon="2.69869"><ele></ele><time>2017-9-17T12:9:53Z</time></trkpt>
<trkpt lat="48.423451" lon="2.698606"><ele></ele><time>2017-9-17T12:9:56Z</time></trkpt>
<trkpt lat="48.423519" lon="2.698459"><ele></ele><time>2017-9-17T12:9:59Z</time></trkpt>
<trkpt lat="48.423595" lon="2.69838"><ele></ele><time>2017-9-17T12:10:2Z</time></trkpt>
<trkpt lat="48.42368" lon="2.698445"><ele></ele><time>2017-9-17T12:10:5Z</time></trkpt>
<trkpt lat="48.423781" lon="2.698401"><ele></ele><time>2017-9-17T12:10:8Z</time></trkpt>
<trkpt lat="48.423869" lon="2.698349"><ele></ele><time>2017-9-17T12:10:11Z</time></trkpt>
<trkpt lat="48.423878" lon="2.698193"><ele></ele><time>2017-9-17T12:10:14Z</time></trkpt>
<trkpt lat="48.423847" lon="2.698052"><ele></ele><time>2017-9-17T12:10:17Z</time></trkpt>
<trkpt lat="48.423837" lon="2.697875"><ele></ele><time>2017-9-17T12:10:20Z</time></trkpt>
<trkpt lat="48.423822" lon="2.697703"><ele></ele><time>2017-9-17T12:10:23Z</time></trkpt>
<trkpt lat="48.423789" lon="2.697557"><ele></ele><time>2017-9-17T12:10:26Z</time></trkpt>
<trkpt lat="48.423778" lon="2.697413"><ele></ele><time>2017-9-17T12:10:29Z</time></trkpt>
<trkpt lat="48.423672" lon="2.697413"><ele></ele><time>2017-9-17T12:10:32Z</time></trkpt>
<trkpt lat="48.423565" lon="2.697384"><ele></ele><time>2017-9-17T12:10:35Z</time></trkpt>
<trkpt lat="48.423489" lon="2.697267"><ele></ele><time>2017-9-17T12:10:38Z</time></trkpt>
<trkpt lat="48.423396" lon="2.697292"><ele></ele><time>2017-9-17T12:10:41Z</time></trkpt>
<trkpt lat="48.423296" lon="2.697312"><ele></ele><time>2017-9-17T12:10:44Z</time></trkpt>
<trkpt lat="48.423203" lon="2.697234"><ele></ele><time>2017-9-17T12:10:47Z</time></trkpt>
<trkpt lat="48.423279" lon="2.697342"><ele></ele><time>2017-9-17T12:10:50Z</time></trkpt>
<trkpt lat="48.423167" lon="2.69746"><ele></ele><time>2017-9-17T12:10:53Z</time></trkpt>
<trkpt lat="48.423077" lon="2.697393"><ele></ele><time>2017-9-17T12:10:56Z</time></trkpt>
<trkpt lat="48.422966" lon="2.697279"><ele></ele><time>2017-9-17T12:10:59Z</time></trkpt>
<trkpt lat="48.42291" lon="2.69716"><ele></ele><time>2017-9-17T12:11:2Z</time></trkpt>
<trkpt lat="48.422888" lon="2.696995"><ele></ele><time>2017-9-17T12:11:5Z</time></trkpt>
<trkpt lat="48.422865" lon="2.696833"><ele></ele><time>2017-9-17T12:11:8Z</time></trkpt>
<trkpt lat="48.422821" lon="2.696698"><ele></ele><time>2017-9-17T12:11:11Z</time></trkpt>
<trkpt lat="48.422726" lon="2.696621"><ele></ele><time>2017-9-17T12:11:14Z</time></trkpt>
<trkpt lat="48.422661" lon="2.696471"><ele></ele><time>2017-9-17T12:11:17Z</time></trkpt>
<trkpt lat="48.422561" lon="2.696391"><ele></ele><time>2017-9-17T12:11:20Z</time></trkpt>
<trkpt lat="48.422456" lon="2.696406"><ele></ele><time>2017-9-17T12:11:23Z</time></trkpt>
<trkpt lat="48.42236" lon="2.696399"><ele></ele><time>2017-9-17T12:11:26Z</time></trkpt>
<trkpt lat="48.422271" lon="2.696363"><ele></ele><time>2017-9-17T12:11:29Z</time></trkpt>
<trkpt lat="48.422167" lon="2.696388"><ele></ele><time>2017-9-17T12:11:32Z</time></trkpt>
<trkpt lat="48.422058" lon="2.696392"><ele></ele><time>2017-9-17T12:11:35Z</time></trkpt>
<trkpt lat="48.421928" lon="2.696367"><ele></ele><time>2017-9-17T12:11:38Z</time></trkpt>
<trkpt lat="48.421814" lon="2.696328"><ele></ele><time>2017-9-17T12:11:41Z</time></trkpt>
<trkpt lat="48.421722" lon="2.696329"><ele></ele><time>2017-9-17T12:11:44Z</time></trkpt>
<trkpt lat="48.421625" lon="2.696357"><ele></ele><time>2017-9-17T12:11:47Z</time></trkpt>
<trkpt lat="48.421499" lon="2.696346"><ele></ele><time>2017-9-17T12:11:50Z</time></trkpt>
<trkpt lat="48.421417" lon="2.696245"><ele></ele><time>2017-9-17T12:11:53Z</time></trkpt>
<trkpt lat="48.421431" lon="2.696101"><ele></ele><time>2017-9-17T12:11:56Z</time></trkpt>
<trkpt lat="48.421453" lon="2.695954"><ele></ele><time>2017-9-17T12:11:59Z</time></trkpt>
<trkpt lat="48.421448" lon="2.695808"><ele></ele><time>2017-9-17T12:12:2Z</time></trkpt>
<trkpt lat="48.421448" lon="2.695662"><ele></ele><time>2017-9-17T12:12:5Z</time></trkpt>
<trkpt lat="48.421444" lon="2.695506"><ele></ele><time>2017-9-17T12:12:8Z</time></trkpt>
<trkpt lat="48.421445" lon="2.69536"><ele></ele><time>2017-9-17T12:12:11Z</time></trkpt>
<trkpt lat="48.421432" lon="2.695185"><ele></ele><time>2017-9-17T12:12:14Z</time></trkpt>
<trkpt lat="48.421392" lon="2.695007"><ele></ele><time>2017-9-17T12:12:17Z</time></trkpt>
<trkpt lat="48.421325" lon="2.694831"><ele></ele><time>2017-9-17T12:12:20Z</time></trkpt>
<trkpt lat="48.421276" lon="2.694696"><ele></ele><time>2017-9-17T12:12:23Z</time></trkpt>
<trkpt lat="48.42119" lon="2.694566"><ele></ele><time>2017-9-17T12:12:26Z</time></trkpt>
<trkpt lat="48.421115" lon="2.694369"><ele></ele><time>2017-9-17T12:12:29Z</time></trkpt>
<trkpt lat="48.421039" lon="2.694207"><ele></ele><time>2017-9-17T12:12:32Z</time></trkpt>
<trkpt lat="48.42097" lon="2.694077"><ele></ele><time>2017-9-17T12:12:35Z</time></trkpt>
<trkpt lat="48.420915" lon="2.693937"><ele></ele><time>2017-9-17T12:12:38Z</time></trkpt>
<trkpt lat="48.420861" lon="2.693818"><ele></ele><time>2017-9-17T12:12:41Z</time></trkpt>
<trkpt lat="48.420778" lon="2.693661"><ele></ele><time>2017-9-17T12:12:44Z</time></trkpt>
<trkpt lat="48.420733" lon="2.693532"><ele></ele><time>2017-9-17T12:12:47Z</time></trkpt>
<trkpt lat="48.420673" lon="2.693394"><ele></ele><time>2017-9-17T12:12:50Z</time></trkpt>
<trkpt lat="48.420627" lon="2.693224"><ele></ele><time>2017-9-17T12:12:53Z</time></trkpt>
<trkpt lat="48.420595" lon="2.693066"><ele></ele><time>2017-9-17T12:12:56Z</time></trkpt>
<trkpt lat="48.420603" lon="2.692918"><ele></ele><time>2017-9-17T12:12:59Z</time></trkpt>
<trkpt lat="48.420561" lon="2.69279"><ele></ele><time>2017-9-17T12:13:2Z</time></trkpt>
<trkpt lat="48.420508" lon="2.692642"><ele></ele><time>2017-9-17T12:13:5Z</time></trkpt>
<trkpt lat="48.420478" lon="2.692497"><ele></ele><time>2017-9-17T12:13:8Z</time></trkpt>
<trkpt lat="48.420434" lon="2.692349"><ele></ele><time>2017-9-17T12:13:11Z</time></trkpt>
<trkpt lat="48.420418" lon="2.692211"><ele></ele><time>2017-9-17T12:13:14Z</time></trkpt>
<trkpt lat="48.420419" lon="2.692045"><ele></ele><time>2017-9-17T12:13:17Z</time></trkpt>
<trkpt lat="48.420467" lon="2.69189"><ele></ele><time>2017-9-17T12:13:20Z</time></trkpt>
<trkpt lat="48.420535" lon="2.69178"><ele></ele><time>2017-9-17T12:13:23Z</time></trkpt>
<trkpt lat="48.420601" lon="2.691679"><ele></ele><time>2017-9-17T12:13:26Z</time></trkpt>
<trkpt lat="48.420674" lon="2.691574"><ele></ele><time>2017-9-17T12:13:29Z</time></trkpt>
<trkpt lat="48.420755" lon="2.691464"><ele></ele><time>2017-9-17T12:13:32Z</time></trkpt>
<trkpt lat="48.420822" lon="2.691331"><ele></ele><time>2017-9-17T12:13:35Z</time></trkpt>
<trkpt lat="48.420872" lon="2.691217"><ele></ele><time>2017-9-17T12:13:38Z</time></trkpt>
<trkpt lat="48.420951" lon="2.691091"><ele></ele><time>2017-9-17T12:13:41Z</time></trkpt>
<trkpt lat="48.421017" lon="2.690998"><ele></ele><time>2017-9-17T12:13:44Z</time></trkpt>
<trkpt lat="48.421074" lon="2.690862"><ele></ele><time>2017-9-17T12:13:47Z</time></trkpt>
<trkpt lat="48.421141" lon="2.690747"><ele></ele><time>2017-9-17T12:13:50Z</time></trkpt>
<trkpt lat="48.421194" lon="2.690577"><ele></ele><time>2017-9-17T12:13:53Z</time></trkpt>
<trkpt lat="48.421249" lon="2.690446"><ele></ele><time>2017-9-17T12:13:56Z</time></trkpt>
<trkpt lat="48.421308" lon="2.690308"><ele></ele><time>2017-9-17T12:13:59Z</time></trkpt>
<trkpt lat="48.421341" lon="2.690166"><ele></ele><time>2017-9-17T12:14:2Z</time></trkpt>
<trkpt lat="48.421392" lon="2.690027"><ele></ele><time>2017-9-17T12:14:5Z</time></trkpt>
<trkpt lat="48.421445" lon="2.689905"><ele></ele><time>2017-9-17T12:14:8Z</time></trkpt>
<trkpt lat="48.421465" lon="2.689756"><ele></ele><time>2017-9-17T12:14:11Z</time></trkpt>
<trkpt lat="48.421456" lon="2.68961"><ele></ele><time>2017-9-17T12:14:14Z</time></trkpt>
<trkpt lat="48.421362" lon="2.689507"><ele></ele><time>2017-9-17T12:14:17Z</time></trkpt>
<trkpt lat="48.421291" lon="2.689386"><ele></ele><time>2017-9-17T12:14:20Z</time></trkpt>
<trkpt lat="48.421205" lon="2.689239"><ele></ele><time>2017-9-17T12:14:23Z</time></trkpt>
<trkpt lat="48.421147" lon="2.689075"><ele></ele><time>2017-9-17T12:14:26Z</time></trkpt>
<trkpt lat="48.421067" lon="2.688924"><ele></ele><time>2017-9-17T12:14:29Z</time></trkpt>
<trkpt lat="48.421013" lon="2.688767"><ele></ele><time>2017-9-17T12:14:32Z</time></trkpt>
<trkpt lat="48.420977" lon="2.688609"><ele></ele><time>2017-9-17T12:14:35Z</time></trkpt>
<trkpt lat="48.420922" lon="2.688481"><ele></ele><time>2017-9-17T12:14:38Z</time></trkpt>
<trkpt lat="48.420869" lon="2.688351"><ele></ele><time>2017-9-17T12:14:41Z</time></trkpt>
<trkpt lat="48.420823" lon="2.688205"><ele></ele><time>2017-9-17T12:14:44Z</time></trkpt>
<trkpt lat="48.420743" lon="2.688091"><ele></ele><time>2017-9-17T12:14:47Z</time></trkpt>
<trkpt lat="48.420686" lon="2.687973"><ele></ele><time>2017-9-17T12:14:50Z</time></trkpt>
<trkpt lat="48.420637" lon="2.687839"><ele></ele><time>2017-9-17T12:14:53Z</time></trkpt>
<trkpt lat="48.420584" lon="2.687684"><ele></ele><time>2017-9-17T12:14:56Z</time></trkpt>
<trkpt lat="48.420527" lon="2.68756"><ele></ele><time>2017-9-17T12:14:59Z</time></trkpt>
<trkpt lat="48.420467" lon="2.687413"><ele></ele><time>2017-9-17T12:15:2Z</time></trkpt>
<trkpt lat="48.420424" lon="2.687288"><ele></ele><time>2017-9-17T12:15:5Z</time></trkpt>
<trkpt lat="48.420403" lon="2.687138"><ele></ele><time>2017-9-17T12:15:8Z</time></trkpt>
<trkpt lat="48.420375" lon="2.687001"><ele></ele><time>2017-9-17T12:15:11Z</time></trkpt>
<trkpt lat="48.420295" lon="2.686859"><ele></ele><time>2017-9-17T12:15:14Z</time></trkpt>
<trkpt lat="48.420249" lon="2.686719"><ele></ele><time>2017-9-17T12:15:17Z</time></trkpt>
<trkpt lat="48.420205" lon="2.686579"><ele></ele><time>2017-9-17T12:15:20Z</time></trkpt>
<trkpt lat="48.420129" lon="2.68644"><ele></ele><time>2017-9-17T12:15:23Z</time></trkpt>
<trkpt lat="48.420071" lon="2.686308"><ele></ele><time>2017-9-17T12:15:26Z</time></trkpt>
<trkpt lat="48.420039" lon="2.686181"><ele></ele><time>2017-9-17T12:15:29Z</time></trkpt>
<trkpt lat="48.419989" lon="2.686045"><ele></ele><time>2017-9-17T12:15:32Z</time></trkpt>
<trkpt lat="48.419939" lon="2.685912"><ele></ele><time>2017-9-17T12:15:35Z</time></trkpt>
<trkpt lat="48.419882" lon="2.685773"><ele></ele><time>2017-9-17T12:15:38Z</time></trkpt>
<trkpt lat="48.419841" lon="2.685634"><ele></ele><time>2017-9-17T12:15:41Z</time></trkpt>
<trkpt lat="48.419801" lon="2.685502"><ele></ele><time>2017-9-17T12:15:44Z</time></trkpt>
<trkpt lat="48.419741" lon="2.685361"><ele></ele><time>2017-9-17T12:15:47Z</time></trkpt>
<trkpt lat="48.419692" lon="2.685227"><ele></ele><time>2017-9-17T12:15:50Z</time></trkpt>
<trkpt lat="48.41964" lon="2.685112"><ele></ele><time>2017-9-17T12:15:53Z</time></trkpt>
<trkpt lat="48.419582" lon="2.684973"><ele></ele><time>2017-9-17T12:15:56Z</time></trkpt>
<trkpt lat="48.41954" lon="2.684777"><ele></ele><time>2017-9-17T12:15:59Z</time></trkpt>
<trkpt lat="48.419498" lon="2.684625"><ele></ele><time>2017-9-17T12:16:2Z</time></trkpt>
<trkpt lat="48.419458" lon="2.684503"><ele></ele><time>2017-9-17T12:16:5Z</time></trkpt>
<trkpt lat="48.419408" lon="2.684358"><ele></ele><time>2017-9-17T12:16:8Z</time></trkpt>
<trkpt lat="48.41937" lon="2.684223"><ele></ele><time>2017-9-17T12:16:11Z</time></trkpt>
<trkpt lat="48.41935" lon="2.684062"><ele></ele><time>2017-9-17T12:16:14Z</time></trkpt>
<trkpt lat="48.419299" lon="2.683947"><ele></ele><time>2017-9-17T12:16:17Z</time></trkpt>
<trkpt lat="48.419232" lon="2.683822"><ele></ele><time>2017-9-17T12:16:20Z</time></trkpt>
<trkpt lat="48.419211" lon="2.683664"><ele></ele><time>2017-9-17T12:16:23Z</time></trkpt>
<trkpt lat="48.419154" lon="2.683553"><ele></ele><time>2017-9-17T12:16:26Z</time></trkpt>
<trkpt lat="48.419105" lon="2.683432"><ele></ele><time>2017-9-17T12:16:29Z</time></trkpt>
<trkpt lat="48.419062" lon="2.68331"><ele></ele><time>2017-9-17T12:16:32Z</time></trkpt>
<trkpt lat="48.419007" lon="2.683195"><ele></ele><time>2017-9-17T12:16:35Z</time></trkpt>
<trkpt lat="48.418965" lon="2.683075"><ele></ele><time>2017-9-17T12:16:38Z</time></trkpt>
<trkpt lat="48.418899" lon="2.682969"><ele></ele><time>2017-9-17T12:16:41Z</time></trkpt>
<trkpt lat="48.418897" lon="2.682814"><ele></ele><time>2017-9-17T12:16:44Z</time></trkpt>
<trkpt lat="48.418877" lon="2.682667"><ele></ele><time>2017-9-17T12:16:47Z</time></trkpt>
<trkpt lat="48.41883" lon="2.682526"><ele></ele><time>2017-9-17T12:16:50Z</time></trkpt>
<trkpt lat="48.418763" lon="2.682405"><ele></ele><time>2017-9-17T12:16:53Z</time></trkpt>
<trkpt lat="48.418694" lon="2.682297"><ele></ele><time>2017-9-17T12:16:56Z</time></trkpt>
<trkpt lat="48.418665" lon="2.682168"><ele></ele><time>2017-9-17T12:16:59Z</time></trkpt>
<trkpt lat="48.418595" lon="2.682079"><ele></ele><time>2017-9-17T12:17:2Z</time></trkpt>
<trkpt lat="48.418566" lon="2.681935"><ele></ele><time>2017-9-17T12:17:5Z</time></trkpt>
<trkpt lat="48.418498" lon="2.681846"><ele></ele><time>2017-9-17T12:17:8Z</time></trkpt>
<trkpt lat="48.418508" lon="2.681704"><ele></ele><time>2017-9-17T12:17:11Z</time></trkpt>
<trkpt lat="48.418464" lon="2.681583"><ele></ele><time>2017-9-17T12:17:14Z</time></trkpt>
<trkpt lat="48.418388" lon="2.681474"><ele></ele><time>2017-9-17T12:17:17Z</time></trkpt>
<trkpt lat="48.418355" lon="2.681346"><ele></ele><time>2017-9-17T12:17:20Z</time></trkpt>
<trkpt lat="48.418364" lon="2.681194"><ele></ele><time>2017-9-17T12:17:23Z</time></trkpt>
<trkpt lat="48.418293" lon="2.681108"><ele></ele><time>2017-9-17T12:17:26Z</time></trkpt>
<trkpt lat="48.41824" lon="2.680977"><ele></ele><time>2017-9-17T12:17:29Z</time></trkpt>
<trkpt lat="48.418225" lon="2.680839"><ele></ele><time>2017-9-17T12:17:32Z</time></trkpt>
<trkpt lat="48.418151" lon="2.680727"><ele></ele><time>2017-9-17T12:17:35Z</time></trkpt>
<trkpt lat="48.418094" lon="2.680594"><ele></ele><time>2017-9-17T12:17:38Z</time></trkpt>
<trkpt lat="48.418079" lon="2.680453"><ele></ele><time>2017-9-17T12:17:41Z</time></trkpt>
<trkpt lat="48.418032" lon="2.680322"><ele></ele><time>2017-9-17T12:17:44Z</time></trkpt>
<trkpt lat="48.417979" lon="2.680199"><ele></ele><time>2017-9-17T12:17:47Z</time></trkpt>
<trkpt lat="48.41792" lon="2.680088"><ele></ele><time>2017-9-17T12:17:50Z</time></trkpt>
<trkpt lat="48.417858" lon="2.679941"><ele></ele><time>2017-9-17T12:17:53Z</time></trkpt>
<trkpt lat="48.417812" lon="2.679787"><ele></ele><time>2017-9-17T12:17:56Z</time></trkpt>
<trkpt lat="48.417778" lon="2.679639"><ele></ele><time>2017-9-17T12:17:59Z</time></trkpt>
<trkpt lat="48.417735" lon="2.679501"><ele></ele><time>2017-9-17T12:18:2Z</time></trkpt>
<trkpt lat="48.417721" lon="2.679348"><ele></ele><time>2017-9-17T12:18:5Z</time></trkpt>
<trkpt lat="48.417763" lon="2.679224"><ele></ele><time>2017-9-17T12:18:8Z</time></trkpt>
<trkpt lat="48.417793" lon="2.679082"><ele></ele><time>2017-9-17T12:18:11Z</time></trkpt>
<trkpt lat="48.417811" lon="2.678927"><ele></ele><time>2017-9-17T12:18:14Z</time></trkpt>
<trkpt lat="48.417843" lon="2.678772"><ele></ele><time>2017-9-17T12:18:17Z</time></trkpt>
<trkpt lat="48.417872" lon="2.678633"><ele></ele><time>2017-9-17T12:18:20Z</time></trkpt>
<trkpt lat="48.417919" lon="2.678512"><ele></ele><time>2017-9-17T12:18:23Z</time></trkpt>
<trkpt lat="48.41795" lon="2.678363"><ele></ele><time>2017-9-17T12:18:26Z</time></trkpt>
<trkpt lat="48.418017" lon="2.678181"><ele></ele><time>2017-9-17T12:18:29Z</time></trkpt>
<trkpt lat="48.418048" lon="2.678048"><ele></ele><time>2017-9-17T12:18:32Z</time></trkpt>
<trkpt lat="48.418102" lon="2.677921"><ele></ele><time>2017-9-17T12:18:35Z</time></trkpt>
<trkpt lat="48.418128" lon="2.677777"><ele></ele><time>2017-9-17T12:18:38Z</time></trkpt>
<trkpt lat="48.418194" lon="2.677636"><ele></ele><time>2017-9-17T12:18:41Z</time></trkpt>
<trkpt lat="48.418245" lon="2.677475"><ele></ele><time>2017-9-17T12:18:44Z</time></trkpt>
<trkpt lat="48.41826" lon="2.677323"><ele></ele><time>2017-9-17T12:18:47Z</time></trkpt>
<trkpt lat="48.418297" lon="2.677154"><ele></ele><time>2017-9-17T12:18:50Z</time></trkpt>
<trkpt lat="48.418348" lon="2.677"><ele></ele><time>2017-9-17T12:18:53Z</time></trkpt>
<trkpt lat="48.418399" lon="2.676849"><ele></ele><time>2017-9-17T12:18:56Z</time></trkpt>
<trkpt lat="48.418446" lon="2.676672"><ele></ele><time>2017-9-17T12:18:59Z</time></trkpt>
<trkpt lat="48.418512" lon="2.676558"><ele></ele><time>2017-9-17T12:19:2Z</time></trkpt>
<trkpt lat="48.418547" lon="2.676377"><ele></ele><time>2017-9-17T12:19:5Z</time></trkpt>
<trkpt lat="48.418569" lon="2.676224"><ele></ele><time>2017-9-17T12:19:8Z</time></trkpt>
<trkpt lat="48.418583" lon="2.676077"><ele></ele><time>2017-9-17T12:19:11Z</time></trkpt>
<trkpt lat="48.418627" lon="2.675926"><ele></ele><time>2017-9-17T12:19:14Z</time></trkpt>
<trkpt lat="48.418651" lon="2.675776"><ele></ele><time>2017-9-17T12:19:17Z</time></trkpt>
<trkpt lat="48.418697" lon="2.675635"><ele></ele><time>2017-9-17T12:19:20Z</time></trkpt>
<trkpt lat="48.418765" lon="2.675521"><ele></ele><time>2017-9-17T12:19:23Z</time></trkpt>
<trkpt lat="48.418758" lon="2.675376"><ele></ele><time>2017-9-17T12:19:26Z</time></trkpt>
<trkpt lat="48.418785" lon="2.67524"><ele></ele><time>2017-9-17T12:19:29Z</time></trkpt>
<trkpt lat="48.418854" lon="2.675033"><ele></ele><time>2017-9-17T12:19:32Z</time></trkpt>
<trkpt lat="48.418889" lon="2.674876"><ele></ele><time>2017-9-17T12:19:35Z</time></trkpt>
<trkpt lat="48.418877" lon="2.674725"><ele></ele><time>2017-9-17T12:19:38Z</time></trkpt>
<trkpt lat="48.418926" lon="2.67457"><ele></ele><time>2017-9-17T12:19:41Z</time></trkpt>
<trkpt lat="48.418962" lon="2.674404"><ele></ele><time>2017-9-17T12:19:44Z</time></trkpt>
<trkpt lat="48.419009" lon="2.674264"><ele></ele><time>2017-9-17T12:19:47Z</time></trkpt>
<trkpt lat="48.419072" lon="2.674132"><ele></ele><time>2017-9-17T12:19:50Z</time></trkpt>
<trkpt lat="48.419103" lon="2.674001"><ele></ele><time>2017-9-17T12:19:53Z</time></trkpt>
<trkpt lat="48.419197" lon="2.673903"><ele></ele><time>2017-9-17T12:19:56Z</time></trkpt>
<trkpt lat="48.419214" lon="2.673769"><ele></ele><time>2017-9-17T12:19:59Z</time></trkpt>
<trkpt lat="48.419263" lon="2.673612"><ele></ele><time>2017-9-17T12:20:2Z</time></trkpt>
<trkpt lat="48.419296" lon="2.673463"><ele></ele><time>2017-9-17T12:20:5Z</time></trkpt>
<trkpt lat="48.419293" lon="2.673273"><ele></ele><time>2017-9-17T12:20:8Z</time></trkpt>
<trkpt lat="48.419342" lon="2.673127"><ele></ele><time>2017-9-17T12:20:11Z</time></trkpt>
<trkpt lat="48.419463" lon="2.67293"><ele></ele><time>2017-9-17T12:20:14Z</time></trkpt>
<trkpt lat="48.419541" lon="2.672843"><ele></ele><time>2017-9-17T12:20:17Z</time></trkpt>
<trkpt lat="48.41962" lon="2.672764"><ele></ele><time>2017-9-17T12:20:20Z</time></trkpt>
<trkpt lat="48.419703" lon="2.672676"><ele></ele><time>2017-9-17T12:20:23Z</time></trkpt>
<trkpt lat="48.419802" lon="2.672579"><ele></ele><time>2017-9-17T12:20:26Z</time></trkpt>
<trkpt lat="48.419904" lon="2.672485"><ele></ele><time>2017-9-17T12:20:29Z</time></trkpt>
<trkpt lat="48.419994" lon="2.672401"><ele></ele><time>2017-9-17T12:20:32Z</time></trkpt>
<trkpt lat="48.420094" lon="2.67234"><ele></ele><time>2017-9-17T12:20:35Z</time></trkpt>
<trkpt lat="48.420176" lon="2.672273"><ele></ele><time>2017-9-17T12:20:38Z</time></trkpt>
<trkpt lat="48.420288" lon="2.672165"><ele></ele><time>2017-9-17T12:20:41Z</time></trkpt>
<trkpt lat="48.420378" lon="2.672076"><ele></ele><time>2017-9-17T12:20:44Z</time></trkpt>
<trkpt lat="48.42048" lon="2.672014"><ele></ele><time>2017-9-17T12:20:47Z</time></trkpt>
<trkpt lat="48.42057" lon="2.671956"><ele></ele><time>2017-9-17T12:20:50Z</time></trkpt>
<trkpt lat="48.420659" lon="2.671855"><ele></ele><time>2017-9-17T12:20:53Z</time></trkpt>
<trkpt lat="48.420754" lon="2.671757"><ele></ele><time>2017-9-17T12:20:56Z</time></trkpt>
<trkpt lat="48.420832" lon="2.67169"><ele></ele><time>2017-9-17T12:20:59Z</time></trkpt>
<trkpt lat="48.420919" lon="2.671571"><ele></ele><time>2017-9-17T12:21:2Z</time></trkpt>
<trkpt lat="48.421028" lon="2.671535"><ele></ele><time>2017-9-17T12:21:5Z</time></trkpt>
<trkpt lat="48.42114" lon="2.67146"><ele></ele><time>2017-9-17T12:21:8Z</time></trkpt>
<trkpt lat="48.421242" lon="2.671388"><ele></ele><time>2017-9-17T12:21:11Z</time></trkpt>
<trkpt lat="48.421327" lon="2.671299"><ele></ele><time>2017-9-17T12:21:14Z</time></trkpt>
<trkpt lat="48.421416" lon="2.671245"><ele></ele><time>2017-9-17T12:21:17Z</time></trkpt>
<trkpt lat="48.421532" lon="2.671197"><ele></ele><time>2017-9-17T12:21:20Z</time></trkpt>
<trkpt lat="48.42161" lon="2.671093"><ele></ele><time>2017-9-17T12:21:23Z</time></trkpt>
<trkpt lat="48.42172" lon="2.671"><ele></ele><time>2017-9-17T12:21:26Z</time></trkpt>
<trkpt lat="48.42179" lon="2.670908"><ele></ele><time>2017-9-17T12:21:29Z</time></trkpt>
<trkpt lat="48.421895" lon="2.670868"><ele></ele><time>2017-9-17T12:21:32Z</time></trkpt>
<trkpt lat="48.422002" lon="2.670784"><ele></ele><time>2017-9-17T12:21:35Z</time></trkpt>
<trkpt lat="48.422115" lon="2.670714"><ele></ele><time>2017-9-17T12:21:38Z</time></trkpt>
<trkpt lat="48.422212" lon="2.670634"><ele></ele><time>2017-9-17T12:21:41Z</time></trkpt>
<trkpt lat="48.4223" lon="2.670522"><ele></ele><time>2017-9-17T12:21:44Z</time></trkpt>
<trkpt lat="48.422406" lon="2.670446"><ele></ele><time>2017-9-17T12:21:47Z</time></trkpt>
<trkpt lat="48.422492" lon="2.670356"><ele></ele><time>2017-9-17T12:21:50Z</time></trkpt>
<trkpt lat="48.422582" lon="2.670272"><ele></ele><time>2017-9-17T12:21:53Z</time></trkpt>
<trkpt lat="48.422687" lon="2.670184"><ele></ele><time>2017-9-17T12:21:56Z</time></trkpt>
<trkpt lat="48.42278" lon="2.670103"><ele></ele><time>2017-9-17T12:21:59Z</time></trkpt>
<trkpt lat="48.42287" lon="2.670022"><ele></ele><time>2017-9-17T12:22:2Z</time></trkpt>
<trkpt lat="48.422953" lon="2.669963"><ele></ele><time>2017-9-17T12:22:5Z</time></trkpt>
<trkpt lat="48.423055" lon="2.669867"><ele></ele><time>2017-9-17T12:22:8Z</time></trkpt>
<trkpt lat="48.423136" lon="2.669796"><ele></ele><time>2017-9-17T12:22:11Z</time></trkpt>
<trkpt lat="48.423232" lon="2.669786"><ele></ele><time>2017-9-17T12:22:14Z</time></trkpt>
<trkpt lat="48.423318" lon="2.669724"><ele></ele><time>2017-9-17T12:22:17Z</time></trkpt>
<trkpt lat="48.423426" lon="2.669647"><ele></ele><time>2017-9-17T12:22:20Z</time></trkpt>
<trkpt lat="48.423493" lon="2.669549"><ele></ele><time>2017-9-17T12:22:23Z</time></trkpt>
<trkpt lat="48.423599" lon="2.66948"><ele></ele><time>2017-9-17T12:22:26Z</time></trkpt>
<trkpt lat="48.423691" lon="2.669399"><ele></ele><time>2017-9-17T12:22:29Z</time></trkpt>
<trkpt lat="48.423781" lon="2.669354"><ele></ele><time>2017-9-17T12:22:32Z</time></trkpt>
<trkpt lat="48.423898" lon="2.669289"><ele></ele><time>2017-9-17T12:22:35Z</time></trkpt>
<trkpt lat="48.424" lon="2.669214"><ele></ele><time>2017-9-17T12:22:38Z</time></trkpt>
<trkpt lat="48.424101" lon="2.669159"><ele></ele><time>2017-9-17T12:22:41Z</time></trkpt>
<trkpt lat="48.424186" lon="2.669091"><ele></ele><time>2017-9-17T12:22:44Z</time></trkpt>
<trkpt lat="48.424307" lon="2.669026"><ele></ele><time>2017-9-17T12:22:47Z</time></trkpt>
<trkpt lat="48.424401" lon="2.668957"><ele></ele><time>2017-9-17T12:22:50Z</time></trkpt>
<trkpt lat="48.424498" lon="2.668875"><ele></ele><time>2017-9-17T12:22:53Z</time></trkpt>
<trkpt lat="48.424595" lon="2.668791"><ele></ele><time>2017-9-17T12:22:56Z</time></trkpt>
<trkpt lat="48.42469" lon="2.668705"><ele></ele><time>2017-9-17T12:22:59Z</time></trkpt>
<trkpt lat="48.424788" lon="2.668623"><ele></ele><time>2017-9-17T12:23:2Z</time></trkpt>
<trkpt lat="48.424883" lon="2.668531"><ele></ele><time>2017-9-17T12:23:5Z</time></trkpt>
<trkpt lat="48.424995" lon="2.668465"><ele></ele><time>2017-9-17T12:23:8Z</time></trkpt>
<trkpt lat="48.425116" lon="2.668429"><ele></ele><time>2017-9-17T12:23:11Z</time></trkpt>
<trkpt lat="48.425221" lon="2.668403"><ele></ele><time>2017-9-17T12:23:14Z</time></trkpt>
<trkpt lat="48.425307" lon="2.668332"><ele></ele><time>2017-9-17T12:23:17Z</time></trkpt>
<trkpt lat="48.425389" lon="2.668271"><ele></ele><time>2017-9-17T12:23:20Z</time></trkpt>
<trkpt lat="48.425509" lon="2.668158"><ele></ele><time>2017-9-17T12:23:23Z</time></trkpt>
<trkpt lat="48.425603" lon="2.668086"><ele></ele><time>2017-9-17T12:23:26Z</time></trkpt>
<trkpt lat="48.425689" lon="2.668044"><ele></ele><time>2017-9-17T12:23:29Z</time></trkpt>
<trkpt lat="48.425784" lon="2.667999"><ele></ele><time>2017-9-17T12:23:32Z</time></trkpt>
<trkpt lat="48.42588" lon="2.667927"><ele></ele><time>2017-9-17T12:23:35Z</time></trkpt>
<trkpt lat="48.425991" lon="2.667876"><ele></ele><time>2017-9-17T12:23:38Z</time></trkpt>
<trkpt lat="48.426098" lon="2.667793"><ele></ele><time>2017-9-17T12:23:41Z</time></trkpt>
<trkpt lat="48.426202" lon="2.667732"><ele></ele><time>2017-9-17T12:23:44Z</time></trkpt>
<trkpt lat="48.426321" lon="2.667683"><ele></ele><time>2017-9-17T12:23:47Z</time></trkpt>
<trkpt lat="48.426419" lon="2.667626"><ele></ele><time>2017-9-17T12:23:50Z</time></trkpt>
<trkpt lat="48.4265" lon="2.667567"><ele></ele><time>2017-9-17T12:23:53Z</time></trkpt>
<trkpt lat="48.42658" lon="2.66749"><ele></ele><time>2017-9-17T12:23:56Z</time></trkpt>
<trkpt lat="48.426671" lon="2.667439"><ele></ele><time>2017-9-17T12:23:59Z</time></trkpt>
<trkpt lat="48.42676" lon="2.667401"><ele></ele><time>2017-9-17T12:24:2Z</time></trkpt>
<trkpt lat="48.426868" lon="2.667303"><ele></ele><time>2017-9-17T12:24:5Z</time></trkpt>
<trkpt lat="48.426966" lon="2.667241"><ele></ele><time>2017-9-17T12:24:8Z</time></trkpt>
<trkpt lat="48.42707" lon="2.667211"><ele></ele><time>2017-9-17T12:24:11Z</time></trkpt>
<trkpt lat="48.427181" lon="2.66714"><ele></ele><time>2017-9-17T12:24:14Z</time></trkpt>
<trkpt lat="48.427295" lon="2.667064"><ele></ele><time>2017-9-17T12:24:17Z</time></trkpt>
<trkpt lat="48.427413" lon="2.666982"><ele></ele><time>2017-9-17T12:24:20Z</time></trkpt>
<trkpt lat="48.427531" lon="2.666911"><ele></ele><time>2017-9-17T12:24:23Z</time></trkpt>
<trkpt lat="48.427636" lon="2.666838"><ele></ele><time>2017-9-17T12:24:26Z</time></trkpt>
<trkpt lat="48.427756" lon="2.666776"><ele></ele><time>2017-9-17T12:24:29Z</time></trkpt>
<trkpt lat="48.427863" lon="2.666689"><ele></ele><time>2017-9-17T12:24:32Z</time></trkpt>
<trkpt lat="48.427965" lon="2.666626"><ele></ele><time>2017-9-17T12:24:35Z</time></trkpt>
<trkpt lat="48.42805" lon="2.666568"><ele></ele><time>2017-9-17T12:24:38Z</time></trkpt>
<trkpt lat="48.428157" lon="2.666588"><ele></ele><time>2017-9-17T12:24:41Z</time></trkpt>
<trkpt lat="48.428276" lon="2.666549"><ele></ele><time>2017-9-17T12:24:44Z</time></trkpt>
<trkpt lat="48.428373" lon="2.666554"><ele></ele><time>2017-9-17T12:24:47Z</time></trkpt>
<trkpt lat="48.428462" lon="2.666497"><ele></ele><time>2017-9-17T12:24:50Z</time></trkpt>
<trkpt lat="48.428568" lon="2.666523"><ele></ele><time>2017-9-17T12:24:53Z</time></trkpt>
<trkpt lat="48.428665" lon="2.666575"><ele></ele><time>2017-9-17T12:24:56Z</time></trkpt>
<trkpt lat="48.428732" lon="2.666733"><ele></ele><time>2017-9-17T12:24:59Z</time></trkpt>
<trkpt lat="48.428799" lon="2.666843"><ele></ele><time>2017-9-17T12:25:2Z</time></trkpt>
<trkpt lat="48.428891" lon="2.666985"><ele></ele><time>2017-9-17T12:25:5Z</time></trkpt>
<trkpt lat="48.428964" lon="2.667089"><ele></ele><time>2017-9-17T12:25:8Z</time></trkpt>
<trkpt lat="48.429044" lon="2.667205"><ele></ele><time>2017-9-17T12:25:11Z</time></trkpt>
<trkpt lat="48.429091" lon="2.667334"><ele></ele><time>2017-9-17T12:25:14Z</time></trkpt>
<trkpt lat="48.429079" lon="2.667472"><ele></ele><time>2017-9-17T12:25:17Z</time></trkpt>
<trkpt lat="48.429201" lon="2.667514"><ele></ele><time>2017-9-17T12:25:20Z</time></trkpt>
<trkpt lat="48.429227" lon="2.667666"><ele></ele><time>2017-9-17T12:25:23Z</time></trkpt>
<trkpt lat="48.429322" lon="2.667666"><ele></ele><time>2017-9-17T12:25:26Z</time></trkpt>
<trkpt lat="48.429375" lon="2.667806"><ele></ele><time>2017-9-17T12:25:29Z</time></trkpt>
<trkpt lat="48.42947" lon="2.667888"><ele></ele><time>2017-9-17T12:25:32Z</time></trkpt>
<trkpt lat="48.429585" lon="2.66793"><ele></ele><time>2017-9-17T12:25:35Z</time></trkpt>
<trkpt lat="48.429681" lon="2.667991"><ele></ele><time>2017-9-17T12:25:38Z</time></trkpt>
<trkpt lat="48.429773" lon="2.668"><ele></ele><time>2017-9-17T12:25:41Z</time></trkpt>
<trkpt lat="48.429758" lon="2.668134"><ele></ele><time>2017-9-17T12:25:44Z</time></trkpt>
<trkpt lat="48.429844" lon="2.668203"><ele></ele><time>2017-9-17T12:25:47Z</time></trkpt>
<trkpt lat="48.429919" lon="2.668086"><ele></ele><time>2017-9-17T12:25:50Z</time></trkpt>
<trkpt lat="48.429947" lon="2.667952"><ele></ele><time>2017-9-17T12:25:53Z</time></trkpt>
<trkpt lat="48.429971" lon="2.667802"><ele></ele><time>2017-9-17T12:25:56Z</time></trkpt>
<trkpt lat="48.430029" lon="2.667696"><ele></ele><time>2017-9-17T12:25:59Z</time></trkpt>
<trkpt lat="48.43005" lon="2.66754"><ele></ele><time>2017-9-17T12:26:2Z</time></trkpt>
<trkpt lat="48.43003" lon="2.667399"><ele></ele><time>2017-9-17T12:26:5Z</time></trkpt>
<trkpt lat="48.42998" lon="2.667259"><ele></ele><time>2017-9-17T12:26:8Z</time></trkpt>
<trkpt lat="48.429993" lon="2.667101"><ele></ele><time>2017-9-17T12:26:11Z</time></trkpt>
<trkpt lat="48.430036" lon="2.666977"><ele></ele><time>2017-9-17T12:26:14Z</time></trkpt>
<trkpt lat="48.430067" lon="2.66684"><ele></ele><time>2017-9-17T12:26:17Z</time></trkpt>
<trkpt lat="48.430116" lon="2.666712"><ele></ele><time>2017-9-17T12:26:20Z</time></trkpt>
<trkpt lat="48.430233" lon="2.666622"><ele></ele><time>2017-9-17T12:26:23Z</time></trkpt>
<trkpt lat="48.43029" lon="2.666509"><ele></ele><time>2017-9-17T12:26:26Z</time></trkpt>
<trkpt lat="48.430371" lon="2.666367"><ele></ele><time>2017-9-17T12:26:29Z</time></trkpt>
<trkpt lat="48.43044" lon="2.666262"><ele></ele><time>2017-9-17T12:26:32Z</time></trkpt>
<trkpt lat="48.430533" lon="2.666162"><ele></ele><time>2017-9-17T12:26:35Z</time></trkpt>
<trkpt lat="48.430573" lon="2.666023"><ele></ele><time>2017-9-17T12:26:38Z</time></trkpt>
<trkpt lat="48.430654" lon="2.665917"><ele></ele><time>2017-9-17T12:26:41Z</time></trkpt>
<trkpt lat="48.430726" lon="2.665833"><ele></ele><time>2017-9-17T12:26:44Z</time></trkpt>
<trkpt lat="48.430799" lon="2.665753"><ele></ele><time>2017-9-17T12:26:47Z</time></trkpt>
<trkpt lat="48.430904" lon="2.665693"><ele></ele><time>2017-9-17T12:26:50Z</time></trkpt>
<trkpt lat="48.430987" lon="2.665639"><ele></ele><time>2017-9-17T12:26:53Z</time></trkpt>
<trkpt lat="48.4311" lon="2.665625"><ele></ele><time>2017-9-17T12:26:56Z</time></trkpt>
<trkpt lat="48.431212" lon="2.665643"><ele></ele><time>2017-9-17T12:26:59Z</time></trkpt>
<trkpt lat="48.431312" lon="2.665635"><ele></ele><time>2017-9-17T12:27:2Z</time></trkpt>
<trkpt lat="48.431427" lon="2.665638"><ele></ele><time>2017-9-17T12:27:5Z</time></trkpt>
<trkpt lat="48.431516" lon="2.665673"><ele></ele><time>2017-9-17T12:27:8Z</time></trkpt>
<trkpt lat="48.431643" lon="2.665695"><ele></ele><time>2017-9-17T12:27:11Z</time></trkpt>
<trkpt lat="48.431774" lon="2.66571"><ele></ele><time>2017-9-17T12:27:14Z</time></trkpt>
<trkpt lat="48.431892" lon="2.665674"><ele></ele><time>2017-9-17T12:27:17Z</time></trkpt>
<trkpt lat="48.431982" lon="2.665697"><ele></ele><time>2017-9-17T12:27:20Z</time></trkpt>
<trkpt lat="48.432091" lon="2.665711"><ele></ele><time>2017-9-17T12:27:23Z</time></trkpt>
<trkpt lat="48.432196" lon="2.665737"><ele></ele><time>2017-9-17T12:27:26Z</time></trkpt>
<trkpt lat="48.432295" lon="2.66578"><ele></ele><time>2017-9-17T12:27:29Z</time></trkpt>
<trkpt lat="48.432387" lon="2.665796"><ele></ele><time>2017-9-17T12:27:32Z</time></trkpt>
<trkpt lat="48.432483" lon="2.665822"><ele></ele><time>2017-9-17T12:27:35Z</time></trkpt>
<trkpt lat="48.432579" lon="2.665847"><ele></ele><time>2017-9-17T12:27:38Z</time></trkpt>
<trkpt lat="48.432711" lon="2.665887"><ele></ele><time>2017-9-17T12:27:41Z</time></trkpt>
<trkpt lat="48.432828" lon="2.665865"><ele></ele><time>2017-9-17T12:27:44Z</time></trkpt>
<trkpt lat="48.432918" lon="2.665883"><ele></ele><time>2017-9-17T12:27:47Z</time></trkpt>
<trkpt lat="48.433016" lon="2.665926"><ele></ele><time>2017-9-17T12:27:50Z</time></trkpt>
<trkpt lat="48.43312" lon="2.666"><ele></ele><time>2017-9-17T12:27:53Z</time></trkpt>
<trkpt lat="48.433235" lon="2.66601"><ele></ele><time>2017-9-17T12:27:56Z</time></trkpt>
<trkpt lat="48.433364" lon="2.666026"><ele></ele><time>2017-9-17T12:27:59Z</time></trkpt>
<trkpt lat="48.43349" lon="2.665978"><ele></ele><time>2017-9-17T12:28:2Z</time></trkpt>
<trkpt lat="48.433581" lon="2.665998"><ele></ele><time>2017-9-17T12:28:5Z</time></trkpt>
<trkpt lat="48.433699" lon="2.666055"><ele></ele><time>2017-9-17T12:28:8Z</time></trkpt>
<trkpt lat="48.433799" lon="2.666072"><ele></ele><time>2017-9-17T12:28:11Z</time></trkpt>
<trkpt lat="48.433886" lon="2.666113"><ele></ele><time>2017-9-17T12:28:14Z</time></trkpt>
<trkpt lat="48.434015" lon="2.666117"><ele></ele><time>2017-9-17T12:28:17Z</time></trkpt>
<trkpt lat="48.434118" lon="2.666178"><ele></ele><time>2017-9-17T12:28:20Z</time></trkpt>
<trkpt lat="48.434223" lon="2.666202"><ele></ele><time>2017-9-17T12:28:23Z</time></trkpt>
<trkpt lat="48.434333" lon="2.666261"><ele></ele><time>2017-9-17T12:28:26Z</time></trkpt>
<trkpt lat="48.434441" lon="2.666315"><ele></ele><time>2017-9-17T12:28:29Z</time></trkpt>
<trkpt lat="48.434532" lon="2.666327"><ele></ele><time>2017-9-17T12:28:32Z</time></trkpt>
<trkpt lat="48.434653" lon="2.66637"><ele></ele><time>2017-9-17T12:28:35Z</time></trkpt>
<trkpt lat="48.434772" lon="2.666367"><ele></ele><time>2017-9-17T12:28:38Z</time></trkpt>
<trkpt lat="48.434892" lon="2.666373"><ele></ele><time>2017-9-17T12:28:41Z</time></trkpt>
<trkpt lat="48.435022" lon="2.666423"><ele></ele><time>2017-9-17T12:28:44Z</time></trkpt>
<trkpt lat="48.435119" lon="2.66641"><ele></ele><time>2017-9-17T12:28:47Z</time></trkpt>
<trkpt lat="48.435222" lon="2.666394"><ele></ele><time>2017-9-17T12:28:50Z</time></trkpt>
<trkpt lat="48.435351" lon="2.666401"><ele></ele><time>2017-9-17T12:28:53Z</time></trkpt>
<trkpt lat="48.435452" lon="2.666458"><ele></ele><time>2017-9-17T12:28:56Z</time></trkpt>
<trkpt lat="48.435526" lon="2.66659"><ele></ele><time>2017-9-17T12:28:59Z</time></trkpt>
<trkpt lat="48.435594" lon="2.666683"><ele></ele><time>2017-9-17T12:29:2Z</time></trkpt>
<trkpt lat="48.435689" lon="2.666745"><ele></ele><time>2017-9-17T12:29:5Z</time></trkpt>
<trkpt lat="48.435777" lon="2.666794"><ele></ele><time>2017-9-17T12:29:8Z</time></trkpt>
<trkpt lat="48.435857" lon="2.666859"><ele></ele><time>2017-9-17T12:29:11Z</time></trkpt>
<trkpt lat="48.43593" lon="2.666954"><ele></ele><time>2017-9-17T12:29:14Z</time></trkpt>
<trkpt lat="48.436058" lon="2.667014"><ele></ele><time>2017-9-17T12:29:17Z</time></trkpt>
<trkpt lat="48.436127" lon="2.667142"><ele></ele><time>2017-9-17T12:29:20Z</time></trkpt>
<trkpt lat="48.436216" lon="2.667205"><ele></ele><time>2017-9-17T12:29:23Z</time></trkpt>
<trkpt lat="48.436337" lon="2.667176"><ele></ele><time>2017-9-17T12:29:26Z</time></trkpt>
<trkpt lat="48.436456" lon="2.667205"><ele></ele><time>2017-9-17T12:29:29Z</time></trkpt>
<trkpt lat="48.436557" lon="2.667171"><ele></ele><time>2017-9-17T12:29:32Z</time></trkpt>
<trkpt lat="48.436655" lon="2.66714"><ele></ele><time>2017-9-17T12:29:35Z</time></trkpt>
<trkpt lat="48.43675" lon="2.667135"><ele></ele><time>2017-9-17T12:29:38Z</time></trkpt>
<trkpt lat="48.436846" lon="2.66711"><ele></ele><time>2017-9-17T12:29:41Z</time></trkpt>
<trkpt lat="48.436962" lon="2.667113"><ele></ele><time>2017-9-17T12:29:44Z</time></trkpt>
<trkpt lat="48.437076" lon="2.667114"><ele></ele><time>2017-9-17T12:29:47Z</time></trkpt>
<trkpt lat="48.437194" lon="2.667129"><ele></ele><time>2017-9-17T12:29:50Z</time></trkpt>
<trkpt lat="48.437293" lon="2.667162"><ele></ele><time>2017-9-17T12:29:53Z</time></trkpt>
<trkpt lat="48.437397" lon="2.667235"><ele></ele><time>2017-9-17T12:29:56Z</time></trkpt>
<trkpt lat="48.437517" lon="2.667263"><ele></ele><time>2017-9-17T12:29:59Z</time></trkpt>
<trkpt lat="48.43762" lon="2.667284"><ele></ele><time>2017-9-17T12:30:2Z</time></trkpt>
<trkpt lat="48.43774" lon="2.667319"><ele></ele><time>2017-9-17T12:30:5Z</time></trkpt>
<trkpt lat="48.437838" lon="2.667378"><ele></ele><time>2017-9-17T12:30:8Z</time></trkpt>
<trkpt lat="48.437935" lon="2.667424"><ele></ele><time>2017-9-17T12:30:11Z</time></trkpt>
<trkpt lat="48.438054" lon="2.667495"><ele></ele><time>2017-9-17T12:30:14Z</time></trkpt>
<trkpt lat="48.43815" lon="2.667544"><ele></ele><time>2017-9-17T12:30:17Z</time></trkpt>
<trkpt lat="48.438276" lon="2.667585"><ele></ele><time>2017-9-17T12:30:20Z</time></trkpt>
<trkpt lat="48.438365" lon="2.667648"><ele></ele><time>2017-9-17T12:30:23Z</time></trkpt>
<trkpt lat="48.438455" lon="2.667687"><ele></ele><time>2017-9-17T12:30:26Z</time></trkpt>
<trkpt lat="48.438543" lon="2.667741"><ele></ele><time>2017-9-17T12:30:29Z</time></trkpt>
<trkpt lat="48.438649" lon="2.66778"><ele></ele><time>2017-9-17T12:30:32Z</time></trkpt>
<trkpt lat="48.438751" lon="2.667829"><ele></ele><time>2017-9-17T12:30:35Z</time></trkpt>
<trkpt lat="48.438866" lon="2.667873"><ele></ele><time>2017-9-17T12:30:38Z</time></trkpt>
<trkpt lat="48.438975" lon="2.667914"><ele></ele><time>2017-9-17T12:30:41Z</time></trkpt>
<trkpt lat="48.439091" lon="2.667924"><ele></ele><time>2017-9-17T12:30:44Z</time></trkpt>
<trkpt lat="48.43919" lon="2.667957"><ele></ele><time>2017-9-17T12:30:47Z</time></trkpt>
<trkpt lat="48.43931" lon="2.667962"><ele></ele><time>2017-9-17T12:30:50Z</time></trkpt>
<trkpt lat="48.439421" lon="2.667939"><ele></ele><time>2017-9-17T12:30:53Z</time></trkpt>
<trkpt lat="48.439529" lon="2.667894"><ele></ele><time>2017-9-17T12:30:56Z</time></trkpt>
<trkpt lat="48.439631" lon="2.667849"><ele></ele><time>2017-9-17T12:30:59Z</time></trkpt>
<trkpt lat="48.439722" lon="2.667901"><ele></ele><time>2017-9-17T12:31:2Z</time></trkpt>
<trkpt lat="48.43983" lon="2.667959"><ele></ele><time>2017-9-17T12:31:5Z</time></trkpt>
<trkpt lat="48.439961" lon="2.66802"><ele></ele><time>2017-9-17T12:31:8Z</time></trkpt>
<trkpt lat="48.440085" lon="2.668081"><ele></ele><time>2017-9-17T12:31:11Z</time></trkpt>
<trkpt lat="48.440203" lon="2.668133"><ele></ele><time>2017-9-17T12:31:14Z</time></trkpt>
<trkpt lat="48.440293" lon="2.668171"><ele></ele><time>2017-9-17T12:31:17Z</time></trkpt>
<trkpt lat="48.440411" lon="2.668237"><ele></ele><time>2017-9-17T12:31:20Z</time></trkpt>
<trkpt lat="48.440495" lon="2.668286"><ele></ele><time>2017-9-17T12:31:23Z</time></trkpt>
<trkpt lat="48.440605" lon="2.668372"><ele></ele><time>2017-9-17T12:31:26Z</time></trkpt>
<trkpt lat="48.440703" lon="2.668398"><ele></ele><time>2017-9-17T12:31:29Z</time></trkpt>
<trkpt lat="48.440789" lon="2.66845"><ele></ele><time>2017-9-17T12:31:32Z</time></trkpt>
<trkpt lat="48.440922" lon="2.668512"><ele></ele><time>2017-9-17T12:31:35Z</time></trkpt>
<trkpt lat="48.441035" lon="2.668589"><ele></ele><time>2017-9-17T12:31:38Z</time></trkpt>
<trkpt lat="48.441157" lon="2.668665"><ele></ele><time>2017-9-17T12:31:41Z</time></trkpt>
<trkpt lat="48.441251" lon="2.668713"><ele></ele><time>2017-9-17T12:31:44Z</time></trkpt>
<trkpt lat="48.441359" lon="2.668776"><ele></ele><time>2017-9-17T12:31:47Z</time></trkpt>
<trkpt lat="48.441464" lon="2.668883"><ele></ele><time>2017-9-17T12:31:50Z</time></trkpt>
<trkpt lat="48.44159" lon="2.668951"><ele></ele><time>2017-9-17T12:31:53Z</time></trkpt>
<trkpt lat="48.441701" lon="2.668997"><ele></ele><time>2017-9-17T12:31:56Z</time></trkpt>
<trkpt lat="48.44182" lon="2.669054"><ele></ele><time>2017-9-17T12:31:59Z</time></trkpt>
<trkpt lat="48.44191" lon="2.669154"><ele></ele><time>2017-9-17T12:32:2Z</time></trkpt>
<trkpt lat="48.441979" lon="2.669288"><ele></ele><time>2017-9-17T12:32:5Z</time></trkpt>
<trkpt lat="48.442076" lon="2.669339"><ele></ele><time>2017-9-17T12:32:8Z</time></trkpt>
<trkpt lat="48.442173" lon="2.669313"><ele></ele><time>2017-9-17T12:32:11Z</time></trkpt>
<trkpt lat="48.44226" lon="2.669373"><ele></ele><time>2017-9-17T12:32:14Z</time></trkpt>
<trkpt lat="48.442372" lon="2.669391"><ele></ele><time>2017-9-17T12:32:17Z</time></trkpt>
<trkpt lat="48.442488" lon="2.669407"><ele></ele><time>2017-9-17T12:32:20Z</time></trkpt>
<trkpt lat="48.442596" lon="2.669443"><ele></ele><time>2017-9-17T12:32:23Z</time></trkpt>
<trkpt lat="48.442694" lon="2.669406"><ele></ele><time>2017-9-17T12:32:26Z</time></trkpt>
<trkpt lat="48.442802" lon="2.669386"><ele></ele><time>2017-9-17T12:32:29Z</time></trkpt>
<trkpt lat="48.442905" lon="2.669337"><ele></ele><time>2017-9-17T12:32:32Z</time></trkpt>
<trkpt lat="48.443022" lon="2.669367"><ele></ele><time>2017-9-17T12:32:35Z</time></trkpt>
<trkpt lat="48.443119" lon="2.66946"><ele></ele><time>2017-9-17T12:32:38Z</time></trkpt>
<trkpt lat="48.443212" lon="2.669508"><ele></ele><time>2017-9-17T12:32:41Z</time></trkpt>
<trkpt lat="48.443315" lon="2.66955"><ele></ele><time>2017-9-17T12:32:44Z</time></trkpt>
<trkpt lat="48.443416" lon="2.66955"><ele></ele><time>2017-9-17T12:32:47Z</time></trkpt>
<trkpt lat="48.443515" lon="2.669578"><ele></ele><time>2017-9-17T12:32:50Z</time></trkpt>
<trkpt lat="48.443591" lon="2.669701"><ele></ele><time>2017-9-17T12:32:53Z</time></trkpt>
<trkpt lat="48.443695" lon="2.669737"><ele></ele><time>2017-9-17T12:32:56Z</time></trkpt>
<trkpt lat="48.443735" lon="2.669605"><ele></ele><time>2017-9-17T12:32:59Z</time></trkpt>
<trkpt lat="48.44376" lon="2.669467"><ele></ele><time>2017-9-17T12:33:2Z</time></trkpt>
<trkpt lat="48.443826" lon="2.669365"><ele></ele><time>2017-9-17T12:33:5Z</time></trkpt>
<trkpt lat="48.443876" lon="2.669224"><ele></ele><time>2017-9-17T12:33:8Z</time></trkpt>
<trkpt lat="48.443955" lon="2.669149"><ele></ele><time>2017-9-17T12:33:11Z</time></trkpt>
<trkpt lat="48.444027" lon="2.66905"><ele></ele><time>2017-9-17T12:33:14Z</time></trkpt>
<trkpt lat="48.444111" lon="2.668957"><ele></ele><time>2017-9-17T12:33:17Z</time></trkpt>
<trkpt lat="48.444206" lon="2.668857"><ele></ele><time>2017-9-17T12:33:20Z</time></trkpt>
<trkpt lat="48.444287" lon="2.668737"><ele></ele><time>2017-9-17T12:33:23Z</time></trkpt>
<trkpt lat="48.444361" lon="2.668649"><ele></ele><time>2017-9-17T12:33:26Z</time></trkpt>
<trkpt lat="48.444453" lon="2.668566"><ele></ele><time>2017-9-17T12:33:29Z</time></trkpt>
<trkpt lat="48.444549" lon="2.668478"><ele></ele><time>2017-9-17T12:33:32Z</time></trkpt>
<trkpt lat="48.444639" lon="2.668378"><ele></ele><time>2017-9-17T12:33:35Z</time></trkpt>
<trkpt lat="48.444723" lon="2.66826"><ele></ele><time>2017-9-17T12:33:38Z</time></trkpt>
<trkpt lat="48.44482" lon="2.668152"><ele></ele><time>2017-9-17T12:33:41Z</time></trkpt>
<trkpt lat="48.444908" lon="2.66801"><ele></ele><time>2017-9-17T12:33:44Z</time></trkpt>
<trkpt lat="48.444985" lon="2.667908"><ele></ele><time>2017-9-17T12:33:47Z</time></trkpt>
<trkpt lat="48.445068" lon="2.667807"><ele></ele><time>2017-9-17T12:33:50Z</time></trkpt>
<trkpt lat="48.445155" lon="2.667714"><ele></ele><time>2017-9-17T12:33:53Z</time></trkpt>
<trkpt lat="48.445257" lon="2.667606"><ele></ele><time>2017-9-17T12:33:56Z</time></trkpt>
<trkpt lat="48.445356" lon="2.667506"><ele></ele><time>2017-9-17T12:33:59Z</time></trkpt>
<trkpt lat="48.445429" lon="2.66742"><ele></ele><time>2017-9-17T12:34:2Z</time></trkpt>
<trkpt lat="48.445541" lon="2.667303"><ele></ele><time>2017-9-17T12:34:5Z</time></trkpt>
<trkpt lat="48.445627" lon="2.667227"><ele></ele><time>2017-9-17T12:34:8Z</time></trkpt>
<trkpt lat="48.445689" lon="2.667117"><ele></ele><time>2017-9-17T12:34:11Z</time></trkpt>
<trkpt lat="48.445793" lon="2.667005"><ele></ele><time>2017-9-17T12:34:14Z</time></trkpt>
<trkpt lat="48.445847" lon="2.666895"><ele></ele><time>2017-9-17T12:34:17Z</time></trkpt>
<trkpt lat="48.445921" lon="2.666773"><ele></ele><time>2017-9-17T12:34:20Z</time></trkpt>
<trkpt lat="48.446004" lon="2.666686"><ele></ele><time>2017-9-17T12:34:23Z</time></trkpt>
<trkpt lat="48.446111" lon="2.666562"><ele></ele><time>2017-9-17T12:34:26Z</time></trkpt>
<trkpt lat="48.446184" lon="2.666464"><ele></ele><time>2017-9-17T12:34:29Z</time></trkpt>
<trkpt lat="48.446249" lon="2.666364"><ele></ele><time>2017-9-17T12:34:32Z</time></trkpt>
<trkpt lat="48.446338" lon="2.666287"><ele></ele><time>2017-9-17T12:34:35Z</time></trkpt>
<trkpt lat="48.446401" lon="2.666188"><ele></ele><time>2017-9-17T12:34:38Z</time></trkpt>
<trkpt lat="48.446479" lon="2.66609"><ele></ele><time>2017-9-17T12:34:41Z</time></trkpt>
<trkpt lat="48.446552" lon="2.666002"><ele></ele><time>2017-9-17T12:34:44Z</time></trkpt>
<trkpt lat="48.446642" lon="2.665896"><ele></ele><time>2017-9-17T12:34:47Z</time></trkpt>
<trkpt lat="48.446731" lon="2.665814"><ele></ele><time>2017-9-17T12:34:50Z</time></trkpt>
<trkpt lat="48.446807" lon="2.665719"><ele></ele><time>2017-9-17T12:34:53Z</time></trkpt>
<trkpt lat="48.446895" lon="2.665646"><ele></ele><time>2017-9-17T12:34:56Z</time></trkpt>
<trkpt lat="48.446977" lon="2.665543"><ele></ele><time>2017-9-17T12:34:59Z</time></trkpt>
<trkpt lat="48.447067" lon="2.665459"><ele></ele><time>2017-9-17T12:35:2Z</time></trkpt>
<trkpt lat="48.447167" lon="2.665337"><ele></ele><time>2017-9-17T12:35:5Z</time></trkpt>
<trkpt lat="48.447246" lon="2.66524"><ele></ele><time>2017-9-17T12:35:8Z</time></trkpt>
<trkpt lat="48.447339" lon="2.665137"><ele></ele><time>2017-9-17T12:35:11Z</time></trkpt>
<trkpt lat="48.447423" lon="2.665013"><ele></ele><time>2017-9-17T12:35:14Z</time></trkpt>
<trkpt lat="48.4475" lon="2.664893"><ele></ele><time>2017-9-17T12:35:17Z</time></trkpt>
<trkpt lat="48.447605" lon="2.664785"><ele></ele><time>2017-9-17T12:35:20Z</time></trkpt>
<trkpt lat="48.447688" lon="2.664688"><ele></ele><time>2017-9-17T12:35:23Z</time></trkpt>
<trkpt lat="48.447756" lon="2.664592"><ele></ele><time>2017-9-17T12:35:26Z</time></trkpt>
<trkpt lat="48.447846" lon="2.664481"><ele></ele><time>2017-9-17T12:35:29Z</time></trkpt>
<trkpt lat="48.447893" lon="2.664349"><ele></ele><time>2017-9-17T12:35:32Z</time></trkpt>
<trkpt lat="48.447953" lon="2.66422"><ele></ele><time>2017-9-17T12:35:35Z</time></trkpt>
<trkpt lat="48.44801" lon="2.664115"><ele></ele><time>2017-9-17T12:35:38Z</time></trkpt>
<trkpt lat="48.448036" lon="2.663952"><ele></ele><time>2017-9-17T12:35:41Z</time></trkpt>
<trkpt lat="48.448073" lon="2.663801"><ele></ele><time>2017-9-17T12:35:44Z</time></trkpt>
<trkpt lat="48.448124" lon="2.663687"><ele></ele><time>2017-9-17T12:35:47Z</time></trkpt>
<trkpt lat="48.448171" lon="2.663524"><ele></ele><time>2017-9-17T12:35:50Z</time></trkpt>
<trkpt lat="48.448236" lon="2.663339"><ele></ele><time>2017-9-17T12:35:53Z</time></trkpt>
<trkpt lat="48.448277" lon="2.663173"><ele></ele><time>2017-9-17T12:35:56Z</time></trkpt>
<trkpt lat="48.448301" lon="2.663026"><ele></ele><time>2017-9-17T12:35:59Z</time></trkpt>
<trkpt lat="48.448362" lon="2.662845"><ele></ele><time>2017-9-17T12:36:2Z</time></trkpt>
<trkpt lat="48.448437" lon="2.662708"><ele></ele><time>2017-9-17T12:36:5Z</time></trkpt>
<trkpt lat="48.448476" lon="2.662536"><ele></ele><time>2017-9-17T12:36:8Z</time></trkpt>
<trkpt lat="48.448546" lon="2.662348"><ele></ele><time>2017-9-17T12:36:11Z</time></trkpt>
<trkpt lat="48.448593" lon="2.66222"><ele></ele><time>2017-9-17T12:36:14Z</time></trkpt>
<trkpt lat="48.448649" lon="2.662101"><ele></ele><time>2017-9-17T12:36:17Z</time></trkpt>
<trkpt lat="48.448694" lon="2.661932"><ele></ele><time>2017-9-17T12:36:20Z</time></trkpt>
<trkpt lat="48.448739" lon="2.66176"><ele></ele><time>2017-9-17T12:36:23Z</time></trkpt>
<trkpt lat="48.448801" lon="2.661616"><ele></ele><time>2017-9-17T12:36:26Z</time></trkpt>
<trkpt lat="48.448855" lon="2.66149"><ele></ele><time>2017-9-17T12:36:29Z</time></trkpt>
<trkpt lat="48.448873" lon="2.661345"><ele></ele><time>2017-9-17T12:36:32Z</time></trkpt>
<trkpt lat="48.448916" lon="2.6612"><ele></ele><time>2017-9-17T12:36:35Z</time></trkpt>
<trkpt lat="48.448973" lon="2.661045"><ele></ele><time>2017-9-17T12:36:38Z</time></trkpt>
<trkpt lat="48.449017" lon="2.660923"><ele></ele><time>2017-9-17T12:36:41Z</time></trkpt>
<trkpt lat="48.449074" lon="2.660778"><ele></ele><time>2017-9-17T12:36:44Z</time></trkpt>
<trkpt lat="48.449115" lon="2.660637"><ele></ele><time>2017-9-17T12:36:47Z</time></trkpt>
<trkpt lat="48.449176" lon="2.660516"><ele></ele><time>2017-9-17T12:36:50Z</time></trkpt>
<trkpt lat="48.449223" lon="2.660378"><ele></ele><time>2017-9-17T12:36:53Z</time></trkpt>
<trkpt lat="48.449257" lon="2.660226"><ele></ele><time>2017-9-17T12:36:56Z</time></trkpt>
<trkpt lat="48.449294" lon="2.660094"><ele></ele><time>2017-9-17T12:36:59Z</time></trkpt>
<trkpt lat="48.449341" lon="2.659944"><ele></ele><time>2017-9-17T12:37:2Z</time></trkpt>
<trkpt lat="48.449373" lon="2.659782"><ele></ele><time>2017-9-17T12:37:5Z</time></trkpt>
<trkpt lat="48.449419" lon="2.659614"><ele></ele><time>2017-9-17T12:37:8Z</time></trkpt>
<trkpt lat="48.449462" lon="2.659481"><ele></ele><time>2017-9-17T12:37:11Z</time></trkpt>
<trkpt lat="48.449506" lon="2.659341"><ele></ele><time>2017-9-17T12:37:14Z</time></trkpt>
<trkpt lat="48.449557" lon="2.659221"><ele></ele><time>2017-9-17T12:37:17Z</time></trkpt>
<trkpt lat="48.449632" lon="2.659103"><ele></ele><time>2017-9-17T12:37:20Z</time></trkpt>
<trkpt lat="48.449746" lon="2.659104"><ele></ele><time>2017-9-17T12:37:23Z</time></trkpt>
<trkpt lat="48.449848" lon="2.659084"><ele></ele><time>2017-9-17T12:37:26Z</time></trkpt>
<trkpt lat="48.449967" lon="2.659101"><ele></ele><time>2017-9-17T12:37:29Z</time></trkpt>
<trkpt lat="48.450081" lon="2.659116"><ele></ele><time>2017-9-17T12:37:32Z</time></trkpt>
<trkpt lat="48.450175" lon="2.659115"><ele></ele><time>2017-9-17T12:37:35Z</time></trkpt>
<trkpt lat="48.450269" lon="2.659154"><ele></ele><time>2017-9-17T12:37:38Z</time></trkpt>
<trkpt lat="48.450399" lon="2.659161"><ele></ele><time>2017-9-17T12:37:41Z</time></trkpt>
<trkpt lat="48.450497" lon="2.659154"><ele></ele><time>2017-9-17T12:37:44Z</time></trkpt>
<trkpt lat="48.450585" lon="2.659199"><ele></ele><time>2017-9-17T12:37:47Z</time></trkpt>
<trkpt lat="48.450711" lon="2.659243"><ele></ele><time>2017-9-17T12:37:50Z</time></trkpt>
<trkpt lat="48.450805" lon="2.659247"><ele></ele><time>2017-9-17T12:37:53Z</time></trkpt>
<trkpt lat="48.450926" lon="2.659259"><ele></ele><time>2017-9-17T12:37:56Z</time></trkpt>
<trkpt lat="48.451035" lon="2.659271"><ele></ele><time>2017-9-17T12:37:59Z</time></trkpt>
<trkpt lat="48.451154" lon="2.659286"><ele></ele><time>2017-9-17T12:38:2Z</time></trkpt>
<trkpt lat="48.45126" lon="2.659305"><ele></ele><time>2017-9-17T12:38:5Z</time></trkpt>
<trkpt lat="48.451378" lon="2.659319"><ele></ele><time>2017-9-17T12:38:8Z</time></trkpt>
<trkpt lat="48.451493" lon="2.659335"><ele></ele><time>2017-9-17T12:38:11Z</time></trkpt>
<trkpt lat="48.451605" lon="2.659357"><ele></ele><time>2017-9-17T12:38:14Z</time></trkpt>
<trkpt lat="48.451731" lon="2.659387"><ele></ele><time>2017-9-17T12:38:17Z</time></trkpt>
<trkpt lat="48.451819" lon="2.659413"><ele></ele><time>2017-9-17T12:38:20Z</time></trkpt>
<trkpt lat="48.451955" lon="2.659423"><ele></ele><time>2017-9-17T12:38:23Z</time></trkpt>
<trkpt lat="48.45205" lon="2.659443"><ele></ele><time>2017-9-17T12:38:26Z</time></trkpt>
<trkpt lat="48.452184" lon="2.659473"><ele></ele><time>2017-9-17T12:38:29Z</time></trkpt>
<trkpt lat="48.452289" lon="2.659447"><ele></ele><time>2017-9-17T12:38:32Z</time></trkpt>
<trkpt lat="48.452432" lon="2.659473"><ele></ele><time>2017-9-17T12:38:35Z</time></trkpt>
<trkpt lat="48.45254" lon="2.659507"><ele></ele><time>2017-9-17T12:38:38Z</time></trkpt>
<trkpt lat="48.452669" lon="2.65952"><ele></ele><time>2017-9-17T12:38:41Z</time></trkpt>
<trkpt lat="48.452772" lon="2.659537"><ele></ele><time>2017-9-17T12:38:44Z</time></trkpt>
<trkpt lat="48.452892" lon="2.65957"><ele></ele><time>2017-9-17T12:38:47Z</time></trkpt>
<trkpt lat="48.453009" lon="2.659605"><ele></ele><time>2017-9-17T12:38:50Z</time></trkpt>
<trkpt lat="48.453135" lon="2.659657"><ele></ele><time>2017-9-17T12:38:53Z</time></trkpt>
<trkpt lat="48.453276" lon="2.659678"><ele></ele><time>2017-9-17T12:38:56Z</time></trkpt>
<trkpt lat="48.453379" lon="2.659701"><ele></ele><time>2017-9-17T12:38:59Z</time></trkpt>
<trkpt lat="48.453503" lon="2.659727"><ele></ele><time>2017-9-17T12:39:2Z</time></trkpt>
<trkpt lat="48.453608" lon="2.659754"><ele></ele><time>2017-9-17T12:39:5Z</time></trkpt>
<trkpt lat="48.453727" lon="2.659746"><ele></ele><time>2017-9-17T12:39:8Z</time></trkpt>
<trkpt lat="48.453825" lon="2.659743"><ele></ele><time>2017-9-17T12:39:11Z</time></trkpt>
<trkpt lat="48.453955" lon="2.659726"><ele></ele><time>2017-9-17T12:39:14Z</time></trkpt>
<trkpt lat="48.454067" lon="2.65974"><ele></ele><time>2017-9-17T12:39:17Z</time></trkpt>
<trkpt lat="48.454165" lon="2.659756"><ele></ele><time>2017-9-17T12:39:20Z</time></trkpt>
<trkpt lat="48.454289" lon="2.659782"><ele></ele><time>2017-9-17T12:39:23Z</time></trkpt>
<trkpt lat="48.454412" lon="2.659787"><ele></ele><time>2017-9-17T12:39:26Z</time></trkpt>
<trkpt lat="48.454518" lon="2.65983"><ele></ele><time>2017-9-17T12:39:29Z</time></trkpt>
<trkpt lat="48.454636" lon="2.659856"><ele></ele><time>2017-9-17T12:39:32Z</time></trkpt>
<trkpt lat="48.454752" lon="2.659897"><ele></ele><time>2017-9-17T12:39:35Z</time></trkpt>
<trkpt lat="48.454856" lon="2.659904"><ele></ele><time>2017-9-17T12:39:38Z</time></trkpt>
<trkpt lat="48.455007" lon="2.659928"><ele></ele><time>2017-9-17T12:39:41Z</time></trkpt>
<trkpt lat="48.455123" lon="2.659946"><ele></ele><time>2017-9-17T12:39:44Z</time></trkpt>
<trkpt lat="48.455238" lon="2.659965"><ele></ele><time>2017-9-17T12:39:47Z</time></trkpt>
<trkpt lat="48.455344" lon="2.659969"><ele></ele><time>2017-9-17T12:39:50Z</time></trkpt>
<trkpt lat="48.455451" lon="2.660008"><ele></ele><time>2017-9-17T12:39:53Z</time></trkpt>
<trkpt lat="48.455592" lon="2.660029"><ele></ele><time>2017-9-17T12:39:56Z</time></trkpt>
<trkpt lat="48.455715" lon="2.660028"><ele></ele><time>2017-9-17T12:39:59Z</time></trkpt>
<trkpt lat="48.455809" lon="2.660037"><ele></ele><time>2017-9-17T12:40:2Z</time></trkpt>
<trkpt lat="48.455913" lon="2.660084"><ele></ele><time>2017-9-17T12:40:5Z</time></trkpt>
<trkpt lat="48.456013" lon="2.660099"><ele></ele><time>2017-9-17T12:40:8Z</time></trkpt>
<trkpt lat="48.456175" lon="2.660164"><ele></ele><time>2017-9-17T12:40:11Z</time></trkpt>
<trkpt lat="48.456241" lon="2.660064"><ele></ele><time>2017-9-17T12:40:14Z</time></trkpt>
<trkpt lat="48.456284" lon="2.65993"><ele></ele><time>2017-9-17T12:40:17Z</time></trkpt>
<trkpt lat="48.456312" lon="2.659764"><ele></ele><time>2017-9-17T12:40:20Z</time></trkpt>
<trkpt lat="48.456352" lon="2.659602"><ele></ele><time>2017-9-17T12:40:23Z</time></trkpt>
<trkpt lat="48.456375" lon="2.659443"><ele></ele><time>2017-9-17T12:40:26Z</time></trkpt>
<trkpt lat="48.456399" lon="2.659273"><ele></ele><time>2017-9-17T12:40:29Z</time></trkpt>
<trkpt lat="48.45642" lon="2.659138"><ele></ele><time>2017-9-17T12:40:32Z</time></trkpt>
<trkpt lat="48.456472" lon="2.65895"><ele></ele><time>2017-9-17T12:40:35Z</time></trkpt>
<trkpt lat="48.456523" lon="2.658798"><ele></ele><time>2017-9-17T12:40:38Z</time></trkpt>
<trkpt lat="48.456567" lon="2.658596"><ele></ele><time>2017-9-17T12:40:41Z</time></trkpt>
<trkpt lat="48.45664" lon="2.658427"><ele></ele><time>2017-9-17T12:40:44Z</time></trkpt>
<trkpt lat="48.456704" lon="2.658301"><ele></ele><time>2017-9-17T12:40:47Z</time></trkpt>
<trkpt lat="48.45676" lon="2.658147"><ele></ele><time>2017-9-17T12:40:50Z</time></trkpt>
<trkpt lat="48.456847" lon="2.657971"><ele></ele><time>2017-9-17T12:40:53Z</time></trkpt>
<trkpt lat="48.45695" lon="2.657886"><ele></ele><time>2017-9-17T12:40:56Z</time></trkpt>
<trkpt lat="48.457037" lon="2.657803"><ele></ele><time>2017-9-17T12:40:59Z</time></trkpt>
<trkpt lat="48.45713" lon="2.657736"><ele></ele><time>2017-9-17T12:41:2Z</time></trkpt>
<trkpt lat="48.457227" lon="2.657707"><ele></ele><time>2017-9-17T12:41:5Z</time></trkpt>
<trkpt lat="48.457315" lon="2.657652"><ele></ele><time>2017-9-17T12:41:8Z</time></trkpt>
<trkpt lat="48.457415" lon="2.657616"><ele></ele><time>2017-9-17T12:41:11Z</time></trkpt>
<trkpt lat="48.457492" lon="2.65775"><ele></ele><time>2017-9-17T12:41:14Z</time></trkpt>
<trkpt lat="48.45756" lon="2.657904"><ele></ele><time>2017-9-17T12:41:17Z</time></trkpt>
<trkpt lat="48.457622" lon="2.658009"><ele></ele><time>2017-9-17T12:41:20Z</time></trkpt>
<trkpt lat="48.457717" lon="2.658065"><ele></ele><time>2017-9-17T12:41:23Z</time></trkpt>
<trkpt lat="48.457801" lon="2.658134"><ele></ele><time>2017-9-17T12:41:26Z</time></trkpt>
<trkpt lat="48.457885" lon="2.658275"><ele></ele><time>2017-9-17T12:41:29Z</time></trkpt>
<trkpt lat="48.457965" lon="2.658438"><ele></ele><time>2017-9-17T12:41:32Z</time></trkpt>
<trkpt lat="48.458038" lon="2.658622"><ele></ele><time>2017-9-17T12:41:35Z</time></trkpt>
<trkpt lat="48.458082" lon="2.65879"><ele></ele><time>2017-9-17T12:41:38Z</time></trkpt>
<trkpt lat="48.458174" lon="2.658907"><ele></ele><time>2017-9-17T12:41:41Z</time></trkpt>
<trkpt lat="48.458286" lon="2.659103"><ele></ele><time>2017-9-17T12:41:44Z</time></trkpt>
<trkpt lat="48.458407" lon="2.659313"><ele></ele><time>2017-9-17T12:41:47Z</time></trkpt>
<trkpt lat="48.45845" lon="2.659443"><ele></ele><time>2017-9-17T12:41:50Z</time></trkpt>
<trkpt lat="48.458413" lon="2.659653"><ele></ele><time>2017-9-17T12:41:53Z</time></trkpt>
<trkpt lat="48.4584" lon="2.659852"><ele></ele><time>2017-9-17T12:41:56Z</time></trkpt>
<trkpt lat="48.458443" lon="2.660037"><ele></ele><time>2017-9-17T12:41:59Z</time></trkpt>
<trkpt lat="48.458437" lon="2.660205"><ele></ele><time>2017-9-17T12:42:2Z</time></trkpt>
<trkpt lat="48.458454" lon="2.660401"><ele></ele><time>2017-9-17T12:42:5Z</time></trkpt>
<trkpt lat="48.458509" lon="2.660543"><ele></ele><time>2017-9-17T12:42:8Z</time></trkpt>
<trkpt lat="48.458572" lon="2.660641"><ele></ele><time>2017-9-17T12:42:11Z</time></trkpt>
<trkpt lat="48.458683" lon="2.660717"><ele></ele><time>2017-9-17T12:42:14Z</time></trkpt>
<trkpt lat="48.4588" lon="2.660789"><ele></ele><time>2017-9-17T12:42:17Z</time></trkpt>
<trkpt lat="48.458931" lon="2.660871"><ele></ele><time>2017-9-17T12:42:20Z</time></trkpt>
<trkpt lat="48.459039" lon="2.660947"><ele></ele><time>2017-9-17T12:42:23Z</time></trkpt>
<trkpt lat="48.45918" lon="2.661034"><ele></ele><time>2017-9-17T12:42:26Z</time></trkpt>
<trkpt lat="48.459295" lon="2.661116"><ele></ele><time>2017-9-17T12:42:29Z</time></trkpt>
<trkpt lat="48.459451" lon="2.661216"><ele></ele><time>2017-9-17T12:42:32Z</time></trkpt>
<trkpt lat="48.459547" lon="2.66131"><ele></ele><time>2017-9-17T12:42:35Z</time></trkpt>
<trkpt lat="48.459636" lon="2.661359"><ele></ele><time>2017-9-17T12:42:38Z</time></trkpt>
<trkpt lat="48.45975" lon="2.66142"><ele></ele><time>2017-9-17T12:42:41Z</time></trkpt>
<trkpt lat="48.459863" lon="2.661484"><ele></ele><time>2017-9-17T12:42:44Z</time></trkpt>
<trkpt lat="48.459984" lon="2.661481"><ele></ele><time>2017-9-17T12:42:47Z</time></trkpt>
<trkpt lat="48.460111" lon="2.661392"><ele></ele><time>2017-9-17T12:42:50Z</time></trkpt>
<trkpt lat="48.4602" lon="2.661333"><ele></ele><time>2017-9-17T12:42:53Z</time></trkpt>
<trkpt lat="48.460317" lon="2.66129"><ele></ele><time>2017-9-17T12:42:56Z</time></trkpt>
<trkpt lat="48.460403" lon="2.661208"><ele></ele><time>2017-9-17T12:42:59Z</time></trkpt>
<trkpt lat="48.46051" lon="2.661128"><ele></ele><time>2017-9-17T12:43:2Z</time></trkpt>
<trkpt lat="48.460583" lon="2.661014"><ele></ele><time>2017-9-17T12:43:5Z</time></trkpt>
<trkpt lat="48.460634" lon="2.660885"><ele></ele><time>2017-9-17T12:43:8Z</time></trkpt>
<trkpt lat="48.460704" lon="2.660776"><ele></ele><time>2017-9-17T12:43:11Z</time></trkpt>
<trkpt lat="48.460774" lon="2.660688"><ele></ele><time>2017-9-17T12:43:14Z</time></trkpt>
<trkpt lat="48.460855" lon="2.660585"><ele></ele><time>2017-9-17T12:43:17Z</time></trkpt>
<trkpt lat="48.460967" lon="2.660523"><ele></ele><time>2017-9-17T12:43:20Z</time></trkpt>
<trkpt lat="48.461063" lon="2.660486"><ele></ele><time>2017-9-17T12:43:23Z</time></trkpt>
<trkpt lat="48.461172" lon="2.660431"><ele></ele><time>2017-9-17T12:43:26Z</time></trkpt>
<trkpt lat="48.461277" lon="2.660422"><ele></ele><time>2017-9-17T12:43:29Z</time></trkpt>
<trkpt lat="48.46141" lon="2.660487"><ele></ele><time>2017-9-17T12:43:32Z</time></trkpt>
<trkpt lat="48.461518" lon="2.66049"><ele></ele><time>2017-9-17T12:43:35Z</time></trkpt>
<trkpt lat="48.461637" lon="2.660513"><ele></ele><time>2017-9-17T12:43:38Z</time></trkpt>
<trkpt lat="48.461769" lon="2.660505"><ele></ele><time>2017-9-17T12:43:41Z</time></trkpt>
<trkpt lat="48.461938" lon="2.660463"><ele></ele><time>2017-9-17T12:43:44Z</time></trkpt>
<trkpt lat="48.462045" lon="2.6604"><ele></ele><time>2017-9-17T12:43:47Z</time></trkpt>
<trkpt lat="48.462152" lon="2.660378"><ele></ele><time>2017-9-17T12:43:50Z</time></trkpt>
<trkpt lat="48.462243" lon="2.660373"><ele></ele><time>2017-9-17T12:43:53Z</time></trkpt>
<trkpt lat="48.462343" lon="2.660324"><ele></ele><time>2017-9-17T12:43:56Z</time></trkpt>
<trkpt lat="48.462445" lon="2.660237"><ele></ele><time>2017-9-17T12:43:59Z</time></trkpt>
<trkpt lat="48.462541" lon="2.660158"><ele></ele><time>2017-9-17T12:44:2Z</time></trkpt>
<trkpt lat="48.462621" lon="2.660064"><ele></ele><time>2017-9-17T12:44:5Z</time></trkpt>
<trkpt lat="48.462715" lon="2.659964"><ele></ele><time>2017-9-17T12:44:8Z</time></trkpt>
<trkpt lat="48.462874" lon="2.659866"><ele></ele><time>2017-9-17T12:44:11Z</time></trkpt>
<trkpt lat="48.462978" lon="2.659811"><ele></ele><time>2017-9-17T12:44:14Z</time></trkpt>
<trkpt lat="48.463072" lon="2.659712"><ele></ele><time>2017-9-17T12:44:17Z</time></trkpt>
<trkpt lat="48.463189" lon="2.659639"><ele></ele><time>2017-9-17T12:44:20Z</time></trkpt>
<trkpt lat="48.46326" lon="2.659556"><ele></ele><time>2017-9-17T12:44:23Z</time></trkpt>
<trkpt lat="48.463353" lon="2.659468"><ele></ele><time>2017-9-17T12:44:26Z</time></trkpt>
<trkpt lat="48.463453" lon="2.659375"><ele></ele><time>2017-9-17T12:44:29Z</time></trkpt>
<trkpt lat="48.463552" lon="2.659297"><ele></ele><time>2017-9-17T12:44:32Z</time></trkpt>
<trkpt lat="48.463664" lon="2.659225"><ele></ele><time>2017-9-17T12:44:35Z</time></trkpt>
<trkpt lat="48.463768" lon="2.659165"><ele></ele><time>2017-9-17T12:44:38Z</time></trkpt>
<trkpt lat="48.463861" lon="2.659076"><ele></ele><time>2017-9-17T12:44:41Z</time></trkpt>
<trkpt lat="48.463951" lon="2.658992"><ele></ele><time>2017-9-17T12:44:44Z</time></trkpt>
<trkpt lat="48.464082" lon="2.658878"><ele></ele><time>2017-9-17T12:44:47Z</time></trkpt>
<trkpt lat="48.464172" lon="2.658798"><ele></ele><time>2017-9-17T12:44:50Z</time></trkpt>
<trkpt lat="48.464299" lon="2.658702"><ele></ele><time>2017-9-17T12:44:53Z</time></trkpt>
<trkpt lat="48.464455" lon="2.658624"><ele></ele><time>2017-9-17T12:44:56Z</time></trkpt>
<trkpt lat="48.464579" lon="2.658575"><ele></ele><time>2017-9-17T12:44:59Z</time></trkpt>
<trkpt lat="48.464719" lon="2.658536"><ele></ele><time>2017-9-17T12:45:2Z</time></trkpt>
<trkpt lat="48.464847" lon="2.658503"><ele></ele><time>2017-9-17T12:45:5Z</time></trkpt>
<trkpt lat="48.464946" lon="2.658493"><ele></ele><time>2017-9-17T12:45:8Z</time></trkpt>
<trkpt lat="48.465117" lon="2.65851"><ele></ele><time>2017-9-17T12:45:11Z</time></trkpt>
<trkpt lat="48.465257" lon="2.658463"><ele></ele><time>2017-9-17T12:45:14Z</time></trkpt>
<trkpt lat="48.465381" lon="2.658432"><ele></ele><time>2017-9-17T12:45:17Z</time></trkpt>
<trkpt lat="48.46548" lon="2.658387"><ele></ele><time>2017-9-17T12:45:20Z</time></trkpt>
<trkpt lat="48.465573" lon="2.658373"><ele></ele><time>2017-9-17T12:45:23Z</time></trkpt>
<trkpt lat="48.465672" lon="2.658418"><ele></ele><time>2017-9-17T12:45:26Z</time></trkpt>
<trkpt lat="48.465756" lon="2.658474"><ele></ele><time>2017-9-17T12:45:29Z</time></trkpt>
<trkpt lat="48.465859" lon="2.658441"><ele></ele><time>2017-9-17T12:45:32Z</time></trkpt>
<trkpt lat="48.465953" lon="2.658369"><ele></ele><time>2017-9-17T12:45:35Z</time></trkpt>
<trkpt lat="48.466055" lon="2.658362"><ele></ele><time>2017-9-17T12:45:38Z</time></trkpt>
<trkpt lat="48.466185" lon="2.658326"><ele></ele><time>2017-9-17T12:45:41Z</time></trkpt>
<trkpt lat="48.466305" lon="2.658328"><ele></ele><time>2017-9-17T12:45:44Z</time></trkpt>
<trkpt lat="48.466404" lon="2.658335"><ele></ele><time>2017-9-17T12:45:47Z</time></trkpt>
<trkpt lat="48.4665" lon="2.658306"><ele></ele><time>2017-9-17T12:45:50Z</time></trkpt>
<trkpt lat="48.466632" lon="2.658322"><ele></ele><time>2017-9-17T12:45:53Z</time></trkpt>
<trkpt lat="48.466756" lon="2.65839"><ele></ele><time>2017-9-17T12:45:56Z</time></trkpt>
<trkpt lat="48.46689" lon="2.658422"><ele></ele><time>2017-9-17T12:45:59Z</time></trkpt>
<trkpt lat="48.466993" lon="2.658459"><ele></ele><time>2017-9-17T12:46:2Z</time></trkpt>
<trkpt lat="48.467085" lon="2.658494"><ele></ele><time>2017-9-17T12:46:5Z</time></trkpt>
<trkpt lat="48.467174" lon="2.658467"><ele></ele><time>2017-9-17T12:46:8Z</time></trkpt>
<trkpt lat="48.467309" lon="2.658485"><ele></ele><time>2017-9-17T12:46:11Z</time></trkpt>
<trkpt lat="48.467445" lon="2.658496"><ele></ele><time>2017-9-17T12:46:14Z</time></trkpt>
<trkpt lat="48.467592" lon="2.658493"><ele></ele><time>2017-9-17T12:46:17Z</time></trkpt>
<trkpt lat="48.467704" lon="2.658495"><ele></ele><time>2017-9-17T12:46:20Z</time></trkpt>
<trkpt lat="48.467816" lon="2.658483"><ele></ele><time>2017-9-17T12:46:23Z</time></trkpt>
<trkpt lat="48.467916" lon="2.658515"><ele></ele><time>2017-9-17T12:46:26Z</time></trkpt>
<trkpt lat="48.468041" lon="2.658528"><ele></ele><time>2017-9-17T12:46:29Z</time></trkpt>
<trkpt lat="48.468171" lon="2.658541"><ele></ele><time>2017-9-17T12:46:32Z</time></trkpt>
<trkpt lat="48.468311" lon="2.658563"><ele></ele><time>2017-9-17T12:46:35Z</time></trkpt>
<trkpt lat="48.468408" lon="2.658562"><ele></ele><time>2017-9-17T12:46:38Z</time></trkpt>
<trkpt lat="48.468538" lon="2.6586"><ele></ele><time>2017-9-17T12:46:41Z</time></trkpt>
<trkpt lat="48.468633" lon="2.658619"><ele></ele><time>2017-9-17T12:46:44Z</time></trkpt>
<trkpt lat="48.468738" lon="2.658595"><ele></ele><time>2017-9-17T12:46:47Z</time></trkpt>
<trkpt lat="48.46884" lon="2.658593"><ele></ele><time>2017-9-17T12:46:50Z</time></trkpt>
<trkpt lat="48.468939" lon="2.658626"><ele></ele><time>2017-9-17T12:46:53Z</time></trkpt>
<trkpt lat="48.469082" lon="2.658643"><ele></ele><time>2017-9-17T12:46:56Z</time></trkpt>
<trkpt lat="48.469201" lon="2.658656"><ele></ele><time>2017-9-17T12:46:59Z</time></trkpt>
<trkpt lat="48.469339" lon="2.658683"><ele></ele><time>2017-9-17T12:47:2Z</time></trkpt>
<trkpt lat="48.469466" lon="2.658683"><ele></ele><time>2017-9-17T12:47:5Z</time></trkpt>
<trkpt lat="48.469583" lon="2.658695"><ele></ele><time>2017-9-17T12:47:8Z</time></trkpt>
<trkpt lat="48.469676" lon="2.658728"><ele></ele><time>2017-9-17T12:47:11Z</time></trkpt>
<trkpt lat="48.469811" lon="2.65873"><ele></ele><time>2017-9-17T12:47:14Z</time></trkpt>
<trkpt lat="48.469924" lon="2.658741"><ele></ele><time>2017-9-17T12:47:17Z</time></trkpt>
<trkpt lat="48.470045" lon="2.658733"><ele></ele><time>2017-9-17T12:47:20Z</time></trkpt>
<trkpt lat="48.470208" lon="2.658767"><ele></ele><time>2017-9-17T12:47:23Z</time></trkpt>
<trkpt lat="48.470352" lon="2.658804"><ele></ele><time>2017-9-17T12:47:26Z</time></trkpt>
<trkpt lat="48.470451" lon="2.658799"><ele></ele><time>2017-9-17T12:47:29Z</time></trkpt>
<trkpt lat="48.47056" lon="2.658789"><ele></ele><time>2017-9-17T12:47:32Z</time></trkpt>
<trkpt lat="48.470701" lon="2.658819"><ele></ele><time>2017-9-17T12:47:35Z</time></trkpt>
<trkpt lat="48.470837" lon="2.658835"><ele></ele><time>2017-9-17T12:47:38Z</time></trkpt>
<trkpt lat="48.470957" lon="2.658858"><ele></ele><time>2017-9-17T12:47:41Z</time></trkpt>
<trkpt lat="48.471072" lon="2.658827"><ele></ele><time>2017-9-17T12:47:44Z</time></trkpt>
<trkpt lat="48.471199" lon="2.658806"><ele></ele><time>2017-9-17T12:47:47Z</time></trkpt>
<trkpt lat="48.471302" lon="2.65874"><ele></ele><time>2017-9-17T12:47:50Z</time></trkpt>
<trkpt lat="48.471408" lon="2.658657"><ele></ele><time>2017-9-17T12:47:53Z</time></trkpt>
<trkpt lat="48.471507" lon="2.658548"><ele></ele><time>2017-9-17T12:47:56Z</time></trkpt>
<trkpt lat="48.471636" lon="2.658485"><ele></ele><time>2017-9-17T12:47:59Z</time></trkpt>
<trkpt lat="48.471729" lon="2.658388"><ele></ele><time>2017-9-17T12:48:2Z</time></trkpt>
<trkpt lat="48.471804" lon="2.65831"><ele></ele><time>2017-9-17T12:48:5Z</time></trkpt>
<trkpt lat="48.471896" lon="2.6582"><ele></ele><time>2017-9-17T12:48:8Z</time></trkpt>
<trkpt lat="48.47198" lon="2.658133"><ele></ele><time>2017-9-17T12:48:11Z</time></trkpt>
<trkpt lat="48.472109" lon="2.658042"><ele></ele><time>2017-9-17T12:48:14Z</time></trkpt>
<trkpt lat="48.472205" lon="2.65798"><ele></ele><time>2017-9-17T12:48:17Z</time></trkpt>
<trkpt lat="48.472297" lon="2.657889"><ele></ele><time>2017-9-17T12:48:20Z</time></trkpt>
<trkpt lat="48.472387" lon="2.657816"><ele></ele><time>2017-9-17T12:48:23Z</time></trkpt>
<trkpt lat="48.472483" lon="2.657719"><ele></ele><time>2017-9-17T12:48:26Z</time></trkpt>
<trkpt lat="48.472578" lon="2.657658"><ele></ele><time>2017-9-17T12:48:29Z</time></trkpt>
<trkpt lat="48.47267" lon="2.657568"><ele></ele><time>2017-9-17T12:48:32Z</time></trkpt>
<trkpt lat="48.472785" lon="2.65747"><ele></ele><time>2017-9-17T12:48:35Z</time></trkpt>
<trkpt lat="48.472894" lon="2.657398"><ele></ele><time>2017-9-17T12:48:38Z</time></trkpt>
<trkpt lat="48.472981" lon="2.657312"><ele></ele><time>2017-9-17T12:48:41Z</time></trkpt>
<trkpt lat="48.473081" lon="2.657182"><ele></ele><time>2017-9-17T12:48:44Z</time></trkpt>
<trkpt lat="48.473178" lon="2.657119"><ele></ele><time>2017-9-17T12:48:47Z</time></trkpt>
<trkpt lat="48.47326" lon="2.657065"><ele></ele><time>2017-9-17T12:48:50Z</time></trkpt>
<trkpt lat="48.473375" lon="2.656964"><ele></ele><time>2017-9-17T12:48:53Z</time></trkpt>
<trkpt lat="48.473456" lon="2.656881"><ele></ele><time>2017-9-17T12:48:56Z</time></trkpt>
<trkpt lat="48.473558" lon="2.65681"><ele></ele><time>2017-9-17T12:48:59Z</time></trkpt>
<trkpt lat="48.473668" lon="2.656751"><ele></ele><time>2017-9-17T12:49:2Z</time></trkpt>
<trkpt lat="48.473785" lon="2.656664"><ele></ele><time>2017-9-17T12:49:5Z</time></trkpt>
<trkpt lat="48.473883" lon="2.656599"><ele></ele><time>2017-9-17T12:49:8Z</time></trkpt>
<trkpt lat="48.473968" lon="2.65654"><ele></ele><time>2017-9-17T12:49:11Z</time></trkpt>
<trkpt lat="48.47408" lon="2.65646"><ele></ele><time>2017-9-17T12:49:14Z</time></trkpt>
<trkpt lat="48.474163" lon="2.65637"><ele></ele><time>2017-9-17T12:49:17Z</time></trkpt>
<trkpt lat="48.474247" lon="2.656311"><ele></ele><time>2017-9-17T12:49:20Z</time></trkpt>
<trkpt lat="48.474331" lon="2.656239"><ele></ele><time>2017-9-17T12:49:23Z</time></trkpt>
<trkpt lat="48.474411" lon="2.656177"><ele></ele><time>2017-9-17T12:49:26Z</time></trkpt>
<trkpt lat="48.474488" lon="2.656089"><ele></ele><time>2017-9-17T12:49:29Z</time></trkpt>
<trkpt lat="48.474614" lon="2.656027"><ele></ele><time>2017-9-17T12:49:32Z</time></trkpt>
<trkpt lat="48.47468" lon="2.655898"><ele></ele><time>2017-9-17T12:49:35Z</time></trkpt>
<trkpt lat="48.47477" lon="2.655839"><ele></ele><time>2017-9-17T12:49:38Z</time></trkpt>
<trkpt lat="48.474839" lon="2.655752"><ele></ele><time>2017-9-17T12:49:41Z</time></trkpt>
<trkpt lat="48.474919" lon="2.655681"><ele></ele><time>2017-9-17T12:49:44Z</time></trkpt>
<trkpt lat="48.475017" lon="2.655571"><ele></ele><time>2017-9-17T12:49:47Z</time></trkpt>
<trkpt lat="48.475108" lon="2.655519"><ele></ele><time>2017-9-17T12:49:50Z</time></trkpt>
<trkpt lat="48.475218" lon="2.655433"><ele></ele><time>2017-9-17T12:49:53Z</time></trkpt>
<trkpt lat="48.475314" lon="2.655372"><ele></ele><time>2017-9-17T12:49:56Z</time></trkpt>
<trkpt lat="48.475418" lon="2.655301"><ele></ele><time>2017-9-17T12:49:59Z</time></trkpt>
<trkpt lat="48.475511" lon="2.655245"><ele></ele><time>2017-9-17T12:50:2Z</time></trkpt>
<trkpt lat="48.475606" lon="2.655142"><ele></ele><time>2017-9-17T12:50:5Z</time></trkpt>
<trkpt lat="48.475687" lon="2.65508"><ele></ele><time>2017-9-17T12:50:8Z</time></trkpt>
<trkpt lat="48.475765" lon="2.65501"><ele></ele><time>2017-9-17T12:50:11Z</time></trkpt>
<trkpt lat="48.475854" lon="2.654903"><ele></ele><time>2017-9-17T12:50:14Z</time></trkpt>
<trkpt lat="48.475946" lon="2.654829"><ele></ele><time>2017-9-17T12:50:17Z</time></trkpt>
<trkpt lat="48.476038" lon="2.654755"><ele></ele><time>2017-9-17T12:50:20Z</time></trkpt>
<trkpt lat="48.476133" lon="2.654739"><ele></ele><time>2017-9-17T12:50:23Z</time></trkpt>
<trkpt lat="48.476211" lon="2.654669"><ele></ele><time>2017-9-17T12:50:26Z</time></trkpt>
<trkpt lat="48.476335" lon="2.654545"><ele></ele><time>2017-9-17T12:50:29Z</time></trkpt>
<trkpt lat="48.476423" lon="2.654449"><ele></ele><time>2017-9-17T12:50:32Z</time></trkpt>
<trkpt lat="48.476503" lon="2.654372"><ele></ele><time>2017-9-17T12:50:35Z</time></trkpt>
<trkpt lat="48.476619" lon="2.654274"><ele></ele><time>2017-9-17T12:50:38Z</time></trkpt>
<trkpt lat="48.47671" lon="2.654187"><ele></ele><time>2017-9-17T12:50:41Z</time></trkpt>
<trkpt lat="48.476784" lon="2.654104"><ele></ele><time>2017-9-17T12:50:44Z</time></trkpt>
<trkpt lat="48.476856" lon="2.654005"><ele></ele><time>2017-9-17T12:50:47Z</time></trkpt>
<trkpt lat="48.476955" lon="2.653921"><ele></ele><time>2017-9-17T12:50:50Z</time></trkpt>
<trkpt lat="48.477036" lon="2.653854"><ele></ele><time>2017-9-17T12:50:53Z</time></trkpt>
<trkpt lat="48.477136" lon="2.653754"><ele></ele><time>2017-9-17T12:50:56Z</time></trkpt>
<trkpt lat="48.477245" lon="2.653658"><ele></ele><time>2017-9-17T12:50:59Z</time></trkpt>
<trkpt lat="48.47732" lon="2.653572"><ele></ele><time>2017-9-17T12:51:2Z</time></trkpt>
<trkpt lat="48.477434" lon="2.653471"><ele></ele><time>2017-9-17T12:51:5Z</time></trkpt>
<trkpt lat="48.477521" lon="2.653401"><ele></ele><time>2017-9-17T12:51:8Z</time></trkpt>
<trkpt lat="48.477624" lon="2.653314"><ele></ele><time>2017-9-17T12:51:11Z</time></trkpt>
<trkpt lat="48.477721" lon="2.653225"><ele></ele><time>2017-9-17T12:51:14Z</time></trkpt>
<trkpt lat="48.477815" lon="2.653153"><ele></ele><time>2017-9-17T12:51:17Z</time></trkpt>
<trkpt lat="48.477904" lon="2.653094"><ele></ele><time>2017-9-17T12:51:20Z</time></trkpt>
<trkpt lat="48.478012" lon="2.653048"><ele></ele><time>2017-9-17T12:51:23Z</time></trkpt>
<trkpt lat="48.478102" lon="2.65298"><ele></ele><time>2017-9-17T12:51:26Z</time></trkpt>
<trkpt lat="48.478196" lon="2.652888"><ele></ele><time>2017-9-17T12:51:29Z</time></trkpt>
<trkpt lat="48.47831" lon="2.652783"><ele></ele><time>2017-9-17T12:51:32Z</time></trkpt>
<trkpt lat="48.4784" lon="2.652707"><ele></ele><time>2017-9-17T12:51:35Z</time></trkpt>
<trkpt lat="48.478495" lon="2.652628"><ele></ele><time>2017-9-17T12:51:38Z</time></trkpt>
<trkpt lat="48.478592" lon="2.652558"><ele></ele><time>2017-9-17T12:51:41Z</time></trkpt>
<trkpt lat="48.478695" lon="2.652481"><ele></ele><time>2017-9-17T12:51:44Z</time></trkpt>
<trkpt lat="48.478772" lon="2.652407"><ele></ele><time>2017-9-17T12:51:47Z</time></trkpt>
<trkpt lat="48.478842" lon="2.652316"><ele></ele><time>2017-9-17T12:51:50Z</time></trkpt>
<trkpt lat="48.478947" lon="2.652243"><ele></ele><time>2017-9-17T12:51:53Z</time></trkpt>
<trkpt lat="48.479039" lon="2.652203"><ele></ele><time>2017-9-17T12:51:56Z</time></trkpt>
<trkpt lat="48.479132" lon="2.652144"><ele></ele><time>2017-9-17T12:51:59Z</time></trkpt>
<trkpt lat="48.479229" lon="2.652036"><ele></ele><time>2017-9-17T12:52:2Z</time></trkpt>
<trkpt lat="48.479333" lon="2.651987"><ele></ele><time>2017-9-17T12:52:5Z</time></trkpt>
<trkpt lat="48.479442" lon="2.651905"><ele></ele><time>2017-9-17T12:52:8Z</time></trkpt>
<trkpt lat="48.479523" lon="2.651845"><ele></ele><time>2017-9-17T12:52:11Z</time></trkpt>
<trkpt lat="48.479603" lon="2.651718"><ele></ele><time>2017-9-17T12:52:14Z</time></trkpt>
<trkpt lat="48.479685" lon="2.651627"><ele></ele><time>2017-9-17T12:52:17Z</time></trkpt>
<trkpt lat="48.479784" lon="2.651556"><ele></ele><time>2017-9-17T12:52:20Z</time></trkpt>
<trkpt lat="48.479874" lon="2.651463"><ele></ele><time>2017-9-17T12:52:23Z</time></trkpt>
<trkpt lat="48.479949" lon="2.651382"><ele></ele><time>2017-9-17T12:52:26Z</time></trkpt>
<trkpt lat="48.480056" lon="2.651302"><ele></ele><time>2017-9-17T12:52:29Z</time></trkpt>
<trkpt lat="48.480139" lon="2.651214"><ele></ele><time>2017-9-17T12:52:32Z</time></trkpt>
<trkpt lat="48.480245" lon="2.651138"><ele></ele><time>2017-9-17T12:52:35Z</time></trkpt>
<trkpt lat="48.480339" lon="2.651049"><ele></ele><time>2017-9-17T12:52:38Z</time></trkpt>
<trkpt lat="48.480421" lon="2.65095"><ele></ele><time>2017-9-17T12:52:41Z</time></trkpt>
<trkpt lat="48.480502" lon="2.650852"><ele></ele><time>2017-9-17T12:52:44Z</time></trkpt>
<trkpt lat="48.480606" lon="2.650804"><ele></ele><time>2017-9-17T12:52:47Z</time></trkpt>
<trkpt lat="48.480701" lon="2.650744"><ele></ele><time>2017-9-17T12:52:50Z</time></trkpt>
<trkpt lat="48.480789" lon="2.650645"><ele></ele><time>2017-9-17T12:52:53Z</time></trkpt>
<trkpt lat="48.480877" lon="2.650568"><ele></ele><time>2017-9-17T12:52:56Z</time></trkpt>
<trkpt lat="48.480978" lon="2.65049"><ele></ele><time>2017-9-17T12:52:59Z</time></trkpt>
<trkpt lat="48.481081" lon="2.650421"><ele></ele><time>2017-9-17T12:53:2Z</time></trkpt>
<trkpt lat="48.481178" lon="2.650349"><ele></ele><time>2017-9-17T12:53:5Z</time></trkpt>
<trkpt lat="48.48127" lon="2.650276"><ele></ele><time>2017-9-17T12:53:8Z</time></trkpt>
<trkpt lat="48.481353" lon="2.650219"><ele></ele><time>2017-9-17T12:53:11Z</time></trkpt>
<trkpt lat="48.481425" lon="2.65013"><ele></ele><time>2017-9-17T12:53:14Z</time></trkpt>
<trkpt lat="48.481511" lon="2.650086"><ele></ele><time>2017-9-17T12:53:17Z</time></trkpt>
<trkpt lat="48.481598" lon="2.650019"><ele></ele><time>2017-9-17T12:53:20Z</time></trkpt>
<trkpt lat="48.481701" lon="2.649937"><ele></ele><time>2017-9-17T12:53:23Z</time></trkpt>
<trkpt lat="48.481785" lon="2.649873"><ele></ele><time>2017-9-17T12:53:26Z</time></trkpt>
<trkpt lat="48.481878" lon="2.649814"><ele></ele><time>2017-9-17T12:53:29Z</time></trkpt>
<trkpt lat="48.481952" lon="2.649724"><ele></ele><time>2017-9-17T12:53:32Z</time></trkpt>
<trkpt lat="48.48206" lon="2.649662"><ele></ele><time>2017-9-17T12:53:35Z</time></trkpt>
<trkpt lat="48.482151" lon="2.649575"><ele></ele><time>2017-9-17T12:53:38Z</time></trkpt>
<trkpt lat="48.482241" lon="2.649487"><ele></ele><time>2017-9-17T12:53:41Z</time></trkpt>
<trkpt lat="48.482334" lon="2.649421"><ele></ele><time>2017-9-17T12:53:44Z</time></trkpt>
<trkpt lat="48.482441" lon="2.649336"><ele></ele><time>2017-9-17T12:53:47Z</time></trkpt>
<trkpt lat="48.482528" lon="2.649256"><ele></ele><time>2017-9-17T12:53:50Z</time></trkpt>
<trkpt lat="48.482615" lon="2.649197"><ele></ele><time>2017-9-17T12:53:53Z</time></trkpt>
<trkpt lat="48.482712" lon="2.649099"><ele></ele><time>2017-9-17T12:53:56Z</time></trkpt>
<trkpt lat="48.482796" lon="2.649034"><ele></ele><time>2017-9-17T12:53:59Z</time></trkpt>
<trkpt lat="48.482895" lon="2.648939"><ele></ele><time>2017-9-17T12:54:2Z</time></trkpt>
<trkpt lat="48.482984" lon="2.648849"><ele></ele><time>2017-9-17T12:54:5Z</time></trkpt>
<trkpt lat="48.483067" lon="2.648766"><ele></ele><time>2017-9-17T12:54:8Z</time></trkpt>
<trkpt lat="48.483151" lon="2.648655"><ele></ele><time>2017-9-17T12:54:11Z</time></trkpt>
<trkpt lat="48.483255" lon="2.648572"><ele></ele><time>2017-9-17T12:54:14Z</time></trkpt>
<trkpt lat="48.483345" lon="2.648475"><ele></ele><time>2017-9-17T12:54:17Z</time></trkpt>
<trkpt lat="48.483448" lon="2.648397"><ele></ele><time>2017-9-17T12:54:20Z</time></trkpt>
<trkpt lat="48.483543" lon="2.648328"><ele></ele><time>2017-9-17T12:54:23Z</time></trkpt>
<trkpt lat="48.48363" lon="2.648238"><ele></ele><time>2017-9-17T12:54:26Z</time></trkpt>
<trkpt lat="48.483722" lon="2.648159"><ele></ele><time>2017-9-17T12:54:29Z</time></trkpt>
<trkpt lat="48.48382" lon="2.648065"><ele></ele><time>2017-9-17T12:54:32Z</time></trkpt>
<trkpt lat="48.483928" lon="2.647972"><ele></ele><time>2017-9-17T12:54:35Z</time></trkpt>
<trkpt lat="48.484029" lon="2.647888"><ele></ele><time>2017-9-17T12:54:38Z</time></trkpt>
<trkpt lat="48.484123" lon="2.647812"><ele></ele><time>2017-9-17T12:54:41Z</time></trkpt>
<trkpt lat="48.484216" lon="2.647748"><ele></ele><time>2017-9-17T12:54:44Z</time></trkpt>
<trkpt lat="48.484326" lon="2.647665"><ele></ele><time>2017-9-17T12:54:47Z</time></trkpt>
<trkpt lat="48.484428" lon="2.647581"><ele></ele><time>2017-9-17T12:54:50Z</time></trkpt>
<trkpt lat="48.484541" lon="2.64749"><ele></ele><time>2017-9-17T12:54:53Z</time></trkpt>
<trkpt lat="48.484629" lon="2.647427"><ele></ele><time>2017-9-17T12:54:56Z</time></trkpt>
<trkpt lat="48.484713" lon="2.647362"><ele></ele><time>2017-9-17T12:54:59Z</time></trkpt>
<trkpt lat="48.484805" lon="2.647292"><ele></ele><time>2017-9-17T12:55:2Z</time></trkpt>
<trkpt lat="48.48489" lon="2.647206"><ele></ele><time>2017-9-17T12:55:5Z</time></trkpt>
<trkpt lat="48.484961" lon="2.647116"><ele></ele><time>2017-9-17T12:55:8Z</time></trkpt>
<trkpt lat="48.48507" lon="2.64702"><ele></ele><time>2017-9-17T12:55:11Z</time></trkpt>
<trkpt lat="48.485181" lon="2.646931"><ele></ele><time>2017-9-17T12:55:14Z</time></trkpt>
<trkpt lat="48.485303" lon="2.646855"><ele></ele><time>2017-9-17T12:55:17Z</time></trkpt>
<trkpt lat="48.48542" lon="2.646762"><ele></ele><time>2017-9-17T12:55:20Z</time></trkpt>
<trkpt lat="48.485529" lon="2.646667"><ele></ele><time>2017-9-17T12:55:23Z</time></trkpt>
<trkpt lat="48.48565" lon="2.646542"><ele></ele><time>2017-9-17T12:55:26Z</time></trkpt>
<trkpt lat="48.485772" lon="2.646449"><ele></ele><time>2017-9-17T12:55:29Z</time></trkpt>
<trkpt lat="48.485881" lon="2.646337"><ele></ele><time>2017-9-17T12:55:32Z</time></trkpt>
<trkpt lat="48.486015" lon="2.646216"><ele></ele><time>2017-9-17T12:55:35Z</time></trkpt>
<trkpt lat="48.486143" lon="2.646109"><ele></ele><time>2017-9-17T12:55:38Z</time></trkpt>
<trkpt lat="48.486254" lon="2.646026"><ele></ele><time>2017-9-17T12:55:41Z</time></trkpt>
<trkpt lat="48.48637" lon="2.645924"><ele></ele><time>2017-9-17T12:55:44Z</time></trkpt>
<trkpt lat="48.486467" lon="2.645832"><ele></ele><time>2017-9-17T12:55:47Z</time></trkpt>
<trkpt lat="48.486577" lon="2.645742"><ele></ele><time>2017-9-17T12:55:50Z</time></trkpt>
<trkpt lat="48.486665" lon="2.645687"><ele></ele><time>2017-9-17T12:55:53Z</time></trkpt>
<trkpt lat="48.48678" lon="2.645584"><ele></ele><time>2017-9-17T12:55:56Z</time></trkpt>
<trkpt lat="48.486872" lon="2.645537"><ele></ele><time>2017-9-17T12:55:59Z</time></trkpt>
<trkpt lat="48.486933" lon="2.645417"><ele></ele><time>2017-9-17T12:56:2Z</time></trkpt>
<trkpt lat="48.487027" lon="2.645344"><ele></ele><time>2017-9-17T12:56:5Z</time></trkpt>
<trkpt lat="48.487124" lon="2.645264"><ele></ele><time>2017-9-17T12:56:8Z</time></trkpt>
<trkpt lat="48.487213" lon="2.645187"><ele></ele><time>2017-9-17T12:56:11Z</time></trkpt>
<trkpt lat="48.487311" lon="2.645098"><ele></ele><time>2017-9-17T12:56:14Z</time></trkpt>
<trkpt lat="48.487401" lon="2.644982"><ele></ele><time>2017-9-17T12:56:17Z</time></trkpt>
<trkpt lat="48.487508" lon="2.644912"><ele></ele><time>2017-9-17T12:56:20Z</time></trkpt>
<trkpt lat="48.487596" lon="2.644794"><ele></ele><time>2017-9-17T12:56:23Z</time></trkpt>
<trkpt lat="48.487692" lon="2.644764"><ele></ele><time>2017-9-17T12:56:26Z</time></trkpt>
<trkpt lat="48.487782" lon="2.644694"><ele></ele><time>2017-9-17T12:56:29Z</time></trkpt>
<trkpt lat="48.487878" lon="2.64464"><ele></ele><time>2017-9-17T12:56:32Z</time></trkpt>
<trkpt lat="48.487957" lon="2.644544"><ele></ele><time>2017-9-17T12:56:35Z</time></trkpt>
<trkpt lat="48.48804" lon="2.64446"><ele></ele><time>2017-9-17T12:56:38Z</time></trkpt>
<trkpt lat="48.488131" lon="2.644388"><ele></ele><time>2017-9-17T12:56:41Z</time></trkpt>
<trkpt lat="48.488199" lon="2.6443"><ele></ele><time>2017-9-17T12:56:44Z</time></trkpt>
<trkpt lat="48.48833" lon="2.644206"><ele></ele><time>2017-9-17T12:56:47Z</time></trkpt>
<trkpt lat="48.488432" lon="2.644136"><ele></ele><time>2017-9-17T12:56:50Z</time></trkpt>
<trkpt lat="48.488516" lon="2.644065"><ele></ele><time>2017-9-17T12:56:53Z</time></trkpt>
<trkpt lat="48.488608" lon="2.644022"><ele></ele><time>2017-9-17T12:56:56Z</time></trkpt>
<trkpt lat="48.488712" lon="2.643935"><ele></ele><time>2017-9-17T12:56:59Z</time></trkpt>
<trkpt lat="48.488853" lon="2.64388"><ele></ele><time>2017-9-17T12:57:2Z</time></trkpt>
<trkpt lat="48.488981" lon="2.643835"><ele></ele><time>2017-9-17T12:57:5Z</time></trkpt>
<trkpt lat="48.489117" lon="2.643787"><ele></ele><time>2017-9-17T12:57:8Z</time></trkpt>
<trkpt lat="48.489235" lon="2.643731"><ele></ele><time>2017-9-17T12:57:11Z</time></trkpt>
<trkpt lat="48.489326" lon="2.643692"><ele></ele><time>2017-9-17T12:57:14Z</time></trkpt>
<trkpt lat="48.489437" lon="2.64366"><ele></ele><time>2017-9-17T12:57:17Z</time></trkpt>
<trkpt lat="48.48957" lon="2.643592"><ele></ele><time>2017-9-17T12:57:20Z</time></trkpt>
<trkpt lat="48.489673" lon="2.643562"><ele></ele><time>2017-9-17T12:57:23Z</time></trkpt>
<trkpt lat="48.48978" lon="2.643452"><ele></ele><time>2017-9-17T12:57:26Z</time></trkpt>
<trkpt lat="48.489883" lon="2.64332"><ele></ele><time>2017-9-17T12:57:29Z</time></trkpt>
<trkpt lat="48.48998" lon="2.643185"><ele></ele><time>2017-9-17T12:57:32Z</time></trkpt>
<trkpt lat="48.490071" lon="2.643078"><ele></ele><time>2017-9-17T12:57:35Z</time></trkpt>
<trkpt lat="48.490152" lon="2.642973"><ele></ele><time>2017-9-17T12:57:38Z</time></trkpt>
<trkpt lat="48.490244" lon="2.642863"><ele></ele><time>2017-9-17T12:57:41Z</time></trkpt>
<trkpt lat="48.490324" lon="2.642745"><ele></ele><time>2017-9-17T12:57:44Z</time></trkpt>
<trkpt lat="48.490403" lon="2.64263"><ele></ele><time>2017-9-17T12:57:47Z</time></trkpt>
<trkpt lat="48.490499" lon="2.642525"><ele></ele><time>2017-9-17T12:57:50Z</time></trkpt>
<trkpt lat="48.490576" lon="2.642439"><ele></ele><time>2017-9-17T12:57:53Z</time></trkpt>
<trkpt lat="48.490659" lon="2.642363"><ele></ele><time>2017-9-17T12:57:56Z</time></trkpt>
<trkpt lat="48.490745" lon="2.642237"><ele></ele><time>2017-9-17T12:57:59Z</time></trkpt>
<trkpt lat="48.490838" lon="2.642099"><ele></ele><time>2017-9-17T12:58:2Z</time></trkpt>
<trkpt lat="48.49091" lon="2.642"><ele></ele><time>2017-9-17T12:58:5Z</time></trkpt>
<trkpt lat="48.490964" lon="2.641885"><ele></ele><time>2017-9-17T12:58:8Z</time></trkpt>
<trkpt lat="48.491059" lon="2.64175"><ele></ele><time>2017-9-17T12:58:11Z</time></trkpt>
<trkpt lat="48.491133" lon="2.641666"><ele></ele><time>2017-9-17T12:58:14Z</time></trkpt>
<trkpt lat="48.491205" lon="2.641574"><ele></ele><time>2017-9-17T12:58:17Z</time></trkpt>
<trkpt lat="48.491303" lon="2.641457"><ele></ele><time>2017-9-17T12:58:20Z</time></trkpt>
<trkpt lat="48.49138" lon="2.641386"><ele></ele><time>2017-9-17T12:58:23Z</time></trkpt>
<trkpt lat="48.491463" lon="2.641324"><ele></ele><time>2017-9-17T12:58:26Z</time></trkpt>
<trkpt lat="48.491509" lon="2.641202"><ele></ele><time>2017-9-17T12:58:29Z</time></trkpt>
<trkpt lat="48.491614" lon="2.641082"><ele></ele><time>2017-9-17T12:58:32Z</time></trkpt>
<trkpt lat="48.491685" lon="2.640934"><ele></ele><time>2017-9-17T12:58:35Z</time></trkpt>
<trkpt lat="48.491766" lon="2.640847"><ele></ele><time>2017-9-17T12:58:38Z</time></trkpt>
<trkpt lat="48.491847" lon="2.640764"><ele></ele><time>2017-9-17T12:58:41Z</time></trkpt>
<trkpt lat="48.491941" lon="2.640686"><ele></ele><time>2017-9-17T12:58:44Z</time></trkpt>
<trkpt lat="48.492062" lon="2.640583"><ele></ele><time>2017-9-17T12:58:47Z</time></trkpt>
<trkpt lat="48.492166" lon="2.640428"><ele></ele><time>2017-9-17T12:58:50Z</time></trkpt>
<trkpt lat="48.492233" lon="2.640328"><ele></ele><time>2017-9-17T12:58:53Z</time></trkpt>
<trkpt lat="48.492316" lon="2.64024"><ele></ele><time>2017-9-17T12:58:56Z</time></trkpt>
<trkpt lat="48.492403" lon="2.640127"><ele></ele><time>2017-9-17T12:58:59Z</time></trkpt>
<trkpt lat="48.492476" lon="2.640031"><ele></ele><time>2017-9-17T12:59:2Z</time></trkpt>
<trkpt lat="48.492556" lon="2.63995"><ele></ele><time>2017-9-17T12:59:5Z</time></trkpt>
<trkpt lat="48.4926" lon="2.63983"><ele></ele><time>2017-9-17T12:59:8Z</time></trkpt>
<trkpt lat="48.492688" lon="2.639692"><ele></ele><time>2017-9-17T12:59:11Z</time></trkpt>
<trkpt lat="48.492796" lon="2.63961"><ele></ele><time>2017-9-17T12:59:14Z</time></trkpt>
<trkpt lat="48.492877" lon="2.639551"><ele></ele><time>2017-9-17T12:59:17Z</time></trkpt>
<trkpt lat="48.493013" lon="2.63949"><ele></ele><time>2017-9-17T12:59:20Z</time></trkpt>
<trkpt lat="48.493103" lon="2.639448"><ele></ele><time>2017-9-17T12:59:23Z</time></trkpt>
<trkpt lat="48.493189" lon="2.639311"><ele></ele><time>2017-9-17T12:59:26Z</time></trkpt>
<trkpt lat="48.493293" lon="2.639215"><ele></ele><time>2017-9-17T12:59:29Z</time></trkpt>
<trkpt lat="48.49332" lon="2.63907"><ele></ele><time>2017-9-17T12:59:32Z</time></trkpt>
<trkpt lat="48.493398" lon="2.638965"><ele></ele><time>2017-9-17T12:59:35Z</time></trkpt>
<trkpt lat="48.493476" lon="2.638869"><ele></ele><time>2017-9-17T12:59:38Z</time></trkpt>
<trkpt lat="48.493539" lon="2.638758"><ele></ele><time>2017-9-17T12:59:41Z</time></trkpt>
<trkpt lat="48.493609" lon="2.638664"><ele></ele><time>2017-9-17T12:59:44Z</time></trkpt>
<trkpt lat="48.493685" lon="2.638568"><ele></ele><time>2017-9-17T12:59:47Z</time></trkpt>
<trkpt lat="48.493765" lon="2.638463"><ele></ele><time>2017-9-17T12:59:50Z</time></trkpt>
<trkpt lat="48.493836" lon="2.638349"><ele></ele><time>2017-9-17T12:59:53Z</time></trkpt>
<trkpt lat="48.493915" lon="2.638249"><ele></ele><time>2017-9-17T12:59:56Z</time></trkpt>
<trkpt lat="48.494002" lon="2.638133"><ele></ele><time>2017-9-17T12:59:59Z</time></trkpt>
<trkpt lat="48.494088" lon="2.63802"><ele></ele><time>2017-9-17T13:0:2Z</time></trkpt>
<trkpt lat="48.494173" lon="2.637911"><ele></ele><time>2017-9-17T13:0:5Z</time></trkpt>
<trkpt lat="48.494261" lon="2.63781"><ele></ele><time>2017-9-17T13:0:8Z</time></trkpt>
<trkpt lat="48.494346" lon="2.637684"><ele></ele><time>2017-9-17T13:0:11Z</time></trkpt>
<trkpt lat="48.494443" lon="2.637573"><ele></ele><time>2017-9-17T13:0:14Z</time></trkpt>
<trkpt lat="48.494537" lon="2.637466"><ele></ele><time>2017-9-17T13:0:17Z</time></trkpt>
<trkpt lat="48.494639" lon="2.637353"><ele></ele><time>2017-9-17T13:0:20Z</time></trkpt>
<trkpt lat="48.494739" lon="2.63725"><ele></ele><time>2017-9-17T13:0:23Z</time></trkpt>
<trkpt lat="48.494819" lon="2.637142"><ele></ele><time>2017-9-17T13:0:26Z</time></trkpt>
<trkpt lat="48.494906" lon="2.637035"><ele></ele><time>2017-9-17T13:0:29Z</time></trkpt>
<trkpt lat="48.494977" lon="2.636931"><ele></ele><time>2017-9-17T13:0:32Z</time></trkpt>
<trkpt lat="48.495059" lon="2.636842"><ele></ele><time>2017-9-17T13:0:35Z</time></trkpt>
<trkpt lat="48.495144" lon="2.63674"><ele></ele><time>2017-9-17T13:0:38Z</time></trkpt>
<trkpt lat="48.495233" lon="2.636618"><ele></ele><time>2017-9-17T13:0:41Z</time></trkpt>
<trkpt lat="48.495319" lon="2.636515"><ele></ele><time>2017-9-17T13:0:44Z</time></trkpt>
<trkpt lat="48.495405" lon="2.636409"><ele></ele><time>2017-9-17T13:0:47Z</time></trkpt>
<trkpt lat="48.495507" lon="2.636284"><ele></ele><time>2017-9-17T13:0:50Z</time></trkpt>
<trkpt lat="48.495601" lon="2.636182"><ele></ele><time>2017-9-17T13:0:53Z</time></trkpt>
<trkpt lat="48.49568" lon="2.636021"><ele></ele><time>2017-9-17T13:0:56Z</time></trkpt>
<trkpt lat="48.495773" lon="2.635922"><ele></ele><time>2017-9-17T13:0:59Z</time></trkpt>
<trkpt lat="48.495857" lon="2.635794"><ele></ele><time>2017-9-17T13:1:2Z</time></trkpt>
<trkpt lat="48.495959" lon="2.635678"><ele></ele><time>2017-9-17T13:1:5Z</time></trkpt>
<trkpt lat="48.496058" lon="2.635573"><ele></ele><time>2017-9-17T13:1:8Z</time></trkpt>
<trkpt lat="48.49615" lon="2.635475"><ele></ele><time>2017-9-17T13:1:11Z</time></trkpt>
<trkpt lat="48.496247" lon="2.635362"><ele></ele><time>2017-9-17T13:1:14Z</time></trkpt>
<trkpt lat="48.496375" lon="2.635254"><ele></ele><time>2017-9-17T13:1:17Z</time></trkpt>
<trkpt lat="48.49644" lon="2.635139"><ele></ele><time>2017-9-17T13:1:20Z</time></trkpt>
<trkpt lat="48.496517" lon="2.635054"><ele></ele><time>2017-9-17T13:1:23Z</time></trkpt>
</trkseg></trk></gpx>